<?xml version="1.0" encoding="UTF-8" standalone="no" ?>
<gpx xmlns="http://www.topografix.com/GPX/1/1" xmlns:xsi="http://www.w3.org/2001/XMLSchema-instance" xsi:schemaLocation="http://www.topografix.com/GPX/1/1 http://www.topografix.com/GPX/1/1/gpx.xsd" version="1.1" creator="VisuGPX - https://www.visugpx.com">
  <metadata>
    <name>2 - St Chély d\'Aubrac - Les Rajas</name>
    <desc><![CDATA[Aubrac 2013 - réalisé
]]></desc>
  </metadata>
  <trk>
    <name><![CDATA[22 juil. 2013 08:19:32]]></name>
    <cmt><![CDATA[22 juil. 2013 08:19:32]]></cmt>
    <trkseg>
      <trkpt lat="44.58859" lon="2.9219">
        <ele>864</ele>
        <time>2013-07-22T06:19:33Z</time>
      </trkpt>
      <trkpt lat="44.58869" lon="2.92215">
        <ele>852</ele>
        <time>2013-07-22T06:19:36Z</time>
      </trkpt>
      <trkpt lat="44.58874" lon="2.92225">
        <ele>841</ele>
        <time>2013-07-22T06:20:05Z</time>
      </trkpt>
      <trkpt lat="44.58865" lon="2.92229">
        <ele>823</ele>
        <time>2013-07-22T06:20:29Z</time>
      </trkpt>
      <trkpt lat="44.58862" lon="2.92244">
        <ele>813</ele>
        <time>2013-07-22T06:20:54Z</time>
      </trkpt>
      <trkpt lat="44.58862" lon="2.92264">
        <ele>809</ele>
        <time>2013-07-22T06:21:23Z</time>
      </trkpt>
      <trkpt lat="44.58865" lon="2.92276">
        <ele>810</ele>
        <time>2013-07-22T06:21:30Z</time>
      </trkpt>
      <trkpt lat="44.58865" lon="2.92292">
        <ele>811</ele>
        <time>2013-07-22T06:21:40Z</time>
      </trkpt>
      <trkpt lat="44.58869" lon="2.92305">
        <ele>808</ele>
        <time>2013-07-22T06:21:48Z</time>
      </trkpt>
      <trkpt lat="44.58875" lon="2.92316">
        <ele>805</ele>
        <time>2013-07-22T06:21:56Z</time>
      </trkpt>
      <trkpt lat="44.5888" lon="2.92327">
        <ele>801</ele>
        <time>2013-07-22T06:22:05Z</time>
      </trkpt>
      <trkpt lat="44.58886" lon="2.92339">
        <ele>800</ele>
        <time>2013-07-22T06:22:13Z</time>
      </trkpt>
      <trkpt lat="44.58891" lon="2.92353">
        <ele>800</ele>
        <time>2013-07-22T06:22:18Z</time>
      </trkpt>
      <trkpt lat="44.58897" lon="2.92366">
        <ele>804</ele>
        <time>2013-07-22T06:22:25Z</time>
      </trkpt>
      <trkpt lat="44.58904" lon="2.92374">
        <ele>806</ele>
        <time>2013-07-22T06:22:31Z</time>
      </trkpt>
      <trkpt lat="44.58907" lon="2.92387">
        <ele>810</ele>
        <time>2013-07-22T06:22:38Z</time>
      </trkpt>
      <trkpt lat="44.58906" lon="2.92401">
        <ele>818</ele>
        <time>2013-07-22T06:22:54Z</time>
      </trkpt>
      <trkpt lat="44.5891" lon="2.92405">
        <ele>819</ele>
        <time>2013-07-22T06:23:17Z</time>
      </trkpt>
      <trkpt lat="44.58911" lon="2.92407">
        <ele>814</ele>
        <time>2013-07-22T06:25:02Z</time>
      </trkpt>
      <trkpt lat="44.58916" lon="2.92414">
        <ele>816</ele>
        <time>2013-07-22T06:25:25Z</time>
      </trkpt>
      <trkpt lat="44.58908" lon="2.92423">
        <ele>815</ele>
        <time>2013-07-22T06:25:59Z</time>
      </trkpt>
      <trkpt lat="44.58914" lon="2.92438">
        <ele>817</ele>
        <time>2013-07-22T06:26:16Z</time>
      </trkpt>
      <trkpt lat="44.58916" lon="2.9245">
        <ele>820</ele>
        <time>2013-07-22T06:26:25Z</time>
      </trkpt>
      <trkpt lat="44.58922" lon="2.92462">
        <ele>826</ele>
        <time>2013-07-22T06:26:36Z</time>
      </trkpt>
      <trkpt lat="44.58927" lon="2.92474">
        <ele>827</ele>
        <time>2013-07-22T06:26:46Z</time>
      </trkpt>
      <trkpt lat="44.58934" lon="2.92482">
        <ele>830</ele>
        <time>2013-07-22T06:26:53Z</time>
      </trkpt>
      <trkpt lat="44.58942" lon="2.9249">
        <ele>831</ele>
        <time>2013-07-22T06:27:02Z</time>
      </trkpt>
      <trkpt lat="44.58947" lon="2.92502">
        <ele>830</ele>
        <time>2013-07-22T06:27:16Z</time>
      </trkpt>
      <trkpt lat="44.58954" lon="2.92513">
        <ele>828</ele>
        <time>2013-07-22T06:27:23Z</time>
      </trkpt>
      <trkpt lat="44.58957" lon="2.92527">
        <ele>825</ele>
        <time>2013-07-22T06:27:30Z</time>
      </trkpt>
      <trkpt lat="44.58957" lon="2.92544">
        <ele>823</ele>
        <time>2013-07-22T06:27:37Z</time>
      </trkpt>
      <trkpt lat="44.58954" lon="2.92558">
        <ele>822</ele>
        <time>2013-07-22T06:27:44Z</time>
      </trkpt>
      <trkpt lat="44.58952" lon="2.92571">
        <ele>821</ele>
        <time>2013-07-22T06:27:52Z</time>
      </trkpt>
      <trkpt lat="44.58954" lon="2.92585">
        <ele>821</ele>
        <time>2013-07-22T06:28:00Z</time>
      </trkpt>
      <trkpt lat="44.58956" lon="2.92598">
        <ele>822</ele>
        <time>2013-07-22T06:28:05Z</time>
      </trkpt>
      <trkpt lat="44.58958" lon="2.92612">
        <ele>826</ele>
        <time>2013-07-22T06:28:10Z</time>
      </trkpt>
      <trkpt lat="44.58961" lon="2.92625">
        <ele>829</ele>
        <time>2013-07-22T06:28:18Z</time>
      </trkpt>
      <trkpt lat="44.58962" lon="2.92641">
        <ele>828</ele>
        <time>2013-07-22T06:28:26Z</time>
      </trkpt>
      <trkpt lat="44.58965" lon="2.92654">
        <ele>825</ele>
        <time>2013-07-22T06:28:36Z</time>
      </trkpt>
      <trkpt lat="44.58968" lon="2.92672">
        <ele>825</ele>
        <time>2013-07-22T06:28:46Z</time>
      </trkpt>
      <trkpt lat="44.58965" lon="2.92686">
        <ele>829</ele>
        <time>2013-07-22T06:28:59Z</time>
      </trkpt>
      <trkpt lat="44.58973" lon="2.92694">
        <ele>830</ele>
        <time>2013-07-22T06:29:10Z</time>
      </trkpt>
      <trkpt lat="44.58978" lon="2.92709">
        <ele>824</ele>
        <time>2013-07-22T06:29:23Z</time>
      </trkpt>
      <trkpt lat="44.58981" lon="2.92722">
        <ele>823</ele>
        <time>2013-07-22T06:29:30Z</time>
      </trkpt>
      <trkpt lat="44.58983" lon="2.92736">
        <ele>821</ele>
        <time>2013-07-22T06:29:40Z</time>
      </trkpt>
      <trkpt lat="44.58979" lon="2.92748">
        <ele>822</ele>
        <time>2013-07-22T06:29:46Z</time>
      </trkpt>
      <trkpt lat="44.5898" lon="2.92762">
        <ele>821</ele>
        <time>2013-07-22T06:29:52Z</time>
      </trkpt>
      <trkpt lat="44.58988" lon="2.92774">
        <ele>821</ele>
        <time>2013-07-22T06:30:02Z</time>
      </trkpt>
      <trkpt lat="44.58993" lon="2.92785">
        <ele>822</ele>
        <time>2013-07-22T06:30:08Z</time>
      </trkpt>
      <trkpt lat="44.59" lon="2.92797">
        <ele>822</ele>
        <time>2013-07-22T06:30:19Z</time>
      </trkpt>
      <trkpt lat="44.58996" lon="2.92813">
        <ele>823</ele>
        <time>2013-07-22T06:30:27Z</time>
      </trkpt>
      <trkpt lat="44.59003" lon="2.92823">
        <ele>823</ele>
        <time>2013-07-22T06:30:35Z</time>
      </trkpt>
      <trkpt lat="44.59006" lon="2.92838">
        <ele>823</ele>
        <time>2013-07-22T06:30:44Z</time>
      </trkpt>
      <trkpt lat="44.59006" lon="2.92854">
        <ele>824</ele>
        <time>2013-07-22T06:30:51Z</time>
      </trkpt>
      <trkpt lat="44.59005" lon="2.92868">
        <ele>825</ele>
        <time>2013-07-22T06:30:57Z</time>
      </trkpt>
      <trkpt lat="44.59006" lon="2.92882">
        <ele>826</ele>
        <time>2013-07-22T06:31:05Z</time>
      </trkpt>
      <trkpt lat="44.59007" lon="2.92897">
        <ele>830</ele>
        <time>2013-07-22T06:31:12Z</time>
      </trkpt>
      <trkpt lat="44.59008" lon="2.92911">
        <ele>831</ele>
        <time>2013-07-22T06:31:14Z</time>
      </trkpt>
      <trkpt lat="44.59004" lon="2.92928">
        <ele>835</ele>
        <time>2013-07-22T06:31:21Z</time>
      </trkpt>
      <trkpt lat="44.58998" lon="2.92954">
        <ele>840</ele>
        <time>2013-07-22T06:31:38Z</time>
      </trkpt>
      <trkpt lat="44.58997" lon="2.92962">
        <ele>845</ele>
        <time>2013-07-22T06:31:52Z</time>
      </trkpt>
      <trkpt lat="44.58996" lon="2.92968">
        <ele>846</ele>
        <time>2013-07-22T06:32:03Z</time>
      </trkpt>
      <trkpt lat="44.5899" lon="2.9299">
        <ele>846</ele>
        <time>2013-07-22T06:32:12Z</time>
      </trkpt>
      <trkpt lat="44.58983" lon="2.93">
        <ele>848</ele>
        <time>2013-07-22T06:32:26Z</time>
      </trkpt>
      <trkpt lat="44.58972" lon="2.93021">
        <ele>846</ele>
        <time>2013-07-22T06:33:18Z</time>
      </trkpt>
      <trkpt lat="44.58973" lon="2.93028">
        <ele>854</ele>
        <time>2013-07-22T06:34:06Z</time>
      </trkpt>
      <trkpt lat="44.58969" lon="2.93022">
        <ele>857</ele>
        <time>2013-07-22T06:34:24Z</time>
      </trkpt>
      <trkpt lat="44.58969" lon="2.93013">
        <ele>859</ele>
        <time>2013-07-22T06:35:03Z</time>
      </trkpt>
      <trkpt lat="44.58976" lon="2.93012">
        <ele>858</ele>
        <time>2013-07-22T06:36:00Z</time>
      </trkpt>
      <trkpt lat="44.58977" lon="2.93034">
        <ele>857</ele>
        <time>2013-07-22T06:36:26Z</time>
      </trkpt>
      <trkpt lat="44.5898" lon="2.93047">
        <ele>856</ele>
        <time>2013-07-22T06:36:32Z</time>
      </trkpt>
      <trkpt lat="44.58991" lon="2.93072">
        <ele>854</ele>
        <time>2013-07-22T06:36:55Z</time>
      </trkpt>
      <trkpt lat="44.58995" lon="2.93086">
        <ele>853</ele>
        <time>2013-07-22T06:37:00Z</time>
      </trkpt>
      <trkpt lat="44.59001" lon="2.93097">
        <ele>851</ele>
        <time>2013-07-22T06:37:04Z</time>
      </trkpt>
      <trkpt lat="44.59004" lon="2.93115">
        <ele>852</ele>
        <time>2013-07-22T06:37:11Z</time>
      </trkpt>
      <trkpt lat="44.59003" lon="2.93132">
        <ele>856</ele>
        <time>2013-07-22T06:37:22Z</time>
      </trkpt>
      <trkpt lat="44.58996" lon="2.93142">
        <ele>856</ele>
        <time>2013-07-22T06:37:34Z</time>
      </trkpt>
      <trkpt lat="44.58995" lon="2.93164">
        <ele>854</ele>
        <time>2013-07-22T06:37:51Z</time>
      </trkpt>
      <trkpt lat="44.58992" lon="2.93179">
        <ele>854</ele>
        <time>2013-07-22T06:37:56Z</time>
      </trkpt>
      <trkpt lat="44.58994" lon="2.93193">
        <ele>856</ele>
        <time>2013-07-22T06:38:01Z</time>
      </trkpt>
      <trkpt lat="44.58996" lon="2.93206">
        <ele>857</ele>
        <time>2013-07-22T06:38:05Z</time>
      </trkpt>
      <trkpt lat="44.59003" lon="2.93217">
        <ele>859</ele>
        <time>2013-07-22T06:38:12Z</time>
      </trkpt>
      <trkpt lat="44.59003" lon="2.9323">
        <ele>860</ele>
        <time>2013-07-22T06:38:20Z</time>
      </trkpt>
      <trkpt lat="44.59007" lon="2.93247">
        <ele>867</ele>
        <time>2013-07-22T06:38:33Z</time>
      </trkpt>
      <trkpt lat="44.59015" lon="2.93255">
        <ele>868</ele>
        <time>2013-07-22T06:38:39Z</time>
      </trkpt>
      <trkpt lat="44.5902" lon="2.9327">
        <ele>870</ele>
        <time>2013-07-22T06:38:47Z</time>
      </trkpt>
      <trkpt lat="44.59026" lon="2.9328">
        <ele>871</ele>
        <time>2013-07-22T06:38:53Z</time>
      </trkpt>
      <trkpt lat="44.59031" lon="2.93292">
        <ele>873</ele>
        <time>2013-07-22T06:39:00Z</time>
      </trkpt>
      <trkpt lat="44.59034" lon="2.93309">
        <ele>876</ele>
        <time>2013-07-22T06:39:11Z</time>
      </trkpt>
      <trkpt lat="44.59037" lon="2.93327">
        <ele>876</ele>
        <time>2013-07-22T06:39:22Z</time>
      </trkpt>
      <trkpt lat="44.59051" lon="2.93345">
        <ele>875</ele>
        <time>2013-07-22T06:39:53Z</time>
      </trkpt>
      <trkpt lat="44.59049" lon="2.93362">
        <ele>872</ele>
        <time>2013-07-22T06:40:04Z</time>
      </trkpt>
      <trkpt lat="44.5903" lon="2.93371">
        <ele>873</ele>
        <time>2013-07-22T06:40:12Z</time>
      </trkpt>
      <trkpt lat="44.59024" lon="2.9339">
        <ele>889</ele>
        <time>2013-07-22T06:40:29Z</time>
      </trkpt>
      <trkpt lat="44.59012" lon="2.93403">
        <ele>893</ele>
        <time>2013-07-22T06:40:31Z</time>
      </trkpt>
      <trkpt lat="44.5901" lon="2.93409">
        <ele>899</ele>
        <time>2013-07-22T06:40:36Z</time>
      </trkpt>
      <trkpt lat="44.59011" lon="2.93425">
        <ele>904</ele>
        <time>2013-07-22T06:40:41Z</time>
      </trkpt>
      <trkpt lat="44.59009" lon="2.9344">
        <ele>907</ele>
        <time>2013-07-22T06:40:46Z</time>
      </trkpt>
      <trkpt lat="44.59008" lon="2.93449">
        <ele>909</ele>
        <time>2013-07-22T06:40:50Z</time>
      </trkpt>
      <trkpt lat="44.59006" lon="2.93456">
        <ele>910</ele>
        <time>2013-07-22T06:40:52Z</time>
      </trkpt>
      <trkpt lat="44.59003" lon="2.93462">
        <ele>910</ele>
        <time>2013-07-22T06:40:53Z</time>
      </trkpt>
      <trkpt lat="44.59002" lon="2.93469">
        <ele>911</ele>
        <time>2013-07-22T06:40:56Z</time>
      </trkpt>
      <trkpt lat="44.59005" lon="2.93481">
        <ele>912</ele>
        <time>2013-07-22T06:41:04Z</time>
      </trkpt>
      <trkpt lat="44.59011" lon="2.9349">
        <ele>911</ele>
        <time>2013-07-22T06:41:14Z</time>
      </trkpt>
      <trkpt lat="44.59017" lon="2.93502">
        <ele>908</ele>
        <time>2013-07-22T06:41:19Z</time>
      </trkpt>
      <trkpt lat="44.5902" lon="2.93516">
        <ele>912</ele>
        <time>2013-07-22T06:41:42Z</time>
      </trkpt>
      <trkpt lat="44.59025" lon="2.93529">
        <ele>917</ele>
        <time>2013-07-22T06:41:52Z</time>
      </trkpt>
      <trkpt lat="44.59026" lon="2.93537">
        <ele>920</ele>
        <time>2013-07-22T06:41:58Z</time>
      </trkpt>
      <trkpt lat="44.59025" lon="2.93543">
        <ele>922</ele>
        <time>2013-07-22T06:42:01Z</time>
      </trkpt>
      <trkpt lat="44.59025" lon="2.9355">
        <ele>923</ele>
        <time>2013-07-22T06:42:04Z</time>
      </trkpt>
      <trkpt lat="44.59026" lon="2.93562">
        <ele>925</ele>
        <time>2013-07-22T06:42:11Z</time>
      </trkpt>
      <trkpt lat="44.59027" lon="2.93569">
        <ele>925</ele>
        <time>2013-07-22T06:42:16Z</time>
      </trkpt>
      <trkpt lat="44.59035" lon="2.93597">
        <ele>905</ele>
        <time>2013-07-22T06:43:10Z</time>
      </trkpt>
      <trkpt lat="44.59032" lon="2.936">
        <ele>908</ele>
        <time>2013-07-22T06:44:01Z</time>
      </trkpt>
      <trkpt lat="44.59028" lon="2.93606">
        <ele>915</ele>
        <time>2013-07-22T06:44:09Z</time>
      </trkpt>
      <trkpt lat="44.59027" lon="2.93622">
        <ele>921</ele>
        <time>2013-07-22T06:44:18Z</time>
      </trkpt>
      <trkpt lat="44.59028" lon="2.93631">
        <ele>924</ele>
        <time>2013-07-22T06:44:24Z</time>
      </trkpt>
      <trkpt lat="44.59028" lon="2.93638">
        <ele>926</ele>
        <time>2013-07-22T06:44:30Z</time>
      </trkpt>
      <trkpt lat="44.59028" lon="2.93653">
        <ele>928</ele>
        <time>2013-07-22T06:44:37Z</time>
      </trkpt>
      <trkpt lat="44.5903" lon="2.93662">
        <ele>930</ele>
        <time>2013-07-22T06:44:42Z</time>
      </trkpt>
      <trkpt lat="44.59033" lon="2.93676">
        <ele>930</ele>
        <time>2013-07-22T06:44:50Z</time>
      </trkpt>
      <trkpt lat="44.59034" lon="2.93684">
        <ele>931</ele>
        <time>2013-07-22T06:44:55Z</time>
      </trkpt>
      <trkpt lat="44.59032" lon="2.93692">
        <ele>931</ele>
        <time>2013-07-22T06:45:00Z</time>
      </trkpt>
      <trkpt lat="44.59031" lon="2.93698">
        <ele>935</ele>
        <time>2013-07-22T06:45:05Z</time>
      </trkpt>
      <trkpt lat="44.59032" lon="2.93705">
        <ele>936</ele>
        <time>2013-07-22T06:45:09Z</time>
      </trkpt>
      <trkpt lat="44.59033" lon="2.93713">
        <ele>937</ele>
        <time>2013-07-22T06:45:14Z</time>
      </trkpt>
      <trkpt lat="44.59032" lon="2.93723">
        <ele>937</ele>
        <time>2013-07-22T06:45:18Z</time>
      </trkpt>
      <trkpt lat="44.59033" lon="2.93731">
        <ele>938</ele>
        <time>2013-07-22T06:45:25Z</time>
      </trkpt>
      <trkpt lat="44.59037" lon="2.93736">
        <ele>938</ele>
        <time>2013-07-22T06:45:28Z</time>
      </trkpt>
      <trkpt lat="44.59039" lon="2.93743">
        <ele>937</ele>
        <time>2013-07-22T06:45:32Z</time>
      </trkpt>
      <trkpt lat="44.59041" lon="2.93756">
        <ele>944</ele>
        <time>2013-07-22T06:45:43Z</time>
      </trkpt>
      <trkpt lat="44.59042" lon="2.93764">
        <ele>945</ele>
        <time>2013-07-22T06:45:45Z</time>
      </trkpt>
      <trkpt lat="44.59044" lon="2.9377">
        <ele>944</ele>
        <time>2013-07-22T06:45:49Z</time>
      </trkpt>
      <trkpt lat="44.59044" lon="2.93776">
        <ele>942</ele>
        <time>2013-07-22T06:45:58Z</time>
      </trkpt>
      <trkpt lat="44.59043" lon="2.93779">
        <ele>942</ele>
        <time>2013-07-22T06:46:04Z</time>
      </trkpt>
      <trkpt lat="44.59041" lon="2.93784">
        <ele>942</ele>
        <time>2013-07-22T06:46:07Z</time>
      </trkpt>
      <trkpt lat="44.59038" lon="2.93791">
        <ele>942</ele>
        <time>2013-07-22T06:46:11Z</time>
      </trkpt>
      <trkpt lat="44.59036" lon="2.93797">
        <ele>943</ele>
        <time>2013-07-22T06:46:17Z</time>
      </trkpt>
      <trkpt lat="44.59035" lon="2.93804">
        <ele>944</ele>
        <time>2013-07-22T06:46:20Z</time>
      </trkpt>
      <trkpt lat="44.59034" lon="2.93811">
        <ele>946</ele>
        <time>2013-07-22T06:46:24Z</time>
      </trkpt>
      <trkpt lat="44.59035" lon="2.93817">
        <ele>948</ele>
        <time>2013-07-22T06:46:27Z</time>
      </trkpt>
      <trkpt lat="44.59034" lon="2.93824">
        <ele>950</ele>
        <time>2013-07-22T06:46:33Z</time>
      </trkpt>
      <trkpt lat="44.59033" lon="2.9383">
        <ele>951</ele>
        <time>2013-07-22T06:46:37Z</time>
      </trkpt>
      <trkpt lat="44.59031" lon="2.93836">
        <ele>952</ele>
        <time>2013-07-22T06:46:40Z</time>
      </trkpt>
      <trkpt lat="44.59029" lon="2.93843">
        <ele>953</ele>
        <time>2013-07-22T06:46:45Z</time>
      </trkpt>
      <trkpt lat="44.59029" lon="2.93851">
        <ele>954</ele>
        <time>2013-07-22T06:46:49Z</time>
      </trkpt>
      <trkpt lat="44.59029" lon="2.93858">
        <ele>955</ele>
        <time>2013-07-22T06:46:55Z</time>
      </trkpt>
      <trkpt lat="44.59029" lon="2.93865">
        <ele>954</ele>
        <time>2013-07-22T06:47:01Z</time>
      </trkpt>
      <trkpt lat="44.59029" lon="2.93873">
        <ele>955</ele>
        <time>2013-07-22T06:47:06Z</time>
      </trkpt>
      <trkpt lat="44.59029" lon="2.9388">
        <ele>955</ele>
        <time>2013-07-22T06:47:10Z</time>
      </trkpt>
      <trkpt lat="44.59031" lon="2.93887">
        <ele>956</ele>
        <time>2013-07-22T06:47:15Z</time>
      </trkpt>
      <trkpt lat="44.59031" lon="2.93894">
        <ele>956</ele>
        <time>2013-07-22T06:47:22Z</time>
      </trkpt>
      <trkpt lat="44.59031" lon="2.93901">
        <ele>958</ele>
        <time>2013-07-22T06:47:28Z</time>
      </trkpt>
      <trkpt lat="44.5903" lon="2.93908">
        <ele>960</ele>
        <time>2013-07-22T06:47:33Z</time>
      </trkpt>
      <trkpt lat="44.59031" lon="2.93916">
        <ele>962</ele>
        <time>2013-07-22T06:47:41Z</time>
      </trkpt>
      <trkpt lat="44.59028" lon="2.93923">
        <ele>964</ele>
        <time>2013-07-22T06:47:47Z</time>
      </trkpt>
      <trkpt lat="44.59026" lon="2.93931">
        <ele>964</ele>
        <time>2013-07-22T06:47:54Z</time>
      </trkpt>
      <trkpt lat="44.59024" lon="2.93937">
        <ele>965</ele>
        <time>2013-07-22T06:47:59Z</time>
      </trkpt>
      <trkpt lat="44.59024" lon="2.93954">
        <ele>965</ele>
        <time>2013-07-22T06:48:02Z</time>
      </trkpt>
      <trkpt lat="44.59028" lon="2.93966">
        <ele>962</ele>
        <time>2013-07-22T06:48:09Z</time>
      </trkpt>
      <trkpt lat="44.59028" lon="2.9398">
        <ele>960</ele>
        <time>2013-07-22T06:48:18Z</time>
      </trkpt>
      <trkpt lat="44.59031" lon="2.94001">
        <ele>956</ele>
        <time>2013-07-22T06:48:43Z</time>
      </trkpt>
      <trkpt lat="44.59026" lon="2.94014">
        <ele>958</ele>
        <time>2013-07-22T06:48:47Z</time>
      </trkpt>
      <trkpt lat="44.59021" lon="2.9403">
        <ele>963</ele>
        <time>2013-07-22T06:48:57Z</time>
      </trkpt>
      <trkpt lat="44.59018" lon="2.94043">
        <ele>963</ele>
        <time>2013-07-22T06:49:12Z</time>
      </trkpt>
      <trkpt lat="44.59014" lon="2.94055">
        <ele>963</ele>
        <time>2013-07-22T06:49:17Z</time>
      </trkpt>
      <trkpt lat="44.59005" lon="2.94063">
        <ele>964</ele>
        <time>2013-07-22T06:49:21Z</time>
      </trkpt>
      <trkpt lat="44.58983" lon="2.94086">
        <ele>979</ele>
        <time>2013-07-22T06:49:48Z</time>
      </trkpt>
      <trkpt lat="44.58984" lon="2.94102">
        <ele>985</ele>
        <time>2013-07-22T06:49:58Z</time>
      </trkpt>
      <trkpt lat="44.58975" lon="2.94114">
        <ele>993</ele>
        <time>2013-07-22T06:50:10Z</time>
      </trkpt>
      <trkpt lat="44.58969" lon="2.94124">
        <ele>994</ele>
        <time>2013-07-22T06:50:16Z</time>
      </trkpt>
      <trkpt lat="44.58963" lon="2.94134">
        <ele>996</ele>
        <time>2013-07-22T06:50:25Z</time>
      </trkpt>
      <trkpt lat="44.58959" lon="2.94146">
        <ele>997</ele>
        <time>2013-07-22T06:50:36Z</time>
      </trkpt>
      <trkpt lat="44.58959" lon="2.94163">
        <ele>1000</ele>
        <time>2013-07-22T06:50:49Z</time>
      </trkpt>
      <trkpt lat="44.58955" lon="2.94169">
        <ele>1002</ele>
        <time>2013-07-22T06:50:53Z</time>
      </trkpt>
      <trkpt lat="44.58949" lon="2.94182">
        <ele>1002</ele>
        <time>2013-07-22T06:50:59Z</time>
      </trkpt>
      <trkpt lat="44.58945" lon="2.94187">
        <ele>1003</ele>
        <time>2013-07-22T06:51:02Z</time>
      </trkpt>
      <trkpt lat="44.58943" lon="2.94192">
        <ele>1003</ele>
        <time>2013-07-22T06:51:05Z</time>
      </trkpt>
      <trkpt lat="44.58938" lon="2.94203">
        <ele>1004</ele>
        <time>2013-07-22T06:51:17Z</time>
      </trkpt>
      <trkpt lat="44.58937" lon="2.94213">
        <ele>1005</ele>
        <time>2013-07-22T06:51:27Z</time>
      </trkpt>
      <trkpt lat="44.58932" lon="2.94223">
        <ele>1008</ele>
        <time>2013-07-22T06:51:44Z</time>
      </trkpt>
      <trkpt lat="44.58932" lon="2.9423">
        <ele>1012</ele>
        <time>2013-07-22T06:52:01Z</time>
      </trkpt>
      <trkpt lat="44.58929" lon="2.94242">
        <ele>1013</ele>
        <time>2013-07-22T06:52:07Z</time>
      </trkpt>
      <trkpt lat="44.58929" lon="2.9425">
        <ele>1014</ele>
        <time>2013-07-22T06:52:15Z</time>
      </trkpt>
      <trkpt lat="44.58927" lon="2.94257">
        <ele>1015</ele>
        <time>2013-07-22T06:52:21Z</time>
      </trkpt>
      <trkpt lat="44.58924" lon="2.94268">
        <ele>1015</ele>
        <time>2013-07-22T06:52:27Z</time>
      </trkpt>
      <trkpt lat="44.58921" lon="2.94281">
        <ele>1017</ele>
        <time>2013-07-22T06:52:33Z</time>
      </trkpt>
      <trkpt lat="44.5892" lon="2.94287">
        <ele>1019</ele>
        <time>2013-07-22T06:52:37Z</time>
      </trkpt>
      <trkpt lat="44.5892" lon="2.94294">
        <ele>1020</ele>
        <time>2013-07-22T06:52:42Z</time>
      </trkpt>
      <trkpt lat="44.58923" lon="2.94307">
        <ele>1025</ele>
        <time>2013-07-22T06:52:54Z</time>
      </trkpt>
      <trkpt lat="44.5892" lon="2.94322">
        <ele>1025</ele>
        <time>2013-07-22T06:53:01Z</time>
      </trkpt>
      <trkpt lat="44.5892" lon="2.9433">
        <ele>1026</ele>
        <time>2013-07-22T06:53:08Z</time>
      </trkpt>
      <trkpt lat="44.58918" lon="2.94339">
        <ele>1027</ele>
        <time>2013-07-22T06:53:12Z</time>
      </trkpt>
      <trkpt lat="44.58915" lon="2.94352">
        <ele>1029</ele>
        <time>2013-07-22T06:53:18Z</time>
      </trkpt>
      <trkpt lat="44.58912" lon="2.94362">
        <ele>1030</ele>
        <time>2013-07-22T06:53:22Z</time>
      </trkpt>
      <trkpt lat="44.58909" lon="2.94368">
        <ele>1032</ele>
        <time>2013-07-22T06:53:30Z</time>
      </trkpt>
      <trkpt lat="44.58908" lon="2.94376">
        <ele>1032</ele>
        <time>2013-07-22T06:53:40Z</time>
      </trkpt>
      <trkpt lat="44.58906" lon="2.94389">
        <ele>1034</ele>
        <time>2013-07-22T06:53:49Z</time>
      </trkpt>
      <trkpt lat="44.58906" lon="2.94396">
        <ele>1029</ele>
        <time>2013-07-22T06:54:32Z</time>
      </trkpt>
      <trkpt lat="44.58907" lon="2.94409">
        <ele>1032</ele>
        <time>2013-07-22T06:54:54Z</time>
      </trkpt>
      <trkpt lat="44.5891" lon="2.94414">
        <ele>1033</ele>
        <time>2013-07-22T06:55:00Z</time>
      </trkpt>
      <trkpt lat="44.58913" lon="2.94419">
        <ele>1032</ele>
        <time>2013-07-22T06:55:03Z</time>
      </trkpt>
      <trkpt lat="44.58915" lon="2.94426">
        <ele>1032</ele>
        <time>2013-07-22T06:55:07Z</time>
      </trkpt>
      <trkpt lat="44.58918" lon="2.94431">
        <ele>1031</ele>
        <time>2013-07-22T06:55:11Z</time>
      </trkpt>
      <trkpt lat="44.5892" lon="2.94439">
        <ele>1030</ele>
        <time>2013-07-22T06:55:16Z</time>
      </trkpt>
      <trkpt lat="44.58921" lon="2.94445">
        <ele>1029</ele>
        <time>2013-07-22T06:55:20Z</time>
      </trkpt>
      <trkpt lat="44.58923" lon="2.94451">
        <ele>1029</ele>
        <time>2013-07-22T06:55:23Z</time>
      </trkpt>
      <trkpt lat="44.58924" lon="2.94458">
        <ele>1030</ele>
        <time>2013-07-22T06:55:27Z</time>
      </trkpt>
      <trkpt lat="44.58925" lon="2.94465">
        <ele>1031</ele>
        <time>2013-07-22T06:55:32Z</time>
      </trkpt>
      <trkpt lat="44.58926" lon="2.94472">
        <ele>1031</ele>
        <time>2013-07-22T06:55:35Z</time>
      </trkpt>
      <trkpt lat="44.58927" lon="2.94479">
        <ele>1031</ele>
        <time>2013-07-22T06:55:39Z</time>
      </trkpt>
      <trkpt lat="44.58928" lon="2.94485">
        <ele>1031</ele>
        <time>2013-07-22T06:55:43Z</time>
      </trkpt>
      <trkpt lat="44.58928" lon="2.94492">
        <ele>1032</ele>
        <time>2013-07-22T06:55:48Z</time>
      </trkpt>
      <trkpt lat="44.58928" lon="2.94499">
        <ele>1033</ele>
        <time>2013-07-22T06:55:52Z</time>
      </trkpt>
      <trkpt lat="44.58928" lon="2.94506">
        <ele>1035</ele>
        <time>2013-07-22T06:56:00Z</time>
      </trkpt>
      <trkpt lat="44.58932" lon="2.94519">
        <ele>1035</ele>
        <time>2013-07-22T06:56:04Z</time>
      </trkpt>
      <trkpt lat="44.58936" lon="2.9453">
        <ele>1036</ele>
        <time>2013-07-22T06:56:15Z</time>
      </trkpt>
      <trkpt lat="44.58937" lon="2.94536">
        <ele>1035</ele>
        <time>2013-07-22T06:56:20Z</time>
      </trkpt>
      <trkpt lat="44.58942" lon="2.94549">
        <ele>1037</ele>
        <time>2013-07-22T06:56:27Z</time>
      </trkpt>
      <trkpt lat="44.58947" lon="2.94559">
        <ele>1041</ele>
        <time>2013-07-22T06:56:32Z</time>
      </trkpt>
      <trkpt lat="44.5895" lon="2.94565">
        <ele>1042</ele>
        <time>2013-07-22T06:56:36Z</time>
      </trkpt>
      <trkpt lat="44.58954" lon="2.94573">
        <ele>1044</ele>
        <time>2013-07-22T06:56:41Z</time>
      </trkpt>
      <trkpt lat="44.58957" lon="2.94579">
        <ele>1046</ele>
        <time>2013-07-22T06:56:46Z</time>
      </trkpt>
      <trkpt lat="44.58961" lon="2.94584">
        <ele>1049</ele>
        <time>2013-07-22T06:56:56Z</time>
      </trkpt>
      <trkpt lat="44.5897" lon="2.94599">
        <ele>1046</ele>
        <time>2013-07-22T06:57:05Z</time>
      </trkpt>
      <trkpt lat="44.58975" lon="2.94612">
        <ele>1030</ele>
        <time>2013-07-22T06:57:23Z</time>
      </trkpt>
      <trkpt lat="44.58976" lon="2.94617">
        <ele>1017</ele>
        <time>2013-07-22T06:57:35Z</time>
      </trkpt>
      <trkpt lat="44.58976" lon="2.94625">
        <ele>1016</ele>
        <time>2013-07-22T06:58:17Z</time>
      </trkpt>
      <trkpt lat="44.58988" lon="2.94637">
        <ele>1028</ele>
        <time>2013-07-22T06:58:50Z</time>
      </trkpt>
      <trkpt lat="44.58994" lon="2.94649">
        <ele>1032</ele>
        <time>2013-07-22T06:58:57Z</time>
      </trkpt>
      <trkpt lat="44.59" lon="2.94659">
        <ele>1037</ele>
        <time>2013-07-22T06:59:06Z</time>
      </trkpt>
      <trkpt lat="44.59007" lon="2.94668">
        <ele>1039</ele>
        <time>2013-07-22T06:59:18Z</time>
      </trkpt>
      <trkpt lat="44.59009" lon="2.94679">
        <ele>1039</ele>
        <time>2013-07-22T06:59:24Z</time>
      </trkpt>
      <trkpt lat="44.59008" lon="2.94686">
        <ele>1037</ele>
        <time>2013-07-22T06:59:30Z</time>
      </trkpt>
      <trkpt lat="44.59005" lon="2.94694">
        <ele>1036</ele>
        <time>2013-07-22T06:59:39Z</time>
      </trkpt>
      <trkpt lat="44.59004" lon="2.94705">
        <ele>1038</ele>
        <time>2013-07-22T06:59:46Z</time>
      </trkpt>
      <trkpt lat="44.59002" lon="2.94711">
        <ele>1040</ele>
        <time>2013-07-22T06:59:54Z</time>
      </trkpt>
      <trkpt lat="44.58997" lon="2.94719">
        <ele>1040</ele>
        <time>2013-07-22T07:00:00Z</time>
      </trkpt>
      <trkpt lat="44.58994" lon="2.94725">
        <ele>1041</ele>
        <time>2013-07-22T07:00:04Z</time>
      </trkpt>
      <trkpt lat="44.58991" lon="2.9473">
        <ele>1042</ele>
        <time>2013-07-22T07:00:10Z</time>
      </trkpt>
      <trkpt lat="44.58982" lon="2.94733">
        <ele>1043</ele>
        <time>2013-07-22T07:00:18Z</time>
      </trkpt>
      <trkpt lat="44.58972" lon="2.94734">
        <ele>1044</ele>
        <time>2013-07-22T07:00:28Z</time>
      </trkpt>
      <trkpt lat="44.58963" lon="2.94738">
        <ele>1049</ele>
        <time>2013-07-22T07:00:40Z</time>
      </trkpt>
      <trkpt lat="44.58953" lon="2.94738">
        <ele>1050</ele>
        <time>2013-07-22T07:00:48Z</time>
      </trkpt>
      <trkpt lat="44.58944" lon="2.94741">
        <ele>1052</ele>
        <time>2013-07-22T07:00:56Z</time>
      </trkpt>
      <trkpt lat="44.58938" lon="2.94744">
        <ele>1053</ele>
        <time>2013-07-22T07:01:01Z</time>
      </trkpt>
      <trkpt lat="44.58929" lon="2.94749">
        <ele>1054</ele>
        <time>2013-07-22T07:01:10Z</time>
      </trkpt>
      <trkpt lat="44.58921" lon="2.94747">
        <ele>1056</ele>
        <time>2013-07-22T07:01:17Z</time>
      </trkpt>
      <trkpt lat="44.58911" lon="2.94743">
        <ele>1055</ele>
        <time>2013-07-22T07:01:25Z</time>
      </trkpt>
      <trkpt lat="44.58902" lon="2.94739">
        <ele>1057</ele>
        <time>2013-07-22T07:01:38Z</time>
      </trkpt>
      <trkpt lat="44.58889" lon="2.9472">
        <ele>1069</ele>
        <time>2013-07-22T07:02:11Z</time>
      </trkpt>
      <trkpt lat="44.58884" lon="2.94716">
        <ele>1071</ele>
        <time>2013-07-22T07:02:16Z</time>
      </trkpt>
      <trkpt lat="44.58881" lon="2.94712">
        <ele>1072</ele>
        <time>2013-07-22T07:02:21Z</time>
      </trkpt>
      <trkpt lat="44.58876" lon="2.94709">
        <ele>1072</ele>
        <time>2013-07-22T07:02:25Z</time>
      </trkpt>
      <trkpt lat="44.5887" lon="2.94703">
        <ele>1072</ele>
        <time>2013-07-22T07:02:30Z</time>
      </trkpt>
      <trkpt lat="44.58867" lon="2.94698">
        <ele>1073</ele>
        <time>2013-07-22T07:02:35Z</time>
      </trkpt>
      <trkpt lat="44.58856" lon="2.94694">
        <ele>1076</ele>
        <time>2013-07-22T07:02:46Z</time>
      </trkpt>
      <trkpt lat="44.5885" lon="2.94692">
        <ele>1075</ele>
        <time>2013-07-22T07:02:50Z</time>
      </trkpt>
      <trkpt lat="44.58845" lon="2.94691">
        <ele>1075</ele>
        <time>2013-07-22T07:02:54Z</time>
      </trkpt>
      <trkpt lat="44.58837" lon="2.94695">
        <ele>1080</ele>
        <time>2013-07-22T07:03:04Z</time>
      </trkpt>
      <trkpt lat="44.58832" lon="2.94698">
        <ele>1082</ele>
        <time>2013-07-22T07:03:13Z</time>
      </trkpt>
      <trkpt lat="44.58826" lon="2.94702">
        <ele>1082</ele>
        <time>2013-07-22T07:03:17Z</time>
      </trkpt>
      <trkpt lat="44.58819" lon="2.9471">
        <ele>1081</ele>
        <time>2013-07-22T07:03:27Z</time>
      </trkpt>
      <trkpt lat="44.58816" lon="2.94716">
        <ele>1079</ele>
        <time>2013-07-22T07:03:33Z</time>
      </trkpt>
      <trkpt lat="44.58815" lon="2.94723">
        <ele>1077</ele>
        <time>2013-07-22T07:03:46Z</time>
      </trkpt>
      <trkpt lat="44.58815" lon="2.94732">
        <ele>1076</ele>
        <time>2013-07-22T07:03:49Z</time>
      </trkpt>
      <trkpt lat="44.58812" lon="2.94734">
        <ele>1065</ele>
        <time>2013-07-22T07:04:20Z</time>
      </trkpt>
      <trkpt lat="44.58807" lon="2.94733">
        <ele>1068</ele>
        <time>2013-07-22T07:04:36Z</time>
      </trkpt>
      <trkpt lat="44.58799" lon="2.9474">
        <ele>1074</ele>
        <time>2013-07-22T07:04:43Z</time>
      </trkpt>
      <trkpt lat="44.58797" lon="2.94752">
        <ele>1077</ele>
        <time>2013-07-22T07:04:47Z</time>
      </trkpt>
      <trkpt lat="44.58797" lon="2.94786">
        <ele>1089</ele>
        <time>2013-07-22T07:05:10Z</time>
      </trkpt>
      <trkpt lat="44.58797" lon="2.94799">
        <ele>1090</ele>
        <time>2013-07-22T07:05:17Z</time>
      </trkpt>
      <trkpt lat="44.58798" lon="2.94812">
        <ele>1089</ele>
        <time>2013-07-22T07:05:22Z</time>
      </trkpt>
      <trkpt lat="44.58797" lon="2.9482">
        <ele>1088</ele>
        <time>2013-07-22T07:05:26Z</time>
      </trkpt>
      <trkpt lat="44.58795" lon="2.94826">
        <ele>1088</ele>
        <time>2013-07-22T07:05:28Z</time>
      </trkpt>
      <trkpt lat="44.58794" lon="2.94835">
        <ele>1087</ele>
        <time>2013-07-22T07:05:31Z</time>
      </trkpt>
      <trkpt lat="44.58793" lon="2.94843">
        <ele>1086</ele>
        <time>2013-07-22T07:05:35Z</time>
      </trkpt>
      <trkpt lat="44.58792" lon="2.94856">
        <ele>1084</ele>
        <time>2013-07-22T07:05:43Z</time>
      </trkpt>
      <trkpt lat="44.58788" lon="2.94864">
        <ele>1086</ele>
        <time>2013-07-22T07:05:54Z</time>
      </trkpt>
      <trkpt lat="44.58782" lon="2.94869">
        <ele>1088</ele>
        <time>2013-07-22T07:05:59Z</time>
      </trkpt>
      <trkpt lat="44.58778" lon="2.9487">
        <ele>1088</ele>
        <time>2013-07-22T07:06:04Z</time>
      </trkpt>
      <trkpt lat="44.58772" lon="2.94866">
        <ele>1090</ele>
        <time>2013-07-22T07:06:12Z</time>
      </trkpt>
      <trkpt lat="44.58766" lon="2.94867">
        <ele>1091</ele>
        <time>2013-07-22T07:06:19Z</time>
      </trkpt>
      <trkpt lat="44.58761" lon="2.94865">
        <ele>1091</ele>
        <time>2013-07-22T07:06:24Z</time>
      </trkpt>
      <trkpt lat="44.58751" lon="2.94862">
        <ele>1092</ele>
        <time>2013-07-22T07:06:30Z</time>
      </trkpt>
      <trkpt lat="44.58745" lon="2.94862">
        <ele>1094</ele>
        <time>2013-07-22T07:06:34Z</time>
      </trkpt>
      <trkpt lat="44.58739" lon="2.94863">
        <ele>1095</ele>
        <time>2013-07-22T07:06:44Z</time>
      </trkpt>
      <trkpt lat="44.58734" lon="2.94864">
        <ele>1095</ele>
        <time>2013-07-22T07:06:47Z</time>
      </trkpt>
      <trkpt lat="44.58725" lon="2.94865">
        <ele>1094</ele>
        <time>2013-07-22T07:06:52Z</time>
      </trkpt>
      <trkpt lat="44.58718" lon="2.94869">
        <ele>1095</ele>
        <time>2013-07-22T07:06:59Z</time>
      </trkpt>
      <trkpt lat="44.58711" lon="2.9487">
        <ele>1095</ele>
        <time>2013-07-22T07:07:03Z</time>
      </trkpt>
      <trkpt lat="44.58703" lon="2.94872">
        <ele>1095</ele>
        <time>2013-07-22T07:07:12Z</time>
      </trkpt>
      <trkpt lat="44.58698" lon="2.94875">
        <ele>1096</ele>
        <time>2013-07-22T07:07:17Z</time>
      </trkpt>
      <trkpt lat="44.58694" lon="2.94879">
        <ele>1096</ele>
        <time>2013-07-22T07:07:22Z</time>
      </trkpt>
      <trkpt lat="44.5869" lon="2.94883">
        <ele>1096</ele>
        <time>2013-07-22T07:07:27Z</time>
      </trkpt>
      <trkpt lat="44.58687" lon="2.94888">
        <ele>1097</ele>
        <time>2013-07-22T07:07:32Z</time>
      </trkpt>
      <trkpt lat="44.58683" lon="2.94893">
        <ele>1099</ele>
        <time>2013-07-22T07:07:40Z</time>
      </trkpt>
      <trkpt lat="44.58678" lon="2.94895">
        <ele>1098</ele>
        <time>2013-07-22T07:07:45Z</time>
      </trkpt>
      <trkpt lat="44.58675" lon="2.94899">
        <ele>1099</ele>
        <time>2013-07-22T07:07:55Z</time>
      </trkpt>
      <trkpt lat="44.58674" lon="2.94906">
        <ele>1096</ele>
        <time>2013-07-22T07:08:17Z</time>
      </trkpt>
      <trkpt lat="44.58672" lon="2.9491">
        <ele>1096</ele>
        <time>2013-07-22T07:08:29Z</time>
      </trkpt>
      <trkpt lat="44.5867" lon="2.94916">
        <ele>1097</ele>
        <time>2013-07-22T07:08:35Z</time>
      </trkpt>
      <trkpt lat="44.58669" lon="2.94922">
        <ele>1101</ele>
        <time>2013-07-22T07:08:41Z</time>
      </trkpt>
      <trkpt lat="44.58665" lon="2.9493">
        <ele>1102</ele>
        <time>2013-07-22T07:08:46Z</time>
      </trkpt>
      <trkpt lat="44.58661" lon="2.94934">
        <ele>1103</ele>
        <time>2013-07-22T07:08:51Z</time>
      </trkpt>
      <trkpt lat="44.58657" lon="2.94937">
        <ele>1103</ele>
        <time>2013-07-22T07:08:56Z</time>
      </trkpt>
      <trkpt lat="44.58652" lon="2.94941">
        <ele>1105</ele>
        <time>2013-07-22T07:09:04Z</time>
      </trkpt>
      <trkpt lat="44.58645" lon="2.94944">
        <ele>1106</ele>
        <time>2013-07-22T07:09:09Z</time>
      </trkpt>
      <trkpt lat="44.58636" lon="2.94947">
        <ele>1107</ele>
        <time>2013-07-22T07:09:16Z</time>
      </trkpt>
      <trkpt lat="44.58632" lon="2.94947">
        <ele>1107</ele>
        <time>2013-07-22T07:09:19Z</time>
      </trkpt>
      <trkpt lat="44.58627" lon="2.94951">
        <ele>1108</ele>
        <time>2013-07-22T07:09:25Z</time>
      </trkpt>
      <trkpt lat="44.58622" lon="2.94956">
        <ele>1108</ele>
        <time>2013-07-22T07:09:30Z</time>
      </trkpt>
      <trkpt lat="44.58614" lon="2.94966">
        <ele>1108</ele>
        <time>2013-07-22T07:09:43Z</time>
      </trkpt>
      <trkpt lat="44.58609" lon="2.94966">
        <ele>1107</ele>
        <time>2013-07-22T07:09:46Z</time>
      </trkpt>
      <trkpt lat="44.58603" lon="2.94968">
        <ele>1107</ele>
        <time>2013-07-22T07:09:49Z</time>
      </trkpt>
      <trkpt lat="44.58599" lon="2.94971">
        <ele>1108</ele>
        <time>2013-07-22T07:09:52Z</time>
      </trkpt>
      <trkpt lat="44.5859" lon="2.94975">
        <ele>1110</ele>
        <time>2013-07-22T07:09:58Z</time>
      </trkpt>
      <trkpt lat="44.58585" lon="2.94979">
        <ele>1111</ele>
        <time>2013-07-22T07:10:02Z</time>
      </trkpt>
      <trkpt lat="44.58577" lon="2.94985">
        <ele>1111</ele>
        <time>2013-07-22T07:10:11Z</time>
      </trkpt>
      <trkpt lat="44.58571" lon="2.9499">
        <ele>1110</ele>
        <time>2013-07-22T07:10:18Z</time>
      </trkpt>
      <trkpt lat="44.58567" lon="2.94993">
        <ele>1111</ele>
        <time>2013-07-22T07:10:21Z</time>
      </trkpt>
      <trkpt lat="44.58561" lon="2.94994">
        <ele>1112</ele>
        <time>2013-07-22T07:10:25Z</time>
      </trkpt>
      <trkpt lat="44.58555" lon="2.95006">
        <ele>1113</ele>
        <time>2013-07-22T07:10:32Z</time>
      </trkpt>
      <trkpt lat="44.58554" lon="2.95012">
        <ele>1114</ele>
        <time>2013-07-22T07:10:36Z</time>
      </trkpt>
      <trkpt lat="44.58552" lon="2.95018">
        <ele>1116</ele>
        <time>2013-07-22T07:10:43Z</time>
      </trkpt>
      <trkpt lat="44.58549" lon="2.95023">
        <ele>1115</ele>
        <time>2013-07-22T07:10:45Z</time>
      </trkpt>
      <trkpt lat="44.58546" lon="2.9503">
        <ele>1115</ele>
        <time>2013-07-22T07:10:49Z</time>
      </trkpt>
      <trkpt lat="44.58544" lon="2.95035">
        <ele>1116</ele>
        <time>2013-07-22T07:10:53Z</time>
      </trkpt>
      <trkpt lat="44.5854" lon="2.95038">
        <ele>1117</ele>
        <time>2013-07-22T07:10:57Z</time>
      </trkpt>
      <trkpt lat="44.58535" lon="2.95042">
        <ele>1117</ele>
        <time>2013-07-22T07:11:02Z</time>
      </trkpt>
      <trkpt lat="44.58529" lon="2.95049">
        <ele>1117</ele>
        <time>2013-07-22T07:11:06Z</time>
      </trkpt>
      <trkpt lat="44.58524" lon="2.95051">
        <ele>1116</ele>
        <time>2013-07-22T07:11:10Z</time>
      </trkpt>
      <trkpt lat="44.58519" lon="2.95055">
        <ele>1116</ele>
        <time>2013-07-22T07:11:14Z</time>
      </trkpt>
      <trkpt lat="44.58516" lon="2.95061">
        <ele>1116</ele>
        <time>2013-07-22T07:11:17Z</time>
      </trkpt>
      <trkpt lat="44.58508" lon="2.95069">
        <ele>1116</ele>
        <time>2013-07-22T07:11:28Z</time>
      </trkpt>
      <trkpt lat="44.58504" lon="2.95074">
        <ele>1116</ele>
        <time>2013-07-22T07:11:31Z</time>
      </trkpt>
      <trkpt lat="44.58501" lon="2.9508">
        <ele>1116</ele>
        <time>2013-07-22T07:11:35Z</time>
      </trkpt>
      <trkpt lat="44.58501" lon="2.95084">
        <ele>1115</ele>
        <time>2013-07-22T07:11:59Z</time>
      </trkpt>
      <trkpt lat="44.58504" lon="2.95091">
        <ele>1112</ele>
        <time>2013-07-22T07:13:20Z</time>
      </trkpt>
      <trkpt lat="44.58508" lon="2.95096">
        <ele>1112</ele>
        <time>2013-07-22T07:13:25Z</time>
      </trkpt>
      <trkpt lat="44.58511" lon="2.95102">
        <ele>1115</ele>
        <time>2013-07-22T07:13:34Z</time>
      </trkpt>
      <trkpt lat="44.58513" lon="2.95109">
        <ele>1117</ele>
        <time>2013-07-22T07:13:38Z</time>
      </trkpt>
      <trkpt lat="44.58516" lon="2.95116">
        <ele>1117</ele>
        <time>2013-07-22T07:13:41Z</time>
      </trkpt>
      <trkpt lat="44.58517" lon="2.95122">
        <ele>1117</ele>
        <time>2013-07-22T07:13:47Z</time>
      </trkpt>
      <trkpt lat="44.5852" lon="2.95128">
        <ele>1118</ele>
        <time>2013-07-22T07:13:51Z</time>
      </trkpt>
      <trkpt lat="44.58524" lon="2.95134">
        <ele>1119</ele>
        <time>2013-07-22T07:13:55Z</time>
      </trkpt>
      <trkpt lat="44.58528" lon="2.95138">
        <ele>1119</ele>
        <time>2013-07-22T07:13:59Z</time>
      </trkpt>
      <trkpt lat="44.58531" lon="2.95143">
        <ele>1119</ele>
        <time>2013-07-22T07:14:04Z</time>
      </trkpt>
      <trkpt lat="44.58531" lon="2.95152">
        <ele>1119</ele>
        <time>2013-07-22T07:14:12Z</time>
      </trkpt>
      <trkpt lat="44.58532" lon="2.95159">
        <ele>1119</ele>
        <time>2013-07-22T07:14:17Z</time>
      </trkpt>
      <trkpt lat="44.5853" lon="2.95166">
        <ele>1119</ele>
        <time>2013-07-22T07:14:20Z</time>
      </trkpt>
      <trkpt lat="44.58528" lon="2.95172">
        <ele>1119</ele>
        <time>2013-07-22T07:14:24Z</time>
      </trkpt>
      <trkpt lat="44.58526" lon="2.95177">
        <ele>1119</ele>
        <time>2013-07-22T07:14:28Z</time>
      </trkpt>
      <trkpt lat="44.58523" lon="2.95184">
        <ele>1119</ele>
        <time>2013-07-22T07:14:32Z</time>
      </trkpt>
      <trkpt lat="44.58521" lon="2.9519">
        <ele>1120</ele>
        <time>2013-07-22T07:14:37Z</time>
      </trkpt>
      <trkpt lat="44.58517" lon="2.95195">
        <ele>1122</ele>
        <time>2013-07-22T07:14:42Z</time>
      </trkpt>
      <trkpt lat="44.58514" lon="2.952">
        <ele>1123</ele>
        <time>2013-07-22T07:14:47Z</time>
      </trkpt>
      <trkpt lat="44.58509" lon="2.95204">
        <ele>1124</ele>
        <time>2013-07-22T07:14:51Z</time>
      </trkpt>
      <trkpt lat="44.58506" lon="2.95209">
        <ele>1125</ele>
        <time>2013-07-22T07:14:55Z</time>
      </trkpt>
      <trkpt lat="44.58503" lon="2.95213">
        <ele>1125</ele>
        <time>2013-07-22T07:15:00Z</time>
      </trkpt>
      <trkpt lat="44.58497" lon="2.95218">
        <ele>1125</ele>
        <time>2013-07-22T07:15:05Z</time>
      </trkpt>
      <trkpt lat="44.58493" lon="2.95222">
        <ele>1126</ele>
        <time>2013-07-22T07:15:09Z</time>
      </trkpt>
      <trkpt lat="44.5849" lon="2.95227">
        <ele>1127</ele>
        <time>2013-07-22T07:15:13Z</time>
      </trkpt>
      <trkpt lat="44.58487" lon="2.95233">
        <ele>1127</ele>
        <time>2013-07-22T07:15:16Z</time>
      </trkpt>
      <trkpt lat="44.58484" lon="2.95239">
        <ele>1128</ele>
        <time>2013-07-22T07:15:20Z</time>
      </trkpt>
      <trkpt lat="44.58482" lon="2.95245">
        <ele>1128</ele>
        <time>2013-07-22T07:15:24Z</time>
      </trkpt>
      <trkpt lat="44.58478" lon="2.9525">
        <ele>1129</ele>
        <time>2013-07-22T07:15:29Z</time>
      </trkpt>
      <trkpt lat="44.58475" lon="2.95257">
        <ele>1129</ele>
        <time>2013-07-22T07:15:33Z</time>
      </trkpt>
      <trkpt lat="44.58472" lon="2.95262">
        <ele>1129</ele>
        <time>2013-07-22T07:15:36Z</time>
      </trkpt>
      <trkpt lat="44.58467" lon="2.95269">
        <ele>1130</ele>
        <time>2013-07-22T07:15:44Z</time>
      </trkpt>
      <trkpt lat="44.58463" lon="2.95278">
        <ele>1131</ele>
        <time>2013-07-22T07:16:00Z</time>
      </trkpt>
      <trkpt lat="44.58462" lon="2.95284">
        <ele>1130</ele>
        <time>2013-07-22T07:16:03Z</time>
      </trkpt>
      <trkpt lat="44.58465" lon="2.9529">
        <ele>1130</ele>
        <time>2013-07-22T07:16:08Z</time>
      </trkpt>
      <trkpt lat="44.58467" lon="2.95297">
        <ele>1132</ele>
        <time>2013-07-22T07:16:17Z</time>
      </trkpt>
      <trkpt lat="44.58472" lon="2.95308">
        <ele>1135</ele>
        <time>2013-07-22T07:16:25Z</time>
      </trkpt>
      <trkpt lat="44.58475" lon="2.95313">
        <ele>1137</ele>
        <time>2013-07-22T07:16:28Z</time>
      </trkpt>
      <trkpt lat="44.58478" lon="2.95318">
        <ele>1138</ele>
        <time>2013-07-22T07:16:31Z</time>
      </trkpt>
      <trkpt lat="44.58481" lon="2.95324">
        <ele>1139</ele>
        <time>2013-07-22T07:16:34Z</time>
      </trkpt>
      <trkpt lat="44.58486" lon="2.95334">
        <ele>1141</ele>
        <time>2013-07-22T07:16:41Z</time>
      </trkpt>
      <trkpt lat="44.58489" lon="2.95341">
        <ele>1141</ele>
        <time>2013-07-22T07:16:45Z</time>
      </trkpt>
      <trkpt lat="44.58492" lon="2.95346">
        <ele>1142</ele>
        <time>2013-07-22T07:16:49Z</time>
      </trkpt>
      <trkpt lat="44.58494" lon="2.95352">
        <ele>1142</ele>
        <time>2013-07-22T07:16:52Z</time>
      </trkpt>
      <trkpt lat="44.58498" lon="2.95358">
        <ele>1142</ele>
        <time>2013-07-22T07:16:57Z</time>
      </trkpt>
      <trkpt lat="44.58501" lon="2.95363">
        <ele>1142</ele>
        <time>2013-07-22T07:17:00Z</time>
      </trkpt>
      <trkpt lat="44.58504" lon="2.95368">
        <ele>1142</ele>
        <time>2013-07-22T07:17:04Z</time>
      </trkpt>
      <trkpt lat="44.58507" lon="2.95374">
        <ele>1143</ele>
        <time>2013-07-22T07:17:08Z</time>
      </trkpt>
      <trkpt lat="44.58509" lon="2.95379">
        <ele>1143</ele>
        <time>2013-07-22T07:17:12Z</time>
      </trkpt>
      <trkpt lat="44.5851" lon="2.95393">
        <ele>1144</ele>
        <time>2013-07-22T07:17:18Z</time>
      </trkpt>
      <trkpt lat="44.5851" lon="2.95399">
        <ele>1144</ele>
        <time>2013-07-22T07:17:22Z</time>
      </trkpt>
      <trkpt lat="44.58508" lon="2.95406">
        <ele>1145</ele>
        <time>2013-07-22T07:17:26Z</time>
      </trkpt>
      <trkpt lat="44.58505" lon="2.95413">
        <ele>1146</ele>
        <time>2013-07-22T07:17:31Z</time>
      </trkpt>
      <trkpt lat="44.58502" lon="2.95418">
        <ele>1148</ele>
        <time>2013-07-22T07:17:36Z</time>
      </trkpt>
      <trkpt lat="44.58497" lon="2.95421">
        <ele>1149</ele>
        <time>2013-07-22T07:17:42Z</time>
      </trkpt>
      <trkpt lat="44.58493" lon="2.95424">
        <ele>1152</ele>
        <time>2013-07-22T07:17:48Z</time>
      </trkpt>
      <trkpt lat="44.5849" lon="2.95429">
        <ele>1153</ele>
        <time>2013-07-22T07:17:51Z</time>
      </trkpt>
      <trkpt lat="44.58486" lon="2.95434">
        <ele>1154</ele>
        <time>2013-07-22T07:17:55Z</time>
      </trkpt>
      <trkpt lat="44.58483" lon="2.95441">
        <ele>1155</ele>
        <time>2013-07-22T07:17:59Z</time>
      </trkpt>
      <trkpt lat="44.58479" lon="2.95446">
        <ele>1156</ele>
        <time>2013-07-22T07:18:04Z</time>
      </trkpt>
      <trkpt lat="44.58477" lon="2.95453">
        <ele>1155</ele>
        <time>2013-07-22T07:18:08Z</time>
      </trkpt>
      <trkpt lat="44.58474" lon="2.95458">
        <ele>1156</ele>
        <time>2013-07-22T07:18:11Z</time>
      </trkpt>
      <trkpt lat="44.58471" lon="2.95465">
        <ele>1157</ele>
        <time>2013-07-22T07:18:15Z</time>
      </trkpt>
      <trkpt lat="44.58471" lon="2.95472">
        <ele>1159</ele>
        <time>2013-07-22T07:18:19Z</time>
      </trkpt>
      <trkpt lat="44.58476" lon="2.95473">
        <ele>1160</ele>
        <time>2013-07-22T07:18:23Z</time>
      </trkpt>
      <trkpt lat="44.58482" lon="2.95473">
        <ele>1161</ele>
        <time>2013-07-22T07:18:27Z</time>
      </trkpt>
      <trkpt lat="44.58486" lon="2.95473">
        <ele>1162</ele>
        <time>2013-07-22T07:18:31Z</time>
      </trkpt>
      <trkpt lat="44.58491" lon="2.95474">
        <ele>1163</ele>
        <time>2013-07-22T07:18:35Z</time>
      </trkpt>
      <trkpt lat="44.58497" lon="2.95476">
        <ele>1164</ele>
        <time>2013-07-22T07:18:39Z</time>
      </trkpt>
      <trkpt lat="44.58502" lon="2.95479">
        <ele>1164</ele>
        <time>2013-07-22T07:18:43Z</time>
      </trkpt>
      <trkpt lat="44.58507" lon="2.95478">
        <ele>1164</ele>
        <time>2013-07-22T07:18:47Z</time>
      </trkpt>
      <trkpt lat="44.58513" lon="2.95478">
        <ele>1163</ele>
        <time>2013-07-22T07:18:51Z</time>
      </trkpt>
      <trkpt lat="44.58518" lon="2.95477">
        <ele>1163</ele>
        <time>2013-07-22T07:18:55Z</time>
      </trkpt>
      <trkpt lat="44.58524" lon="2.95477">
        <ele>1163</ele>
        <time>2013-07-22T07:18:59Z</time>
      </trkpt>
      <trkpt lat="44.58529" lon="2.95479">
        <ele>1164</ele>
        <time>2013-07-22T07:19:03Z</time>
      </trkpt>
      <trkpt lat="44.58534" lon="2.9548">
        <ele>1164</ele>
        <time>2013-07-22T07:19:07Z</time>
      </trkpt>
      <trkpt lat="44.58539" lon="2.95481">
        <ele>1165</ele>
        <time>2013-07-22T07:19:11Z</time>
      </trkpt>
      <trkpt lat="44.58544" lon="2.95484">
        <ele>1166</ele>
        <time>2013-07-22T07:19:15Z</time>
      </trkpt>
      <trkpt lat="44.58548" lon="2.95484">
        <ele>1166</ele>
        <time>2013-07-22T07:19:19Z</time>
      </trkpt>
      <trkpt lat="44.58554" lon="2.95485">
        <ele>1167</ele>
        <time>2013-07-22T07:19:24Z</time>
      </trkpt>
      <trkpt lat="44.5856" lon="2.95488">
        <ele>1167</ele>
        <time>2013-07-22T07:19:28Z</time>
      </trkpt>
      <trkpt lat="44.58565" lon="2.9549">
        <ele>1167</ele>
        <time>2013-07-22T07:19:32Z</time>
      </trkpt>
      <trkpt lat="44.5857" lon="2.95492">
        <ele>1167</ele>
        <time>2013-07-22T07:19:36Z</time>
      </trkpt>
      <trkpt lat="44.58575" lon="2.95493">
        <ele>1168</ele>
        <time>2013-07-22T07:19:39Z</time>
      </trkpt>
      <trkpt lat="44.58581" lon="2.95492">
        <ele>1166</ele>
        <time>2013-07-22T07:19:42Z</time>
      </trkpt>
      <trkpt lat="44.58586" lon="2.95494">
        <ele>1166</ele>
        <time>2013-07-22T07:19:46Z</time>
      </trkpt>
      <trkpt lat="44.5859" lon="2.95498">
        <ele>1167</ele>
        <time>2013-07-22T07:19:51Z</time>
      </trkpt>
      <trkpt lat="44.58595" lon="2.95501">
        <ele>1169</ele>
        <time>2013-07-22T07:19:55Z</time>
      </trkpt>
      <trkpt lat="44.58601" lon="2.95503">
        <ele>1170</ele>
        <time>2013-07-22T07:19:59Z</time>
      </trkpt>
      <trkpt lat="44.58605" lon="2.95504">
        <ele>1170</ele>
        <time>2013-07-22T07:20:02Z</time>
      </trkpt>
      <trkpt lat="44.58611" lon="2.95506">
        <ele>1170</ele>
        <time>2013-07-22T07:20:06Z</time>
      </trkpt>
      <trkpt lat="44.58615" lon="2.9551">
        <ele>1171</ele>
        <time>2013-07-22T07:20:10Z</time>
      </trkpt>
      <trkpt lat="44.5862" lon="2.95513">
        <ele>1172</ele>
        <time>2013-07-22T07:20:14Z</time>
      </trkpt>
      <trkpt lat="44.58625" lon="2.95512">
        <ele>1171</ele>
        <time>2013-07-22T07:20:17Z</time>
      </trkpt>
      <trkpt lat="44.58631" lon="2.95512">
        <ele>1171</ele>
        <time>2013-07-22T07:20:21Z</time>
      </trkpt>
      <trkpt lat="44.58635" lon="2.95513">
        <ele>1171</ele>
        <time>2013-07-22T07:20:24Z</time>
      </trkpt>
      <trkpt lat="44.5864" lon="2.95515">
        <ele>1171</ele>
        <time>2013-07-22T07:20:28Z</time>
      </trkpt>
      <trkpt lat="44.58642" lon="2.95521">
        <ele>1171</ele>
        <time>2013-07-22T07:20:32Z</time>
      </trkpt>
      <trkpt lat="44.58647" lon="2.95523">
        <ele>1173</ele>
        <time>2013-07-22T07:20:36Z</time>
      </trkpt>
      <trkpt lat="44.58652" lon="2.95525">
        <ele>1174</ele>
        <time>2013-07-22T07:20:40Z</time>
      </trkpt>
      <trkpt lat="44.58657" lon="2.95531">
        <ele>1176</ele>
        <time>2013-07-22T07:20:44Z</time>
      </trkpt>
      <trkpt lat="44.58662" lon="2.95535">
        <ele>1178</ele>
        <time>2013-07-22T07:20:48Z</time>
      </trkpt>
      <trkpt lat="44.58666" lon="2.95539">
        <ele>1178</ele>
        <time>2013-07-22T07:20:53Z</time>
      </trkpt>
      <trkpt lat="44.58669" lon="2.95544">
        <ele>1179</ele>
        <time>2013-07-22T07:20:57Z</time>
      </trkpt>
      <trkpt lat="44.58673" lon="2.95551">
        <ele>1179</ele>
        <time>2013-07-22T07:21:01Z</time>
      </trkpt>
      <trkpt lat="44.58671" lon="2.95558">
        <ele>1180</ele>
        <time>2013-07-22T07:21:06Z</time>
      </trkpt>
      <trkpt lat="44.58669" lon="2.95565">
        <ele>1179</ele>
        <time>2013-07-22T07:21:10Z</time>
      </trkpt>
      <trkpt lat="44.58666" lon="2.9557">
        <ele>1179</ele>
        <time>2013-07-22T07:21:14Z</time>
      </trkpt>
      <trkpt lat="44.58662" lon="2.95572">
        <ele>1179</ele>
        <time>2013-07-22T07:21:18Z</time>
      </trkpt>
      <trkpt lat="44.58657" lon="2.95574">
        <ele>1180</ele>
        <time>2013-07-22T07:21:23Z</time>
      </trkpt>
      <trkpt lat="44.58652" lon="2.95574">
        <ele>1180</ele>
        <time>2013-07-22T07:21:27Z</time>
      </trkpt>
      <trkpt lat="44.58648" lon="2.95573">
        <ele>1181</ele>
        <time>2013-07-22T07:21:31Z</time>
      </trkpt>
      <trkpt lat="44.58643" lon="2.95574">
        <ele>1181</ele>
        <time>2013-07-22T07:21:35Z</time>
      </trkpt>
      <trkpt lat="44.58639" lon="2.95576">
        <ele>1179</ele>
        <time>2013-07-22T07:21:39Z</time>
      </trkpt>
      <trkpt lat="44.58633" lon="2.95576">
        <ele>1179</ele>
        <time>2013-07-22T07:21:43Z</time>
      </trkpt>
      <trkpt lat="44.58628" lon="2.95577">
        <ele>1181</ele>
        <time>2013-07-22T07:21:47Z</time>
      </trkpt>
      <trkpt lat="44.58623" lon="2.95578">
        <ele>1182</ele>
        <time>2013-07-22T07:21:51Z</time>
      </trkpt>
      <trkpt lat="44.58618" lon="2.9558">
        <ele>1183</ele>
        <time>2013-07-22T07:21:55Z</time>
      </trkpt>
      <trkpt lat="44.58612" lon="2.95582">
        <ele>1183</ele>
        <time>2013-07-22T07:21:59Z</time>
      </trkpt>
      <trkpt lat="44.58608" lon="2.95584">
        <ele>1184</ele>
        <time>2013-07-22T07:22:03Z</time>
      </trkpt>
      <trkpt lat="44.58602" lon="2.95587">
        <ele>1184</ele>
        <time>2013-07-22T07:22:07Z</time>
      </trkpt>
      <trkpt lat="44.58598" lon="2.9559">
        <ele>1184</ele>
        <time>2013-07-22T07:22:11Z</time>
      </trkpt>
      <trkpt lat="44.58593" lon="2.95593">
        <ele>1185</ele>
        <time>2013-07-22T07:22:15Z</time>
      </trkpt>
      <trkpt lat="44.58589" lon="2.95596">
        <ele>1185</ele>
        <time>2013-07-22T07:22:19Z</time>
      </trkpt>
      <trkpt lat="44.58585" lon="2.956">
        <ele>1185</ele>
        <time>2013-07-22T07:22:23Z</time>
      </trkpt>
      <trkpt lat="44.5858" lon="2.95604">
        <ele>1185</ele>
        <time>2013-07-22T07:22:27Z</time>
      </trkpt>
      <trkpt lat="44.58576" lon="2.95608">
        <ele>1184</ele>
        <time>2013-07-22T07:22:32Z</time>
      </trkpt>
      <trkpt lat="44.58571" lon="2.95613">
        <ele>1184</ele>
        <time>2013-07-22T07:22:36Z</time>
      </trkpt>
      <trkpt lat="44.58567" lon="2.95619">
        <ele>1185</ele>
        <time>2013-07-22T07:22:40Z</time>
      </trkpt>
      <trkpt lat="44.58563" lon="2.95624">
        <ele>1185</ele>
        <time>2013-07-22T07:22:44Z</time>
      </trkpt>
      <trkpt lat="44.58559" lon="2.95629">
        <ele>1186</ele>
        <time>2013-07-22T07:22:48Z</time>
      </trkpt>
      <trkpt lat="44.58555" lon="2.95636">
        <ele>1187</ele>
        <time>2013-07-22T07:22:52Z</time>
      </trkpt>
      <trkpt lat="44.58552" lon="2.95641">
        <ele>1187</ele>
        <time>2013-07-22T07:22:55Z</time>
      </trkpt>
      <trkpt lat="44.58549" lon="2.95646">
        <ele>1188</ele>
        <time>2013-07-22T07:22:59Z</time>
      </trkpt>
      <trkpt lat="44.58546" lon="2.95651">
        <ele>1188</ele>
        <time>2013-07-22T07:23:03Z</time>
      </trkpt>
      <trkpt lat="44.58543" lon="2.95657">
        <ele>1189</ele>
        <time>2013-07-22T07:23:07Z</time>
      </trkpt>
      <trkpt lat="44.58539" lon="2.95664">
        <ele>1188</ele>
        <time>2013-07-22T07:23:12Z</time>
      </trkpt>
      <trkpt lat="44.58536" lon="2.9567">
        <ele>1188</ele>
        <time>2013-07-22T07:23:16Z</time>
      </trkpt>
      <trkpt lat="44.58533" lon="2.95676">
        <ele>1188</ele>
        <time>2013-07-22T07:23:20Z</time>
      </trkpt>
      <trkpt lat="44.58531" lon="2.95683">
        <ele>1189</ele>
        <time>2013-07-22T07:23:25Z</time>
      </trkpt>
      <trkpt lat="44.58528" lon="2.95689">
        <ele>1189</ele>
        <time>2013-07-22T07:23:30Z</time>
      </trkpt>
      <trkpt lat="44.58526" lon="2.95695">
        <ele>1189</ele>
        <time>2013-07-22T07:23:34Z</time>
      </trkpt>
      <trkpt lat="44.58523" lon="2.95701">
        <ele>1190</ele>
        <time>2013-07-22T07:23:38Z</time>
      </trkpt>
      <trkpt lat="44.58522" lon="2.95707">
        <ele>1190</ele>
        <time>2013-07-22T07:23:42Z</time>
      </trkpt>
      <trkpt lat="44.5852" lon="2.95713">
        <ele>1191</ele>
        <time>2013-07-22T07:23:46Z</time>
      </trkpt>
      <trkpt lat="44.58518" lon="2.95721">
        <ele>1191</ele>
        <time>2013-07-22T07:23:50Z</time>
      </trkpt>
      <trkpt lat="44.58517" lon="2.95728">
        <ele>1191</ele>
        <time>2013-07-22T07:23:54Z</time>
      </trkpt>
      <trkpt lat="44.58515" lon="2.95736">
        <ele>1191</ele>
        <time>2013-07-22T07:23:58Z</time>
      </trkpt>
      <trkpt lat="44.58513" lon="2.95743">
        <ele>1191</ele>
        <time>2013-07-22T07:24:02Z</time>
      </trkpt>
      <trkpt lat="44.5851" lon="2.9575">
        <ele>1191</ele>
        <time>2013-07-22T07:24:06Z</time>
      </trkpt>
      <trkpt lat="44.58509" lon="2.95756">
        <ele>1191</ele>
        <time>2013-07-22T07:24:10Z</time>
      </trkpt>
      <trkpt lat="44.58508" lon="2.95764">
        <ele>1193</ele>
        <time>2013-07-22T07:24:15Z</time>
      </trkpt>
      <trkpt lat="44.58506" lon="2.9577">
        <ele>1194</ele>
        <time>2013-07-22T07:24:19Z</time>
      </trkpt>
      <trkpt lat="44.58504" lon="2.95776">
        <ele>1194</ele>
        <time>2013-07-22T07:24:22Z</time>
      </trkpt>
      <trkpt lat="44.58501" lon="2.95783">
        <ele>1196</ele>
        <time>2013-07-22T07:24:26Z</time>
      </trkpt>
      <trkpt lat="44.58499" lon="2.95789">
        <ele>1197</ele>
        <time>2013-07-22T07:24:29Z</time>
      </trkpt>
      <trkpt lat="44.58498" lon="2.95796">
        <ele>1198</ele>
        <time>2013-07-22T07:24:33Z</time>
      </trkpt>
      <trkpt lat="44.58496" lon="2.95802">
        <ele>1197</ele>
        <time>2013-07-22T07:24:37Z</time>
      </trkpt>
      <trkpt lat="44.58495" lon="2.95808">
        <ele>1197</ele>
        <time>2013-07-22T07:24:40Z</time>
      </trkpt>
      <trkpt lat="44.58493" lon="2.95815">
        <ele>1196</ele>
        <time>2013-07-22T07:24:44Z</time>
      </trkpt>
      <trkpt lat="44.58492" lon="2.95821">
        <ele>1196</ele>
        <time>2013-07-22T07:24:48Z</time>
      </trkpt>
      <trkpt lat="44.5849" lon="2.95828">
        <ele>1197</ele>
        <time>2013-07-22T07:24:52Z</time>
      </trkpt>
      <trkpt lat="44.58488" lon="2.95835">
        <ele>1197</ele>
        <time>2013-07-22T07:24:56Z</time>
      </trkpt>
      <trkpt lat="44.58485" lon="2.95842">
        <ele>1197</ele>
        <time>2013-07-22T07:25:00Z</time>
      </trkpt>
      <trkpt lat="44.58483" lon="2.95848">
        <ele>1197</ele>
        <time>2013-07-22T07:25:04Z</time>
      </trkpt>
      <trkpt lat="44.58482" lon="2.95855">
        <ele>1197</ele>
        <time>2013-07-22T07:25:09Z</time>
      </trkpt>
      <trkpt lat="44.5848" lon="2.95862">
        <ele>1197</ele>
        <time>2013-07-22T07:25:13Z</time>
      </trkpt>
      <trkpt lat="44.58477" lon="2.95868">
        <ele>1197</ele>
        <time>2013-07-22T07:25:17Z</time>
      </trkpt>
      <trkpt lat="44.58474" lon="2.95875">
        <ele>1197</ele>
        <time>2013-07-22T07:25:22Z</time>
      </trkpt>
      <trkpt lat="44.58471" lon="2.95881">
        <ele>1197</ele>
        <time>2013-07-22T07:25:26Z</time>
      </trkpt>
      <trkpt lat="44.58468" lon="2.95887">
        <ele>1198</ele>
        <time>2013-07-22T07:25:30Z</time>
      </trkpt>
      <trkpt lat="44.58465" lon="2.95894">
        <ele>1198</ele>
        <time>2013-07-22T07:25:34Z</time>
      </trkpt>
      <trkpt lat="44.58462" lon="2.959">
        <ele>1198</ele>
        <time>2013-07-22T07:25:38Z</time>
      </trkpt>
      <trkpt lat="44.58459" lon="2.95906">
        <ele>1199</ele>
        <time>2013-07-22T07:25:42Z</time>
      </trkpt>
      <trkpt lat="44.58456" lon="2.95912">
        <ele>1199</ele>
        <time>2013-07-22T07:25:46Z</time>
      </trkpt>
      <trkpt lat="44.58453" lon="2.95919">
        <ele>1199</ele>
        <time>2013-07-22T07:25:50Z</time>
      </trkpt>
      <trkpt lat="44.58451" lon="2.95925">
        <ele>1201</ele>
        <time>2013-07-22T07:25:55Z</time>
      </trkpt>
      <trkpt lat="44.5845" lon="2.95932">
        <ele>1201</ele>
        <time>2013-07-22T07:25:59Z</time>
      </trkpt>
      <trkpt lat="44.58447" lon="2.95939">
        <ele>1201</ele>
        <time>2013-07-22T07:26:04Z</time>
      </trkpt>
      <trkpt lat="44.58445" lon="2.95945">
        <ele>1201</ele>
        <time>2013-07-22T07:26:08Z</time>
      </trkpt>
      <trkpt lat="44.58444" lon="2.95952">
        <ele>1201</ele>
        <time>2013-07-22T07:26:12Z</time>
      </trkpt>
      <trkpt lat="44.58443" lon="2.95959">
        <ele>1202</ele>
        <time>2013-07-22T07:26:16Z</time>
      </trkpt>
      <trkpt lat="44.58442" lon="2.95966">
        <ele>1202</ele>
        <time>2013-07-22T07:26:20Z</time>
      </trkpt>
      <trkpt lat="44.58441" lon="2.95974">
        <ele>1202</ele>
        <time>2013-07-22T07:26:24Z</time>
      </trkpt>
      <trkpt lat="44.5844" lon="2.9598">
        <ele>1202</ele>
        <time>2013-07-22T07:26:28Z</time>
      </trkpt>
      <trkpt lat="44.58439" lon="2.95987">
        <ele>1202</ele>
        <time>2013-07-22T07:26:32Z</time>
      </trkpt>
      <trkpt lat="44.58437" lon="2.95995">
        <ele>1202</ele>
        <time>2013-07-22T07:26:37Z</time>
      </trkpt>
      <trkpt lat="44.58436" lon="2.96003">
        <ele>1202</ele>
        <time>2013-07-22T07:26:41Z</time>
      </trkpt>
      <trkpt lat="44.58435" lon="2.9601">
        <ele>1203</ele>
        <time>2013-07-22T07:26:45Z</time>
      </trkpt>
      <trkpt lat="44.58434" lon="2.96017">
        <ele>1203</ele>
        <time>2013-07-22T07:26:48Z</time>
      </trkpt>
      <trkpt lat="44.58432" lon="2.96023">
        <ele>1204</ele>
        <time>2013-07-22T07:26:51Z</time>
      </trkpt>
      <trkpt lat="44.5843" lon="2.9603">
        <ele>1205</ele>
        <time>2013-07-22T07:26:55Z</time>
      </trkpt>
      <trkpt lat="44.58429" lon="2.96037">
        <ele>1205</ele>
        <time>2013-07-22T07:26:59Z</time>
      </trkpt>
      <trkpt lat="44.58428" lon="2.96044">
        <ele>1206</ele>
        <time>2013-07-22T07:27:03Z</time>
      </trkpt>
      <trkpt lat="44.5843" lon="2.96046">
        <ele>1208</ele>
        <time>2013-07-22T07:27:19Z</time>
      </trkpt>
      <trkpt lat="44.58432" lon="2.9604">
        <ele>1209</ele>
        <time>2013-07-22T07:27:24Z</time>
      </trkpt>
      <trkpt lat="44.58429" lon="2.96043">
        <ele>1211</ele>
        <time>2013-07-22T07:27:37Z</time>
      </trkpt>
      <trkpt lat="44.58427" lon="2.9605">
        <ele>1210</ele>
        <time>2013-07-22T07:27:41Z</time>
      </trkpt>
      <trkpt lat="44.58426" lon="2.96057">
        <ele>1210</ele>
        <time>2013-07-22T07:27:44Z</time>
      </trkpt>
      <trkpt lat="44.58425" lon="2.96063">
        <ele>1210</ele>
        <time>2013-07-22T07:27:48Z</time>
      </trkpt>
      <trkpt lat="44.58423" lon="2.96071">
        <ele>1211</ele>
        <time>2013-07-22T07:27:52Z</time>
      </trkpt>
      <trkpt lat="44.58423" lon="2.96078">
        <ele>1211</ele>
        <time>2013-07-22T07:27:55Z</time>
      </trkpt>
      <trkpt lat="44.58422" lon="2.96085">
        <ele>1210</ele>
        <time>2013-07-22T07:27:59Z</time>
      </trkpt>
      <trkpt lat="44.5842" lon="2.96091">
        <ele>1211</ele>
        <time>2013-07-22T07:28:02Z</time>
      </trkpt>
      <trkpt lat="44.58419" lon="2.96098">
        <ele>1212</ele>
        <time>2013-07-22T07:28:06Z</time>
      </trkpt>
      <trkpt lat="44.58417" lon="2.96105">
        <ele>1213</ele>
        <time>2013-07-22T07:28:10Z</time>
      </trkpt>
      <trkpt lat="44.58416" lon="2.96111">
        <ele>1214</ele>
        <time>2013-07-22T07:28:14Z</time>
      </trkpt>
      <trkpt lat="44.58415" lon="2.96119">
        <ele>1214</ele>
        <time>2013-07-22T07:28:18Z</time>
      </trkpt>
      <trkpt lat="44.58414" lon="2.96126">
        <ele>1214</ele>
        <time>2013-07-22T07:28:22Z</time>
      </trkpt>
      <trkpt lat="44.58413" lon="2.96134">
        <ele>1214</ele>
        <time>2013-07-22T07:28:26Z</time>
      </trkpt>
      <trkpt lat="44.58411" lon="2.96141">
        <ele>1214</ele>
        <time>2013-07-22T07:28:30Z</time>
      </trkpt>
      <trkpt lat="44.5841" lon="2.96149">
        <ele>1215</ele>
        <time>2013-07-22T07:28:35Z</time>
      </trkpt>
      <trkpt lat="44.58409" lon="2.96155">
        <ele>1215</ele>
        <time>2013-07-22T07:28:39Z</time>
      </trkpt>
      <trkpt lat="44.58407" lon="2.96162">
        <ele>1216</ele>
        <time>2013-07-22T07:28:43Z</time>
      </trkpt>
      <trkpt lat="44.58405" lon="2.96169">
        <ele>1217</ele>
        <time>2013-07-22T07:28:48Z</time>
      </trkpt>
      <trkpt lat="44.58403" lon="2.96175">
        <ele>1217</ele>
        <time>2013-07-22T07:28:52Z</time>
      </trkpt>
      <trkpt lat="44.58402" lon="2.96183">
        <ele>1218</ele>
        <time>2013-07-22T07:28:56Z</time>
      </trkpt>
      <trkpt lat="44.58402" lon="2.96189">
        <ele>1218</ele>
        <time>2013-07-22T07:29:00Z</time>
      </trkpt>
      <trkpt lat="44.58401" lon="2.96196">
        <ele>1219</ele>
        <time>2013-07-22T07:29:04Z</time>
      </trkpt>
      <trkpt lat="44.58399" lon="2.96203">
        <ele>1219</ele>
        <time>2013-07-22T07:29:09Z</time>
      </trkpt>
      <trkpt lat="44.58398" lon="2.9621">
        <ele>1219</ele>
        <time>2013-07-22T07:29:13Z</time>
      </trkpt>
      <trkpt lat="44.58397" lon="2.96217">
        <ele>1220</ele>
        <time>2013-07-22T07:29:17Z</time>
      </trkpt>
      <trkpt lat="44.58396" lon="2.96223">
        <ele>1220</ele>
        <time>2013-07-22T07:29:21Z</time>
      </trkpt>
      <trkpt lat="44.58394" lon="2.9623">
        <ele>1220</ele>
        <time>2013-07-22T07:29:25Z</time>
      </trkpt>
      <trkpt lat="44.58392" lon="2.96238">
        <ele>1220</ele>
        <time>2013-07-22T07:29:29Z</time>
      </trkpt>
      <trkpt lat="44.58391" lon="2.96245">
        <ele>1221</ele>
        <time>2013-07-22T07:29:33Z</time>
      </trkpt>
      <trkpt lat="44.5839" lon="2.96253">
        <ele>1222</ele>
        <time>2013-07-22T07:29:37Z</time>
      </trkpt>
      <trkpt lat="44.58388" lon="2.96259">
        <ele>1223</ele>
        <time>2013-07-22T07:29:40Z</time>
      </trkpt>
      <trkpt lat="44.58387" lon="2.96266">
        <ele>1223</ele>
        <time>2013-07-22T07:29:44Z</time>
      </trkpt>
      <trkpt lat="44.58385" lon="2.96273">
        <ele>1224</ele>
        <time>2013-07-22T07:29:48Z</time>
      </trkpt>
      <trkpt lat="44.58384" lon="2.9628">
        <ele>1225</ele>
        <time>2013-07-22T07:29:53Z</time>
      </trkpt>
      <trkpt lat="44.58383" lon="2.96287">
        <ele>1226</ele>
        <time>2013-07-22T07:29:58Z</time>
      </trkpt>
      <trkpt lat="44.58381" lon="2.96294">
        <ele>1226</ele>
        <time>2013-07-22T07:30:02Z</time>
      </trkpt>
      <trkpt lat="44.58381" lon="2.963">
        <ele>1227</ele>
        <time>2013-07-22T07:30:06Z</time>
      </trkpt>
      <trkpt lat="44.5838" lon="2.96307">
        <ele>1228</ele>
        <time>2013-07-22T07:30:10Z</time>
      </trkpt>
      <trkpt lat="44.58378" lon="2.96314">
        <ele>1229</ele>
        <time>2013-07-22T07:30:15Z</time>
      </trkpt>
      <trkpt lat="44.58376" lon="2.96317">
        <ele>1229</ele>
        <time>2013-07-22T07:31:15Z</time>
      </trkpt>
      <trkpt lat="44.58375" lon="2.96324">
        <ele>1229</ele>
        <time>2013-07-22T07:31:26Z</time>
      </trkpt>
      <trkpt lat="44.58374" lon="2.96331">
        <ele>1230</ele>
        <time>2013-07-22T07:31:30Z</time>
      </trkpt>
      <trkpt lat="44.58373" lon="2.96339">
        <ele>1230</ele>
        <time>2013-07-22T07:31:36Z</time>
      </trkpt>
      <trkpt lat="44.58371" lon="2.96345">
        <ele>1230</ele>
        <time>2013-07-22T07:31:40Z</time>
      </trkpt>
      <trkpt lat="44.5837" lon="2.96352">
        <ele>1230</ele>
        <time>2013-07-22T07:31:45Z</time>
      </trkpt>
      <trkpt lat="44.58368" lon="2.9636">
        <ele>1231</ele>
        <time>2013-07-22T07:31:50Z</time>
      </trkpt>
      <trkpt lat="44.58367" lon="2.96367">
        <ele>1231</ele>
        <time>2013-07-22T07:31:54Z</time>
      </trkpt>
      <trkpt lat="44.58366" lon="2.96373">
        <ele>1232</ele>
        <time>2013-07-22T07:31:58Z</time>
      </trkpt>
      <trkpt lat="44.58365" lon="2.9638">
        <ele>1233</ele>
        <time>2013-07-22T07:32:02Z</time>
      </trkpt>
      <trkpt lat="44.58364" lon="2.96387">
        <ele>1234</ele>
        <time>2013-07-22T07:32:06Z</time>
      </trkpt>
      <trkpt lat="44.58363" lon="2.96394">
        <ele>1235</ele>
        <time>2013-07-22T07:32:10Z</time>
      </trkpt>
      <trkpt lat="44.58361" lon="2.96401">
        <ele>1236</ele>
        <time>2013-07-22T07:32:14Z</time>
      </trkpt>
      <trkpt lat="44.5836" lon="2.96408">
        <ele>1236</ele>
        <time>2013-07-22T07:32:18Z</time>
      </trkpt>
      <trkpt lat="44.5836" lon="2.96414">
        <ele>1237</ele>
        <time>2013-07-22T07:32:21Z</time>
      </trkpt>
      <trkpt lat="44.58359" lon="2.96421">
        <ele>1237</ele>
        <time>2013-07-22T07:32:25Z</time>
      </trkpt>
      <trkpt lat="44.58357" lon="2.96427">
        <ele>1238</ele>
        <time>2013-07-22T07:32:29Z</time>
      </trkpt>
      <trkpt lat="44.58356" lon="2.96434">
        <ele>1239</ele>
        <time>2013-07-22T07:32:33Z</time>
      </trkpt>
      <trkpt lat="44.58355" lon="2.96441">
        <ele>1239</ele>
        <time>2013-07-22T07:32:37Z</time>
      </trkpt>
      <trkpt lat="44.58353" lon="2.96448">
        <ele>1238</ele>
        <time>2013-07-22T07:32:41Z</time>
      </trkpt>
      <trkpt lat="44.58352" lon="2.96456">
        <ele>1238</ele>
        <time>2013-07-22T07:32:46Z</time>
      </trkpt>
      <trkpt lat="44.5835" lon="2.96463">
        <ele>1239</ele>
        <time>2013-07-22T07:32:51Z</time>
      </trkpt>
      <trkpt lat="44.58349" lon="2.9647">
        <ele>1239</ele>
        <time>2013-07-22T07:32:55Z</time>
      </trkpt>
      <trkpt lat="44.58348" lon="2.96477">
        <ele>1239</ele>
        <time>2013-07-22T07:32:59Z</time>
      </trkpt>
      <trkpt lat="44.58347" lon="2.96484">
        <ele>1240</ele>
        <time>2013-07-22T07:33:04Z</time>
      </trkpt>
      <trkpt lat="44.58346" lon="2.96491">
        <ele>1240</ele>
        <time>2013-07-22T07:33:08Z</time>
      </trkpt>
      <trkpt lat="44.58345" lon="2.96497">
        <ele>1240</ele>
        <time>2013-07-22T07:33:12Z</time>
      </trkpt>
      <trkpt lat="44.58344" lon="2.96504">
        <ele>1240</ele>
        <time>2013-07-22T07:33:16Z</time>
      </trkpt>
      <trkpt lat="44.58343" lon="2.96511">
        <ele>1240</ele>
        <time>2013-07-22T07:33:20Z</time>
      </trkpt>
      <trkpt lat="44.58341" lon="2.96518">
        <ele>1240</ele>
        <time>2013-07-22T07:33:24Z</time>
      </trkpt>
      <trkpt lat="44.58339" lon="2.96525">
        <ele>1241</ele>
        <time>2013-07-22T07:33:27Z</time>
      </trkpt>
      <trkpt lat="44.58337" lon="2.96532">
        <ele>1242</ele>
        <time>2013-07-22T07:33:31Z</time>
      </trkpt>
      <trkpt lat="44.58335" lon="2.96539">
        <ele>1242</ele>
        <time>2013-07-22T07:33:35Z</time>
      </trkpt>
      <trkpt lat="44.58335" lon="2.96547">
        <ele>1243</ele>
        <time>2013-07-22T07:33:39Z</time>
      </trkpt>
      <trkpt lat="44.58333" lon="2.96554">
        <ele>1243</ele>
        <time>2013-07-22T07:33:44Z</time>
      </trkpt>
      <trkpt lat="44.58333" lon="2.96562">
        <ele>1245</ele>
        <time>2013-07-22T07:33:48Z</time>
      </trkpt>
      <trkpt lat="44.58332" lon="2.9657">
        <ele>1246</ele>
        <time>2013-07-22T07:33:53Z</time>
      </trkpt>
      <trkpt lat="44.58331" lon="2.96577">
        <ele>1246</ele>
        <time>2013-07-22T07:33:57Z</time>
      </trkpt>
      <trkpt lat="44.5833" lon="2.96583">
        <ele>1246</ele>
        <time>2013-07-22T07:34:01Z</time>
      </trkpt>
      <trkpt lat="44.58329" lon="2.96591">
        <ele>1246</ele>
        <time>2013-07-22T07:34:06Z</time>
      </trkpt>
      <trkpt lat="44.58327" lon="2.96598">
        <ele>1247</ele>
        <time>2013-07-22T07:34:10Z</time>
      </trkpt>
      <trkpt lat="44.58326" lon="2.96605">
        <ele>1248</ele>
        <time>2013-07-22T07:34:13Z</time>
      </trkpt>
      <trkpt lat="44.58325" lon="2.96611">
        <ele>1249</ele>
        <time>2013-07-22T07:34:17Z</time>
      </trkpt>
      <trkpt lat="44.58323" lon="2.96618">
        <ele>1249</ele>
        <time>2013-07-22T07:34:21Z</time>
      </trkpt>
      <trkpt lat="44.58322" lon="2.96624">
        <ele>1250</ele>
        <time>2013-07-22T07:34:25Z</time>
      </trkpt>
      <trkpt lat="44.58321" lon="2.96632">
        <ele>1250</ele>
        <time>2013-07-22T07:34:29Z</time>
      </trkpt>
      <trkpt lat="44.5832" lon="2.96639">
        <ele>1250</ele>
        <time>2013-07-22T07:34:33Z</time>
      </trkpt>
      <trkpt lat="44.58318" lon="2.96645">
        <ele>1250</ele>
        <time>2013-07-22T07:34:37Z</time>
      </trkpt>
      <trkpt lat="44.58316" lon="2.96653">
        <ele>1250</ele>
        <time>2013-07-22T07:34:41Z</time>
      </trkpt>
      <trkpt lat="44.58315" lon="2.96659">
        <ele>1251</ele>
        <time>2013-07-22T07:34:44Z</time>
      </trkpt>
      <trkpt lat="44.58314" lon="2.96667">
        <ele>1250</ele>
        <time>2013-07-22T07:34:48Z</time>
      </trkpt>
      <trkpt lat="44.58313" lon="2.96674">
        <ele>1250</ele>
        <time>2013-07-22T07:34:52Z</time>
      </trkpt>
      <trkpt lat="44.58311" lon="2.9668">
        <ele>1250</ele>
        <time>2013-07-22T07:34:56Z</time>
      </trkpt>
      <trkpt lat="44.58309" lon="2.96688">
        <ele>1251</ele>
        <time>2013-07-22T07:35:00Z</time>
      </trkpt>
      <trkpt lat="44.58307" lon="2.96694">
        <ele>1252</ele>
        <time>2013-07-22T07:35:04Z</time>
      </trkpt>
      <trkpt lat="44.58306" lon="2.96701">
        <ele>1253</ele>
        <time>2013-07-22T07:35:08Z</time>
      </trkpt>
      <trkpt lat="44.58306" lon="2.96709">
        <ele>1253</ele>
        <time>2013-07-22T07:35:13Z</time>
      </trkpt>
      <trkpt lat="44.58304" lon="2.96717">
        <ele>1254</ele>
        <time>2013-07-22T07:35:17Z</time>
      </trkpt>
      <trkpt lat="44.58303" lon="2.96724">
        <ele>1254</ele>
        <time>2013-07-22T07:35:21Z</time>
      </trkpt>
      <trkpt lat="44.58302" lon="2.96731">
        <ele>1253</ele>
        <time>2013-07-22T07:35:25Z</time>
      </trkpt>
      <trkpt lat="44.583" lon="2.96738">
        <ele>1253</ele>
        <time>2013-07-22T07:35:29Z</time>
      </trkpt>
      <trkpt lat="44.58299" lon="2.96744">
        <ele>1253</ele>
        <time>2013-07-22T07:35:32Z</time>
      </trkpt>
      <trkpt lat="44.58298" lon="2.96751">
        <ele>1254</ele>
        <time>2013-07-22T07:35:36Z</time>
      </trkpt>
      <trkpt lat="44.58296" lon="2.96759">
        <ele>1255</ele>
        <time>2013-07-22T07:35:41Z</time>
      </trkpt>
      <trkpt lat="44.58296" lon="2.96766">
        <ele>1255</ele>
        <time>2013-07-22T07:35:45Z</time>
      </trkpt>
      <trkpt lat="44.58295" lon="2.96774">
        <ele>1255</ele>
        <time>2013-07-22T07:35:50Z</time>
      </trkpt>
      <trkpt lat="44.58294" lon="2.96782">
        <ele>1256</ele>
        <time>2013-07-22T07:35:54Z</time>
      </trkpt>
      <trkpt lat="44.58294" lon="2.9679">
        <ele>1256</ele>
        <time>2013-07-22T07:35:58Z</time>
      </trkpt>
      <trkpt lat="44.58293" lon="2.96796">
        <ele>1257</ele>
        <time>2013-07-22T07:36:03Z</time>
      </trkpt>
      <trkpt lat="44.58293" lon="2.96804">
        <ele>1257</ele>
        <time>2013-07-22T07:36:08Z</time>
      </trkpt>
      <trkpt lat="44.58292" lon="2.9681">
        <ele>1257</ele>
        <time>2013-07-22T07:36:14Z</time>
      </trkpt>
      <trkpt lat="44.58291" lon="2.96817">
        <ele>1258</ele>
        <time>2013-07-22T07:36:18Z</time>
      </trkpt>
      <trkpt lat="44.58291" lon="2.96825">
        <ele>1258</ele>
        <time>2013-07-22T07:36:23Z</time>
      </trkpt>
      <trkpt lat="44.58293" lon="2.96832">
        <ele>1258</ele>
        <time>2013-07-22T07:36:28Z</time>
      </trkpt>
      <trkpt lat="44.58292" lon="2.96839">
        <ele>1258</ele>
        <time>2013-07-22T07:36:32Z</time>
      </trkpt>
      <trkpt lat="44.58293" lon="2.96846">
        <ele>1259</ele>
        <time>2013-07-22T07:36:36Z</time>
      </trkpt>
      <trkpt lat="44.58293" lon="2.96853">
        <ele>1260</ele>
        <time>2013-07-22T07:36:40Z</time>
      </trkpt>
      <trkpt lat="44.58294" lon="2.9686">
        <ele>1260</ele>
        <time>2013-07-22T07:36:44Z</time>
      </trkpt>
      <trkpt lat="44.58295" lon="2.96867">
        <ele>1260</ele>
        <time>2013-07-22T07:36:48Z</time>
      </trkpt>
      <trkpt lat="44.58296" lon="2.96873">
        <ele>1261</ele>
        <time>2013-07-22T07:36:52Z</time>
      </trkpt>
      <trkpt lat="44.58295" lon="2.96881">
        <ele>1262</ele>
        <time>2013-07-22T07:36:56Z</time>
      </trkpt>
      <trkpt lat="44.58296" lon="2.96888">
        <ele>1263</ele>
        <time>2013-07-22T07:37:00Z</time>
      </trkpt>
      <trkpt lat="44.58296" lon="2.96896">
        <ele>1263</ele>
        <time>2013-07-22T07:37:05Z</time>
      </trkpt>
      <trkpt lat="44.58297" lon="2.96902">
        <ele>1264</ele>
        <time>2013-07-22T07:37:09Z</time>
      </trkpt>
      <trkpt lat="44.58298" lon="2.96909">
        <ele>1264</ele>
        <time>2013-07-22T07:37:14Z</time>
      </trkpt>
      <trkpt lat="44.58299" lon="2.96917">
        <ele>1264</ele>
        <time>2013-07-22T07:37:20Z</time>
      </trkpt>
      <trkpt lat="44.583" lon="2.96924">
        <ele>1264</ele>
        <time>2013-07-22T07:37:23Z</time>
      </trkpt>
      <trkpt lat="44.58301" lon="2.96932">
        <ele>1265</ele>
        <time>2013-07-22T07:37:27Z</time>
      </trkpt>
      <trkpt lat="44.58303" lon="2.96938">
        <ele>1264</ele>
        <time>2013-07-22T07:37:31Z</time>
      </trkpt>
      <trkpt lat="44.58304" lon="2.96945">
        <ele>1264</ele>
        <time>2013-07-22T07:37:35Z</time>
      </trkpt>
      <trkpt lat="44.58305" lon="2.96953">
        <ele>1265</ele>
        <time>2013-07-22T07:37:39Z</time>
      </trkpt>
      <trkpt lat="44.58306" lon="2.96959">
        <ele>1264</ele>
        <time>2013-07-22T07:37:42Z</time>
      </trkpt>
      <trkpt lat="44.58307" lon="2.96966">
        <ele>1265</ele>
        <time>2013-07-22T07:37:46Z</time>
      </trkpt>
      <trkpt lat="44.58307" lon="2.96974">
        <ele>1266</ele>
        <time>2013-07-22T07:37:50Z</time>
      </trkpt>
      <trkpt lat="44.58307" lon="2.96981">
        <ele>1267</ele>
        <time>2013-07-22T07:37:54Z</time>
      </trkpt>
      <trkpt lat="44.58307" lon="2.96988">
        <ele>1267</ele>
        <time>2013-07-22T07:37:58Z</time>
      </trkpt>
      <trkpt lat="44.58308" lon="2.96995">
        <ele>1267</ele>
        <time>2013-07-22T07:38:02Z</time>
      </trkpt>
      <trkpt lat="44.58309" lon="2.97002">
        <ele>1267</ele>
        <time>2013-07-22T07:38:06Z</time>
      </trkpt>
      <trkpt lat="44.58309" lon="2.9701">
        <ele>1267</ele>
        <time>2013-07-22T07:38:10Z</time>
      </trkpt>
      <trkpt lat="44.58307" lon="2.97017">
        <ele>1267</ele>
        <time>2013-07-22T07:38:14Z</time>
      </trkpt>
      <trkpt lat="44.58308" lon="2.97024">
        <ele>1267</ele>
        <time>2013-07-22T07:38:18Z</time>
      </trkpt>
      <trkpt lat="44.58309" lon="2.97032">
        <ele>1267</ele>
        <time>2013-07-22T07:38:22Z</time>
      </trkpt>
      <trkpt lat="44.5831" lon="2.9704">
        <ele>1268</ele>
        <time>2013-07-22T07:38:26Z</time>
      </trkpt>
      <trkpt lat="44.58311" lon="2.97047">
        <ele>1269</ele>
        <time>2013-07-22T07:38:30Z</time>
      </trkpt>
      <trkpt lat="44.58312" lon="2.97053">
        <ele>1269</ele>
        <time>2013-07-22T07:38:34Z</time>
      </trkpt>
      <trkpt lat="44.58312" lon="2.97061">
        <ele>1269</ele>
        <time>2013-07-22T07:38:38Z</time>
      </trkpt>
      <trkpt lat="44.58313" lon="2.97069">
        <ele>1269</ele>
        <time>2013-07-22T07:38:42Z</time>
      </trkpt>
      <trkpt lat="44.58314" lon="2.97076">
        <ele>1269</ele>
        <time>2013-07-22T07:38:46Z</time>
      </trkpt>
      <trkpt lat="44.58315" lon="2.97083">
        <ele>1270</ele>
        <time>2013-07-22T07:38:50Z</time>
      </trkpt>
      <trkpt lat="44.58316" lon="2.9709">
        <ele>1270</ele>
        <time>2013-07-22T07:38:54Z</time>
      </trkpt>
      <trkpt lat="44.58317" lon="2.97099">
        <ele>1270</ele>
        <time>2013-07-22T07:38:58Z</time>
      </trkpt>
      <trkpt lat="44.58318" lon="2.97107">
        <ele>1269</ele>
        <time>2013-07-22T07:39:02Z</time>
      </trkpt>
      <trkpt lat="44.58317" lon="2.97113">
        <ele>1269</ele>
        <time>2013-07-22T07:39:05Z</time>
      </trkpt>
      <trkpt lat="44.58318" lon="2.9712">
        <ele>1269</ele>
        <time>2013-07-22T07:39:08Z</time>
      </trkpt>
      <trkpt lat="44.58318" lon="2.97126">
        <ele>1269</ele>
        <time>2013-07-22T07:39:11Z</time>
      </trkpt>
      <trkpt lat="44.58318" lon="2.97133">
        <ele>1270</ele>
        <time>2013-07-22T07:39:14Z</time>
      </trkpt>
      <trkpt lat="44.5832" lon="2.9714">
        <ele>1270</ele>
        <time>2013-07-22T07:39:19Z</time>
      </trkpt>
      <trkpt lat="44.58321" lon="2.97148">
        <ele>1270</ele>
        <time>2013-07-22T07:39:23Z</time>
      </trkpt>
      <trkpt lat="44.58322" lon="2.97155">
        <ele>1270</ele>
        <time>2013-07-22T07:39:27Z</time>
      </trkpt>
      <trkpt lat="44.58323" lon="2.97163">
        <ele>1270</ele>
        <time>2013-07-22T07:39:31Z</time>
      </trkpt>
      <trkpt lat="44.58323" lon="2.97169">
        <ele>1271</ele>
        <time>2013-07-22T07:39:35Z</time>
      </trkpt>
      <trkpt lat="44.58323" lon="2.97177">
        <ele>1271</ele>
        <time>2013-07-22T07:39:39Z</time>
      </trkpt>
      <trkpt lat="44.58325" lon="2.97184">
        <ele>1272</ele>
        <time>2013-07-22T07:39:43Z</time>
      </trkpt>
      <trkpt lat="44.58325" lon="2.97192">
        <ele>1272</ele>
        <time>2013-07-22T07:39:47Z</time>
      </trkpt>
      <trkpt lat="44.58326" lon="2.97198">
        <ele>1272</ele>
        <time>2013-07-22T07:39:50Z</time>
      </trkpt>
      <trkpt lat="44.58327" lon="2.97205">
        <ele>1272</ele>
        <time>2013-07-22T07:39:54Z</time>
      </trkpt>
      <trkpt lat="44.58328" lon="2.97212">
        <ele>1272</ele>
        <time>2013-07-22T07:39:58Z</time>
      </trkpt>
      <trkpt lat="44.5833" lon="2.97219">
        <ele>1271</ele>
        <time>2013-07-22T07:40:02Z</time>
      </trkpt>
      <trkpt lat="44.58331" lon="2.97227">
        <ele>1271</ele>
        <time>2013-07-22T07:40:06Z</time>
      </trkpt>
      <trkpt lat="44.58331" lon="2.97233">
        <ele>1272</ele>
        <time>2013-07-22T07:40:10Z</time>
      </trkpt>
      <trkpt lat="44.58331" lon="2.9724">
        <ele>1272</ele>
        <time>2013-07-22T07:40:14Z</time>
      </trkpt>
      <trkpt lat="44.58331" lon="2.97247">
        <ele>1273</ele>
        <time>2013-07-22T07:40:18Z</time>
      </trkpt>
      <trkpt lat="44.58331" lon="2.97255">
        <ele>1274</ele>
        <time>2013-07-22T07:40:23Z</time>
      </trkpt>
      <trkpt lat="44.58332" lon="2.97262">
        <ele>1274</ele>
        <time>2013-07-22T07:40:28Z</time>
      </trkpt>
      <trkpt lat="44.58333" lon="2.9727">
        <ele>1274</ele>
        <time>2013-07-22T07:40:32Z</time>
      </trkpt>
      <trkpt lat="44.58334" lon="2.97278">
        <ele>1274</ele>
        <time>2013-07-22T07:40:36Z</time>
      </trkpt>
      <trkpt lat="44.58334" lon="2.97287">
        <ele>1274</ele>
        <time>2013-07-22T07:40:40Z</time>
      </trkpt>
      <trkpt lat="44.58334" lon="2.97294">
        <ele>1275</ele>
        <time>2013-07-22T07:40:43Z</time>
      </trkpt>
      <trkpt lat="44.58334" lon="2.97302">
        <ele>1275</ele>
        <time>2013-07-22T07:40:45Z</time>
      </trkpt>
      <trkpt lat="44.58335" lon="2.97315">
        <ele>1274</ele>
        <time>2013-07-22T07:40:48Z</time>
      </trkpt>
      <trkpt lat="44.58336" lon="2.97322">
        <ele>1274</ele>
        <time>2013-07-22T07:40:50Z</time>
      </trkpt>
      <trkpt lat="44.58337" lon="2.97329">
        <ele>1275</ele>
        <time>2013-07-22T07:40:52Z</time>
      </trkpt>
      <trkpt lat="44.58339" lon="2.97337">
        <ele>1276</ele>
        <time>2013-07-22T07:40:54Z</time>
      </trkpt>
      <trkpt lat="44.5834" lon="2.97346">
        <ele>1277</ele>
        <time>2013-07-22T07:40:56Z</time>
      </trkpt>
      <trkpt lat="44.58341" lon="2.97356">
        <ele>1277</ele>
        <time>2013-07-22T07:40:58Z</time>
      </trkpt>
      <trkpt lat="44.58342" lon="2.97365">
        <ele>1277</ele>
        <time>2013-07-22T07:41:00Z</time>
      </trkpt>
      <trkpt lat="44.58343" lon="2.97375">
        <ele>1277</ele>
        <time>2013-07-22T07:41:02Z</time>
      </trkpt>
      <trkpt lat="44.58345" lon="2.97385">
        <ele>1276</ele>
        <time>2013-07-22T07:41:04Z</time>
      </trkpt>
      <trkpt lat="44.58347" lon="2.97395">
        <ele>1276</ele>
        <time>2013-07-22T07:41:06Z</time>
      </trkpt>
      <trkpt lat="44.58348" lon="2.97403">
        <ele>1277</ele>
        <time>2013-07-22T07:41:08Z</time>
      </trkpt>
      <trkpt lat="44.58349" lon="2.97413">
        <ele>1277</ele>
        <time>2013-07-22T07:41:10Z</time>
      </trkpt>
      <trkpt lat="44.5835" lon="2.97422">
        <ele>1277</ele>
        <time>2013-07-22T07:41:12Z</time>
      </trkpt>
      <trkpt lat="44.58352" lon="2.97431">
        <ele>1277</ele>
        <time>2013-07-22T07:41:14Z</time>
      </trkpt>
      <trkpt lat="44.58355" lon="2.97439">
        <ele>1277</ele>
        <time>2013-07-22T07:41:16Z</time>
      </trkpt>
      <trkpt lat="44.58359" lon="2.97446">
        <ele>1277</ele>
        <time>2013-07-22T07:41:18Z</time>
      </trkpt>
      <trkpt lat="44.58365" lon="2.97455">
        <ele>1277</ele>
        <time>2013-07-22T07:41:20Z</time>
      </trkpt>
      <trkpt lat="44.58371" lon="2.97463">
        <ele>1277</ele>
        <time>2013-07-22T07:41:22Z</time>
      </trkpt>
      <trkpt lat="44.58378" lon="2.97471">
        <ele>1277</ele>
        <time>2013-07-22T07:41:24Z</time>
      </trkpt>
      <trkpt lat="44.58384" lon="2.97479">
        <ele>1278</ele>
        <time>2013-07-22T07:41:26Z</time>
      </trkpt>
      <trkpt lat="44.58388" lon="2.97483">
        <ele>1278</ele>
        <time>2013-07-22T07:41:27Z</time>
      </trkpt>
      <trkpt lat="44.58391" lon="2.97488">
        <ele>1277</ele>
        <time>2013-07-22T07:41:28Z</time>
      </trkpt>
      <trkpt lat="44.58395" lon="2.97492">
        <ele>1277</ele>
        <time>2013-07-22T07:41:29Z</time>
      </trkpt>
      <trkpt lat="44.58399" lon="2.97497">
        <ele>1277</ele>
        <time>2013-07-22T07:41:30Z</time>
      </trkpt>
      <trkpt lat="44.58403" lon="2.97502">
        <ele>1276</ele>
        <time>2013-07-22T07:41:31Z</time>
      </trkpt>
      <trkpt lat="44.58407" lon="2.97507">
        <ele>1276</ele>
        <time>2013-07-22T07:41:32Z</time>
      </trkpt>
      <trkpt lat="44.58411" lon="2.97513">
        <ele>1276</ele>
        <time>2013-07-22T07:41:33Z</time>
      </trkpt>
      <trkpt lat="44.58414" lon="2.97518">
        <ele>1276</ele>
        <time>2013-07-22T07:41:34Z</time>
      </trkpt>
      <trkpt lat="44.58417" lon="2.97522">
        <ele>1276</ele>
        <time>2013-07-22T07:41:35Z</time>
      </trkpt>
      <trkpt lat="44.5842" lon="2.97528">
        <ele>1276</ele>
        <time>2013-07-22T07:41:36Z</time>
      </trkpt>
      <trkpt lat="44.58423" lon="2.97533">
        <ele>1277</ele>
        <time>2013-07-22T07:41:37Z</time>
      </trkpt>
      <trkpt lat="44.58427" lon="2.97538">
        <ele>1277</ele>
        <time>2013-07-22T07:41:38Z</time>
      </trkpt>
      <trkpt lat="44.5843" lon="2.97543">
        <ele>1277</ele>
        <time>2013-07-22T07:41:39Z</time>
      </trkpt>
      <trkpt lat="44.58433" lon="2.97548">
        <ele>1277</ele>
        <time>2013-07-22T07:41:40Z</time>
      </trkpt>
      <trkpt lat="44.58436" lon="2.97552">
        <ele>1277</ele>
        <time>2013-07-22T07:41:41Z</time>
      </trkpt>
      <trkpt lat="44.5844" lon="2.97558">
        <ele>1277</ele>
        <time>2013-07-22T07:41:42Z</time>
      </trkpt>
      <trkpt lat="44.58443" lon="2.97563">
        <ele>1276</ele>
        <time>2013-07-22T07:41:43Z</time>
      </trkpt>
      <trkpt lat="44.58446" lon="2.97568">
        <ele>1276</ele>
        <time>2013-07-22T07:41:44Z</time>
      </trkpt>
      <trkpt lat="44.5845" lon="2.97573">
        <ele>1276</ele>
        <time>2013-07-22T07:41:45Z</time>
      </trkpt>
      <trkpt lat="44.58454" lon="2.97579">
        <ele>1276</ele>
        <time>2013-07-22T07:41:46Z</time>
      </trkpt>
      <trkpt lat="44.58459" lon="2.97584">
        <ele>1276</ele>
        <time>2013-07-22T07:41:47Z</time>
      </trkpt>
      <trkpt lat="44.58463" lon="2.97589">
        <ele>1276</ele>
        <time>2013-07-22T07:41:48Z</time>
      </trkpt>
      <trkpt lat="44.58467" lon="2.97594">
        <ele>1276</ele>
        <time>2013-07-22T07:41:49Z</time>
      </trkpt>
      <trkpt lat="44.58471" lon="2.976">
        <ele>1276</ele>
        <time>2013-07-22T07:41:50Z</time>
      </trkpt>
      <trkpt lat="44.58475" lon="2.97605">
        <ele>1276</ele>
        <time>2013-07-22T07:41:51Z</time>
      </trkpt>
      <trkpt lat="44.58479" lon="2.97609">
        <ele>1276</ele>
        <time>2013-07-22T07:41:52Z</time>
      </trkpt>
      <trkpt lat="44.58482" lon="2.97614">
        <ele>1276</ele>
        <time>2013-07-22T07:41:53Z</time>
      </trkpt>
      <trkpt lat="44.58485" lon="2.97619">
        <ele>1276</ele>
        <time>2013-07-22T07:41:54Z</time>
      </trkpt>
      <trkpt lat="44.58488" lon="2.97624">
        <ele>1276</ele>
        <time>2013-07-22T07:41:55Z</time>
      </trkpt>
      <trkpt lat="44.58492" lon="2.97629">
        <ele>1276</ele>
        <time>2013-07-22T07:41:56Z</time>
      </trkpt>
      <trkpt lat="44.58496" lon="2.97634">
        <ele>1276</ele>
        <time>2013-07-22T07:41:57Z</time>
      </trkpt>
      <trkpt lat="44.58501" lon="2.97642">
        <ele>1277</ele>
        <time>2013-07-22T07:41:59Z</time>
      </trkpt>
      <trkpt lat="44.58504" lon="2.97647">
        <ele>1277</ele>
        <time>2013-07-22T07:42:00Z</time>
      </trkpt>
      <trkpt lat="44.58511" lon="2.97658">
        <ele>1277</ele>
        <time>2013-07-22T07:42:02Z</time>
      </trkpt>
      <trkpt lat="44.58515" lon="2.97663">
        <ele>1277</ele>
        <time>2013-07-22T07:42:03Z</time>
      </trkpt>
      <trkpt lat="44.58518" lon="2.97668">
        <ele>1277</ele>
        <time>2013-07-22T07:42:04Z</time>
      </trkpt>
      <trkpt lat="44.58522" lon="2.97673">
        <ele>1277</ele>
        <time>2013-07-22T07:42:05Z</time>
      </trkpt>
      <trkpt lat="44.58526" lon="2.97678">
        <ele>1278</ele>
        <time>2013-07-22T07:42:06Z</time>
      </trkpt>
      <trkpt lat="44.5853" lon="2.97683">
        <ele>1278</ele>
        <time>2013-07-22T07:42:07Z</time>
      </trkpt>
      <trkpt lat="44.58534" lon="2.97689">
        <ele>1279</ele>
        <time>2013-07-22T07:42:08Z</time>
      </trkpt>
      <trkpt lat="44.58538" lon="2.97694">
        <ele>1279</ele>
        <time>2013-07-22T07:42:09Z</time>
      </trkpt>
      <trkpt lat="44.58542" lon="2.977">
        <ele>1279</ele>
        <time>2013-07-22T07:42:10Z</time>
      </trkpt>
      <trkpt lat="44.58545" lon="2.97704">
        <ele>1279</ele>
        <time>2013-07-22T07:42:11Z</time>
      </trkpt>
      <trkpt lat="44.58549" lon="2.97708">
        <ele>1280</ele>
        <time>2013-07-22T07:42:12Z</time>
      </trkpt>
      <trkpt lat="44.58553" lon="2.97713">
        <ele>1280</ele>
        <time>2013-07-22T07:42:13Z</time>
      </trkpt>
      <trkpt lat="44.58556" lon="2.97717">
        <ele>1280</ele>
        <time>2013-07-22T07:42:14Z</time>
      </trkpt>
      <trkpt lat="44.5856" lon="2.97722">
        <ele>1280</ele>
        <time>2013-07-22T07:42:15Z</time>
      </trkpt>
      <trkpt lat="44.58565" lon="2.97728">
        <ele>1280</ele>
        <time>2013-07-22T07:42:16Z</time>
      </trkpt>
      <trkpt lat="44.58569" lon="2.97733">
        <ele>1280</ele>
        <time>2013-07-22T07:42:17Z</time>
      </trkpt>
      <trkpt lat="44.58573" lon="2.97737">
        <ele>1279</ele>
        <time>2013-07-22T07:42:18Z</time>
      </trkpt>
      <trkpt lat="44.58577" lon="2.9774">
        <ele>1279</ele>
        <time>2013-07-22T07:42:19Z</time>
      </trkpt>
      <trkpt lat="44.58581" lon="2.97744">
        <ele>1279</ele>
        <time>2013-07-22T07:42:20Z</time>
      </trkpt>
      <trkpt lat="44.58585" lon="2.97749">
        <ele>1279</ele>
        <time>2013-07-22T07:42:21Z</time>
      </trkpt>
      <trkpt lat="44.58588" lon="2.97754">
        <ele>1279</ele>
        <time>2013-07-22T07:42:22Z</time>
      </trkpt>
      <trkpt lat="44.58592" lon="2.97759">
        <ele>1279</ele>
        <time>2013-07-22T07:42:23Z</time>
      </trkpt>
      <trkpt lat="44.58595" lon="2.97763">
        <ele>1279</ele>
        <time>2013-07-22T07:42:24Z</time>
      </trkpt>
      <trkpt lat="44.58598" lon="2.97768">
        <ele>1279</ele>
        <time>2013-07-22T07:42:25Z</time>
      </trkpt>
      <trkpt lat="44.58605" lon="2.9778">
        <ele>1278</ele>
        <time>2013-07-22T07:42:28Z</time>
      </trkpt>
      <trkpt lat="44.58612" lon="2.9779">
        <ele>1276</ele>
        <time>2013-07-22T07:42:31Z</time>
      </trkpt>
      <trkpt lat="44.5862" lon="2.97804">
        <ele>1275</ele>
        <time>2013-07-22T07:42:34Z</time>
      </trkpt>
      <trkpt lat="44.58624" lon="2.97815">
        <ele>1275</ele>
        <time>2013-07-22T07:42:36Z</time>
      </trkpt>
      <trkpt lat="44.58632" lon="2.97826">
        <ele>1274</ele>
        <time>2013-07-22T07:42:38Z</time>
      </trkpt>
      <trkpt lat="44.58639" lon="2.97838">
        <ele>1274</ele>
        <time>2013-07-22T07:42:40Z</time>
      </trkpt>
      <trkpt lat="44.58647" lon="2.97852">
        <ele>1274</ele>
        <time>2013-07-22T07:42:42Z</time>
      </trkpt>
      <trkpt lat="44.58655" lon="2.97864">
        <ele>1274</ele>
        <time>2013-07-22T07:42:44Z</time>
      </trkpt>
      <trkpt lat="44.58662" lon="2.97875">
        <ele>1274</ele>
        <time>2013-07-22T07:42:46Z</time>
      </trkpt>
      <trkpt lat="44.5867" lon="2.97883">
        <ele>1275</ele>
        <time>2013-07-22T07:42:48Z</time>
      </trkpt>
      <trkpt lat="44.58679" lon="2.97894">
        <ele>1277</ele>
        <time>2013-07-22T07:42:51Z</time>
      </trkpt>
      <trkpt lat="44.58688" lon="2.97904">
        <ele>1281</ele>
        <time>2013-07-22T07:42:57Z</time>
      </trkpt>
      <trkpt lat="44.58696" lon="2.97909">
        <ele>1282</ele>
        <time>2013-07-22T07:43:01Z</time>
      </trkpt>
      <trkpt lat="44.587" lon="2.97913">
        <ele>1283</ele>
        <time>2013-07-22T07:43:03Z</time>
      </trkpt>
      <trkpt lat="44.58704" lon="2.97919">
        <ele>1285</ele>
        <time>2013-07-22T07:43:08Z</time>
      </trkpt>
      <trkpt lat="44.58709" lon="2.97929">
        <ele>1286</ele>
        <time>2013-07-22T07:43:18Z</time>
      </trkpt>
      <trkpt lat="44.58712" lon="2.97935">
        <ele>1287</ele>
        <time>2013-07-22T07:43:22Z</time>
      </trkpt>
      <trkpt lat="44.58718" lon="2.97944">
        <ele>1286</ele>
        <time>2013-07-22T07:43:29Z</time>
      </trkpt>
      <trkpt lat="44.58726" lon="2.97954">
        <ele>1284</ele>
        <time>2013-07-22T07:43:40Z</time>
      </trkpt>
      <trkpt lat="44.58734" lon="2.97963">
        <ele>1284</ele>
        <time>2013-07-22T07:43:48Z</time>
      </trkpt>
      <trkpt lat="44.58742" lon="2.97968">
        <ele>1284</ele>
        <time>2013-07-22T07:43:55Z</time>
      </trkpt>
      <trkpt lat="44.58751" lon="2.9797">
        <ele>1284</ele>
        <time>2013-07-22T07:44:04Z</time>
      </trkpt>
      <trkpt lat="44.5876" lon="2.97973">
        <ele>1284</ele>
        <time>2013-07-22T07:44:11Z</time>
      </trkpt>
      <trkpt lat="44.58769" lon="2.97976">
        <ele>1283</ele>
        <time>2013-07-22T07:44:17Z</time>
      </trkpt>
      <trkpt lat="44.58779" lon="2.97978">
        <ele>1284</ele>
        <time>2013-07-22T07:44:24Z</time>
      </trkpt>
      <trkpt lat="44.58785" lon="2.97977">
        <ele>1284</ele>
        <time>2013-07-22T07:44:27Z</time>
      </trkpt>
      <trkpt lat="44.5879" lon="2.97977">
        <ele>1286</ele>
        <time>2013-07-22T07:44:31Z</time>
      </trkpt>
      <trkpt lat="44.58795" lon="2.97977">
        <ele>1288</ele>
        <time>2013-07-22T07:44:45Z</time>
      </trkpt>
      <trkpt lat="44.58802" lon="2.97983">
        <ele>1287</ele>
        <time>2013-07-22T07:45:14Z</time>
      </trkpt>
      <trkpt lat="44.58804" lon="2.97982">
        <ele>1295</ele>
        <time>2013-07-22T07:46:33Z</time>
      </trkpt>
      <trkpt lat="44.58809" lon="2.97979">
        <ele>1294</ele>
        <time>2013-07-22T07:46:38Z</time>
      </trkpt>
      <trkpt lat="44.58811" lon="2.97983">
        <ele>1294</ele>
        <time>2013-07-22T07:49:13Z</time>
      </trkpt>
      <trkpt lat="44.58822" lon="2.97977">
        <ele>1293</ele>
        <time>2013-07-22T07:49:26Z</time>
      </trkpt>
      <trkpt lat="44.58832" lon="2.97977">
        <ele>1292</ele>
        <time>2013-07-22T07:49:35Z</time>
      </trkpt>
      <trkpt lat="44.58843" lon="2.97979">
        <ele>1293</ele>
        <time>2013-07-22T07:49:46Z</time>
      </trkpt>
      <trkpt lat="44.58852" lon="2.97976">
        <ele>1294</ele>
        <time>2013-07-22T07:49:54Z</time>
      </trkpt>
      <trkpt lat="44.58861" lon="2.97975">
        <ele>1293</ele>
        <time>2013-07-22T07:49:57Z</time>
      </trkpt>
      <trkpt lat="44.58872" lon="2.97974">
        <ele>1292</ele>
        <time>2013-07-22T07:50:00Z</time>
      </trkpt>
      <trkpt lat="44.58883" lon="2.97973">
        <ele>1291</ele>
        <time>2013-07-22T07:50:03Z</time>
      </trkpt>
      <trkpt lat="44.58895" lon="2.97972">
        <ele>1290</ele>
        <time>2013-07-22T07:50:06Z</time>
      </trkpt>
      <trkpt lat="44.58905" lon="2.97972">
        <ele>1290</ele>
        <time>2013-07-22T07:50:08Z</time>
      </trkpt>
      <trkpt lat="44.58917" lon="2.97973">
        <ele>1291</ele>
        <time>2013-07-22T07:50:11Z</time>
      </trkpt>
      <trkpt lat="44.58926" lon="2.97973">
        <ele>1290</ele>
        <time>2013-07-22T07:50:14Z</time>
      </trkpt>
      <trkpt lat="44.58937" lon="2.97972">
        <ele>1290</ele>
        <time>2013-07-22T07:50:17Z</time>
      </trkpt>
      <trkpt lat="44.58949" lon="2.9797">
        <ele>1291</ele>
        <time>2013-07-22T07:50:20Z</time>
      </trkpt>
      <trkpt lat="44.58959" lon="2.97971">
        <ele>1292</ele>
        <time>2013-07-22T07:50:23Z</time>
      </trkpt>
      <trkpt lat="44.5897" lon="2.9797">
        <ele>1291</ele>
        <time>2013-07-22T07:50:26Z</time>
      </trkpt>
      <trkpt lat="44.58981" lon="2.97969">
        <ele>1291</ele>
        <time>2013-07-22T07:50:29Z</time>
      </trkpt>
      <trkpt lat="44.58991" lon="2.97968">
        <ele>1291</ele>
        <time>2013-07-22T07:50:32Z</time>
      </trkpt>
      <trkpt lat="44.59001" lon="2.97968">
        <ele>1289</ele>
        <time>2013-07-22T07:50:35Z</time>
      </trkpt>
      <trkpt lat="44.59014" lon="2.97967">
        <ele>1288</ele>
        <time>2013-07-22T07:50:38Z</time>
      </trkpt>
      <trkpt lat="44.59024" lon="2.97967">
        <ele>1288</ele>
        <time>2013-07-22T07:50:41Z</time>
      </trkpt>
      <trkpt lat="44.59035" lon="2.97964">
        <ele>1288</ele>
        <time>2013-07-22T07:50:45Z</time>
      </trkpt>
      <trkpt lat="44.59045" lon="2.97964">
        <ele>1287</ele>
        <time>2013-07-22T07:50:48Z</time>
      </trkpt>
      <trkpt lat="44.59055" lon="2.97963">
        <ele>1287</ele>
        <time>2013-07-22T07:50:51Z</time>
      </trkpt>
      <trkpt lat="44.59066" lon="2.97962">
        <ele>1288</ele>
        <time>2013-07-22T07:50:54Z</time>
      </trkpt>
      <trkpt lat="44.59078" lon="2.97962">
        <ele>1289</ele>
        <time>2013-07-22T07:50:58Z</time>
      </trkpt>
      <trkpt lat="44.59089" lon="2.97962">
        <ele>1289</ele>
        <time>2013-07-22T07:51:02Z</time>
      </trkpt>
      <trkpt lat="44.591" lon="2.97963">
        <ele>1289</ele>
        <time>2013-07-22T07:51:06Z</time>
      </trkpt>
      <trkpt lat="44.59111" lon="2.9796">
        <ele>1290</ele>
        <time>2013-07-22T07:51:09Z</time>
      </trkpt>
      <trkpt lat="44.59122" lon="2.97956">
        <ele>1290</ele>
        <time>2013-07-22T07:51:12Z</time>
      </trkpt>
      <trkpt lat="44.59133" lon="2.97954">
        <ele>1289</ele>
        <time>2013-07-22T07:51:15Z</time>
      </trkpt>
      <trkpt lat="44.59142" lon="2.97955">
        <ele>1289</ele>
        <time>2013-07-22T07:51:18Z</time>
      </trkpt>
      <trkpt lat="44.59155" lon="2.97954">
        <ele>1290</ele>
        <time>2013-07-22T07:51:21Z</time>
      </trkpt>
      <trkpt lat="44.59166" lon="2.97954">
        <ele>1290</ele>
        <time>2013-07-22T07:51:25Z</time>
      </trkpt>
      <trkpt lat="44.59178" lon="2.97956">
        <ele>1290</ele>
        <time>2013-07-22T07:51:28Z</time>
      </trkpt>
      <trkpt lat="44.59188" lon="2.97957">
        <ele>1291</ele>
        <time>2013-07-22T07:51:30Z</time>
      </trkpt>
      <trkpt lat="44.592" lon="2.97959">
        <ele>1291</ele>
        <time>2013-07-22T07:51:33Z</time>
      </trkpt>
      <trkpt lat="44.59212" lon="2.97958">
        <ele>1291</ele>
        <time>2013-07-22T07:51:36Z</time>
      </trkpt>
      <trkpt lat="44.59222" lon="2.97959">
        <ele>1292</ele>
        <time>2013-07-22T07:51:39Z</time>
      </trkpt>
      <trkpt lat="44.59233" lon="2.97959">
        <ele>1293</ele>
        <time>2013-07-22T07:51:42Z</time>
      </trkpt>
      <trkpt lat="44.59245" lon="2.9796">
        <ele>1293</ele>
        <time>2013-07-22T07:51:45Z</time>
      </trkpt>
      <trkpt lat="44.59255" lon="2.97961">
        <ele>1292</ele>
        <time>2013-07-22T07:51:48Z</time>
      </trkpt>
      <trkpt lat="44.59265" lon="2.97962">
        <ele>1292</ele>
        <time>2013-07-22T07:51:51Z</time>
      </trkpt>
      <trkpt lat="44.59277" lon="2.97964">
        <ele>1292</ele>
        <time>2013-07-22T07:51:54Z</time>
      </trkpt>
      <trkpt lat="44.59288" lon="2.97964">
        <ele>1292</ele>
        <time>2013-07-22T07:51:58Z</time>
      </trkpt>
      <trkpt lat="44.59297" lon="2.97967">
        <ele>1291</ele>
        <time>2013-07-22T07:52:01Z</time>
      </trkpt>
      <trkpt lat="44.59309" lon="2.97972">
        <ele>1290</ele>
        <time>2013-07-22T07:52:05Z</time>
      </trkpt>
      <trkpt lat="44.59319" lon="2.97974">
        <ele>1290</ele>
        <time>2013-07-22T07:52:09Z</time>
      </trkpt>
      <trkpt lat="44.59329" lon="2.97978">
        <ele>1291</ele>
        <time>2013-07-22T07:52:12Z</time>
      </trkpt>
      <trkpt lat="44.5934" lon="2.9798">
        <ele>1291</ele>
        <time>2013-07-22T07:52:15Z</time>
      </trkpt>
      <trkpt lat="44.5935" lon="2.97981">
        <ele>1291</ele>
        <time>2013-07-22T07:52:18Z</time>
      </trkpt>
      <trkpt lat="44.5936" lon="2.97986">
        <ele>1291</ele>
        <time>2013-07-22T07:52:21Z</time>
      </trkpt>
      <trkpt lat="44.5937" lon="2.97989">
        <ele>1291</ele>
        <time>2013-07-22T07:52:24Z</time>
      </trkpt>
      <trkpt lat="44.59379" lon="2.97994">
        <ele>1291</ele>
        <time>2013-07-22T07:52:27Z</time>
      </trkpt>
      <trkpt lat="44.59387" lon="2.98">
        <ele>1291</ele>
        <time>2013-07-22T07:52:30Z</time>
      </trkpt>
      <trkpt lat="44.59398" lon="2.98007">
        <ele>1291</ele>
        <time>2013-07-22T07:52:34Z</time>
      </trkpt>
      <trkpt lat="44.59408" lon="2.98012">
        <ele>1292</ele>
        <time>2013-07-22T07:52:37Z</time>
      </trkpt>
      <trkpt lat="44.59419" lon="2.98018">
        <ele>1292</ele>
        <time>2013-07-22T07:52:40Z</time>
      </trkpt>
      <trkpt lat="44.59428" lon="2.98023">
        <ele>1292</ele>
        <time>2013-07-22T07:52:43Z</time>
      </trkpt>
      <trkpt lat="44.59436" lon="2.98031">
        <ele>1292</ele>
        <time>2013-07-22T07:52:46Z</time>
      </trkpt>
      <trkpt lat="44.59447" lon="2.98037">
        <ele>1292</ele>
        <time>2013-07-22T07:52:49Z</time>
      </trkpt>
      <trkpt lat="44.59457" lon="2.98042">
        <ele>1292</ele>
        <time>2013-07-22T07:52:51Z</time>
      </trkpt>
      <trkpt lat="44.5947" lon="2.9805">
        <ele>1293</ele>
        <time>2013-07-22T07:52:54Z</time>
      </trkpt>
      <trkpt lat="44.5948" lon="2.98055">
        <ele>1293</ele>
        <time>2013-07-22T07:52:56Z</time>
      </trkpt>
      <trkpt lat="44.59489" lon="2.98059">
        <ele>1293</ele>
        <time>2013-07-22T07:52:58Z</time>
      </trkpt>
      <trkpt lat="44.595" lon="2.98066">
        <ele>1295</ele>
        <time>2013-07-22T07:53:01Z</time>
      </trkpt>
      <trkpt lat="44.59508" lon="2.98071">
        <ele>1295</ele>
        <time>2013-07-22T07:53:04Z</time>
      </trkpt>
      <trkpt lat="44.59517" lon="2.98077">
        <ele>1295</ele>
        <time>2013-07-22T07:53:07Z</time>
      </trkpt>
      <trkpt lat="44.59526" lon="2.98082">
        <ele>1296</ele>
        <time>2013-07-22T07:53:10Z</time>
      </trkpt>
      <trkpt lat="44.59535" lon="2.98087">
        <ele>1297</ele>
        <time>2013-07-22T07:53:12Z</time>
      </trkpt>
      <trkpt lat="44.59546" lon="2.98094">
        <ele>1298</ele>
        <time>2013-07-22T07:53:15Z</time>
      </trkpt>
      <trkpt lat="44.59554" lon="2.98099">
        <ele>1299</ele>
        <time>2013-07-22T07:53:17Z</time>
      </trkpt>
      <trkpt lat="44.59563" lon="2.98104">
        <ele>1299</ele>
        <time>2013-07-22T07:53:19Z</time>
      </trkpt>
      <trkpt lat="44.59572" lon="2.98111">
        <ele>1298</ele>
        <time>2013-07-22T07:53:22Z</time>
      </trkpt>
      <trkpt lat="44.5958" lon="2.98117">
        <ele>1298</ele>
        <time>2013-07-22T07:53:25Z</time>
      </trkpt>
      <trkpt lat="44.5959" lon="2.98123">
        <ele>1298</ele>
        <time>2013-07-22T07:53:28Z</time>
      </trkpt>
      <trkpt lat="44.596" lon="2.9813">
        <ele>1297</ele>
        <time>2013-07-22T07:53:31Z</time>
      </trkpt>
      <trkpt lat="44.59609" lon="2.98134">
        <ele>1295</ele>
        <time>2013-07-22T07:53:34Z</time>
      </trkpt>
      <trkpt lat="44.5962" lon="2.98141">
        <ele>1295</ele>
        <time>2013-07-22T07:53:37Z</time>
      </trkpt>
      <trkpt lat="44.59629" lon="2.9815">
        <ele>1294</ele>
        <time>2013-07-22T07:53:40Z</time>
      </trkpt>
      <trkpt lat="44.59636" lon="2.98159">
        <ele>1295</ele>
        <time>2013-07-22T07:53:43Z</time>
      </trkpt>
      <trkpt lat="44.59644" lon="2.98166">
        <ele>1296</ele>
        <time>2013-07-22T07:53:50Z</time>
      </trkpt>
      <trkpt lat="44.59655" lon="2.98168">
        <ele>1293</ele>
        <time>2013-07-22T07:53:58Z</time>
      </trkpt>
      <trkpt lat="44.59663" lon="2.98173">
        <ele>1293</ele>
        <time>2013-07-22T07:54:01Z</time>
      </trkpt>
      <trkpt lat="44.59671" lon="2.98183">
        <ele>1292</ele>
        <time>2013-07-22T07:54:05Z</time>
      </trkpt>
      <trkpt lat="44.59674" lon="2.98195">
        <ele>1292</ele>
        <time>2013-07-22T07:54:11Z</time>
      </trkpt>
      <trkpt lat="44.59677" lon="2.98201">
        <ele>1294</ele>
        <time>2013-07-22T07:54:19Z</time>
      </trkpt>
      <trkpt lat="44.59687" lon="2.98204">
        <ele>1296</ele>
        <time>2013-07-22T07:54:27Z</time>
      </trkpt>
      <trkpt lat="44.59696" lon="2.98206">
        <ele>1300</ele>
        <time>2013-07-22T07:54:36Z</time>
      </trkpt>
      <trkpt lat="44.59704" lon="2.98209">
        <ele>1301</ele>
        <time>2013-07-22T07:54:43Z</time>
      </trkpt>
      <trkpt lat="44.59712" lon="2.98217">
        <ele>1300</ele>
        <time>2013-07-22T07:54:50Z</time>
      </trkpt>
      <trkpt lat="44.59716" lon="2.98222">
        <ele>1301</ele>
        <time>2013-07-22T07:54:53Z</time>
      </trkpt>
      <trkpt lat="44.59723" lon="2.98229">
        <ele>1303</ele>
        <time>2013-07-22T07:54:59Z</time>
      </trkpt>
      <trkpt lat="44.59728" lon="2.98234">
        <ele>1306</ele>
        <time>2013-07-22T07:55:04Z</time>
      </trkpt>
      <trkpt lat="44.59731" lon="2.9824">
        <ele>1307</ele>
        <time>2013-07-22T07:55:10Z</time>
      </trkpt>
      <trkpt lat="44.59736" lon="2.98249">
        <ele>1306</ele>
        <time>2013-07-22T07:55:17Z</time>
      </trkpt>
      <trkpt lat="44.59743" lon="2.98259">
        <ele>1304</ele>
        <time>2013-07-22T07:55:25Z</time>
      </trkpt>
      <trkpt lat="44.59748" lon="2.9827">
        <ele>1303</ele>
        <time>2013-07-22T07:55:34Z</time>
      </trkpt>
      <trkpt lat="44.59755" lon="2.98281">
        <ele>1302</ele>
        <time>2013-07-22T07:55:43Z</time>
      </trkpt>
      <trkpt lat="44.5976" lon="2.98287">
        <ele>1303</ele>
        <time>2013-07-22T07:55:49Z</time>
      </trkpt>
      <trkpt lat="44.59766" lon="2.98294">
        <ele>1304</ele>
        <time>2013-07-22T07:55:54Z</time>
      </trkpt>
      <trkpt lat="44.5977" lon="2.98299">
        <ele>1306</ele>
        <time>2013-07-22T07:55:58Z</time>
      </trkpt>
      <trkpt lat="44.59778" lon="2.98307">
        <ele>1304</ele>
        <time>2013-07-22T07:56:09Z</time>
      </trkpt>
      <trkpt lat="44.59785" lon="2.98316">
        <ele>1302</ele>
        <time>2013-07-22T07:56:17Z</time>
      </trkpt>
      <trkpt lat="44.59789" lon="2.98321">
        <ele>1300</ele>
        <time>2013-07-22T07:56:21Z</time>
      </trkpt>
      <trkpt lat="44.59796" lon="2.98334">
        <ele>1300</ele>
        <time>2013-07-22T07:56:30Z</time>
      </trkpt>
      <trkpt lat="44.59804" lon="2.9834">
        <ele>1303</ele>
        <time>2013-07-22T07:56:37Z</time>
      </trkpt>
      <trkpt lat="44.59812" lon="2.98349">
        <ele>1303</ele>
        <time>2013-07-22T07:56:43Z</time>
      </trkpt>
      <trkpt lat="44.59818" lon="2.98358">
        <ele>1303</ele>
        <time>2013-07-22T07:56:49Z</time>
      </trkpt>
      <trkpt lat="44.59827" lon="2.98369">
        <ele>1302</ele>
        <time>2013-07-22T07:56:58Z</time>
      </trkpt>
      <trkpt lat="44.5983" lon="2.98374">
        <ele>1303</ele>
        <time>2013-07-22T07:57:01Z</time>
      </trkpt>
      <trkpt lat="44.59838" lon="2.98383">
        <ele>1302</ele>
        <time>2013-07-22T07:57:10Z</time>
      </trkpt>
      <trkpt lat="44.59845" lon="2.98393">
        <ele>1301</ele>
        <time>2013-07-22T07:57:17Z</time>
      </trkpt>
      <trkpt lat="44.5985" lon="2.98399">
        <ele>1302</ele>
        <time>2013-07-22T07:57:21Z</time>
      </trkpt>
      <trkpt lat="44.59857" lon="2.98406">
        <ele>1302</ele>
        <time>2013-07-22T07:57:27Z</time>
      </trkpt>
      <trkpt lat="44.59863" lon="2.98419">
        <ele>1301</ele>
        <time>2013-07-22T07:57:33Z</time>
      </trkpt>
      <trkpt lat="44.5987" lon="2.98429">
        <ele>1296</ele>
        <time>2013-07-22T07:57:41Z</time>
      </trkpt>
      <trkpt lat="44.59872" lon="2.98443">
        <ele>1295</ele>
        <time>2013-07-22T07:57:48Z</time>
      </trkpt>
      <trkpt lat="44.59872" lon="2.98458">
        <ele>1295</ele>
        <time>2013-07-22T07:57:58Z</time>
      </trkpt>
      <trkpt lat="44.59879" lon="2.98467">
        <ele>1295</ele>
        <time>2013-07-22T07:58:04Z</time>
      </trkpt>
      <trkpt lat="44.59885" lon="2.98479">
        <ele>1297</ele>
        <time>2013-07-22T07:58:11Z</time>
      </trkpt>
      <trkpt lat="44.5989" lon="2.9849">
        <ele>1300</ele>
        <time>2013-07-22T07:58:18Z</time>
      </trkpt>
      <trkpt lat="44.59893" lon="2.98496">
        <ele>1301</ele>
        <time>2013-07-22T07:58:22Z</time>
      </trkpt>
      <trkpt lat="44.59892" lon="2.9851">
        <ele>1302</ele>
        <time>2013-07-22T07:58:30Z</time>
      </trkpt>
      <trkpt lat="44.59893" lon="2.98524">
        <ele>1301</ele>
        <time>2013-07-22T07:58:39Z</time>
      </trkpt>
      <trkpt lat="44.59898" lon="2.98536">
        <ele>1302</ele>
        <time>2013-07-22T07:58:46Z</time>
      </trkpt>
      <trkpt lat="44.59902" lon="2.98548">
        <ele>1305</ele>
        <time>2013-07-22T07:58:54Z</time>
      </trkpt>
      <trkpt lat="44.59904" lon="2.98561">
        <ele>1305</ele>
        <time>2013-07-22T07:59:01Z</time>
      </trkpt>
      <trkpt lat="44.59905" lon="2.9857">
        <ele>1306</ele>
        <time>2013-07-22T07:59:06Z</time>
      </trkpt>
      <trkpt lat="44.59906" lon="2.98583">
        <ele>1305</ele>
        <time>2013-07-22T07:59:15Z</time>
      </trkpt>
      <trkpt lat="44.59908" lon="2.98596">
        <ele>1303</ele>
        <time>2013-07-22T07:59:25Z</time>
      </trkpt>
      <trkpt lat="44.59913" lon="2.98611">
        <ele>1302</ele>
        <time>2013-07-22T07:59:33Z</time>
      </trkpt>
      <trkpt lat="44.59916" lon="2.98624">
        <ele>1303</ele>
        <time>2013-07-22T07:59:43Z</time>
      </trkpt>
      <trkpt lat="44.59918" lon="2.98638">
        <ele>1303</ele>
        <time>2013-07-22T07:59:51Z</time>
      </trkpt>
      <trkpt lat="44.59922" lon="2.98651">
        <ele>1301</ele>
        <time>2013-07-22T07:59:59Z</time>
      </trkpt>
      <trkpt lat="44.59923" lon="2.98666">
        <ele>1299</ele>
        <time>2013-07-22T08:00:05Z</time>
      </trkpt>
      <trkpt lat="44.59923" lon="2.9868">
        <ele>1296</ele>
        <time>2013-07-22T08:00:13Z</time>
      </trkpt>
      <trkpt lat="44.59926" lon="2.98692">
        <ele>1295</ele>
        <time>2013-07-22T08:00:22Z</time>
      </trkpt>
      <trkpt lat="44.59931" lon="2.98706">
        <ele>1297</ele>
        <time>2013-07-22T08:00:29Z</time>
      </trkpt>
      <trkpt lat="44.59934" lon="2.98721">
        <ele>1299</ele>
        <time>2013-07-22T08:00:35Z</time>
      </trkpt>
      <trkpt lat="44.59937" lon="2.98733">
        <ele>1300</ele>
        <time>2013-07-22T08:00:40Z</time>
      </trkpt>
      <trkpt lat="44.59939" lon="2.98747">
        <ele>1300</ele>
        <time>2013-07-22T08:00:46Z</time>
      </trkpt>
      <trkpt lat="44.5994" lon="2.9876">
        <ele>1301</ele>
        <time>2013-07-22T08:00:53Z</time>
      </trkpt>
      <trkpt lat="44.59941" lon="2.98774">
        <ele>1302</ele>
        <time>2013-07-22T08:01:00Z</time>
      </trkpt>
      <trkpt lat="44.59941" lon="2.98788">
        <ele>1304</ele>
        <time>2013-07-22T08:01:09Z</time>
      </trkpt>
      <trkpt lat="44.59944" lon="2.988">
        <ele>1304</ele>
        <time>2013-07-22T08:01:15Z</time>
      </trkpt>
      <trkpt lat="44.59946" lon="2.98813">
        <ele>1304</ele>
        <time>2013-07-22T08:01:21Z</time>
      </trkpt>
      <trkpt lat="44.59946" lon="2.98826">
        <ele>1304</ele>
        <time>2013-07-22T08:01:26Z</time>
      </trkpt>
      <trkpt lat="44.59946" lon="2.9884">
        <ele>1303</ele>
        <time>2013-07-22T08:01:32Z</time>
      </trkpt>
      <trkpt lat="44.59945" lon="2.98846">
        <ele>1303</ele>
        <time>2013-07-22T08:01:36Z</time>
      </trkpt>
      <trkpt lat="44.59947" lon="2.98861">
        <ele>1305</ele>
        <time>2013-07-22T08:01:45Z</time>
      </trkpt>
      <trkpt lat="44.59947" lon="2.98875">
        <ele>1305</ele>
        <time>2013-07-22T08:01:53Z</time>
      </trkpt>
      <trkpt lat="44.5995" lon="2.98888">
        <ele>1302</ele>
        <time>2013-07-22T08:02:01Z</time>
      </trkpt>
      <trkpt lat="44.59951" lon="2.98901">
        <ele>1304</ele>
        <time>2013-07-22T08:02:08Z</time>
      </trkpt>
      <trkpt lat="44.59952" lon="2.98913">
        <ele>1306</ele>
        <time>2013-07-22T08:02:16Z</time>
      </trkpt>
      <trkpt lat="44.59952" lon="2.98926">
        <ele>1306</ele>
        <time>2013-07-22T08:02:23Z</time>
      </trkpt>
      <trkpt lat="44.59953" lon="2.98941">
        <ele>1305</ele>
        <time>2013-07-22T08:02:29Z</time>
      </trkpt>
      <trkpt lat="44.59954" lon="2.98955">
        <ele>1307</ele>
        <time>2013-07-22T08:02:34Z</time>
      </trkpt>
      <trkpt lat="44.59956" lon="2.98972">
        <ele>1311</ele>
        <time>2013-07-22T08:02:46Z</time>
      </trkpt>
      <trkpt lat="44.59957" lon="2.98986">
        <ele>1312</ele>
        <time>2013-07-22T08:02:52Z</time>
      </trkpt>
      <trkpt lat="44.59959" lon="2.98999">
        <ele>1312</ele>
        <time>2013-07-22T08:03:00Z</time>
      </trkpt>
      <trkpt lat="44.59961" lon="2.99012">
        <ele>1309</ele>
        <time>2013-07-22T08:03:06Z</time>
      </trkpt>
      <trkpt lat="44.59963" lon="2.99025">
        <ele>1307</ele>
        <time>2013-07-22T08:03:14Z</time>
      </trkpt>
      <trkpt lat="44.59966" lon="2.99039">
        <ele>1304</ele>
        <time>2013-07-22T08:03:23Z</time>
      </trkpt>
      <trkpt lat="44.59966" lon="2.99052">
        <ele>1304</ele>
        <time>2013-07-22T08:03:30Z</time>
      </trkpt>
      <trkpt lat="44.59964" lon="2.99065">
        <ele>1302</ele>
        <time>2013-07-22T08:03:35Z</time>
      </trkpt>
      <trkpt lat="44.59962" lon="2.99078">
        <ele>1299</ele>
        <time>2013-07-22T08:03:41Z</time>
      </trkpt>
      <trkpt lat="44.59962" lon="2.99091">
        <ele>1301</ele>
        <time>2013-07-22T08:03:48Z</time>
      </trkpt>
      <trkpt lat="44.59962" lon="2.99107">
        <ele>1302</ele>
        <time>2013-07-22T08:03:56Z</time>
      </trkpt>
      <trkpt lat="44.5996" lon="2.9912">
        <ele>1305</ele>
        <time>2013-07-22T08:04:03Z</time>
      </trkpt>
      <trkpt lat="44.59952" lon="2.99128">
        <ele>1311</ele>
        <time>2013-07-22T08:04:12Z</time>
      </trkpt>
      <trkpt lat="44.59945" lon="2.99137">
        <ele>1313</ele>
        <time>2013-07-22T08:04:22Z</time>
      </trkpt>
      <trkpt lat="44.59939" lon="2.99147">
        <ele>1314</ele>
        <time>2013-07-22T08:04:30Z</time>
      </trkpt>
      <trkpt lat="44.59932" lon="2.99157">
        <ele>1314</ele>
        <time>2013-07-22T08:04:36Z</time>
      </trkpt>
      <trkpt lat="44.59928" lon="2.99162">
        <ele>1314</ele>
        <time>2013-07-22T08:04:38Z</time>
      </trkpt>
      <trkpt lat="44.59925" lon="2.99167">
        <ele>1315</ele>
        <time>2013-07-22T08:04:41Z</time>
      </trkpt>
      <trkpt lat="44.59921" lon="2.99173">
        <ele>1317</ele>
        <time>2013-07-22T08:04:45Z</time>
      </trkpt>
      <trkpt lat="44.59913" lon="2.99182">
        <ele>1317</ele>
        <time>2013-07-22T08:04:55Z</time>
      </trkpt>
      <trkpt lat="44.59906" lon="2.99192">
        <ele>1314</ele>
        <time>2013-07-22T08:05:03Z</time>
      </trkpt>
      <trkpt lat="44.59901" lon="2.99198">
        <ele>1311</ele>
        <time>2013-07-22T08:05:09Z</time>
      </trkpt>
      <trkpt lat="44.59895" lon="2.99208">
        <ele>1311</ele>
        <time>2013-07-22T08:05:17Z</time>
      </trkpt>
      <trkpt lat="44.59889" lon="2.99218">
        <ele>1314</ele>
        <time>2013-07-22T08:05:25Z</time>
      </trkpt>
      <trkpt lat="44.59882" lon="2.99227">
        <ele>1316</ele>
        <time>2013-07-22T08:05:32Z</time>
      </trkpt>
      <trkpt lat="44.59875" lon="2.99237">
        <ele>1315</ele>
        <time>2013-07-22T08:05:36Z</time>
      </trkpt>
      <trkpt lat="44.59874" lon="2.99244">
        <ele>1314</ele>
        <time>2013-07-22T08:05:48Z</time>
      </trkpt>
      <trkpt lat="44.59869" lon="2.99251">
        <ele>1315</ele>
        <time>2013-07-22T08:05:52Z</time>
      </trkpt>
      <trkpt lat="44.59861" lon="2.99261">
        <ele>1316</ele>
        <time>2013-07-22T08:05:57Z</time>
      </trkpt>
      <trkpt lat="44.59854" lon="2.99271">
        <ele>1317</ele>
        <time>2013-07-22T08:06:06Z</time>
      </trkpt>
      <trkpt lat="44.59847" lon="2.99282">
        <ele>1316</ele>
        <time>2013-07-22T08:06:11Z</time>
      </trkpt>
      <trkpt lat="44.59839" lon="2.99289">
        <ele>1316</ele>
        <time>2013-07-22T08:06:17Z</time>
      </trkpt>
      <trkpt lat="44.59834" lon="2.993">
        <ele>1318</ele>
        <time>2013-07-22T08:06:22Z</time>
      </trkpt>
      <trkpt lat="44.59831" lon="2.99305">
        <ele>1319</ele>
        <time>2013-07-22T08:06:25Z</time>
      </trkpt>
      <trkpt lat="44.59827" lon="2.99314">
        <ele>1320</ele>
        <time>2013-07-22T08:06:30Z</time>
      </trkpt>
      <trkpt lat="44.59822" lon="2.9932">
        <ele>1321</ele>
        <time>2013-07-22T08:06:38Z</time>
      </trkpt>
      <trkpt lat="44.59816" lon="2.9933">
        <ele>1321</ele>
        <time>2013-07-22T08:06:46Z</time>
      </trkpt>
      <trkpt lat="44.59809" lon="2.99338">
        <ele>1320</ele>
        <time>2013-07-22T08:06:54Z</time>
      </trkpt>
      <trkpt lat="44.59801" lon="2.99348">
        <ele>1321</ele>
        <time>2013-07-22T08:07:01Z</time>
      </trkpt>
      <trkpt lat="44.59794" lon="2.99359">
        <ele>1319</ele>
        <time>2013-07-22T08:07:08Z</time>
      </trkpt>
      <trkpt lat="44.59787" lon="2.99369">
        <ele>1319</ele>
        <time>2013-07-22T08:07:15Z</time>
      </trkpt>
      <trkpt lat="44.59782" lon="2.99374">
        <ele>1318</ele>
        <time>2013-07-22T08:07:19Z</time>
      </trkpt>
      <trkpt lat="44.59775" lon="2.9938">
        <ele>1316</ele>
        <time>2013-07-22T08:07:28Z</time>
      </trkpt>
      <trkpt lat="44.59768" lon="2.9939">
        <ele>1317</ele>
        <time>2013-07-22T08:07:37Z</time>
      </trkpt>
      <trkpt lat="44.59764" lon="2.99396">
        <ele>1317</ele>
        <time>2013-07-22T08:07:40Z</time>
      </trkpt>
      <trkpt lat="44.5976" lon="2.99404">
        <ele>1315</ele>
        <time>2013-07-22T08:07:44Z</time>
      </trkpt>
      <trkpt lat="44.59753" lon="2.99416">
        <ele>1314</ele>
        <time>2013-07-22T08:07:50Z</time>
      </trkpt>
      <trkpt lat="44.59747" lon="2.99427">
        <ele>1313</ele>
        <time>2013-07-22T08:07:57Z</time>
      </trkpt>
      <trkpt lat="44.59742" lon="2.99437">
        <ele>1313</ele>
        <time>2013-07-22T08:08:02Z</time>
      </trkpt>
      <trkpt lat="44.59739" lon="2.99443">
        <ele>1314</ele>
        <time>2013-07-22T08:08:06Z</time>
      </trkpt>
      <trkpt lat="44.59736" lon="2.99449">
        <ele>1315</ele>
        <time>2013-07-22T08:08:13Z</time>
      </trkpt>
      <trkpt lat="44.59729" lon="2.99458">
        <ele>1315</ele>
        <time>2013-07-22T08:08:19Z</time>
      </trkpt>
      <trkpt lat="44.59722" lon="2.99467">
        <ele>1312</ele>
        <time>2013-07-22T08:08:25Z</time>
      </trkpt>
      <trkpt lat="44.59716" lon="2.99478">
        <ele>1308</ele>
        <time>2013-07-22T08:08:31Z</time>
      </trkpt>
      <trkpt lat="44.5971" lon="2.99488">
        <ele>1305</ele>
        <time>2013-07-22T08:08:40Z</time>
      </trkpt>
      <trkpt lat="44.59706" lon="2.99492">
        <ele>1304</ele>
        <time>2013-07-22T08:08:45Z</time>
      </trkpt>
      <trkpt lat="44.59702" lon="2.99504">
        <ele>1304</ele>
        <time>2013-07-22T08:08:52Z</time>
      </trkpt>
      <trkpt lat="44.59696" lon="2.99517">
        <ele>1302</ele>
        <time>2013-07-22T08:08:59Z</time>
      </trkpt>
      <trkpt lat="44.59691" lon="2.9953">
        <ele>1302</ele>
        <time>2013-07-22T08:09:05Z</time>
      </trkpt>
      <trkpt lat="44.59686" lon="2.99542">
        <ele>1301</ele>
        <time>2013-07-22T08:09:12Z</time>
      </trkpt>
      <trkpt lat="44.5968" lon="2.99553">
        <ele>1301</ele>
        <time>2013-07-22T08:09:19Z</time>
      </trkpt>
      <trkpt lat="44.59675" lon="2.99568">
        <ele>1304</ele>
        <time>2013-07-22T08:09:26Z</time>
      </trkpt>
      <trkpt lat="44.59673" lon="2.99581">
        <ele>1308</ele>
        <time>2013-07-22T08:09:31Z</time>
      </trkpt>
      <trkpt lat="44.59672" lon="2.99595">
        <ele>1312</ele>
        <time>2013-07-22T08:09:40Z</time>
      </trkpt>
      <trkpt lat="44.59671" lon="2.99607">
        <ele>1312</ele>
        <time>2013-07-22T08:09:47Z</time>
      </trkpt>
      <trkpt lat="44.59672" lon="2.99614">
        <ele>1312</ele>
        <time>2013-07-22T08:09:51Z</time>
      </trkpt>
      <trkpt lat="44.59668" lon="2.99629">
        <ele>1310</ele>
        <time>2013-07-22T08:09:59Z</time>
      </trkpt>
      <trkpt lat="44.59666" lon="2.99643">
        <ele>1306</ele>
        <time>2013-07-22T08:10:07Z</time>
      </trkpt>
      <trkpt lat="44.59663" lon="2.99654">
        <ele>1305</ele>
        <time>2013-07-22T08:10:12Z</time>
      </trkpt>
      <trkpt lat="44.59658" lon="2.9967">
        <ele>1302</ele>
        <time>2013-07-22T08:10:15Z</time>
      </trkpt>
      <trkpt lat="44.59654" lon="2.99682">
        <ele>1302</ele>
        <time>2013-07-22T08:10:18Z</time>
      </trkpt>
      <trkpt lat="44.59649" lon="2.99693">
        <ele>1302</ele>
        <time>2013-07-22T08:10:21Z</time>
      </trkpt>
      <trkpt lat="44.59645" lon="2.99706">
        <ele>1300</ele>
        <time>2013-07-22T08:10:25Z</time>
      </trkpt>
      <trkpt lat="44.5964" lon="2.9972">
        <ele>1298</ele>
        <time>2013-07-22T08:10:28Z</time>
      </trkpt>
      <trkpt lat="44.59636" lon="2.99733">
        <ele>1297</ele>
        <time>2013-07-22T08:10:31Z</time>
      </trkpt>
      <trkpt lat="44.5963" lon="2.99744">
        <ele>1296</ele>
        <time>2013-07-22T08:10:34Z</time>
      </trkpt>
      <trkpt lat="44.5962" lon="2.99751">
        <ele>1294</ele>
        <time>2013-07-22T08:10:37Z</time>
      </trkpt>
      <trkpt lat="44.59611" lon="2.9976">
        <ele>1290</ele>
        <time>2013-07-22T08:10:41Z</time>
      </trkpt>
      <trkpt lat="44.59599" lon="2.99771">
        <ele>1287</ele>
        <time>2013-07-22T08:10:47Z</time>
      </trkpt>
      <trkpt lat="44.59594" lon="2.99785">
        <ele>1286</ele>
        <time>2013-07-22T08:10:50Z</time>
      </trkpt>
      <trkpt lat="44.5959" lon="2.99796">
        <ele>1286</ele>
        <time>2013-07-22T08:10:52Z</time>
      </trkpt>
      <trkpt lat="44.59587" lon="2.99808">
        <ele>1285</ele>
        <time>2013-07-22T08:10:54Z</time>
      </trkpt>
      <trkpt lat="44.59581" lon="2.99819">
        <ele>1283</ele>
        <time>2013-07-22T08:10:57Z</time>
      </trkpt>
      <trkpt lat="44.59575" lon="2.99832">
        <ele>1282</ele>
        <time>2013-07-22T08:11:00Z</time>
      </trkpt>
      <trkpt lat="44.59568" lon="2.99845">
        <ele>1279</ele>
        <time>2013-07-22T08:11:03Z</time>
      </trkpt>
      <trkpt lat="44.59559" lon="2.99856">
        <ele>1278</ele>
        <time>2013-07-22T08:11:06Z</time>
      </trkpt>
      <trkpt lat="44.59553" lon="2.99869">
        <ele>1276</ele>
        <time>2013-07-22T08:11:09Z</time>
      </trkpt>
      <trkpt lat="44.59546" lon="2.99885">
        <ele>1274</ele>
        <time>2013-07-22T08:11:12Z</time>
      </trkpt>
      <trkpt lat="44.59541" lon="2.99897">
        <ele>1273</ele>
        <time>2013-07-22T08:11:14Z</time>
      </trkpt>
      <trkpt lat="44.59536" lon="2.99911">
        <ele>1272</ele>
        <time>2013-07-22T08:11:17Z</time>
      </trkpt>
      <trkpt lat="44.59529" lon="2.99925">
        <ele>1271</ele>
        <time>2013-07-22T08:11:20Z</time>
      </trkpt>
      <trkpt lat="44.59522" lon="2.99937">
        <ele>1270</ele>
        <time>2013-07-22T08:11:24Z</time>
      </trkpt>
      <trkpt lat="44.59515" lon="2.99948">
        <ele>1269</ele>
        <time>2013-07-22T08:11:27Z</time>
      </trkpt>
      <trkpt lat="44.5951" lon="2.9996">
        <ele>1268</ele>
        <time>2013-07-22T08:11:30Z</time>
      </trkpt>
      <trkpt lat="44.59506" lon="2.99973">
        <ele>1268</ele>
        <time>2013-07-22T08:11:32Z</time>
      </trkpt>
      <trkpt lat="44.59502" lon="2.99989">
        <ele>1268</ele>
        <time>2013-07-22T08:11:35Z</time>
      </trkpt>
      <trkpt lat="44.59499" lon="3.00002">
        <ele>1268</ele>
        <time>2013-07-22T08:11:37Z</time>
      </trkpt>
      <trkpt lat="44.59495" lon="3.00019">
        <ele>1267</ele>
        <time>2013-07-22T08:11:40Z</time>
      </trkpt>
      <trkpt lat="44.59491" lon="3.00033">
        <ele>1267</ele>
        <time>2013-07-22T08:11:43Z</time>
      </trkpt>
      <trkpt lat="44.59487" lon="3.00046">
        <ele>1267</ele>
        <time>2013-07-22T08:11:46Z</time>
      </trkpt>
      <trkpt lat="44.59485" lon="3.0006">
        <ele>1268</ele>
        <time>2013-07-22T08:11:49Z</time>
      </trkpt>
      <trkpt lat="44.5948" lon="3.00077">
        <ele>1266</ele>
        <time>2013-07-22T08:11:52Z</time>
      </trkpt>
      <trkpt lat="44.59478" lon="3.00089">
        <ele>1266</ele>
        <time>2013-07-22T08:11:54Z</time>
      </trkpt>
      <trkpt lat="44.5948" lon="3.00107">
        <ele>1265</ele>
        <time>2013-07-22T08:11:57Z</time>
      </trkpt>
      <trkpt lat="44.5948" lon="3.00125">
        <ele>1266</ele>
        <time>2013-07-22T08:12:00Z</time>
      </trkpt>
      <trkpt lat="44.59479" lon="3.00139">
        <ele>1266</ele>
        <time>2013-07-22T08:12:03Z</time>
      </trkpt>
      <trkpt lat="44.59478" lon="3.00152">
        <ele>1266</ele>
        <time>2013-07-22T08:12:06Z</time>
      </trkpt>
      <trkpt lat="44.59476" lon="3.00166">
        <ele>1266</ele>
        <time>2013-07-22T08:12:09Z</time>
      </trkpt>
      <trkpt lat="44.59478" lon="3.00184">
        <ele>1270</ele>
        <time>2013-07-22T08:12:11Z</time>
      </trkpt>
      <trkpt lat="44.59478" lon="3.00192">
        <ele>1277</ele>
        <time>2013-07-22T08:12:13Z</time>
      </trkpt>
      <trkpt lat="44.59459" lon="3.00322">
        <ele>1328</ele>
        <time>2013-07-22T08:12:45Z</time>
      </trkpt>
      <trkpt lat="44.59456" lon="3.00336">
        <ele>1329</ele>
        <time>2013-07-22T08:12:48Z</time>
      </trkpt>
      <trkpt lat="44.59456" lon="3.00352">
        <ele>1330</ele>
        <time>2013-07-22T08:12:51Z</time>
      </trkpt>
      <trkpt lat="44.59453" lon="3.0037">
        <ele>1331</ele>
        <time>2013-07-22T08:12:54Z</time>
      </trkpt>
      <trkpt lat="44.59454" lon="3.00388">
        <ele>1332</ele>
        <time>2013-07-22T08:12:57Z</time>
      </trkpt>
      <trkpt lat="44.59454" lon="3.00403">
        <ele>1333</ele>
        <time>2013-07-22T08:13:00Z</time>
      </trkpt>
      <trkpt lat="44.59452" lon="3.00417">
        <ele>1333</ele>
        <time>2013-07-22T08:13:03Z</time>
      </trkpt>
      <trkpt lat="44.59448" lon="3.00432">
        <ele>1334</ele>
        <time>2013-07-22T08:13:06Z</time>
      </trkpt>
      <trkpt lat="44.59445" lon="3.00447">
        <ele>1335</ele>
        <time>2013-07-22T08:13:09Z</time>
      </trkpt>
      <trkpt lat="44.59444" lon="3.00461">
        <ele>1335</ele>
        <time>2013-07-22T08:13:14Z</time>
      </trkpt>
      <trkpt lat="44.59448" lon="3.00476">
        <ele>1334</ele>
        <time>2013-07-22T08:13:19Z</time>
      </trkpt>
      <trkpt lat="44.59452" lon="3.00489">
        <ele>1332</ele>
        <time>2013-07-22T08:13:23Z</time>
      </trkpt>
      <trkpt lat="44.59448" lon="3.00505">
        <ele>1330</ele>
        <time>2013-07-22T08:13:28Z</time>
      </trkpt>
      <trkpt lat="44.59446" lon="3.0052">
        <ele>1327</ele>
        <time>2013-07-22T08:13:32Z</time>
      </trkpt>
      <trkpt lat="44.59443" lon="3.00532">
        <ele>1320</ele>
        <time>2013-07-22T08:13:38Z</time>
      </trkpt>
      <trkpt lat="44.59433" lon="3.00541">
        <ele>1313</ele>
        <time>2013-07-22T08:13:47Z</time>
      </trkpt>
      <trkpt lat="44.59428" lon="3.00552">
        <ele>1311</ele>
        <time>2013-07-22T08:13:51Z</time>
      </trkpt>
      <trkpt lat="44.59424" lon="3.00564">
        <ele>1310</ele>
        <time>2013-07-22T08:13:56Z</time>
      </trkpt>
      <trkpt lat="44.59421" lon="3.00577">
        <ele>1311</ele>
        <time>2013-07-22T08:14:03Z</time>
      </trkpt>
      <trkpt lat="44.59418" lon="3.0059">
        <ele>1312</ele>
        <time>2013-07-22T08:14:10Z</time>
      </trkpt>
      <trkpt lat="44.59412" lon="3.006">
        <ele>1312</ele>
        <time>2013-07-22T08:14:15Z</time>
      </trkpt>
      <trkpt lat="44.59409" lon="3.00613">
        <ele>1312</ele>
        <time>2013-07-22T08:14:22Z</time>
      </trkpt>
      <trkpt lat="44.59407" lon="3.00626">
        <ele>1311</ele>
        <time>2013-07-22T08:14:29Z</time>
      </trkpt>
      <trkpt lat="44.59403" lon="3.00633">
        <ele>1311</ele>
        <time>2013-07-22T08:14:34Z</time>
      </trkpt>
      <trkpt lat="44.59399" lon="3.00644">
        <ele>1311</ele>
        <time>2013-07-22T08:14:40Z</time>
      </trkpt>
      <trkpt lat="44.59397" lon="3.00652">
        <ele>1311</ele>
        <time>2013-07-22T08:14:45Z</time>
      </trkpt>
      <trkpt lat="44.59392" lon="3.00665">
        <ele>1310</ele>
        <time>2013-07-22T08:14:53Z</time>
      </trkpt>
      <trkpt lat="44.59386" lon="3.00676">
        <ele>1309</ele>
        <time>2013-07-22T08:15:00Z</time>
      </trkpt>
      <trkpt lat="44.59381" lon="3.00689">
        <ele>1310</ele>
        <time>2013-07-22T08:15:06Z</time>
      </trkpt>
      <trkpt lat="44.59376" lon="3.007">
        <ele>1312</ele>
        <time>2013-07-22T08:15:12Z</time>
      </trkpt>
      <trkpt lat="44.59374" lon="3.00707">
        <ele>1314</ele>
        <time>2013-07-22T08:15:16Z</time>
      </trkpt>
      <trkpt lat="44.59372" lon="3.00714">
        <ele>1314</ele>
        <time>2013-07-22T08:15:20Z</time>
      </trkpt>
      <trkpt lat="44.59369" lon="3.00727">
        <ele>1315</ele>
        <time>2013-07-22T08:15:28Z</time>
      </trkpt>
      <trkpt lat="44.59367" lon="3.00732">
        <ele>1314</ele>
        <time>2013-07-22T08:15:32Z</time>
      </trkpt>
      <trkpt lat="44.59362" lon="3.00741">
        <ele>1313</ele>
        <time>2013-07-22T08:15:38Z</time>
      </trkpt>
      <trkpt lat="44.59356" lon="3.00751">
        <ele>1307</ele>
        <time>2013-07-22T08:15:50Z</time>
      </trkpt>
      <trkpt lat="44.5935" lon="3.00761">
        <ele>1306</ele>
        <time>2013-07-22T08:15:57Z</time>
      </trkpt>
      <trkpt lat="44.59345" lon="3.00767">
        <ele>1306</ele>
        <time>2013-07-22T08:16:01Z</time>
      </trkpt>
      <trkpt lat="44.59338" lon="3.00777">
        <ele>1310</ele>
        <time>2013-07-22T08:16:10Z</time>
      </trkpt>
      <trkpt lat="44.59333" lon="3.00787">
        <ele>1312</ele>
        <time>2013-07-22T08:16:15Z</time>
      </trkpt>
      <trkpt lat="44.5933" lon="3.00793">
        <ele>1311</ele>
        <time>2013-07-22T08:16:19Z</time>
      </trkpt>
      <trkpt lat="44.59323" lon="3.00801">
        <ele>1310</ele>
        <time>2013-07-22T08:16:27Z</time>
      </trkpt>
      <trkpt lat="44.59315" lon="3.00811">
        <ele>1309</ele>
        <time>2013-07-22T08:16:34Z</time>
      </trkpt>
      <trkpt lat="44.59309" lon="3.00821">
        <ele>1309</ele>
        <time>2013-07-22T08:16:42Z</time>
      </trkpt>
      <trkpt lat="44.59301" lon="3.00832">
        <ele>1310</ele>
        <time>2013-07-22T08:16:48Z</time>
      </trkpt>
      <trkpt lat="44.59295" lon="3.00841">
        <ele>1308</ele>
        <time>2013-07-22T08:16:54Z</time>
      </trkpt>
      <trkpt lat="44.59292" lon="3.00847">
        <ele>1306</ele>
        <time>2013-07-22T08:16:59Z</time>
      </trkpt>
      <trkpt lat="44.59285" lon="3.00858">
        <ele>1307</ele>
        <time>2013-07-22T08:17:07Z</time>
      </trkpt>
      <trkpt lat="44.59277" lon="3.00868">
        <ele>1309</ele>
        <time>2013-07-22T08:17:15Z</time>
      </trkpt>
      <trkpt lat="44.5927" lon="3.00876">
        <ele>1309</ele>
        <time>2013-07-22T08:17:22Z</time>
      </trkpt>
      <trkpt lat="44.59263" lon="3.00886">
        <ele>1307</ele>
        <time>2013-07-22T08:17:28Z</time>
      </trkpt>
      <trkpt lat="44.59256" lon="3.00897">
        <ele>1307</ele>
        <time>2013-07-22T08:17:33Z</time>
      </trkpt>
      <trkpt lat="44.59253" lon="3.00903">
        <ele>1306</ele>
        <time>2013-07-22T08:17:35Z</time>
      </trkpt>
      <trkpt lat="44.59249" lon="3.00914">
        <ele>1306</ele>
        <time>2013-07-22T08:17:39Z</time>
      </trkpt>
      <trkpt lat="44.59241" lon="3.00922">
        <ele>1305</ele>
        <time>2013-07-22T08:17:42Z</time>
      </trkpt>
      <trkpt lat="44.59233" lon="3.00931">
        <ele>1305</ele>
        <time>2013-07-22T08:17:46Z</time>
      </trkpt>
      <trkpt lat="44.59226" lon="3.00939">
        <ele>1305</ele>
        <time>2013-07-22T08:17:51Z</time>
      </trkpt>
      <trkpt lat="44.5922" lon="3.00949">
        <ele>1305</ele>
        <time>2013-07-22T08:17:55Z</time>
      </trkpt>
      <trkpt lat="44.59213" lon="3.00958">
        <ele>1303</ele>
        <time>2013-07-22T08:18:00Z</time>
      </trkpt>
      <trkpt lat="44.59206" lon="3.00968">
        <ele>1304</ele>
        <time>2013-07-22T08:18:05Z</time>
      </trkpt>
      <trkpt lat="44.59201" lon="3.00978">
        <ele>1303</ele>
        <time>2013-07-22T08:18:11Z</time>
      </trkpt>
      <trkpt lat="44.59197" lon="3.00982">
        <ele>1301</ele>
        <time>2013-07-22T08:18:14Z</time>
      </trkpt>
      <trkpt lat="44.59193" lon="3.00987">
        <ele>1298</ele>
        <time>2013-07-22T08:18:17Z</time>
      </trkpt>
      <trkpt lat="44.5919" lon="3.00991">
        <ele>1297</ele>
        <time>2013-07-22T08:18:20Z</time>
      </trkpt>
      <trkpt lat="44.59183" lon="3.01002">
        <ele>1297</ele>
        <time>2013-07-22T08:18:25Z</time>
      </trkpt>
      <trkpt lat="44.59179" lon="3.01007">
        <ele>1298</ele>
        <time>2013-07-22T08:18:28Z</time>
      </trkpt>
      <trkpt lat="44.59174" lon="3.01011">
        <ele>1298</ele>
        <time>2013-07-22T08:18:31Z</time>
      </trkpt>
      <trkpt lat="44.59169" lon="3.01015">
        <ele>1298</ele>
        <time>2013-07-22T08:18:34Z</time>
      </trkpt>
      <trkpt lat="44.59165" lon="3.0102">
        <ele>1299</ele>
        <time>2013-07-22T08:18:37Z</time>
      </trkpt>
      <trkpt lat="44.59162" lon="3.01026">
        <ele>1300</ele>
        <time>2013-07-22T08:18:41Z</time>
      </trkpt>
      <trkpt lat="44.59158" lon="3.01032">
        <ele>1302</ele>
        <time>2013-07-22T08:18:44Z</time>
      </trkpt>
      <trkpt lat="44.59155" lon="3.01038">
        <ele>1303</ele>
        <time>2013-07-22T08:18:47Z</time>
      </trkpt>
      <trkpt lat="44.59152" lon="3.01043">
        <ele>1302</ele>
        <time>2013-07-22T08:18:50Z</time>
      </trkpt>
      <trkpt lat="44.59149" lon="3.01048">
        <ele>1301</ele>
        <time>2013-07-22T08:18:53Z</time>
      </trkpt>
      <trkpt lat="44.59143" lon="3.01054">
        <ele>1300</ele>
        <time>2013-07-22T08:18:58Z</time>
      </trkpt>
      <trkpt lat="44.59136" lon="3.01062">
        <ele>1297</ele>
        <time>2013-07-22T08:19:05Z</time>
      </trkpt>
      <trkpt lat="44.59136" lon="3.0107">
        <ele>1297</ele>
        <time>2013-07-22T08:19:10Z</time>
      </trkpt>
      <trkpt lat="44.59138" lon="3.01076">
        <ele>1297</ele>
        <time>2013-07-22T08:19:13Z</time>
      </trkpt>
      <trkpt lat="44.59142" lon="3.01087">
        <ele>1297</ele>
        <time>2013-07-22T08:19:22Z</time>
      </trkpt>
      <trkpt lat="44.59144" lon="3.011">
        <ele>1296</ele>
        <time>2013-07-22T08:19:33Z</time>
      </trkpt>
      <trkpt lat="44.59144" lon="3.01109">
        <ele>1296</ele>
        <time>2013-07-22T08:19:38Z</time>
      </trkpt>
      <trkpt lat="44.5915" lon="3.01118">
        <ele>1298</ele>
        <time>2013-07-22T08:19:53Z</time>
      </trkpt>
      <trkpt lat="44.59149" lon="3.01132">
        <ele>1301</ele>
        <time>2013-07-22T08:20:03Z</time>
      </trkpt>
      <trkpt lat="44.59149" lon="3.01147">
        <ele>1303</ele>
        <time>2013-07-22T08:20:11Z</time>
      </trkpt>
      <trkpt lat="44.59153" lon="3.01159">
        <ele>1304</ele>
        <time>2013-07-22T08:20:18Z</time>
      </trkpt>
      <trkpt lat="44.59155" lon="3.01171">
        <ele>1302</ele>
        <time>2013-07-22T08:20:24Z</time>
      </trkpt>
      <trkpt lat="44.59156" lon="3.01187">
        <ele>1301</ele>
        <time>2013-07-22T08:20:34Z</time>
      </trkpt>
      <trkpt lat="44.59161" lon="3.012">
        <ele>1301</ele>
        <time>2013-07-22T08:20:42Z</time>
      </trkpt>
      <trkpt lat="44.59164" lon="3.01213">
        <ele>1300</ele>
        <time>2013-07-22T08:20:49Z</time>
      </trkpt>
      <trkpt lat="44.59165" lon="3.01226">
        <ele>1300</ele>
        <time>2013-07-22T08:20:57Z</time>
      </trkpt>
      <trkpt lat="44.59167" lon="3.01242">
        <ele>1298</ele>
        <time>2013-07-22T08:21:08Z</time>
      </trkpt>
      <trkpt lat="44.59173" lon="3.01254">
        <ele>1299</ele>
        <time>2013-07-22T08:21:21Z</time>
      </trkpt>
      <trkpt lat="44.59179" lon="3.01268">
        <ele>1300</ele>
        <time>2013-07-22T08:21:28Z</time>
      </trkpt>
      <trkpt lat="44.59182" lon="3.01276">
        <ele>1298</ele>
        <time>2013-07-22T08:21:45Z</time>
      </trkpt>
      <trkpt lat="44.59188" lon="3.01287">
        <ele>1296</ele>
        <time>2013-07-22T08:21:54Z</time>
      </trkpt>
      <trkpt lat="44.59194" lon="3.01299">
        <ele>1295</ele>
        <time>2013-07-22T08:22:00Z</time>
      </trkpt>
      <trkpt lat="44.59206" lon="3.01312">
        <ele>1295</ele>
        <time>2013-07-22T08:22:06Z</time>
      </trkpt>
      <trkpt lat="44.59215" lon="3.01328">
        <ele>1293</ele>
        <time>2013-07-22T08:22:11Z</time>
      </trkpt>
      <trkpt lat="44.59222" lon="3.01338">
        <ele>1292</ele>
        <time>2013-07-22T08:22:14Z</time>
      </trkpt>
      <trkpt lat="44.5923" lon="3.01352">
        <ele>1291</ele>
        <time>2013-07-22T08:22:18Z</time>
      </trkpt>
      <trkpt lat="44.59238" lon="3.01363">
        <ele>1289</ele>
        <time>2013-07-22T08:22:21Z</time>
      </trkpt>
      <trkpt lat="44.59241" lon="3.01379">
        <ele>1288</ele>
        <time>2013-07-22T08:22:25Z</time>
      </trkpt>
      <trkpt lat="44.59247" lon="3.0139">
        <ele>1287</ele>
        <time>2013-07-22T08:22:28Z</time>
      </trkpt>
      <trkpt lat="44.59252" lon="3.01402">
        <ele>1287</ele>
        <time>2013-07-22T08:22:31Z</time>
      </trkpt>
      <trkpt lat="44.59258" lon="3.01416">
        <ele>1287</ele>
        <time>2013-07-22T08:22:34Z</time>
      </trkpt>
      <trkpt lat="44.59265" lon="3.01429">
        <ele>1286</ele>
        <time>2013-07-22T08:22:36Z</time>
      </trkpt>
      <trkpt lat="44.5927" lon="3.01441">
        <ele>1285</ele>
        <time>2013-07-22T08:22:39Z</time>
      </trkpt>
      <trkpt lat="44.59275" lon="3.01453">
        <ele>1285</ele>
        <time>2013-07-22T08:22:42Z</time>
      </trkpt>
      <trkpt lat="44.59279" lon="3.0147">
        <ele>1285</ele>
        <time>2013-07-22T08:22:45Z</time>
      </trkpt>
      <trkpt lat="44.5928" lon="3.01485">
        <ele>1286</ele>
        <time>2013-07-22T08:22:48Z</time>
      </trkpt>
      <trkpt lat="44.5928" lon="3.01499">
        <ele>1286</ele>
        <time>2013-07-22T08:22:51Z</time>
      </trkpt>
      <trkpt lat="44.59282" lon="3.01514">
        <ele>1287</ele>
        <time>2013-07-22T08:22:54Z</time>
      </trkpt>
      <trkpt lat="44.59283" lon="3.01529">
        <ele>1288</ele>
        <time>2013-07-22T08:22:58Z</time>
      </trkpt>
      <trkpt lat="44.5928" lon="3.01547">
        <ele>1292</ele>
        <time>2013-07-22T08:23:02Z</time>
      </trkpt>
      <trkpt lat="44.59256" lon="3.01608">
        <ele>1324</ele>
        <time>2013-07-22T08:23:20Z</time>
      </trkpt>
      <trkpt lat="44.59257" lon="3.0162">
        <ele>1328</ele>
        <time>2013-07-22T08:23:24Z</time>
      </trkpt>
      <trkpt lat="44.59256" lon="3.01632">
        <ele>1331</ele>
        <time>2013-07-22T08:23:30Z</time>
      </trkpt>
      <trkpt lat="44.59253" lon="3.01646">
        <ele>1333</ele>
        <time>2013-07-22T08:23:37Z</time>
      </trkpt>
      <trkpt lat="44.59247" lon="3.01658">
        <ele>1334</ele>
        <time>2013-07-22T08:23:44Z</time>
      </trkpt>
      <trkpt lat="44.5924" lon="3.01671">
        <ele>1335</ele>
        <time>2013-07-22T08:23:47Z</time>
      </trkpt>
      <trkpt lat="44.59236" lon="3.01683">
        <ele>1335</ele>
        <time>2013-07-22T08:23:50Z</time>
      </trkpt>
      <trkpt lat="44.59233" lon="3.01696">
        <ele>1336</ele>
        <time>2013-07-22T08:23:53Z</time>
      </trkpt>
      <trkpt lat="44.59227" lon="3.01707">
        <ele>1337</ele>
        <time>2013-07-22T08:23:56Z</time>
      </trkpt>
      <trkpt lat="44.59218" lon="3.01721">
        <ele>1337</ele>
        <time>2013-07-22T08:24:01Z</time>
      </trkpt>
      <trkpt lat="44.59205" lon="3.01729">
        <ele>1337</ele>
        <time>2013-07-22T08:24:03Z</time>
      </trkpt>
      <trkpt lat="44.59199" lon="3.01734">
        <ele>1337</ele>
        <time>2013-07-22T08:24:04Z</time>
      </trkpt>
      <trkpt lat="44.59194" lon="3.0174">
        <ele>1337</ele>
        <time>2013-07-22T08:24:05Z</time>
      </trkpt>
      <trkpt lat="44.59191" lon="3.01744">
        <ele>1337</ele>
        <time>2013-07-22T08:24:06Z</time>
      </trkpt>
      <trkpt lat="44.59186" lon="3.01754">
        <ele>1337</ele>
        <time>2013-07-22T08:24:08Z</time>
      </trkpt>
      <trkpt lat="44.59181" lon="3.01764">
        <ele>1336</ele>
        <time>2013-07-22T08:24:10Z</time>
      </trkpt>
      <trkpt lat="44.59175" lon="3.01776">
        <ele>1334</ele>
        <time>2013-07-22T08:24:15Z</time>
      </trkpt>
      <trkpt lat="44.59175" lon="3.01782">
        <ele>1333</ele>
        <time>2013-07-22T08:24:20Z</time>
      </trkpt>
      <trkpt lat="44.59172" lon="3.01788">
        <ele>1332</ele>
        <time>2013-07-22T08:24:26Z</time>
      </trkpt>
      <trkpt lat="44.59169" lon="3.01793">
        <ele>1332</ele>
        <time>2013-07-22T08:24:30Z</time>
      </trkpt>
      <trkpt lat="44.59165" lon="3.01798">
        <ele>1331</ele>
        <time>2013-07-22T08:24:35Z</time>
      </trkpt>
      <trkpt lat="44.59161" lon="3.018">
        <ele>1331</ele>
        <time>2013-07-22T08:24:40Z</time>
      </trkpt>
      <trkpt lat="44.59155" lon="3.01806">
        <ele>1333</ele>
        <time>2013-07-22T08:24:46Z</time>
      </trkpt>
      <trkpt lat="44.59152" lon="3.01812">
        <ele>1333</ele>
        <time>2013-07-22T08:24:51Z</time>
      </trkpt>
      <trkpt lat="44.59148" lon="3.01817">
        <ele>1334</ele>
        <time>2013-07-22T08:24:56Z</time>
      </trkpt>
      <trkpt lat="44.59145" lon="3.01823">
        <ele>1336</ele>
        <time>2013-07-22T08:25:01Z</time>
      </trkpt>
      <trkpt lat="44.59142" lon="3.01835">
        <ele>1338</ele>
        <time>2013-07-22T08:25:06Z</time>
      </trkpt>
      <trkpt lat="44.59139" lon="3.0184">
        <ele>1338</ele>
        <time>2013-07-22T08:25:09Z</time>
      </trkpt>
      <trkpt lat="44.59137" lon="3.01847">
        <ele>1339</ele>
        <time>2013-07-22T08:25:13Z</time>
      </trkpt>
      <trkpt lat="44.59135" lon="3.01854">
        <ele>1340</ele>
        <time>2013-07-22T08:25:18Z</time>
      </trkpt>
      <trkpt lat="44.59135" lon="3.01863">
        <ele>1340</ele>
        <time>2013-07-22T08:25:27Z</time>
      </trkpt>
      <trkpt lat="44.59136" lon="3.01876">
        <ele>1342</ele>
        <time>2013-07-22T08:25:35Z</time>
      </trkpt>
      <trkpt lat="44.59137" lon="3.01884">
        <ele>1342</ele>
        <time>2013-07-22T08:25:40Z</time>
      </trkpt>
      <trkpt lat="44.59138" lon="3.01891">
        <ele>1342</ele>
        <time>2013-07-22T08:25:43Z</time>
      </trkpt>
      <trkpt lat="44.59139" lon="3.01898">
        <ele>1342</ele>
        <time>2013-07-22T08:25:46Z</time>
      </trkpt>
      <trkpt lat="44.59139" lon="3.01907">
        <ele>1343</ele>
        <time>2013-07-22T08:25:49Z</time>
      </trkpt>
      <trkpt lat="44.59139" lon="3.01915">
        <ele>1344</ele>
        <time>2013-07-22T08:25:53Z</time>
      </trkpt>
      <trkpt lat="44.5914" lon="3.01923">
        <ele>1344</ele>
        <time>2013-07-22T08:25:58Z</time>
      </trkpt>
      <trkpt lat="44.59142" lon="3.0193">
        <ele>1344</ele>
        <time>2013-07-22T08:26:01Z</time>
      </trkpt>
      <trkpt lat="44.59144" lon="3.01936">
        <ele>1344</ele>
        <time>2013-07-22T08:26:04Z</time>
      </trkpt>
      <trkpt lat="44.59146" lon="3.01941">
        <ele>1344</ele>
        <time>2013-07-22T08:26:06Z</time>
      </trkpt>
      <trkpt lat="44.5915" lon="3.01949">
        <ele>1344</ele>
        <time>2013-07-22T08:26:12Z</time>
      </trkpt>
      <trkpt lat="44.59154" lon="3.01954">
        <ele>1343</ele>
        <time>2013-07-22T08:26:17Z</time>
      </trkpt>
      <trkpt lat="44.59159" lon="3.01965">
        <ele>1341</ele>
        <time>2013-07-22T08:26:26Z</time>
      </trkpt>
      <trkpt lat="44.59163" lon="3.01979">
        <ele>1342</ele>
        <time>2013-07-22T08:26:35Z</time>
      </trkpt>
      <trkpt lat="44.59165" lon="3.0199">
        <ele>1342</ele>
        <time>2013-07-22T08:26:41Z</time>
      </trkpt>
      <trkpt lat="44.59168" lon="3.01997">
        <ele>1342</ele>
        <time>2013-07-22T08:26:44Z</time>
      </trkpt>
      <trkpt lat="44.59171" lon="3.02004">
        <ele>1342</ele>
        <time>2013-07-22T08:26:46Z</time>
      </trkpt>
      <trkpt lat="44.59174" lon="3.0201">
        <ele>1341</ele>
        <time>2013-07-22T08:26:50Z</time>
      </trkpt>
      <trkpt lat="44.59177" lon="3.02016">
        <ele>1339</ele>
        <time>2013-07-22T08:26:54Z</time>
      </trkpt>
      <trkpt lat="44.5918" lon="3.02021">
        <ele>1337</ele>
        <time>2013-07-22T08:26:58Z</time>
      </trkpt>
      <trkpt lat="44.59184" lon="3.02027">
        <ele>1338</ele>
        <time>2013-07-22T08:27:07Z</time>
      </trkpt>
      <trkpt lat="44.59189" lon="3.0203">
        <ele>1340</ele>
        <time>2013-07-22T08:27:11Z</time>
      </trkpt>
      <trkpt lat="44.59194" lon="3.02033">
        <ele>1341</ele>
        <time>2013-07-22T08:27:14Z</time>
      </trkpt>
      <trkpt lat="44.59199" lon="3.02037">
        <ele>1342</ele>
        <time>2013-07-22T08:27:19Z</time>
      </trkpt>
      <trkpt lat="44.59204" lon="3.02043">
        <ele>1344</ele>
        <time>2013-07-22T08:27:23Z</time>
      </trkpt>
      <trkpt lat="44.59209" lon="3.02047">
        <ele>1346</ele>
        <time>2013-07-22T08:27:28Z</time>
      </trkpt>
      <trkpt lat="44.59214" lon="3.02052">
        <ele>1347</ele>
        <time>2013-07-22T08:27:33Z</time>
      </trkpt>
      <trkpt lat="44.59219" lon="3.02056">
        <ele>1347</ele>
        <time>2013-07-22T08:27:38Z</time>
      </trkpt>
      <trkpt lat="44.5922" lon="3.02063">
        <ele>1346</ele>
        <time>2013-07-22T08:27:44Z</time>
      </trkpt>
      <trkpt lat="44.59218" lon="3.02071">
        <ele>1345</ele>
        <time>2013-07-22T08:27:51Z</time>
      </trkpt>
      <trkpt lat="44.59217" lon="3.02078">
        <ele>1346</ele>
        <time>2013-07-22T08:27:55Z</time>
      </trkpt>
      <trkpt lat="44.59214" lon="3.02086">
        <ele>1347</ele>
        <time>2013-07-22T08:27:59Z</time>
      </trkpt>
      <trkpt lat="44.59213" lon="3.02094">
        <ele>1348</ele>
        <time>2013-07-22T08:28:03Z</time>
      </trkpt>
      <trkpt lat="44.59212" lon="3.02102">
        <ele>1349</ele>
        <time>2013-07-22T08:28:08Z</time>
      </trkpt>
      <trkpt lat="44.59212" lon="3.02109">
        <ele>1350</ele>
        <time>2013-07-22T08:28:12Z</time>
      </trkpt>
      <trkpt lat="44.59209" lon="3.02116">
        <ele>1350</ele>
        <time>2013-07-22T08:28:16Z</time>
      </trkpt>
      <trkpt lat="44.59207" lon="3.02123">
        <ele>1349</ele>
        <time>2013-07-22T08:28:21Z</time>
      </trkpt>
      <trkpt lat="44.59202" lon="3.02133">
        <ele>1347</ele>
        <time>2013-07-22T08:28:26Z</time>
      </trkpt>
      <trkpt lat="44.59197" lon="3.0214">
        <ele>1345</ele>
        <time>2013-07-22T08:28:32Z</time>
      </trkpt>
      <trkpt lat="44.59194" lon="3.02146">
        <ele>1346</ele>
        <time>2013-07-22T08:28:36Z</time>
      </trkpt>
      <trkpt lat="44.59192" lon="3.02151">
        <ele>1346</ele>
        <time>2013-07-22T08:28:39Z</time>
      </trkpt>
      <trkpt lat="44.59188" lon="3.02156">
        <ele>1346</ele>
        <time>2013-07-22T08:28:44Z</time>
      </trkpt>
      <trkpt lat="44.59185" lon="3.02161">
        <ele>1348</ele>
        <time>2013-07-22T08:28:48Z</time>
      </trkpt>
      <trkpt lat="44.59181" lon="3.02164">
        <ele>1348</ele>
        <time>2013-07-22T08:28:51Z</time>
      </trkpt>
      <trkpt lat="44.59176" lon="3.02167">
        <ele>1349</ele>
        <time>2013-07-22T08:28:56Z</time>
      </trkpt>
      <trkpt lat="44.59171" lon="3.02171">
        <ele>1349</ele>
        <time>2013-07-22T08:29:00Z</time>
      </trkpt>
      <trkpt lat="44.59166" lon="3.02175">
        <ele>1350</ele>
        <time>2013-07-22T08:29:05Z</time>
      </trkpt>
      <trkpt lat="44.59162" lon="3.02179">
        <ele>1350</ele>
        <time>2013-07-22T08:29:10Z</time>
      </trkpt>
      <trkpt lat="44.59158" lon="3.02183">
        <ele>1351</ele>
        <time>2013-07-22T08:29:14Z</time>
      </trkpt>
      <trkpt lat="44.59152" lon="3.02185">
        <ele>1351</ele>
        <time>2013-07-22T08:29:17Z</time>
      </trkpt>
      <trkpt lat="44.59148" lon="3.02189">
        <ele>1351</ele>
        <time>2013-07-22T08:29:23Z</time>
      </trkpt>
      <trkpt lat="44.59144" lon="3.02194">
        <ele>1351</ele>
        <time>2013-07-22T08:29:27Z</time>
      </trkpt>
      <trkpt lat="44.5914" lon="3.02198">
        <ele>1351</ele>
        <time>2013-07-22T08:29:31Z</time>
      </trkpt>
      <trkpt lat="44.59136" lon="3.02201">
        <ele>1350</ele>
        <time>2013-07-22T08:29:35Z</time>
      </trkpt>
      <trkpt lat="44.59132" lon="3.02205">
        <ele>1350</ele>
        <time>2013-07-22T08:29:38Z</time>
      </trkpt>
      <trkpt lat="44.59127" lon="3.02208">
        <ele>1350</ele>
        <time>2013-07-22T08:29:41Z</time>
      </trkpt>
      <trkpt lat="44.59121" lon="3.02211">
        <ele>1350</ele>
        <time>2013-07-22T08:29:45Z</time>
      </trkpt>
      <trkpt lat="44.59117" lon="3.02214">
        <ele>1350</ele>
        <time>2013-07-22T08:29:48Z</time>
      </trkpt>
      <trkpt lat="44.59112" lon="3.02217">
        <ele>1350</ele>
        <time>2013-07-22T08:29:52Z</time>
      </trkpt>
      <trkpt lat="44.5911" lon="3.02223">
        <ele>1350</ele>
        <time>2013-07-22T08:29:55Z</time>
      </trkpt>
      <trkpt lat="44.59106" lon="3.02235">
        <ele>1350</ele>
        <time>2013-07-22T08:30:03Z</time>
      </trkpt>
      <trkpt lat="44.59105" lon="3.02242">
        <ele>1350</ele>
        <time>2013-07-22T08:30:06Z</time>
      </trkpt>
      <trkpt lat="44.59103" lon="3.02255">
        <ele>1350</ele>
        <time>2013-07-22T08:30:12Z</time>
      </trkpt>
      <trkpt lat="44.59102" lon="3.02263">
        <ele>1351</ele>
        <time>2013-07-22T08:30:18Z</time>
      </trkpt>
      <trkpt lat="44.59101" lon="3.0227">
        <ele>1353</ele>
        <time>2013-07-22T08:30:23Z</time>
      </trkpt>
      <trkpt lat="44.59102" lon="3.02278">
        <ele>1355</ele>
        <time>2013-07-22T08:30:28Z</time>
      </trkpt>
      <trkpt lat="44.59101" lon="3.02285">
        <ele>1357</ele>
        <time>2013-07-22T08:30:33Z</time>
      </trkpt>
      <trkpt lat="44.59098" lon="3.02293">
        <ele>1358</ele>
        <time>2013-07-22T08:30:38Z</time>
      </trkpt>
      <trkpt lat="44.59097" lon="3.02301">
        <ele>1357</ele>
        <time>2013-07-22T08:30:42Z</time>
      </trkpt>
      <trkpt lat="44.59094" lon="3.0231">
        <ele>1356</ele>
        <time>2013-07-22T08:30:49Z</time>
      </trkpt>
      <trkpt lat="44.59087" lon="3.02321">
        <ele>1356</ele>
        <time>2013-07-22T08:30:54Z</time>
      </trkpt>
      <trkpt lat="44.59084" lon="3.02329">
        <ele>1354</ele>
        <time>2013-07-22T08:30:57Z</time>
      </trkpt>
      <trkpt lat="44.59081" lon="3.02336">
        <ele>1352</ele>
        <time>2013-07-22T08:31:01Z</time>
      </trkpt>
      <trkpt lat="44.59078" lon="3.02341">
        <ele>1350</ele>
        <time>2013-07-22T08:31:04Z</time>
      </trkpt>
      <trkpt lat="44.59075" lon="3.02347">
        <ele>1351</ele>
        <time>2013-07-22T08:31:08Z</time>
      </trkpt>
      <trkpt lat="44.59075" lon="3.02354">
        <ele>1352</ele>
        <time>2013-07-22T08:31:12Z</time>
      </trkpt>
      <trkpt lat="44.59074" lon="3.0236">
        <ele>1353</ele>
        <time>2013-07-22T08:31:15Z</time>
      </trkpt>
      <trkpt lat="44.59069" lon="3.02371">
        <ele>1354</ele>
        <time>2013-07-22T08:31:31Z</time>
      </trkpt>
      <trkpt lat="44.59066" lon="3.02376">
        <ele>1355</ele>
        <time>2013-07-22T08:31:36Z</time>
      </trkpt>
      <trkpt lat="44.59065" lon="3.02383">
        <ele>1355</ele>
        <time>2013-07-22T08:31:43Z</time>
      </trkpt>
      <trkpt lat="44.59064" lon="3.0239">
        <ele>1355</ele>
        <time>2013-07-22T08:31:46Z</time>
      </trkpt>
      <trkpt lat="44.59066" lon="3.02396">
        <ele>1354</ele>
        <time>2013-07-22T08:31:51Z</time>
      </trkpt>
      <trkpt lat="44.5907" lon="3.02401">
        <ele>1354</ele>
        <time>2013-07-22T08:31:55Z</time>
      </trkpt>
      <trkpt lat="44.59074" lon="3.02408">
        <ele>1353</ele>
        <time>2013-07-22T08:31:58Z</time>
      </trkpt>
      <trkpt lat="44.59077" lon="3.02414">
        <ele>1353</ele>
        <time>2013-07-22T08:32:00Z</time>
      </trkpt>
      <trkpt lat="44.59078" lon="3.02422">
        <ele>1353</ele>
        <time>2013-07-22T08:32:03Z</time>
      </trkpt>
      <trkpt lat="44.5908" lon="3.02428">
        <ele>1352</ele>
        <time>2013-07-22T08:32:06Z</time>
      </trkpt>
      <trkpt lat="44.59081" lon="3.02436">
        <ele>1352</ele>
        <time>2013-07-22T08:32:10Z</time>
      </trkpt>
      <trkpt lat="44.59083" lon="3.02444">
        <ele>1350</ele>
        <time>2013-07-22T08:32:17Z</time>
      </trkpt>
      <trkpt lat="44.59087" lon="3.02453">
        <ele>1344</ele>
        <time>2013-07-22T08:32:31Z</time>
      </trkpt>
      <trkpt lat="44.59083" lon="3.02437">
        <ele>1346</ele>
        <time>2013-07-22T08:32:42Z</time>
      </trkpt>
      <trkpt lat="44.59081" lon="3.02426">
        <ele>1347</ele>
        <time>2013-07-22T08:32:47Z</time>
      </trkpt>
      <trkpt lat="44.59077" lon="3.02419">
        <ele>1349</ele>
        <time>2013-07-22T08:32:52Z</time>
      </trkpt>
      <trkpt lat="44.59074" lon="3.02413">
        <ele>1350</ele>
        <time>2013-07-22T08:32:55Z</time>
      </trkpt>
      <trkpt lat="44.59069" lon="3.02407">
        <ele>1350</ele>
        <time>2013-07-22T08:33:00Z</time>
      </trkpt>
      <trkpt lat="44.59062" lon="3.024">
        <ele>1351</ele>
        <time>2013-07-22T08:33:07Z</time>
      </trkpt>
      <trkpt lat="44.59063" lon="3.02386">
        <ele>1351</ele>
        <time>2013-07-22T08:33:16Z</time>
      </trkpt>
      <trkpt lat="44.59069" lon="3.02376">
        <ele>1351</ele>
        <time>2013-07-22T08:33:22Z</time>
      </trkpt>
      <trkpt lat="44.59075" lon="3.02367">
        <ele>1351</ele>
        <time>2013-07-22T08:33:30Z</time>
      </trkpt>
      <trkpt lat="44.59081" lon="3.02356">
        <ele>1349</ele>
        <time>2013-07-22T08:33:38Z</time>
      </trkpt>
      <trkpt lat="44.59087" lon="3.02348">
        <ele>1347</ele>
        <time>2013-07-22T08:33:44Z</time>
      </trkpt>
      <trkpt lat="44.59091" lon="3.02342">
        <ele>1345</ele>
        <time>2013-07-22T08:33:48Z</time>
      </trkpt>
      <trkpt lat="44.59096" lon="3.02337">
        <ele>1342</ele>
        <time>2013-07-22T08:33:53Z</time>
      </trkpt>
      <trkpt lat="44.59103" lon="3.02329">
        <ele>1341</ele>
        <time>2013-07-22T08:34:00Z</time>
      </trkpt>
      <trkpt lat="44.59104" lon="3.02315">
        <ele>1341</ele>
        <time>2013-07-22T08:34:04Z</time>
      </trkpt>
      <trkpt lat="44.59106" lon="3.023">
        <ele>1341</ele>
        <time>2013-07-22T08:34:10Z</time>
      </trkpt>
      <trkpt lat="44.59107" lon="3.02291">
        <ele>1341</ele>
        <time>2013-07-22T08:34:14Z</time>
      </trkpt>
      <trkpt lat="44.59107" lon="3.0228">
        <ele>1342</ele>
        <time>2013-07-22T08:34:19Z</time>
      </trkpt>
      <trkpt lat="44.59106" lon="3.02267">
        <ele>1343</ele>
        <time>2013-07-22T08:34:25Z</time>
      </trkpt>
      <trkpt lat="44.59106" lon="3.02261">
        <ele>1343</ele>
        <time>2013-07-22T08:34:28Z</time>
      </trkpt>
      <trkpt lat="44.59109" lon="3.02249">
        <ele>1344</ele>
        <time>2013-07-22T08:34:34Z</time>
      </trkpt>
      <trkpt lat="44.59113" lon="3.02238">
        <ele>1343</ele>
        <time>2013-07-22T08:34:40Z</time>
      </trkpt>
      <trkpt lat="44.59117" lon="3.02227">
        <ele>1342</ele>
        <time>2013-07-22T08:34:46Z</time>
      </trkpt>
      <trkpt lat="44.59122" lon="3.02222">
        <ele>1341</ele>
        <time>2013-07-22T08:34:49Z</time>
      </trkpt>
      <trkpt lat="44.59125" lon="3.02218">
        <ele>1338</ele>
        <time>2013-07-22T08:34:53Z</time>
      </trkpt>
      <trkpt lat="44.5913" lon="3.02213">
        <ele>1337</ele>
        <time>2013-07-22T08:34:57Z</time>
      </trkpt>
      <trkpt lat="44.59136" lon="3.02209">
        <ele>1336</ele>
        <time>2013-07-22T08:35:02Z</time>
      </trkpt>
      <trkpt lat="44.59145" lon="3.02205">
        <ele>1337</ele>
        <time>2013-07-22T08:35:08Z</time>
      </trkpt>
      <trkpt lat="44.59153" lon="3.02202">
        <ele>1339</ele>
        <time>2013-07-22T08:35:13Z</time>
      </trkpt>
      <trkpt lat="44.5916" lon="3.02195">
        <ele>1341</ele>
        <time>2013-07-22T08:35:19Z</time>
      </trkpt>
      <trkpt lat="44.59164" lon="3.02191">
        <ele>1341</ele>
        <time>2013-07-22T08:35:23Z</time>
      </trkpt>
      <trkpt lat="44.59169" lon="3.02189">
        <ele>1341</ele>
        <time>2013-07-22T08:35:27Z</time>
      </trkpt>
      <trkpt lat="44.59179" lon="3.02193">
        <ele>1339</ele>
        <time>2013-07-22T08:35:43Z</time>
      </trkpt>
      <trkpt lat="44.59185" lon="3.02196">
        <ele>1336</ele>
        <time>2013-07-22T08:35:51Z</time>
      </trkpt>
      <trkpt lat="44.59193" lon="3.02202">
        <ele>1336</ele>
        <time>2013-07-22T08:35:58Z</time>
      </trkpt>
      <trkpt lat="44.59203" lon="3.02208">
        <ele>1334</ele>
        <time>2013-07-22T08:36:09Z</time>
      </trkpt>
      <trkpt lat="44.59212" lon="3.02209">
        <ele>1334</ele>
        <time>2013-07-22T08:36:20Z</time>
      </trkpt>
      <trkpt lat="44.59222" lon="3.02216">
        <ele>1332</ele>
        <time>2013-07-22T08:36:28Z</time>
      </trkpt>
      <trkpt lat="44.59231" lon="3.02217">
        <ele>1330</ele>
        <time>2013-07-22T08:36:36Z</time>
      </trkpt>
      <trkpt lat="44.5924" lon="3.0222">
        <ele>1325</ele>
        <time>2013-07-22T08:36:42Z</time>
      </trkpt>
      <trkpt lat="44.5925" lon="3.02223">
        <ele>1324</ele>
        <time>2013-07-22T08:36:48Z</time>
      </trkpt>
      <trkpt lat="44.59259" lon="3.02222">
        <ele>1324</ele>
        <time>2013-07-22T08:36:52Z</time>
      </trkpt>
      <trkpt lat="44.59269" lon="3.02222">
        <ele>1326</ele>
        <time>2013-07-22T08:36:58Z</time>
      </trkpt>
      <trkpt lat="44.59278" lon="3.02222">
        <ele>1327</ele>
        <time>2013-07-22T08:37:06Z</time>
      </trkpt>
      <trkpt lat="44.59288" lon="3.02221">
        <ele>1329</ele>
        <time>2013-07-22T08:37:16Z</time>
      </trkpt>
      <trkpt lat="44.59298" lon="3.0222">
        <ele>1332</ele>
        <time>2013-07-22T08:37:23Z</time>
      </trkpt>
      <trkpt lat="44.59307" lon="3.02224">
        <ele>1333</ele>
        <time>2013-07-22T08:37:28Z</time>
      </trkpt>
      <trkpt lat="44.59317" lon="3.02228">
        <ele>1332</ele>
        <time>2013-07-22T08:37:33Z</time>
      </trkpt>
      <trkpt lat="44.59323" lon="3.02229">
        <ele>1333</ele>
        <time>2013-07-22T08:37:35Z</time>
      </trkpt>
      <trkpt lat="44.59328" lon="3.02231">
        <ele>1334</ele>
        <time>2013-07-22T08:37:37Z</time>
      </trkpt>
      <trkpt lat="44.59333" lon="3.02235">
        <ele>1336</ele>
        <time>2013-07-22T08:37:39Z</time>
      </trkpt>
      <trkpt lat="44.59339" lon="3.02239">
        <ele>1337</ele>
        <time>2013-07-22T08:37:41Z</time>
      </trkpt>
      <trkpt lat="44.59346" lon="3.02243">
        <ele>1338</ele>
        <time>2013-07-22T08:37:43Z</time>
      </trkpt>
      <trkpt lat="44.59353" lon="3.02249">
        <ele>1340</ele>
        <time>2013-07-22T08:37:45Z</time>
      </trkpt>
      <trkpt lat="44.59359" lon="3.02255">
        <ele>1342</ele>
        <time>2013-07-22T08:37:47Z</time>
      </trkpt>
      <trkpt lat="44.59365" lon="3.0226">
        <ele>1344</ele>
        <time>2013-07-22T08:37:49Z</time>
      </trkpt>
      <trkpt lat="44.5937" lon="3.02266">
        <ele>1346</ele>
        <time>2013-07-22T08:37:51Z</time>
      </trkpt>
      <trkpt lat="44.59376" lon="3.02271">
        <ele>1348</ele>
        <time>2013-07-22T08:37:53Z</time>
      </trkpt>
      <trkpt lat="44.59382" lon="3.02274">
        <ele>1349</ele>
        <time>2013-07-22T08:37:55Z</time>
      </trkpt>
      <trkpt lat="44.59386" lon="3.02277">
        <ele>1349</ele>
        <time>2013-07-22T08:38:00Z</time>
      </trkpt>
      <trkpt lat="44.59391" lon="3.02276">
        <ele>1348</ele>
        <time>2013-07-22T08:38:03Z</time>
      </trkpt>
      <trkpt lat="44.59395" lon="3.02277">
        <ele>1347</ele>
        <time>2013-07-22T08:38:06Z</time>
      </trkpt>
      <trkpt lat="44.59402" lon="3.02285">
        <ele>1346</ele>
        <time>2013-07-22T08:38:12Z</time>
      </trkpt>
      <trkpt lat="44.59406" lon="3.02288">
        <ele>1346</ele>
        <time>2013-07-22T08:38:15Z</time>
      </trkpt>
      <trkpt lat="44.59411" lon="3.02291">
        <ele>1345</ele>
        <time>2013-07-22T08:38:18Z</time>
      </trkpt>
      <trkpt lat="44.59416" lon="3.02295">
        <ele>1344</ele>
        <time>2013-07-22T08:38:22Z</time>
      </trkpt>
      <trkpt lat="44.59422" lon="3.02299">
        <ele>1343</ele>
        <time>2013-07-22T08:38:25Z</time>
      </trkpt>
      <trkpt lat="44.59427" lon="3.02303">
        <ele>1343</ele>
        <time>2013-07-22T08:38:30Z</time>
      </trkpt>
      <trkpt lat="44.59434" lon="3.02307">
        <ele>1341</ele>
        <time>2013-07-22T08:38:40Z</time>
      </trkpt>
      <trkpt lat="44.59439" lon="3.02312">
        <ele>1342</ele>
        <time>2013-07-22T08:38:42Z</time>
      </trkpt>
      <trkpt lat="44.59443" lon="3.02316">
        <ele>1343</ele>
        <time>2013-07-22T08:38:46Z</time>
      </trkpt>
      <trkpt lat="44.59447" lon="3.0232">
        <ele>1343</ele>
        <time>2013-07-22T08:38:51Z</time>
      </trkpt>
      <trkpt lat="44.59451" lon="3.02324">
        <ele>1343</ele>
        <time>2013-07-22T08:38:54Z</time>
      </trkpt>
      <trkpt lat="44.59456" lon="3.02326">
        <ele>1343</ele>
        <time>2013-07-22T08:38:58Z</time>
      </trkpt>
      <trkpt lat="44.5946" lon="3.0233">
        <ele>1343</ele>
        <time>2013-07-22T08:39:02Z</time>
      </trkpt>
      <trkpt lat="44.59465" lon="3.02333">
        <ele>1344</ele>
        <time>2013-07-22T08:39:07Z</time>
      </trkpt>
      <trkpt lat="44.59469" lon="3.02336">
        <ele>1344</ele>
        <time>2013-07-22T08:39:12Z</time>
      </trkpt>
      <trkpt lat="44.59479" lon="3.02338">
        <ele>1345</ele>
        <time>2013-07-22T08:39:20Z</time>
      </trkpt>
      <trkpt lat="44.59485" lon="3.02341">
        <ele>1348</ele>
        <time>2013-07-22T08:39:24Z</time>
      </trkpt>
      <trkpt lat="44.59495" lon="3.02343">
        <ele>1349</ele>
        <time>2013-07-22T08:39:32Z</time>
      </trkpt>
      <trkpt lat="44.595" lon="3.02344">
        <ele>1349</ele>
        <time>2013-07-22T08:39:36Z</time>
      </trkpt>
      <trkpt lat="44.59504" lon="3.02345">
        <ele>1349</ele>
        <time>2013-07-22T08:39:39Z</time>
      </trkpt>
      <trkpt lat="44.59509" lon="3.02346">
        <ele>1348</ele>
        <time>2013-07-22T08:39:42Z</time>
      </trkpt>
      <trkpt lat="44.59514" lon="3.02348">
        <ele>1348</ele>
        <time>2013-07-22T08:39:44Z</time>
      </trkpt>
      <trkpt lat="44.59519" lon="3.02354">
        <ele>1349</ele>
        <time>2013-07-22T08:39:50Z</time>
      </trkpt>
      <trkpt lat="44.59523" lon="3.02355">
        <ele>1349</ele>
        <time>2013-07-22T08:39:54Z</time>
      </trkpt>
      <trkpt lat="44.59531" lon="3.02359">
        <ele>1350</ele>
        <time>2013-07-22T08:40:01Z</time>
      </trkpt>
      <trkpt lat="44.59537" lon="3.02364">
        <ele>1351</ele>
        <time>2013-07-22T08:40:06Z</time>
      </trkpt>
      <trkpt lat="44.59545" lon="3.02366">
        <ele>1352</ele>
        <time>2013-07-22T08:40:33Z</time>
      </trkpt>
      <trkpt lat="44.59549" lon="3.02367">
        <ele>1351</ele>
        <time>2013-07-22T08:40:36Z</time>
      </trkpt>
      <trkpt lat="44.59557" lon="3.02368">
        <ele>1347</ele>
        <time>2013-07-22T08:41:51Z</time>
      </trkpt>
      <trkpt lat="44.59562" lon="3.02369">
        <ele>1348</ele>
        <time>2013-07-22T08:42:01Z</time>
      </trkpt>
      <trkpt lat="44.59566" lon="3.02372">
        <ele>1349</ele>
        <time>2013-07-22T08:42:04Z</time>
      </trkpt>
      <trkpt lat="44.5957" lon="3.02375">
        <ele>1348</ele>
        <time>2013-07-22T08:42:08Z</time>
      </trkpt>
      <trkpt lat="44.59576" lon="3.02376">
        <ele>1348</ele>
        <time>2013-07-22T08:42:13Z</time>
      </trkpt>
      <trkpt lat="44.59581" lon="3.02381">
        <ele>1347</ele>
        <time>2013-07-22T08:42:18Z</time>
      </trkpt>
      <trkpt lat="44.59585" lon="3.02384">
        <ele>1346</ele>
        <time>2013-07-22T08:42:21Z</time>
      </trkpt>
      <trkpt lat="44.59595" lon="3.02388">
        <ele>1345</ele>
        <time>2013-07-22T08:42:26Z</time>
      </trkpt>
      <trkpt lat="44.596" lon="3.02392">
        <ele>1345</ele>
        <time>2013-07-22T08:42:29Z</time>
      </trkpt>
      <trkpt lat="44.59605" lon="3.02396">
        <ele>1344</ele>
        <time>2013-07-22T08:42:32Z</time>
      </trkpt>
      <trkpt lat="44.5961" lon="3.02399">
        <ele>1344</ele>
        <time>2013-07-22T08:42:36Z</time>
      </trkpt>
      <trkpt lat="44.59618" lon="3.02408">
        <ele>1345</ele>
        <time>2013-07-22T08:42:41Z</time>
      </trkpt>
      <trkpt lat="44.59622" lon="3.02411">
        <ele>1346</ele>
        <time>2013-07-22T08:42:43Z</time>
      </trkpt>
      <trkpt lat="44.59626" lon="3.02414">
        <ele>1346</ele>
        <time>2013-07-22T08:42:46Z</time>
      </trkpt>
      <trkpt lat="44.59632" lon="3.02417">
        <ele>1345</ele>
        <time>2013-07-22T08:42:51Z</time>
      </trkpt>
      <trkpt lat="44.59639" lon="3.02418">
        <ele>1345</ele>
        <time>2013-07-22T08:42:56Z</time>
      </trkpt>
      <trkpt lat="44.59644" lon="3.02422">
        <ele>1345</ele>
        <time>2013-07-22T08:43:00Z</time>
      </trkpt>
      <trkpt lat="44.59649" lon="3.02425">
        <ele>1344</ele>
        <time>2013-07-22T08:43:04Z</time>
      </trkpt>
      <trkpt lat="44.59653" lon="3.02428">
        <ele>1344</ele>
        <time>2013-07-22T08:43:08Z</time>
      </trkpt>
      <trkpt lat="44.59658" lon="3.02433">
        <ele>1344</ele>
        <time>2013-07-22T08:43:11Z</time>
      </trkpt>
      <trkpt lat="44.59662" lon="3.02437">
        <ele>1346</ele>
        <time>2013-07-22T08:43:15Z</time>
      </trkpt>
      <trkpt lat="44.59667" lon="3.0244">
        <ele>1347</ele>
        <time>2013-07-22T08:43:20Z</time>
      </trkpt>
      <trkpt lat="44.59672" lon="3.02444">
        <ele>1347</ele>
        <time>2013-07-22T08:43:24Z</time>
      </trkpt>
      <trkpt lat="44.59675" lon="3.0245">
        <ele>1348</ele>
        <time>2013-07-22T08:43:28Z</time>
      </trkpt>
      <trkpt lat="44.59677" lon="3.02456">
        <ele>1348</ele>
        <time>2013-07-22T08:43:32Z</time>
      </trkpt>
      <trkpt lat="44.59677" lon="3.02463">
        <ele>1348</ele>
        <time>2013-07-22T08:43:36Z</time>
      </trkpt>
      <trkpt lat="44.59675" lon="3.02469">
        <ele>1349</ele>
        <time>2013-07-22T08:43:42Z</time>
      </trkpt>
      <trkpt lat="44.59674" lon="3.02483">
        <ele>1351</ele>
        <time>2013-07-22T08:43:50Z</time>
      </trkpt>
      <trkpt lat="44.59672" lon="3.02489">
        <ele>1352</ele>
        <time>2013-07-22T08:43:53Z</time>
      </trkpt>
      <trkpt lat="44.59671" lon="3.02496">
        <ele>1353</ele>
        <time>2013-07-22T08:43:56Z</time>
      </trkpt>
      <trkpt lat="44.59671" lon="3.02504">
        <ele>1354</ele>
        <time>2013-07-22T08:44:00Z</time>
      </trkpt>
      <trkpt lat="44.59671" lon="3.02512">
        <ele>1355</ele>
        <time>2013-07-22T08:44:04Z</time>
      </trkpt>
      <trkpt lat="44.5967" lon="3.0252">
        <ele>1355</ele>
        <time>2013-07-22T08:44:08Z</time>
      </trkpt>
      <trkpt lat="44.5967" lon="3.02527">
        <ele>1354</ele>
        <time>2013-07-22T08:44:11Z</time>
      </trkpt>
      <trkpt lat="44.5967" lon="3.02533">
        <ele>1354</ele>
        <time>2013-07-22T08:44:14Z</time>
      </trkpt>
      <trkpt lat="44.59671" lon="3.02545">
        <ele>1352</ele>
        <time>2013-07-22T08:44:20Z</time>
      </trkpt>
      <trkpt lat="44.59673" lon="3.02551">
        <ele>1353</ele>
        <time>2013-07-22T08:44:23Z</time>
      </trkpt>
      <trkpt lat="44.59675" lon="3.02559">
        <ele>1353</ele>
        <time>2013-07-22T08:44:26Z</time>
      </trkpt>
      <trkpt lat="44.59678" lon="3.02571">
        <ele>1353</ele>
        <time>2013-07-22T08:44:32Z</time>
      </trkpt>
      <trkpt lat="44.5968" lon="3.02577">
        <ele>1352</ele>
        <time>2013-07-22T08:44:36Z</time>
      </trkpt>
      <trkpt lat="44.59685" lon="3.02589">
        <ele>1352</ele>
        <time>2013-07-22T08:44:43Z</time>
      </trkpt>
      <trkpt lat="44.59688" lon="3.02595">
        <ele>1351</ele>
        <time>2013-07-22T08:44:46Z</time>
      </trkpt>
      <trkpt lat="44.5969" lon="3.026">
        <ele>1352</ele>
        <time>2013-07-22T08:44:49Z</time>
      </trkpt>
      <trkpt lat="44.59694" lon="3.02605">
        <ele>1352</ele>
        <time>2013-07-22T08:44:52Z</time>
      </trkpt>
      <trkpt lat="44.59697" lon="3.0261">
        <ele>1352</ele>
        <time>2013-07-22T08:44:56Z</time>
      </trkpt>
      <trkpt lat="44.59701" lon="3.02614">
        <ele>1352</ele>
        <time>2013-07-22T08:45:00Z</time>
      </trkpt>
      <trkpt lat="44.59704" lon="3.02621">
        <ele>1351</ele>
        <time>2013-07-22T08:45:04Z</time>
      </trkpt>
      <trkpt lat="44.59707" lon="3.02626">
        <ele>1351</ele>
        <time>2013-07-22T08:45:07Z</time>
      </trkpt>
      <trkpt lat="44.59711" lon="3.02631">
        <ele>1351</ele>
        <time>2013-07-22T08:45:11Z</time>
      </trkpt>
      <trkpt lat="44.59716" lon="3.02635">
        <ele>1350</ele>
        <time>2013-07-22T08:45:15Z</time>
      </trkpt>
      <trkpt lat="44.59722" lon="3.02639">
        <ele>1349</ele>
        <time>2013-07-22T08:45:18Z</time>
      </trkpt>
      <trkpt lat="44.59728" lon="3.02644">
        <ele>1348</ele>
        <time>2013-07-22T08:45:23Z</time>
      </trkpt>
      <trkpt lat="44.59734" lon="3.02648">
        <ele>1348</ele>
        <time>2013-07-22T08:45:27Z</time>
      </trkpt>
      <trkpt lat="44.59738" lon="3.02651">
        <ele>1347</ele>
        <time>2013-07-22T08:45:30Z</time>
      </trkpt>
      <trkpt lat="44.59743" lon="3.02654">
        <ele>1347</ele>
        <time>2013-07-22T08:45:33Z</time>
      </trkpt>
      <trkpt lat="44.59747" lon="3.02657">
        <ele>1346</ele>
        <time>2013-07-22T08:45:36Z</time>
      </trkpt>
      <trkpt lat="44.59751" lon="3.02662">
        <ele>1346</ele>
        <time>2013-07-22T08:45:39Z</time>
      </trkpt>
      <trkpt lat="44.59755" lon="3.02667">
        <ele>1345</ele>
        <time>2013-07-22T08:45:43Z</time>
      </trkpt>
      <trkpt lat="44.59758" lon="3.02672">
        <ele>1345</ele>
        <time>2013-07-22T08:45:46Z</time>
      </trkpt>
      <trkpt lat="44.59761" lon="3.02678">
        <ele>1345</ele>
        <time>2013-07-22T08:45:50Z</time>
      </trkpt>
      <trkpt lat="44.59765" lon="3.02684">
        <ele>1344</ele>
        <time>2013-07-22T08:45:53Z</time>
      </trkpt>
      <trkpt lat="44.59769" lon="3.02689">
        <ele>1344</ele>
        <time>2013-07-22T08:45:57Z</time>
      </trkpt>
      <trkpt lat="44.59772" lon="3.02696">
        <ele>1343</ele>
        <time>2013-07-22T08:46:01Z</time>
      </trkpt>
      <trkpt lat="44.59775" lon="3.027">
        <ele>1343</ele>
        <time>2013-07-22T08:46:04Z</time>
      </trkpt>
      <trkpt lat="44.59778" lon="3.02705">
        <ele>1344</ele>
        <time>2013-07-22T08:46:07Z</time>
      </trkpt>
      <trkpt lat="44.59783" lon="3.02707">
        <ele>1344</ele>
        <time>2013-07-22T08:46:10Z</time>
      </trkpt>
      <trkpt lat="44.59788" lon="3.02708">
        <ele>1343</ele>
        <time>2013-07-22T08:46:14Z</time>
      </trkpt>
      <trkpt lat="44.59793" lon="3.0271">
        <ele>1342</ele>
        <time>2013-07-22T08:46:18Z</time>
      </trkpt>
      <trkpt lat="44.59799" lon="3.02711">
        <ele>1342</ele>
        <time>2013-07-22T08:46:21Z</time>
      </trkpt>
      <trkpt lat="44.59804" lon="3.02715">
        <ele>1341</ele>
        <time>2013-07-22T08:46:25Z</time>
      </trkpt>
      <trkpt lat="44.59806" lon="3.0272">
        <ele>1342</ele>
        <time>2013-07-22T08:46:29Z</time>
      </trkpt>
      <trkpt lat="44.59809" lon="3.02726">
        <ele>1342</ele>
        <time>2013-07-22T08:46:32Z</time>
      </trkpt>
      <trkpt lat="44.59811" lon="3.02731">
        <ele>1341</ele>
        <time>2013-07-22T08:46:35Z</time>
      </trkpt>
      <trkpt lat="44.59815" lon="3.02738">
        <ele>1341</ele>
        <time>2013-07-22T08:46:39Z</time>
      </trkpt>
      <trkpt lat="44.59817" lon="3.02744">
        <ele>1341</ele>
        <time>2013-07-22T08:46:42Z</time>
      </trkpt>
      <trkpt lat="44.59819" lon="3.02751">
        <ele>1341</ele>
        <time>2013-07-22T08:46:45Z</time>
      </trkpt>
      <trkpt lat="44.59822" lon="3.02756">
        <ele>1342</ele>
        <time>2013-07-22T08:46:48Z</time>
      </trkpt>
      <trkpt lat="44.59826" lon="3.02765">
        <ele>1342</ele>
        <time>2013-07-22T08:46:53Z</time>
      </trkpt>
      <trkpt lat="44.59828" lon="3.02772">
        <ele>1343</ele>
        <time>2013-07-22T08:46:57Z</time>
      </trkpt>
      <trkpt lat="44.59831" lon="3.02779">
        <ele>1343</ele>
        <time>2013-07-22T08:47:01Z</time>
      </trkpt>
      <trkpt lat="44.59832" lon="3.02786">
        <ele>1343</ele>
        <time>2013-07-22T08:47:05Z</time>
      </trkpt>
      <trkpt lat="44.59832" lon="3.02793">
        <ele>1342</ele>
        <time>2013-07-22T08:47:09Z</time>
      </trkpt>
      <trkpt lat="44.59832" lon="3.02801">
        <ele>1342</ele>
        <time>2013-07-22T08:47:13Z</time>
      </trkpt>
      <trkpt lat="44.59832" lon="3.02807">
        <ele>1341</ele>
        <time>2013-07-22T08:47:18Z</time>
      </trkpt>
      <trkpt lat="44.59833" lon="3.02814">
        <ele>1341</ele>
        <time>2013-07-22T08:47:21Z</time>
      </trkpt>
      <trkpt lat="44.59834" lon="3.0282">
        <ele>1341</ele>
        <time>2013-07-22T08:47:24Z</time>
      </trkpt>
      <trkpt lat="44.59834" lon="3.02827">
        <ele>1342</ele>
        <time>2013-07-22T08:47:28Z</time>
      </trkpt>
      <trkpt lat="44.59835" lon="3.02835">
        <ele>1342</ele>
        <time>2013-07-22T08:47:32Z</time>
      </trkpt>
      <trkpt lat="44.59834" lon="3.02845">
        <ele>1342</ele>
        <time>2013-07-22T08:47:38Z</time>
      </trkpt>
      <trkpt lat="44.59833" lon="3.02858">
        <ele>1342</ele>
        <time>2013-07-22T08:47:45Z</time>
      </trkpt>
      <trkpt lat="44.59833" lon="3.02873">
        <ele>1343</ele>
        <time>2013-07-22T08:47:52Z</time>
      </trkpt>
      <trkpt lat="44.59829" lon="3.02886">
        <ele>1342</ele>
        <time>2013-07-22T08:47:59Z</time>
      </trkpt>
      <trkpt lat="44.59827" lon="3.02899">
        <ele>1341</ele>
        <time>2013-07-22T08:48:08Z</time>
      </trkpt>
      <trkpt lat="44.59825" lon="3.02913">
        <ele>1341</ele>
        <time>2013-07-22T08:48:16Z</time>
      </trkpt>
      <trkpt lat="44.59824" lon="3.02928">
        <ele>1341</ele>
        <time>2013-07-22T08:48:23Z</time>
      </trkpt>
      <trkpt lat="44.59822" lon="3.02936">
        <ele>1342</ele>
        <time>2013-07-22T08:48:28Z</time>
      </trkpt>
      <trkpt lat="44.59818" lon="3.02942">
        <ele>1341</ele>
        <time>2013-07-22T08:48:33Z</time>
      </trkpt>
      <trkpt lat="44.59812" lon="3.02947">
        <ele>1342</ele>
        <time>2013-07-22T08:49:04Z</time>
      </trkpt>
      <trkpt lat="44.59812" lon="3.02953">
        <ele>1342</ele>
        <time>2013-07-22T08:49:08Z</time>
      </trkpt>
      <trkpt lat="44.59813" lon="3.0296">
        <ele>1341</ele>
        <time>2013-07-22T08:49:12Z</time>
      </trkpt>
      <trkpt lat="44.59815" lon="3.0297">
        <ele>1340</ele>
        <time>2013-07-22T08:49:17Z</time>
      </trkpt>
      <trkpt lat="44.59815" lon="3.02983">
        <ele>1341</ele>
        <time>2013-07-22T08:49:24Z</time>
      </trkpt>
      <trkpt lat="44.59816" lon="3.02996">
        <ele>1341</ele>
        <time>2013-07-22T08:49:31Z</time>
      </trkpt>
      <trkpt lat="44.59815" lon="3.03004">
        <ele>1340</ele>
        <time>2013-07-22T08:49:36Z</time>
      </trkpt>
      <trkpt lat="44.59814" lon="3.03011">
        <ele>1342</ele>
        <time>2013-07-22T08:49:40Z</time>
      </trkpt>
      <trkpt lat="44.59814" lon="3.03019">
        <ele>1342</ele>
        <time>2013-07-22T08:49:44Z</time>
      </trkpt>
      <trkpt lat="44.59814" lon="3.03026">
        <ele>1342</ele>
        <time>2013-07-22T08:49:48Z</time>
      </trkpt>
      <trkpt lat="44.59814" lon="3.03032">
        <ele>1342</ele>
        <time>2013-07-22T08:49:52Z</time>
      </trkpt>
      <trkpt lat="44.59815" lon="3.03042">
        <ele>1343</ele>
        <time>2013-07-22T08:49:57Z</time>
      </trkpt>
      <trkpt lat="44.59816" lon="3.03055">
        <ele>1343</ele>
        <time>2013-07-22T08:50:04Z</time>
      </trkpt>
      <trkpt lat="44.59815" lon="3.03063">
        <ele>1342</ele>
        <time>2013-07-22T08:50:08Z</time>
      </trkpt>
      <trkpt lat="44.59812" lon="3.0307">
        <ele>1342</ele>
        <time>2013-07-22T08:50:12Z</time>
      </trkpt>
      <trkpt lat="44.59811" lon="3.03077">
        <ele>1342</ele>
        <time>2013-07-22T08:50:16Z</time>
      </trkpt>
      <trkpt lat="44.59809" lon="3.03084">
        <ele>1343</ele>
        <time>2013-07-22T08:50:20Z</time>
      </trkpt>
      <trkpt lat="44.59808" lon="3.03091">
        <ele>1342</ele>
        <time>2013-07-22T08:50:24Z</time>
      </trkpt>
      <trkpt lat="44.59807" lon="3.03097">
        <ele>1342</ele>
        <time>2013-07-22T08:50:28Z</time>
      </trkpt>
      <trkpt lat="44.59804" lon="3.03104">
        <ele>1342</ele>
        <time>2013-07-22T08:50:32Z</time>
      </trkpt>
      <trkpt lat="44.59803" lon="3.0311">
        <ele>1342</ele>
        <time>2013-07-22T08:50:36Z</time>
      </trkpt>
      <trkpt lat="44.59798" lon="3.03123">
        <ele>1342</ele>
        <time>2013-07-22T08:50:44Z</time>
      </trkpt>
      <trkpt lat="44.59795" lon="3.0313">
        <ele>1342</ele>
        <time>2013-07-22T08:50:48Z</time>
      </trkpt>
      <trkpt lat="44.59793" lon="3.03135">
        <ele>1341</ele>
        <time>2013-07-22T08:50:51Z</time>
      </trkpt>
      <trkpt lat="44.59788" lon="3.03146">
        <ele>1341</ele>
        <time>2013-07-22T08:50:57Z</time>
      </trkpt>
      <trkpt lat="44.59784" lon="3.03152">
        <ele>1343</ele>
        <time>2013-07-22T08:51:01Z</time>
      </trkpt>
      <trkpt lat="44.59781" lon="3.03157">
        <ele>1345</ele>
        <time>2013-07-22T08:51:05Z</time>
      </trkpt>
      <trkpt lat="44.59779" lon="3.03163">
        <ele>1346</ele>
        <time>2013-07-22T08:51:09Z</time>
      </trkpt>
      <trkpt lat="44.59777" lon="3.03169">
        <ele>1345</ele>
        <time>2013-07-22T08:51:13Z</time>
      </trkpt>
      <trkpt lat="44.59774" lon="3.03176">
        <ele>1345</ele>
        <time>2013-07-22T08:51:18Z</time>
      </trkpt>
      <trkpt lat="44.59771" lon="3.03181">
        <ele>1345</ele>
        <time>2013-07-22T08:51:27Z</time>
      </trkpt>
      <trkpt lat="44.59774" lon="3.03195">
        <ele>1344</ele>
        <time>2013-07-22T08:51:54Z</time>
      </trkpt>
      <trkpt lat="44.5977" lon="3.03195">
        <ele>1345</ele>
        <time>2013-07-22T08:52:09Z</time>
      </trkpt>
      <trkpt lat="44.59767" lon="3.03193">
        <ele>1346</ele>
        <time>2013-07-22T08:52:20Z</time>
      </trkpt>
      <trkpt lat="44.59765" lon="3.032">
        <ele>1347</ele>
        <time>2013-07-22T08:52:52Z</time>
      </trkpt>
      <trkpt lat="44.59763" lon="3.03205">
        <ele>1347</ele>
        <time>2013-07-22T08:52:56Z</time>
      </trkpt>
      <trkpt lat="44.5976" lon="3.03213">
        <ele>1346</ele>
        <time>2013-07-22T08:53:00Z</time>
      </trkpt>
      <trkpt lat="44.59758" lon="3.03218">
        <ele>1347</ele>
        <time>2013-07-22T08:53:04Z</time>
      </trkpt>
      <trkpt lat="44.59755" lon="3.03225">
        <ele>1347</ele>
        <time>2013-07-22T08:53:08Z</time>
      </trkpt>
      <trkpt lat="44.59751" lon="3.03231">
        <ele>1348</ele>
        <time>2013-07-22T08:53:14Z</time>
      </trkpt>
      <trkpt lat="44.59748" lon="3.03236">
        <ele>1348</ele>
        <time>2013-07-22T08:53:20Z</time>
      </trkpt>
      <trkpt lat="44.59744" lon="3.03242">
        <ele>1348</ele>
        <time>2013-07-22T08:53:25Z</time>
      </trkpt>
      <trkpt lat="44.5974" lon="3.0325">
        <ele>1347</ele>
        <time>2013-07-22T08:53:31Z</time>
      </trkpt>
      <trkpt lat="44.59732" lon="3.0326">
        <ele>1347</ele>
        <time>2013-07-22T08:53:38Z</time>
      </trkpt>
      <trkpt lat="44.59727" lon="3.03271">
        <ele>1348</ele>
        <time>2013-07-22T08:53:46Z</time>
      </trkpt>
      <trkpt lat="44.59722" lon="3.03278">
        <ele>1346</ele>
        <time>2013-07-22T08:53:52Z</time>
      </trkpt>
      <trkpt lat="44.59719" lon="3.03283">
        <ele>1346</ele>
        <time>2013-07-22T08:53:56Z</time>
      </trkpt>
      <trkpt lat="44.59716" lon="3.03288">
        <ele>1347</ele>
        <time>2013-07-22T08:54:00Z</time>
      </trkpt>
      <trkpt lat="44.59712" lon="3.033">
        <ele>1349</ele>
        <time>2013-07-22T08:54:11Z</time>
      </trkpt>
      <trkpt lat="44.59707" lon="3.03307">
        <ele>1350</ele>
        <time>2013-07-22T08:54:16Z</time>
      </trkpt>
      <trkpt lat="44.59701" lon="3.03313">
        <ele>1350</ele>
        <time>2013-07-22T08:54:20Z</time>
      </trkpt>
      <trkpt lat="44.59698" lon="3.03318">
        <ele>1350</ele>
        <time>2013-07-22T08:54:23Z</time>
      </trkpt>
      <trkpt lat="44.59693" lon="3.03326">
        <ele>1350</ele>
        <time>2013-07-22T08:54:30Z</time>
      </trkpt>
      <trkpt lat="44.59689" lon="3.03332">
        <ele>1351</ele>
        <time>2013-07-22T08:54:33Z</time>
      </trkpt>
      <trkpt lat="44.59686" lon="3.03338">
        <ele>1350</ele>
        <time>2013-07-22T08:54:37Z</time>
      </trkpt>
      <trkpt lat="44.59684" lon="3.03344">
        <ele>1351</ele>
        <time>2013-07-22T08:54:41Z</time>
      </trkpt>
      <trkpt lat="44.59681" lon="3.0335">
        <ele>1351</ele>
        <time>2013-07-22T08:54:45Z</time>
      </trkpt>
      <trkpt lat="44.59678" lon="3.03356">
        <ele>1351</ele>
        <time>2013-07-22T08:54:50Z</time>
      </trkpt>
      <trkpt lat="44.59678" lon="3.0336">
        <ele>1352</ele>
        <time>2013-07-22T08:55:08Z</time>
      </trkpt>
      <trkpt lat="44.59671" lon="3.03369">
        <ele>1352</ele>
        <time>2013-07-22T08:55:16Z</time>
      </trkpt>
      <trkpt lat="44.59668" lon="3.03376">
        <ele>1352</ele>
        <time>2013-07-22T08:55:20Z</time>
      </trkpt>
      <trkpt lat="44.59666" lon="3.03383">
        <ele>1353</ele>
        <time>2013-07-22T08:55:24Z</time>
      </trkpt>
      <trkpt lat="44.59664" lon="3.0339">
        <ele>1354</ele>
        <time>2013-07-22T08:55:28Z</time>
      </trkpt>
      <trkpt lat="44.59662" lon="3.03397">
        <ele>1354</ele>
        <time>2013-07-22T08:55:32Z</time>
      </trkpt>
      <trkpt lat="44.5966" lon="3.03403">
        <ele>1353</ele>
        <time>2013-07-22T08:55:36Z</time>
      </trkpt>
      <trkpt lat="44.59658" lon="3.03411">
        <ele>1352</ele>
        <time>2013-07-22T08:55:40Z</time>
      </trkpt>
      <trkpt lat="44.59655" lon="3.03418">
        <ele>1353</ele>
        <time>2013-07-22T08:55:45Z</time>
      </trkpt>
      <trkpt lat="44.59654" lon="3.03424">
        <ele>1352</ele>
        <time>2013-07-22T08:55:49Z</time>
      </trkpt>
      <trkpt lat="44.5965" lon="3.03434">
        <ele>1352</ele>
        <time>2013-07-22T08:55:55Z</time>
      </trkpt>
      <trkpt lat="44.59648" lon="3.0344">
        <ele>1351</ele>
        <time>2013-07-22T08:55:59Z</time>
      </trkpt>
      <trkpt lat="44.59647" lon="3.03447">
        <ele>1352</ele>
        <time>2013-07-22T08:56:03Z</time>
      </trkpt>
      <trkpt lat="44.59644" lon="3.03455">
        <ele>1353</ele>
        <time>2013-07-22T08:56:09Z</time>
      </trkpt>
      <trkpt lat="44.59643" lon="3.03461">
        <ele>1353</ele>
        <time>2013-07-22T08:56:13Z</time>
      </trkpt>
      <trkpt lat="44.59641" lon="3.03468">
        <ele>1354</ele>
        <time>2013-07-22T08:56:17Z</time>
      </trkpt>
      <trkpt lat="44.59639" lon="3.03474">
        <ele>1354</ele>
        <time>2013-07-22T08:56:20Z</time>
      </trkpt>
      <trkpt lat="44.59637" lon="3.0348">
        <ele>1353</ele>
        <time>2013-07-22T08:56:24Z</time>
      </trkpt>
      <trkpt lat="44.59635" lon="3.03487">
        <ele>1354</ele>
        <time>2013-07-22T08:56:28Z</time>
      </trkpt>
      <trkpt lat="44.59633" lon="3.03494">
        <ele>1353</ele>
        <time>2013-07-22T08:56:32Z</time>
      </trkpt>
      <trkpt lat="44.59631" lon="3.035">
        <ele>1353</ele>
        <time>2013-07-22T08:56:36Z</time>
      </trkpt>
      <trkpt lat="44.59629" lon="3.03506">
        <ele>1353</ele>
        <time>2013-07-22T08:56:39Z</time>
      </trkpt>
      <trkpt lat="44.59627" lon="3.03512">
        <ele>1353</ele>
        <time>2013-07-22T08:56:43Z</time>
      </trkpt>
      <trkpt lat="44.59624" lon="3.03518">
        <ele>1353</ele>
        <time>2013-07-22T08:56:48Z</time>
      </trkpt>
      <trkpt lat="44.59623" lon="3.03524">
        <ele>1351</ele>
        <time>2013-07-22T08:56:54Z</time>
      </trkpt>
      <trkpt lat="44.59621" lon="3.0353">
        <ele>1351</ele>
        <time>2013-07-22T08:56:58Z</time>
      </trkpt>
      <trkpt lat="44.59619" lon="3.03537">
        <ele>1350</ele>
        <time>2013-07-22T08:57:02Z</time>
      </trkpt>
      <trkpt lat="44.59617" lon="3.03544">
        <ele>1350</ele>
        <time>2013-07-22T08:57:07Z</time>
      </trkpt>
      <trkpt lat="44.59614" lon="3.0355">
        <ele>1352</ele>
        <time>2013-07-22T08:57:11Z</time>
      </trkpt>
      <trkpt lat="44.59613" lon="3.03557">
        <ele>1354</ele>
        <time>2013-07-22T08:57:19Z</time>
      </trkpt>
      <trkpt lat="44.59613" lon="3.03563">
        <ele>1354</ele>
        <time>2013-07-22T08:57:25Z</time>
      </trkpt>
      <trkpt lat="44.5961" lon="3.03576">
        <ele>1353</ele>
        <time>2013-07-22T08:57:33Z</time>
      </trkpt>
      <trkpt lat="44.59607" lon="3.03581">
        <ele>1352</ele>
        <time>2013-07-22T08:57:36Z</time>
      </trkpt>
      <trkpt lat="44.59604" lon="3.03587">
        <ele>1350</ele>
        <time>2013-07-22T08:57:40Z</time>
      </trkpt>
      <trkpt lat="44.59602" lon="3.03589">
        <ele>1349</ele>
        <time>2013-07-22T08:57:51Z</time>
      </trkpt>
      <trkpt lat="44.59599" lon="3.03599">
        <ele>1349</ele>
        <time>2013-07-22T08:58:04Z</time>
      </trkpt>
      <trkpt lat="44.59597" lon="3.03608">
        <ele>1349</ele>
        <time>2013-07-22T08:58:09Z</time>
      </trkpt>
      <trkpt lat="44.59594" lon="3.03615">
        <ele>1348</ele>
        <time>2013-07-22T08:58:13Z</time>
      </trkpt>
      <trkpt lat="44.59592" lon="3.03621">
        <ele>1349</ele>
        <time>2013-07-22T08:58:17Z</time>
      </trkpt>
      <trkpt lat="44.59589" lon="3.03629">
        <ele>1348</ele>
        <time>2013-07-22T08:58:21Z</time>
      </trkpt>
      <trkpt lat="44.59587" lon="3.03634">
        <ele>1349</ele>
        <time>2013-07-22T08:58:24Z</time>
      </trkpt>
      <trkpt lat="44.59585" lon="3.03642">
        <ele>1350</ele>
        <time>2013-07-22T08:58:28Z</time>
      </trkpt>
      <trkpt lat="44.59582" lon="3.03655">
        <ele>1349</ele>
        <time>2013-07-22T08:58:34Z</time>
      </trkpt>
      <trkpt lat="44.59579" lon="3.03668">
        <ele>1345</ele>
        <time>2013-07-22T08:58:40Z</time>
      </trkpt>
      <trkpt lat="44.59576" lon="3.03675">
        <ele>1345</ele>
        <time>2013-07-22T08:58:43Z</time>
      </trkpt>
      <trkpt lat="44.59574" lon="3.03682">
        <ele>1345</ele>
        <time>2013-07-22T08:58:46Z</time>
      </trkpt>
      <trkpt lat="44.59572" lon="3.03688">
        <ele>1346</ele>
        <time>2013-07-22T08:58:49Z</time>
      </trkpt>
      <trkpt lat="44.59569" lon="3.03695">
        <ele>1345</ele>
        <time>2013-07-22T08:58:53Z</time>
      </trkpt>
      <trkpt lat="44.59564" lon="3.03706">
        <ele>1345</ele>
        <time>2013-07-22T08:58:59Z</time>
      </trkpt>
      <trkpt lat="44.59562" lon="3.03712">
        <ele>1344</ele>
        <time>2013-07-22T08:59:08Z</time>
      </trkpt>
      <trkpt lat="44.5956" lon="3.03718">
        <ele>1344</ele>
        <time>2013-07-22T08:59:13Z</time>
      </trkpt>
      <trkpt lat="44.59558" lon="3.03724">
        <ele>1342</ele>
        <time>2013-07-22T08:59:17Z</time>
      </trkpt>
      <trkpt lat="44.59555" lon="3.03731">
        <ele>1341</ele>
        <time>2013-07-22T08:59:21Z</time>
      </trkpt>
      <trkpt lat="44.59553" lon="3.03738">
        <ele>1340</ele>
        <time>2013-07-22T08:59:24Z</time>
      </trkpt>
      <trkpt lat="44.59551" lon="3.03744">
        <ele>1339</ele>
        <time>2013-07-22T08:59:27Z</time>
      </trkpt>
      <trkpt lat="44.59549" lon="3.03751">
        <ele>1339</ele>
        <time>2013-07-22T08:59:31Z</time>
      </trkpt>
      <trkpt lat="44.59547" lon="3.03757">
        <ele>1338</ele>
        <time>2013-07-22T08:59:34Z</time>
      </trkpt>
      <trkpt lat="44.59545" lon="3.03764">
        <ele>1338</ele>
        <time>2013-07-22T08:59:38Z</time>
      </trkpt>
      <trkpt lat="44.59542" lon="3.03772">
        <ele>1338</ele>
        <time>2013-07-22T08:59:43Z</time>
      </trkpt>
      <trkpt lat="44.5954" lon="3.0378">
        <ele>1338</ele>
        <time>2013-07-22T08:59:47Z</time>
      </trkpt>
      <trkpt lat="44.59537" lon="3.03787">
        <ele>1337</ele>
        <time>2013-07-22T08:59:51Z</time>
      </trkpt>
      <trkpt lat="44.59535" lon="3.03793">
        <ele>1337</ele>
        <time>2013-07-22T08:59:54Z</time>
      </trkpt>
      <trkpt lat="44.59533" lon="3.038">
        <ele>1338</ele>
        <time>2013-07-22T08:59:58Z</time>
      </trkpt>
      <trkpt lat="44.5953" lon="3.03806">
        <ele>1339</ele>
        <time>2013-07-22T09:00:03Z</time>
      </trkpt>
      <trkpt lat="44.59528" lon="3.03812">
        <ele>1339</ele>
        <time>2013-07-22T09:00:08Z</time>
      </trkpt>
      <trkpt lat="44.59526" lon="3.03819">
        <ele>1339</ele>
        <time>2013-07-22T09:00:12Z</time>
      </trkpt>
      <trkpt lat="44.59524" lon="3.03827">
        <ele>1338</ele>
        <time>2013-07-22T09:00:17Z</time>
      </trkpt>
      <trkpt lat="44.59522" lon="3.03833">
        <ele>1338</ele>
        <time>2013-07-22T09:00:20Z</time>
      </trkpt>
      <trkpt lat="44.5952" lon="3.0384">
        <ele>1338</ele>
        <time>2013-07-22T09:00:24Z</time>
      </trkpt>
      <trkpt lat="44.59518" lon="3.03847">
        <ele>1338</ele>
        <time>2013-07-22T09:00:28Z</time>
      </trkpt>
      <trkpt lat="44.59515" lon="3.03852">
        <ele>1339</ele>
        <time>2013-07-22T09:00:32Z</time>
      </trkpt>
      <trkpt lat="44.59514" lon="3.03859">
        <ele>1338</ele>
        <time>2013-07-22T09:00:36Z</time>
      </trkpt>
      <trkpt lat="44.59511" lon="3.03865">
        <ele>1338</ele>
        <time>2013-07-22T09:00:41Z</time>
      </trkpt>
      <trkpt lat="44.59509" lon="3.03871">
        <ele>1337</ele>
        <time>2013-07-22T09:00:44Z</time>
      </trkpt>
      <trkpt lat="44.59507" lon="3.03879">
        <ele>1337</ele>
        <time>2013-07-22T09:00:48Z</time>
      </trkpt>
      <trkpt lat="44.59504" lon="3.03885">
        <ele>1338</ele>
        <time>2013-07-22T09:00:52Z</time>
      </trkpt>
      <trkpt lat="44.59502" lon="3.03892">
        <ele>1338</ele>
        <time>2013-07-22T09:00:56Z</time>
      </trkpt>
      <trkpt lat="44.595" lon="3.03898">
        <ele>1339</ele>
        <time>2013-07-22T09:01:00Z</time>
      </trkpt>
      <trkpt lat="44.59498" lon="3.03904">
        <ele>1338</ele>
        <time>2013-07-22T09:01:03Z</time>
      </trkpt>
      <trkpt lat="44.59496" lon="3.03912">
        <ele>1338</ele>
        <time>2013-07-22T09:01:07Z</time>
      </trkpt>
      <trkpt lat="44.59494" lon="3.03918">
        <ele>1339</ele>
        <time>2013-07-22T09:01:11Z</time>
      </trkpt>
      <trkpt lat="44.59491" lon="3.03924">
        <ele>1340</ele>
        <time>2013-07-22T09:01:15Z</time>
      </trkpt>
      <trkpt lat="44.59489" lon="3.0393">
        <ele>1340</ele>
        <time>2013-07-22T09:01:19Z</time>
      </trkpt>
      <trkpt lat="44.59487" lon="3.03937">
        <ele>1340</ele>
        <time>2013-07-22T09:01:23Z</time>
      </trkpt>
      <trkpt lat="44.59485" lon="3.03943">
        <ele>1339</ele>
        <time>2013-07-22T09:01:27Z</time>
      </trkpt>
      <trkpt lat="44.59484" lon="3.03949">
        <ele>1338</ele>
        <time>2013-07-22T09:01:31Z</time>
      </trkpt>
      <trkpt lat="44.59482" lon="3.03956">
        <ele>1338</ele>
        <time>2013-07-22T09:01:34Z</time>
      </trkpt>
      <trkpt lat="44.5948" lon="3.03961">
        <ele>1337</ele>
        <time>2013-07-22T09:01:38Z</time>
      </trkpt>
      <trkpt lat="44.59478" lon="3.03968">
        <ele>1335</ele>
        <time>2013-07-22T09:01:42Z</time>
      </trkpt>
      <trkpt lat="44.59476" lon="3.03975">
        <ele>1334</ele>
        <time>2013-07-22T09:01:46Z</time>
      </trkpt>
      <trkpt lat="44.59473" lon="3.03982">
        <ele>1334</ele>
        <time>2013-07-22T09:01:51Z</time>
      </trkpt>
      <trkpt lat="44.59471" lon="3.03988">
        <ele>1333</ele>
        <time>2013-07-22T09:01:55Z</time>
      </trkpt>
      <trkpt lat="44.59469" lon="3.03996">
        <ele>1331</ele>
        <time>2013-07-22T09:02:01Z</time>
      </trkpt>
      <trkpt lat="44.59466" lon="3.04002">
        <ele>1330</ele>
        <time>2013-07-22T09:02:05Z</time>
      </trkpt>
      <trkpt lat="44.59464" lon="3.04007">
        <ele>1329</ele>
        <time>2013-07-22T09:02:09Z</time>
      </trkpt>
      <trkpt lat="44.59462" lon="3.04014">
        <ele>1328</ele>
        <time>2013-07-22T09:02:13Z</time>
      </trkpt>
      <trkpt lat="44.59458" lon="3.04022">
        <ele>1327</ele>
        <time>2013-07-22T09:02:18Z</time>
      </trkpt>
      <trkpt lat="44.59455" lon="3.04029">
        <ele>1327</ele>
        <time>2013-07-22T09:02:22Z</time>
      </trkpt>
      <trkpt lat="44.59452" lon="3.04035">
        <ele>1327</ele>
        <time>2013-07-22T09:02:26Z</time>
      </trkpt>
      <trkpt lat="44.5945" lon="3.04044">
        <ele>1328</ele>
        <time>2013-07-22T09:02:31Z</time>
      </trkpt>
      <trkpt lat="44.59448" lon="3.0405">
        <ele>1328</ele>
        <time>2013-07-22T09:02:35Z</time>
      </trkpt>
      <trkpt lat="44.59445" lon="3.04057">
        <ele>1328</ele>
        <time>2013-07-22T09:02:39Z</time>
      </trkpt>
      <trkpt lat="44.59443" lon="3.04063">
        <ele>1328</ele>
        <time>2013-07-22T09:02:43Z</time>
      </trkpt>
      <trkpt lat="44.59441" lon="3.04071">
        <ele>1326</ele>
        <time>2013-07-22T09:02:47Z</time>
      </trkpt>
      <trkpt lat="44.59438" lon="3.04079">
        <ele>1326</ele>
        <time>2013-07-22T09:02:52Z</time>
      </trkpt>
      <trkpt lat="44.59435" lon="3.04085">
        <ele>1326</ele>
        <time>2013-07-22T09:02:56Z</time>
      </trkpt>
      <trkpt lat="44.59432" lon="3.04092">
        <ele>1326</ele>
        <time>2013-07-22T09:03:00Z</time>
      </trkpt>
      <trkpt lat="44.5943" lon="3.04098">
        <ele>1326</ele>
        <time>2013-07-22T09:03:04Z</time>
      </trkpt>
      <trkpt lat="44.59427" lon="3.04104">
        <ele>1327</ele>
        <time>2013-07-22T09:03:08Z</time>
      </trkpt>
      <trkpt lat="44.59425" lon="3.04111">
        <ele>1327</ele>
        <time>2013-07-22T09:03:12Z</time>
      </trkpt>
      <trkpt lat="44.59422" lon="3.04118">
        <ele>1328</ele>
        <time>2013-07-22T09:03:16Z</time>
      </trkpt>
      <trkpt lat="44.5942" lon="3.04125">
        <ele>1328</ele>
        <time>2013-07-22T09:03:22Z</time>
      </trkpt>
      <trkpt lat="44.59418" lon="3.04131">
        <ele>1327</ele>
        <time>2013-07-22T09:03:27Z</time>
      </trkpt>
      <trkpt lat="44.59415" lon="3.04139">
        <ele>1327</ele>
        <time>2013-07-22T09:03:31Z</time>
      </trkpt>
      <trkpt lat="44.59413" lon="3.04148">
        <ele>1326</ele>
        <time>2013-07-22T09:03:36Z</time>
      </trkpt>
      <trkpt lat="44.59411" lon="3.04154">
        <ele>1326</ele>
        <time>2013-07-22T09:03:40Z</time>
      </trkpt>
      <trkpt lat="44.59406" lon="3.04166">
        <ele>1326</ele>
        <time>2013-07-22T09:03:48Z</time>
      </trkpt>
      <trkpt lat="44.59404" lon="3.04173">
        <ele>1326</ele>
        <time>2013-07-22T09:03:52Z</time>
      </trkpt>
      <trkpt lat="44.59399" lon="3.04185">
        <ele>1322</ele>
        <time>2013-07-22T09:04:01Z</time>
      </trkpt>
      <trkpt lat="44.59395" lon="3.04197">
        <ele>1319</ele>
        <time>2013-07-22T09:04:10Z</time>
      </trkpt>
      <trkpt lat="44.59391" lon="3.04208">
        <ele>1317</ele>
        <time>2013-07-22T09:04:17Z</time>
      </trkpt>
      <trkpt lat="44.59387" lon="3.04217">
        <ele>1318</ele>
        <time>2013-07-22T09:04:23Z</time>
      </trkpt>
      <trkpt lat="44.59385" lon="3.04222">
        <ele>1319</ele>
        <time>2013-07-22T09:04:26Z</time>
      </trkpt>
      <trkpt lat="44.59382" lon="3.04229">
        <ele>1321</ele>
        <time>2013-07-22T09:04:29Z</time>
      </trkpt>
      <trkpt lat="44.59378" lon="3.04241">
        <ele>1322</ele>
        <time>2013-07-22T09:04:36Z</time>
      </trkpt>
      <trkpt lat="44.59376" lon="3.04247">
        <ele>1323</ele>
        <time>2013-07-22T09:04:39Z</time>
      </trkpt>
      <trkpt lat="44.59373" lon="3.04255">
        <ele>1325</ele>
        <time>2013-07-22T09:04:44Z</time>
      </trkpt>
      <trkpt lat="44.59371" lon="3.04262">
        <ele>1326</ele>
        <time>2013-07-22T09:04:48Z</time>
      </trkpt>
      <trkpt lat="44.59368" lon="3.04268">
        <ele>1327</ele>
        <time>2013-07-22T09:04:52Z</time>
      </trkpt>
      <trkpt lat="44.59366" lon="3.04274">
        <ele>1327</ele>
        <time>2013-07-22T09:04:56Z</time>
      </trkpt>
      <trkpt lat="44.59364" lon="3.04281">
        <ele>1327</ele>
        <time>2013-07-22T09:05:01Z</time>
      </trkpt>
      <trkpt lat="44.59361" lon="3.04288">
        <ele>1326</ele>
        <time>2013-07-22T09:05:06Z</time>
      </trkpt>
      <trkpt lat="44.59359" lon="3.04296">
        <ele>1325</ele>
        <time>2013-07-22T09:05:11Z</time>
      </trkpt>
      <trkpt lat="44.59356" lon="3.04303">
        <ele>1324</ele>
        <time>2013-07-22T09:05:15Z</time>
      </trkpt>
      <trkpt lat="44.59353" lon="3.04309">
        <ele>1323</ele>
        <time>2013-07-22T09:05:19Z</time>
      </trkpt>
      <trkpt lat="44.5935" lon="3.04318">
        <ele>1323</ele>
        <time>2013-07-22T09:05:24Z</time>
      </trkpt>
      <trkpt lat="44.59347" lon="3.04324">
        <ele>1323</ele>
        <time>2013-07-22T09:05:28Z</time>
      </trkpt>
      <trkpt lat="44.59345" lon="3.0433">
        <ele>1322</ele>
        <time>2013-07-22T09:05:32Z</time>
      </trkpt>
      <trkpt lat="44.59342" lon="3.04335">
        <ele>1322</ele>
        <time>2013-07-22T09:05:35Z</time>
      </trkpt>
      <trkpt lat="44.5934" lon="3.04342">
        <ele>1322</ele>
        <time>2013-07-22T09:05:39Z</time>
      </trkpt>
      <trkpt lat="44.59337" lon="3.04348">
        <ele>1322</ele>
        <time>2013-07-22T09:05:43Z</time>
      </trkpt>
      <trkpt lat="44.59333" lon="3.04358">
        <ele>1322</ele>
        <time>2013-07-22T09:05:49Z</time>
      </trkpt>
      <trkpt lat="44.59331" lon="3.04364">
        <ele>1322</ele>
        <time>2013-07-22T09:05:52Z</time>
      </trkpt>
      <trkpt lat="44.59328" lon="3.04372">
        <ele>1323</ele>
        <time>2013-07-22T09:05:57Z</time>
      </trkpt>
      <trkpt lat="44.59324" lon="3.04379">
        <ele>1324</ele>
        <time>2013-07-22T09:06:01Z</time>
      </trkpt>
      <trkpt lat="44.59322" lon="3.04385">
        <ele>1325</ele>
        <time>2013-07-22T09:06:05Z</time>
      </trkpt>
      <trkpt lat="44.59319" lon="3.04392">
        <ele>1326</ele>
        <time>2013-07-22T09:06:09Z</time>
      </trkpt>
      <trkpt lat="44.59317" lon="3.04397">
        <ele>1326</ele>
        <time>2013-07-22T09:06:13Z</time>
      </trkpt>
      <trkpt lat="44.59315" lon="3.04405">
        <ele>1325</ele>
        <time>2013-07-22T09:06:17Z</time>
      </trkpt>
      <trkpt lat="44.59312" lon="3.0441">
        <ele>1325</ele>
        <time>2013-07-22T09:06:21Z</time>
      </trkpt>
      <trkpt lat="44.59309" lon="3.04416">
        <ele>1325</ele>
        <time>2013-07-22T09:06:25Z</time>
      </trkpt>
      <trkpt lat="44.59306" lon="3.04422">
        <ele>1325</ele>
        <time>2013-07-22T09:06:29Z</time>
      </trkpt>
      <trkpt lat="44.59304" lon="3.04427">
        <ele>1325</ele>
        <time>2013-07-22T09:06:32Z</time>
      </trkpt>
      <trkpt lat="44.59301" lon="3.04434">
        <ele>1324</ele>
        <time>2013-07-22T09:06:36Z</time>
      </trkpt>
      <trkpt lat="44.59298" lon="3.0444">
        <ele>1324</ele>
        <time>2013-07-22T09:06:40Z</time>
      </trkpt>
      <trkpt lat="44.59296" lon="3.04445">
        <ele>1322</ele>
        <time>2013-07-22T09:06:45Z</time>
      </trkpt>
      <trkpt lat="44.59294" lon="3.04451">
        <ele>1320</ele>
        <time>2013-07-22T09:06:49Z</time>
      </trkpt>
      <trkpt lat="44.5929" lon="3.04456">
        <ele>1321</ele>
        <time>2013-07-22T09:06:54Z</time>
      </trkpt>
      <trkpt lat="44.59287" lon="3.04459">
        <ele>1322</ele>
        <time>2013-07-22T09:07:46Z</time>
      </trkpt>
      <trkpt lat="44.59285" lon="3.04465">
        <ele>1322</ele>
        <time>2013-07-22T09:07:50Z</time>
      </trkpt>
      <trkpt lat="44.59284" lon="3.04472">
        <ele>1323</ele>
        <time>2013-07-22T09:07:54Z</time>
      </trkpt>
      <trkpt lat="44.59281" lon="3.0448">
        <ele>1324</ele>
        <time>2013-07-22T09:07:58Z</time>
      </trkpt>
      <trkpt lat="44.59278" lon="3.04486">
        <ele>1324</ele>
        <time>2013-07-22T09:08:02Z</time>
      </trkpt>
      <trkpt lat="44.59276" lon="3.04493">
        <ele>1324</ele>
        <time>2013-07-22T09:08:07Z</time>
      </trkpt>
      <trkpt lat="44.59274" lon="3.045">
        <ele>1324</ele>
        <time>2013-07-22T09:08:10Z</time>
      </trkpt>
      <trkpt lat="44.59273" lon="3.04505">
        <ele>1324</ele>
        <time>2013-07-22T09:08:13Z</time>
      </trkpt>
      <trkpt lat="44.5927" lon="3.04511">
        <ele>1323</ele>
        <time>2013-07-22T09:08:17Z</time>
      </trkpt>
      <trkpt lat="44.59267" lon="3.04518">
        <ele>1323</ele>
        <time>2013-07-22T09:08:21Z</time>
      </trkpt>
      <trkpt lat="44.59263" lon="3.04528">
        <ele>1323</ele>
        <time>2013-07-22T09:08:27Z</time>
      </trkpt>
      <trkpt lat="44.59261" lon="3.04535">
        <ele>1322</ele>
        <time>2013-07-22T09:08:32Z</time>
      </trkpt>
      <trkpt lat="44.59258" lon="3.04543">
        <ele>1322</ele>
        <time>2013-07-22T09:08:37Z</time>
      </trkpt>
      <trkpt lat="44.59255" lon="3.04552">
        <ele>1323</ele>
        <time>2013-07-22T09:08:42Z</time>
      </trkpt>
      <trkpt lat="44.59249" lon="3.04562">
        <ele>1324</ele>
        <time>2013-07-22T09:08:48Z</time>
      </trkpt>
      <trkpt lat="44.59247" lon="3.04569">
        <ele>1324</ele>
        <time>2013-07-22T09:08:51Z</time>
      </trkpt>
      <trkpt lat="44.59245" lon="3.04575">
        <ele>1324</ele>
        <time>2013-07-22T09:08:54Z</time>
      </trkpt>
      <trkpt lat="44.59243" lon="3.04581">
        <ele>1325</ele>
        <time>2013-07-22T09:08:58Z</time>
      </trkpt>
      <trkpt lat="44.59241" lon="3.04587">
        <ele>1324</ele>
        <time>2013-07-22T09:09:02Z</time>
      </trkpt>
      <trkpt lat="44.59239" lon="3.04595">
        <ele>1325</ele>
        <time>2013-07-22T09:09:07Z</time>
      </trkpt>
      <trkpt lat="44.59236" lon="3.04602">
        <ele>1325</ele>
        <time>2013-07-22T09:09:11Z</time>
      </trkpt>
      <trkpt lat="44.59234" lon="3.04608">
        <ele>1325</ele>
        <time>2013-07-22T09:09:14Z</time>
      </trkpt>
      <trkpt lat="44.59232" lon="3.04615">
        <ele>1325</ele>
        <time>2013-07-22T09:09:18Z</time>
      </trkpt>
      <trkpt lat="44.5923" lon="3.04621">
        <ele>1325</ele>
        <time>2013-07-22T09:09:21Z</time>
      </trkpt>
      <trkpt lat="44.59228" lon="3.04626">
        <ele>1326</ele>
        <time>2013-07-22T09:09:24Z</time>
      </trkpt>
      <trkpt lat="44.59225" lon="3.04632">
        <ele>1327</ele>
        <time>2013-07-22T09:09:27Z</time>
      </trkpt>
      <trkpt lat="44.59222" lon="3.04639">
        <ele>1328</ele>
        <time>2013-07-22T09:09:31Z</time>
      </trkpt>
      <trkpt lat="44.59219" lon="3.04644">
        <ele>1329</ele>
        <time>2013-07-22T09:09:34Z</time>
      </trkpt>
      <trkpt lat="44.59217" lon="3.04651">
        <ele>1329</ele>
        <time>2013-07-22T09:09:38Z</time>
      </trkpt>
      <trkpt lat="44.59215" lon="3.04658">
        <ele>1330</ele>
        <time>2013-07-22T09:09:42Z</time>
      </trkpt>
      <trkpt lat="44.59213" lon="3.04665">
        <ele>1330</ele>
        <time>2013-07-22T09:09:46Z</time>
      </trkpt>
      <trkpt lat="44.5921" lon="3.04671">
        <ele>1330</ele>
        <time>2013-07-22T09:09:49Z</time>
      </trkpt>
      <trkpt lat="44.59207" lon="3.04676">
        <ele>1332</ele>
        <time>2013-07-22T09:09:54Z</time>
      </trkpt>
      <trkpt lat="44.59204" lon="3.04682">
        <ele>1333</ele>
        <time>2013-07-22T09:09:58Z</time>
      </trkpt>
      <trkpt lat="44.592" lon="3.0469">
        <ele>1334</ele>
        <time>2013-07-22T09:10:05Z</time>
      </trkpt>
      <trkpt lat="44.59198" lon="3.04696">
        <ele>1334</ele>
        <time>2013-07-22T09:10:10Z</time>
      </trkpt>
      <trkpt lat="44.59196" lon="3.04702">
        <ele>1335</ele>
        <time>2013-07-22T09:10:14Z</time>
      </trkpt>
      <trkpt lat="44.59193" lon="3.04708">
        <ele>1334</ele>
        <time>2013-07-22T09:10:19Z</time>
      </trkpt>
      <trkpt lat="44.59191" lon="3.04714">
        <ele>1334</ele>
        <time>2013-07-22T09:10:30Z</time>
      </trkpt>
      <trkpt lat="44.59188" lon="3.0472">
        <ele>1334</ele>
        <time>2013-07-22T09:10:34Z</time>
      </trkpt>
      <trkpt lat="44.59185" lon="3.04726">
        <ele>1335</ele>
        <time>2013-07-22T09:10:37Z</time>
      </trkpt>
      <trkpt lat="44.59182" lon="3.04731">
        <ele>1336</ele>
        <time>2013-07-22T09:10:42Z</time>
      </trkpt>
      <trkpt lat="44.59181" lon="3.04737">
        <ele>1336</ele>
        <time>2013-07-22T09:10:46Z</time>
      </trkpt>
      <trkpt lat="44.59179" lon="3.04743">
        <ele>1336</ele>
        <time>2013-07-22T09:10:49Z</time>
      </trkpt>
      <trkpt lat="44.59177" lon="3.0475">
        <ele>1336</ele>
        <time>2013-07-22T09:10:54Z</time>
      </trkpt>
      <trkpt lat="44.59175" lon="3.04755">
        <ele>1336</ele>
        <time>2013-07-22T09:10:58Z</time>
      </trkpt>
      <trkpt lat="44.59173" lon="3.04761">
        <ele>1336</ele>
        <time>2013-07-22T09:11:01Z</time>
      </trkpt>
      <trkpt lat="44.5917" lon="3.04768">
        <ele>1336</ele>
        <time>2013-07-22T09:11:05Z</time>
      </trkpt>
      <trkpt lat="44.59168" lon="3.04774">
        <ele>1338</ele>
        <time>2013-07-22T09:11:10Z</time>
      </trkpt>
      <trkpt lat="44.59166" lon="3.04781">
        <ele>1338</ele>
        <time>2013-07-22T09:11:15Z</time>
      </trkpt>
      <trkpt lat="44.59163" lon="3.04786">
        <ele>1338</ele>
        <time>2013-07-22T09:11:19Z</time>
      </trkpt>
      <trkpt lat="44.5916" lon="3.04792">
        <ele>1338</ele>
        <time>2013-07-22T09:11:23Z</time>
      </trkpt>
      <trkpt lat="44.59158" lon="3.04801">
        <ele>1339</ele>
        <time>2013-07-22T09:11:30Z</time>
      </trkpt>
      <trkpt lat="44.59156" lon="3.04808">
        <ele>1339</ele>
        <time>2013-07-22T09:11:35Z</time>
      </trkpt>
      <trkpt lat="44.59153" lon="3.04818">
        <ele>1339</ele>
        <time>2013-07-22T09:11:40Z</time>
      </trkpt>
      <trkpt lat="44.59149" lon="3.04824">
        <ele>1339</ele>
        <time>2013-07-22T09:11:43Z</time>
      </trkpt>
      <trkpt lat="44.59145" lon="3.04829">
        <ele>1341</ele>
        <time>2013-07-22T09:11:47Z</time>
      </trkpt>
      <trkpt lat="44.59143" lon="3.04836">
        <ele>1343</ele>
        <time>2013-07-22T09:11:50Z</time>
      </trkpt>
      <trkpt lat="44.59141" lon="3.04843">
        <ele>1342</ele>
        <time>2013-07-22T09:11:54Z</time>
      </trkpt>
      <trkpt lat="44.59138" lon="3.0485">
        <ele>1342</ele>
        <time>2013-07-22T09:11:58Z</time>
      </trkpt>
      <trkpt lat="44.59135" lon="3.04857">
        <ele>1342</ele>
        <time>2013-07-22T09:12:01Z</time>
      </trkpt>
      <trkpt lat="44.59131" lon="3.04868">
        <ele>1342</ele>
        <time>2013-07-22T09:12:07Z</time>
      </trkpt>
      <trkpt lat="44.59127" lon="3.04874">
        <ele>1342</ele>
        <time>2013-07-22T09:12:11Z</time>
      </trkpt>
      <trkpt lat="44.59124" lon="3.0488">
        <ele>1344</ele>
        <time>2013-07-22T09:12:15Z</time>
      </trkpt>
      <trkpt lat="44.5912" lon="3.04893">
        <ele>1345</ele>
        <time>2013-07-22T09:12:21Z</time>
      </trkpt>
      <trkpt lat="44.59117" lon="3.04899">
        <ele>1344</ele>
        <time>2013-07-22T09:12:23Z</time>
      </trkpt>
      <trkpt lat="44.59115" lon="3.04909">
        <ele>1345</ele>
        <time>2013-07-22T09:12:28Z</time>
      </trkpt>
      <trkpt lat="44.59112" lon="3.04914">
        <ele>1347</ele>
        <time>2013-07-22T09:12:32Z</time>
      </trkpt>
      <trkpt lat="44.5911" lon="3.04922">
        <ele>1348</ele>
        <time>2013-07-22T09:12:37Z</time>
      </trkpt>
      <trkpt lat="44.59107" lon="3.04929">
        <ele>1348</ele>
        <time>2013-07-22T09:12:40Z</time>
      </trkpt>
      <trkpt lat="44.59104" lon="3.04936">
        <ele>1348</ele>
        <time>2013-07-22T09:12:45Z</time>
      </trkpt>
      <trkpt lat="44.59102" lon="3.04943">
        <ele>1349</ele>
        <time>2013-07-22T09:12:48Z</time>
      </trkpt>
      <trkpt lat="44.59099" lon="3.0495">
        <ele>1349</ele>
        <time>2013-07-22T09:12:52Z</time>
      </trkpt>
      <trkpt lat="44.59097" lon="3.04958">
        <ele>1349</ele>
        <time>2013-07-22T09:12:56Z</time>
      </trkpt>
      <trkpt lat="44.59095" lon="3.04964">
        <ele>1349</ele>
        <time>2013-07-22T09:12:59Z</time>
      </trkpt>
      <trkpt lat="44.5909" lon="3.04972">
        <ele>1350</ele>
        <time>2013-07-22T09:13:03Z</time>
      </trkpt>
      <trkpt lat="44.59088" lon="3.04977">
        <ele>1350</ele>
        <time>2013-07-22T09:13:06Z</time>
      </trkpt>
      <trkpt lat="44.59086" lon="3.04984">
        <ele>1349</ele>
        <time>2013-07-22T09:13:10Z</time>
      </trkpt>
      <trkpt lat="44.59083" lon="3.0499">
        <ele>1349</ele>
        <time>2013-07-22T09:13:14Z</time>
      </trkpt>
      <trkpt lat="44.59081" lon="3.04996">
        <ele>1349</ele>
        <time>2013-07-22T09:13:18Z</time>
      </trkpt>
      <trkpt lat="44.59077" lon="3.05">
        <ele>1349</ele>
        <time>2013-07-22T09:13:22Z</time>
      </trkpt>
      <trkpt lat="44.59074" lon="3.05005">
        <ele>1349</ele>
        <time>2013-07-22T09:13:29Z</time>
      </trkpt>
      <trkpt lat="44.59072" lon="3.05011">
        <ele>1350</ele>
        <time>2013-07-22T09:13:33Z</time>
      </trkpt>
      <trkpt lat="44.5907" lon="3.05017">
        <ele>1351</ele>
        <time>2013-07-22T09:13:37Z</time>
      </trkpt>
      <trkpt lat="44.59067" lon="3.05024">
        <ele>1351</ele>
        <time>2013-07-22T09:13:41Z</time>
      </trkpt>
      <trkpt lat="44.59064" lon="3.05029">
        <ele>1352</ele>
        <time>2013-07-22T09:13:44Z</time>
      </trkpt>
      <trkpt lat="44.59061" lon="3.05035">
        <ele>1353</ele>
        <time>2013-07-22T09:13:47Z</time>
      </trkpt>
      <trkpt lat="44.59057" lon="3.0504">
        <ele>1353</ele>
        <time>2013-07-22T09:13:50Z</time>
      </trkpt>
      <trkpt lat="44.59053" lon="3.05046">
        <ele>1354</ele>
        <time>2013-07-22T09:13:54Z</time>
      </trkpt>
      <trkpt lat="44.59049" lon="3.05051">
        <ele>1354</ele>
        <time>2013-07-22T09:13:57Z</time>
      </trkpt>
      <trkpt lat="44.59045" lon="3.05054">
        <ele>1354</ele>
        <time>2013-07-22T09:14:02Z</time>
      </trkpt>
      <trkpt lat="44.59041" lon="3.0506">
        <ele>1355</ele>
        <time>2013-07-22T09:14:06Z</time>
      </trkpt>
      <trkpt lat="44.59037" lon="3.05064">
        <ele>1355</ele>
        <time>2013-07-22T09:14:09Z</time>
      </trkpt>
      <trkpt lat="44.59034" lon="3.0507">
        <ele>1355</ele>
        <time>2013-07-22T09:14:13Z</time>
      </trkpt>
      <trkpt lat="44.5903" lon="3.05074">
        <ele>1356</ele>
        <time>2013-07-22T09:14:24Z</time>
      </trkpt>
      <trkpt lat="44.59026" lon="3.0508">
        <ele>1357</ele>
        <time>2013-07-22T09:14:29Z</time>
      </trkpt>
      <trkpt lat="44.59022" lon="3.05084">
        <ele>1357</ele>
        <time>2013-07-22T09:14:32Z</time>
      </trkpt>
      <trkpt lat="44.59018" lon="3.0509">
        <ele>1357</ele>
        <time>2013-07-22T09:14:36Z</time>
      </trkpt>
      <trkpt lat="44.59014" lon="3.05094">
        <ele>1357</ele>
        <time>2013-07-22T09:14:40Z</time>
      </trkpt>
      <trkpt lat="44.5901" lon="3.05098">
        <ele>1358</ele>
        <time>2013-07-22T09:14:43Z</time>
      </trkpt>
      <trkpt lat="44.59006" lon="3.05103">
        <ele>1358</ele>
        <time>2013-07-22T09:14:48Z</time>
      </trkpt>
      <trkpt lat="44.59002" lon="3.05109">
        <ele>1358</ele>
        <time>2013-07-22T09:14:52Z</time>
      </trkpt>
      <trkpt lat="44.58999" lon="3.05114">
        <ele>1357</ele>
        <time>2013-07-22T09:14:55Z</time>
      </trkpt>
      <trkpt lat="44.58995" lon="3.0512">
        <ele>1357</ele>
        <time>2013-07-22T09:14:59Z</time>
      </trkpt>
      <trkpt lat="44.5899" lon="3.05128">
        <ele>1358</ele>
        <time>2013-07-22T09:15:05Z</time>
      </trkpt>
      <trkpt lat="44.58985" lon="3.05136">
        <ele>1359</ele>
        <time>2013-07-22T09:15:11Z</time>
      </trkpt>
      <trkpt lat="44.58982" lon="3.05141">
        <ele>1359</ele>
        <time>2013-07-22T09:15:15Z</time>
      </trkpt>
      <trkpt lat="44.5898" lon="3.05147">
        <ele>1358</ele>
        <time>2013-07-22T09:15:18Z</time>
      </trkpt>
      <trkpt lat="44.58976" lon="3.05153">
        <ele>1358</ele>
        <time>2013-07-22T09:15:22Z</time>
      </trkpt>
      <trkpt lat="44.58973" lon="3.05159">
        <ele>1358</ele>
        <time>2013-07-22T09:15:25Z</time>
      </trkpt>
      <trkpt lat="44.58969" lon="3.05164">
        <ele>1358</ele>
        <time>2013-07-22T09:15:29Z</time>
      </trkpt>
      <trkpt lat="44.58965" lon="3.05169">
        <ele>1358</ele>
        <time>2013-07-22T09:15:34Z</time>
      </trkpt>
      <trkpt lat="44.58962" lon="3.05174">
        <ele>1357</ele>
        <time>2013-07-22T09:15:38Z</time>
      </trkpt>
      <trkpt lat="44.58957" lon="3.05181">
        <ele>1358</ele>
        <time>2013-07-22T09:15:42Z</time>
      </trkpt>
      <trkpt lat="44.58954" lon="3.05185">
        <ele>1358</ele>
        <time>2013-07-22T09:15:45Z</time>
      </trkpt>
      <trkpt lat="44.5895" lon="3.05191">
        <ele>1359</ele>
        <time>2013-07-22T09:15:49Z</time>
      </trkpt>
      <trkpt lat="44.58947" lon="3.05197">
        <ele>1358</ele>
        <time>2013-07-22T09:15:52Z</time>
      </trkpt>
      <trkpt lat="44.58944" lon="3.05201">
        <ele>1358</ele>
        <time>2013-07-22T09:15:55Z</time>
      </trkpt>
      <trkpt lat="44.58941" lon="3.05207">
        <ele>1358</ele>
        <time>2013-07-22T09:15:58Z</time>
      </trkpt>
      <trkpt lat="44.58937" lon="3.05212">
        <ele>1358</ele>
        <time>2013-07-22T09:16:02Z</time>
      </trkpt>
      <trkpt lat="44.58933" lon="3.05217">
        <ele>1359</ele>
        <time>2013-07-22T09:16:06Z</time>
      </trkpt>
      <trkpt lat="44.58929" lon="3.05223">
        <ele>1359</ele>
        <time>2013-07-22T09:16:10Z</time>
      </trkpt>
      <trkpt lat="44.58927" lon="3.05225">
        <ele>1360</ele>
        <time>2013-07-22T09:16:17Z</time>
      </trkpt>
      <trkpt lat="44.58922" lon="3.05232">
        <ele>1360</ele>
        <time>2013-07-22T09:16:28Z</time>
      </trkpt>
      <trkpt lat="44.58919" lon="3.05238">
        <ele>1359</ele>
        <time>2013-07-22T09:16:32Z</time>
      </trkpt>
      <trkpt lat="44.58916" lon="3.05244">
        <ele>1358</ele>
        <time>2013-07-22T09:16:36Z</time>
      </trkpt>
      <trkpt lat="44.58913" lon="3.0525">
        <ele>1359</ele>
        <time>2013-07-22T09:16:40Z</time>
      </trkpt>
      <trkpt lat="44.58909" lon="3.05255">
        <ele>1359</ele>
        <time>2013-07-22T09:16:44Z</time>
      </trkpt>
      <trkpt lat="44.58906" lon="3.0526">
        <ele>1360</ele>
        <time>2013-07-22T09:16:48Z</time>
      </trkpt>
      <trkpt lat="44.58903" lon="3.05265">
        <ele>1361</ele>
        <time>2013-07-22T09:16:53Z</time>
      </trkpt>
      <trkpt lat="44.589" lon="3.0527">
        <ele>1362</ele>
        <time>2013-07-22T09:16:57Z</time>
      </trkpt>
      <trkpt lat="44.58896" lon="3.05275">
        <ele>1362</ele>
        <time>2013-07-22T09:17:01Z</time>
      </trkpt>
      <trkpt lat="44.58893" lon="3.05281">
        <ele>1362</ele>
        <time>2013-07-22T09:17:13Z</time>
      </trkpt>
      <trkpt lat="44.58889" lon="3.05287">
        <ele>1362</ele>
        <time>2013-07-22T09:17:18Z</time>
      </trkpt>
      <trkpt lat="44.58883" lon="3.05295">
        <ele>1363</ele>
        <time>2013-07-22T09:17:24Z</time>
      </trkpt>
      <trkpt lat="44.58879" lon="3.05301">
        <ele>1364</ele>
        <time>2013-07-22T09:17:28Z</time>
      </trkpt>
      <trkpt lat="44.58875" lon="3.05306">
        <ele>1363</ele>
        <time>2013-07-22T09:17:32Z</time>
      </trkpt>
      <trkpt lat="44.58871" lon="3.05312">
        <ele>1363</ele>
        <time>2013-07-22T09:17:36Z</time>
      </trkpt>
      <trkpt lat="44.58868" lon="3.05317">
        <ele>1364</ele>
        <time>2013-07-22T09:17:39Z</time>
      </trkpt>
      <trkpt lat="44.58864" lon="3.05323">
        <ele>1364</ele>
        <time>2013-07-22T09:17:43Z</time>
      </trkpt>
      <trkpt lat="44.5886" lon="3.05329">
        <ele>1364</ele>
        <time>2013-07-22T09:17:47Z</time>
      </trkpt>
      <trkpt lat="44.58857" lon="3.05334">
        <ele>1364</ele>
        <time>2013-07-22T09:17:51Z</time>
      </trkpt>
      <trkpt lat="44.58853" lon="3.05339">
        <ele>1364</ele>
        <time>2013-07-22T09:17:55Z</time>
      </trkpt>
      <trkpt lat="44.58849" lon="3.05345">
        <ele>1365</ele>
        <time>2013-07-22T09:17:59Z</time>
      </trkpt>
      <trkpt lat="44.58845" lon="3.05349">
        <ele>1365</ele>
        <time>2013-07-22T09:18:03Z</time>
      </trkpt>
      <trkpt lat="44.58842" lon="3.05354">
        <ele>1366</ele>
        <time>2013-07-22T09:18:07Z</time>
      </trkpt>
      <trkpt lat="44.58838" lon="3.0536">
        <ele>1366</ele>
        <time>2013-07-22T09:18:11Z</time>
      </trkpt>
      <trkpt lat="44.58835" lon="3.05365">
        <ele>1366</ele>
        <time>2013-07-22T09:18:15Z</time>
      </trkpt>
      <trkpt lat="44.58831" lon="3.05371">
        <ele>1367</ele>
        <time>2013-07-22T09:18:19Z</time>
      </trkpt>
      <trkpt lat="44.58827" lon="3.05375">
        <ele>1366</ele>
        <time>2013-07-22T09:18:23Z</time>
      </trkpt>
      <trkpt lat="44.58824" lon="3.0538">
        <ele>1366</ele>
        <time>2013-07-22T09:18:27Z</time>
      </trkpt>
      <trkpt lat="44.58821" lon="3.05386">
        <ele>1366</ele>
        <time>2013-07-22T09:18:31Z</time>
      </trkpt>
      <trkpt lat="44.58817" lon="3.05391">
        <ele>1366</ele>
        <time>2013-07-22T09:18:35Z</time>
      </trkpt>
      <trkpt lat="44.58814" lon="3.05396">
        <ele>1365</ele>
        <time>2013-07-22T09:18:38Z</time>
      </trkpt>
      <trkpt lat="44.5881" lon="3.05401">
        <ele>1366</ele>
        <time>2013-07-22T09:18:42Z</time>
      </trkpt>
      <trkpt lat="44.58806" lon="3.05406">
        <ele>1367</ele>
        <time>2013-07-22T09:18:47Z</time>
      </trkpt>
      <trkpt lat="44.58803" lon="3.05411">
        <ele>1368</ele>
        <time>2013-07-22T09:18:51Z</time>
      </trkpt>
      <trkpt lat="44.588" lon="3.05416">
        <ele>1366</ele>
        <time>2013-07-22T09:18:55Z</time>
      </trkpt>
      <trkpt lat="44.58796" lon="3.05422">
        <ele>1365</ele>
        <time>2013-07-22T09:18:59Z</time>
      </trkpt>
      <trkpt lat="44.58793" lon="3.05427">
        <ele>1364</ele>
        <time>2013-07-22T09:19:02Z</time>
      </trkpt>
      <trkpt lat="44.5879" lon="3.05432">
        <ele>1364</ele>
        <time>2013-07-22T09:19:05Z</time>
      </trkpt>
      <trkpt lat="44.58787" lon="3.05437">
        <ele>1363</ele>
        <time>2013-07-22T09:19:10Z</time>
      </trkpt>
      <trkpt lat="44.58782" lon="3.05445">
        <ele>1367</ele>
        <time>2013-07-22T09:19:34Z</time>
      </trkpt>
      <trkpt lat="44.58777" lon="3.05449">
        <ele>1367</ele>
        <time>2013-07-22T09:19:39Z</time>
      </trkpt>
      <trkpt lat="44.58774" lon="3.05455">
        <ele>1366</ele>
        <time>2013-07-22T09:19:43Z</time>
      </trkpt>
      <trkpt lat="44.58771" lon="3.0546">
        <ele>1365</ele>
        <time>2013-07-22T09:19:47Z</time>
      </trkpt>
      <trkpt lat="44.58768" lon="3.05465">
        <ele>1365</ele>
        <time>2013-07-22T09:19:51Z</time>
      </trkpt>
      <trkpt lat="44.58765" lon="3.0547">
        <ele>1366</ele>
        <time>2013-07-22T09:19:56Z</time>
      </trkpt>
      <trkpt lat="44.5876" lon="3.05477">
        <ele>1367</ele>
        <time>2013-07-22T09:20:22Z</time>
      </trkpt>
      <trkpt lat="44.58757" lon="3.05481">
        <ele>1367</ele>
        <time>2013-07-22T09:20:26Z</time>
      </trkpt>
      <trkpt lat="44.58752" lon="3.05487">
        <ele>1367</ele>
        <time>2013-07-22T09:20:31Z</time>
      </trkpt>
      <trkpt lat="44.58748" lon="3.05491">
        <ele>1367</ele>
        <time>2013-07-22T09:20:36Z</time>
      </trkpt>
      <trkpt lat="44.58745" lon="3.05497">
        <ele>1367</ele>
        <time>2013-07-22T09:20:41Z</time>
      </trkpt>
      <trkpt lat="44.58742" lon="3.05502">
        <ele>1367</ele>
        <time>2013-07-22T09:20:45Z</time>
      </trkpt>
      <trkpt lat="44.58738" lon="3.05508">
        <ele>1367</ele>
        <time>2013-07-22T09:20:49Z</time>
      </trkpt>
      <trkpt lat="44.58734" lon="3.05512">
        <ele>1368</ele>
        <time>2013-07-22T09:20:53Z</time>
      </trkpt>
      <trkpt lat="44.58731" lon="3.05517">
        <ele>1368</ele>
        <time>2013-07-22T09:20:57Z</time>
      </trkpt>
      <trkpt lat="44.58727" lon="3.05522">
        <ele>1368</ele>
        <time>2013-07-22T09:21:01Z</time>
      </trkpt>
      <trkpt lat="44.58724" lon="3.05528">
        <ele>1369</ele>
        <time>2013-07-22T09:21:05Z</time>
      </trkpt>
      <trkpt lat="44.5872" lon="3.05533">
        <ele>1369</ele>
        <time>2013-07-22T09:21:08Z</time>
      </trkpt>
      <trkpt lat="44.58717" lon="3.05537">
        <ele>1370</ele>
        <time>2013-07-22T09:21:13Z</time>
      </trkpt>
      <trkpt lat="44.58713" lon="3.05543">
        <ele>1370</ele>
        <time>2013-07-22T09:21:17Z</time>
      </trkpt>
      <trkpt lat="44.58711" lon="3.05547">
        <ele>1369</ele>
        <time>2013-07-22T09:21:27Z</time>
      </trkpt>
      <trkpt lat="44.58706" lon="3.05552">
        <ele>1369</ele>
        <time>2013-07-22T09:21:59Z</time>
      </trkpt>
      <trkpt lat="44.58702" lon="3.05557">
        <ele>1370</ele>
        <time>2013-07-22T09:22:03Z</time>
      </trkpt>
      <trkpt lat="44.58698" lon="3.05562">
        <ele>1371</ele>
        <time>2013-07-22T09:22:07Z</time>
      </trkpt>
      <trkpt lat="44.58695" lon="3.05566">
        <ele>1372</ele>
        <time>2013-07-22T09:22:11Z</time>
      </trkpt>
      <trkpt lat="44.5869" lon="3.0557">
        <ele>1372</ele>
        <time>2013-07-22T09:22:16Z</time>
      </trkpt>
      <trkpt lat="44.58686" lon="3.05575">
        <ele>1372</ele>
        <time>2013-07-22T09:22:20Z</time>
      </trkpt>
      <trkpt lat="44.58682" lon="3.05581">
        <ele>1373</ele>
        <time>2013-07-22T09:22:23Z</time>
      </trkpt>
      <trkpt lat="44.58678" lon="3.05585">
        <ele>1373</ele>
        <time>2013-07-22T09:22:27Z</time>
      </trkpt>
      <trkpt lat="44.58673" lon="3.0559">
        <ele>1374</ele>
        <time>2013-07-22T09:22:31Z</time>
      </trkpt>
      <trkpt lat="44.58669" lon="3.05594">
        <ele>1374</ele>
        <time>2013-07-22T09:22:35Z</time>
      </trkpt>
      <trkpt lat="44.58665" lon="3.05597">
        <ele>1373</ele>
        <time>2013-07-22T09:22:39Z</time>
      </trkpt>
      <trkpt lat="44.5866" lon="3.056">
        <ele>1373</ele>
        <time>2013-07-22T09:22:43Z</time>
      </trkpt>
      <trkpt lat="44.58655" lon="3.05604">
        <ele>1373</ele>
        <time>2013-07-22T09:22:47Z</time>
      </trkpt>
      <trkpt lat="44.58651" lon="3.05607">
        <ele>1373</ele>
        <time>2013-07-22T09:22:50Z</time>
      </trkpt>
      <trkpt lat="44.58647" lon="3.0561">
        <ele>1374</ele>
        <time>2013-07-22T09:22:53Z</time>
      </trkpt>
      <trkpt lat="44.58642" lon="3.05615">
        <ele>1374</ele>
        <time>2013-07-22T09:22:56Z</time>
      </trkpt>
      <trkpt lat="44.58639" lon="3.05618">
        <ele>1374</ele>
        <time>2013-07-22T09:23:06Z</time>
      </trkpt>
      <trkpt lat="44.58634" lon="3.05621">
        <ele>1374</ele>
        <time>2013-07-22T09:23:24Z</time>
      </trkpt>
      <trkpt lat="44.5863" lon="3.05625">
        <ele>1375</ele>
        <time>2013-07-22T09:23:28Z</time>
      </trkpt>
      <trkpt lat="44.58625" lon="3.05628">
        <ele>1375</ele>
        <time>2013-07-22T09:23:33Z</time>
      </trkpt>
      <trkpt lat="44.5862" lon="3.05631">
        <ele>1375</ele>
        <time>2013-07-22T09:23:38Z</time>
      </trkpt>
      <trkpt lat="44.58616" lon="3.05635">
        <ele>1375</ele>
        <time>2013-07-22T09:23:42Z</time>
      </trkpt>
      <trkpt lat="44.58612" lon="3.0564">
        <ele>1374</ele>
        <time>2013-07-22T09:23:46Z</time>
      </trkpt>
      <trkpt lat="44.58608" lon="3.05643">
        <ele>1374</ele>
        <time>2013-07-22T09:23:50Z</time>
      </trkpt>
      <trkpt lat="44.58604" lon="3.05646">
        <ele>1374</ele>
        <time>2013-07-22T09:23:54Z</time>
      </trkpt>
      <trkpt lat="44.586" lon="3.05649">
        <ele>1374</ele>
        <time>2013-07-22T09:23:58Z</time>
      </trkpt>
      <trkpt lat="44.58596" lon="3.05653">
        <ele>1374</ele>
        <time>2013-07-22T09:24:02Z</time>
      </trkpt>
      <trkpt lat="44.58592" lon="3.05656">
        <ele>1374</ele>
        <time>2013-07-22T09:24:06Z</time>
      </trkpt>
      <trkpt lat="44.58586" lon="3.0566">
        <ele>1374</ele>
        <time>2013-07-22T09:24:11Z</time>
      </trkpt>
      <trkpt lat="44.58582" lon="3.05663">
        <ele>1374</ele>
        <time>2013-07-22T09:24:15Z</time>
      </trkpt>
      <trkpt lat="44.58577" lon="3.05667">
        <ele>1374</ele>
        <time>2013-07-22T09:24:19Z</time>
      </trkpt>
      <trkpt lat="44.58573" lon="3.0567">
        <ele>1375</ele>
        <time>2013-07-22T09:24:23Z</time>
      </trkpt>
      <trkpt lat="44.58569" lon="3.05674">
        <ele>1375</ele>
        <time>2013-07-22T09:24:27Z</time>
      </trkpt>
      <trkpt lat="44.58565" lon="3.05677">
        <ele>1375</ele>
        <time>2013-07-22T09:24:32Z</time>
      </trkpt>
      <trkpt lat="44.58561" lon="3.05681">
        <ele>1375</ele>
        <time>2013-07-22T09:24:36Z</time>
      </trkpt>
      <trkpt lat="44.58556" lon="3.05685">
        <ele>1375</ele>
        <time>2013-07-22T09:24:40Z</time>
      </trkpt>
      <trkpt lat="44.58552" lon="3.05688">
        <ele>1375</ele>
        <time>2013-07-22T09:24:45Z</time>
      </trkpt>
      <trkpt lat="44.58547" lon="3.05693">
        <ele>1375</ele>
        <time>2013-07-22T09:24:49Z</time>
      </trkpt>
      <trkpt lat="44.58542" lon="3.05696">
        <ele>1376</ele>
        <time>2013-07-22T09:24:53Z</time>
      </trkpt>
      <trkpt lat="44.58537" lon="3.057">
        <ele>1376</ele>
        <time>2013-07-22T09:24:58Z</time>
      </trkpt>
      <trkpt lat="44.58533" lon="3.05703">
        <ele>1376</ele>
        <time>2013-07-22T09:25:02Z</time>
      </trkpt>
      <trkpt lat="44.58528" lon="3.05708">
        <ele>1376</ele>
        <time>2013-07-22T09:25:07Z</time>
      </trkpt>
      <trkpt lat="44.58525" lon="3.05711">
        <ele>1376</ele>
        <time>2013-07-22T09:25:10Z</time>
      </trkpt>
      <trkpt lat="44.5852" lon="3.05714">
        <ele>1377</ele>
        <time>2013-07-22T09:25:14Z</time>
      </trkpt>
      <trkpt lat="44.58515" lon="3.05718">
        <ele>1377</ele>
        <time>2013-07-22T09:25:19Z</time>
      </trkpt>
      <trkpt lat="44.58511" lon="3.05722">
        <ele>1377</ele>
        <time>2013-07-22T09:25:23Z</time>
      </trkpt>
      <trkpt lat="44.58506" lon="3.05726">
        <ele>1378</ele>
        <time>2013-07-22T09:25:27Z</time>
      </trkpt>
      <trkpt lat="44.58502" lon="3.05729">
        <ele>1378</ele>
        <time>2013-07-22T09:25:31Z</time>
      </trkpt>
      <trkpt lat="44.58498" lon="3.05732">
        <ele>1378</ele>
        <time>2013-07-22T09:25:35Z</time>
      </trkpt>
      <trkpt lat="44.58493" lon="3.05736">
        <ele>1378</ele>
        <time>2013-07-22T09:25:40Z</time>
      </trkpt>
      <trkpt lat="44.58488" lon="3.05738">
        <ele>1378</ele>
        <time>2013-07-22T09:25:44Z</time>
      </trkpt>
      <trkpt lat="44.58483" lon="3.05741">
        <ele>1378</ele>
        <time>2013-07-22T09:25:48Z</time>
      </trkpt>
      <trkpt lat="44.58478" lon="3.05744">
        <ele>1378</ele>
        <time>2013-07-22T09:25:52Z</time>
      </trkpt>
      <trkpt lat="44.58474" lon="3.05746">
        <ele>1378</ele>
        <time>2013-07-22T09:25:56Z</time>
      </trkpt>
      <trkpt lat="44.58469" lon="3.05749">
        <ele>1377</ele>
        <time>2013-07-22T09:26:00Z</time>
      </trkpt>
      <trkpt lat="44.58465" lon="3.0575">
        <ele>1377</ele>
        <time>2013-07-22T09:26:03Z</time>
      </trkpt>
      <trkpt lat="44.5846" lon="3.05753">
        <ele>1377</ele>
        <time>2013-07-22T09:26:06Z</time>
      </trkpt>
      <trkpt lat="44.58456" lon="3.05756">
        <ele>1377</ele>
        <time>2013-07-22T09:26:11Z</time>
      </trkpt>
      <trkpt lat="44.58451" lon="3.0576">
        <ele>1377</ele>
        <time>2013-07-22T09:26:15Z</time>
      </trkpt>
      <trkpt lat="44.58446" lon="3.05763">
        <ele>1377</ele>
        <time>2013-07-22T09:26:19Z</time>
      </trkpt>
      <trkpt lat="44.58441" lon="3.05766">
        <ele>1377</ele>
        <time>2013-07-22T09:26:22Z</time>
      </trkpt>
      <trkpt lat="44.58435" lon="3.05768">
        <ele>1377</ele>
        <time>2013-07-22T09:26:26Z</time>
      </trkpt>
      <trkpt lat="44.5843" lon="3.05769">
        <ele>1377</ele>
        <time>2013-07-22T09:26:30Z</time>
      </trkpt>
      <trkpt lat="44.58425" lon="3.05772">
        <ele>1377</ele>
        <time>2013-07-22T09:26:34Z</time>
      </trkpt>
      <trkpt lat="44.5842" lon="3.05776">
        <ele>1377</ele>
        <time>2013-07-22T09:26:39Z</time>
      </trkpt>
      <trkpt lat="44.58416" lon="3.05778">
        <ele>1377</ele>
        <time>2013-07-22T09:26:42Z</time>
      </trkpt>
      <trkpt lat="44.58411" lon="3.05781">
        <ele>1377</ele>
        <time>2013-07-22T09:26:45Z</time>
      </trkpt>
      <trkpt lat="44.58407" lon="3.05785">
        <ele>1378</ele>
        <time>2013-07-22T09:26:48Z</time>
      </trkpt>
      <trkpt lat="44.58403" lon="3.05787">
        <ele>1378</ele>
        <time>2013-07-22T09:26:52Z</time>
      </trkpt>
      <trkpt lat="44.58397" lon="3.0579">
        <ele>1378</ele>
        <time>2013-07-22T09:26:56Z</time>
      </trkpt>
      <trkpt lat="44.58392" lon="3.05794">
        <ele>1378</ele>
        <time>2013-07-22T09:27:00Z</time>
      </trkpt>
      <trkpt lat="44.58388" lon="3.05796">
        <ele>1378</ele>
        <time>2013-07-22T09:27:03Z</time>
      </trkpt>
      <trkpt lat="44.58383" lon="3.05799">
        <ele>1377</ele>
        <time>2013-07-22T09:27:07Z</time>
      </trkpt>
      <trkpt lat="44.58378" lon="3.05802">
        <ele>1378</ele>
        <time>2013-07-22T09:27:12Z</time>
      </trkpt>
      <trkpt lat="44.58375" lon="3.05807">
        <ele>1378</ele>
        <time>2013-07-22T09:27:16Z</time>
      </trkpt>
      <trkpt lat="44.58371" lon="3.05811">
        <ele>1378</ele>
        <time>2013-07-22T09:27:19Z</time>
      </trkpt>
      <trkpt lat="44.58367" lon="3.05814">
        <ele>1377</ele>
        <time>2013-07-22T09:27:23Z</time>
      </trkpt>
      <trkpt lat="44.58358" lon="3.0582">
        <ele>1377</ele>
        <time>2013-07-22T09:27:29Z</time>
      </trkpt>
      <trkpt lat="44.58355" lon="3.05825">
        <ele>1379</ele>
        <time>2013-07-22T09:27:33Z</time>
      </trkpt>
      <trkpt lat="44.58351" lon="3.05825">
        <ele>1381</ele>
        <time>2013-07-22T09:27:56Z</time>
      </trkpt>
      <trkpt lat="44.58346" lon="3.05829">
        <ele>1382</ele>
        <time>2013-07-22T09:28:12Z</time>
      </trkpt>
      <trkpt lat="44.58342" lon="3.05832">
        <ele>1382</ele>
        <time>2013-07-22T09:28:15Z</time>
      </trkpt>
      <trkpt lat="44.58338" lon="3.05836">
        <ele>1381</ele>
        <time>2013-07-22T09:28:18Z</time>
      </trkpt>
      <trkpt lat="44.58334" lon="3.05839">
        <ele>1380</ele>
        <time>2013-07-22T09:28:21Z</time>
      </trkpt>
      <trkpt lat="44.58329" lon="3.05842">
        <ele>1379</ele>
        <time>2013-07-22T09:28:24Z</time>
      </trkpt>
      <trkpt lat="44.58325" lon="3.05844">
        <ele>1378</ele>
        <time>2013-07-22T09:28:28Z</time>
      </trkpt>
      <trkpt lat="44.5832" lon="3.05846">
        <ele>1378</ele>
        <time>2013-07-22T09:28:31Z</time>
      </trkpt>
      <trkpt lat="44.58315" lon="3.05848">
        <ele>1377</ele>
        <time>2013-07-22T09:28:34Z</time>
      </trkpt>
      <trkpt lat="44.58311" lon="3.05853">
        <ele>1377</ele>
        <time>2013-07-22T09:28:38Z</time>
      </trkpt>
      <trkpt lat="44.58306" lon="3.05857">
        <ele>1378</ele>
        <time>2013-07-22T09:28:41Z</time>
      </trkpt>
      <trkpt lat="44.58302" lon="3.05861">
        <ele>1378</ele>
        <time>2013-07-22T09:28:44Z</time>
      </trkpt>
      <trkpt lat="44.58298" lon="3.05865">
        <ele>1378</ele>
        <time>2013-07-22T09:28:47Z</time>
      </trkpt>
      <trkpt lat="44.58293" lon="3.05869">
        <ele>1379</ele>
        <time>2013-07-22T09:28:52Z</time>
      </trkpt>
      <trkpt lat="44.58288" lon="3.05873">
        <ele>1378</ele>
        <time>2013-07-22T09:28:56Z</time>
      </trkpt>
      <trkpt lat="44.58284" lon="3.05876">
        <ele>1378</ele>
        <time>2013-07-22T09:28:59Z</time>
      </trkpt>
      <trkpt lat="44.58279" lon="3.05879">
        <ele>1378</ele>
        <time>2013-07-22T09:29:02Z</time>
      </trkpt>
      <trkpt lat="44.58275" lon="3.05881">
        <ele>1377</ele>
        <time>2013-07-22T09:29:07Z</time>
      </trkpt>
      <trkpt lat="44.5827" lon="3.05886">
        <ele>1376</ele>
        <time>2013-07-22T09:29:11Z</time>
      </trkpt>
      <trkpt lat="44.58265" lon="3.0589">
        <ele>1376</ele>
        <time>2013-07-22T09:29:14Z</time>
      </trkpt>
      <trkpt lat="44.58261" lon="3.05894">
        <ele>1377</ele>
        <time>2013-07-22T09:29:17Z</time>
      </trkpt>
      <trkpt lat="44.58257" lon="3.05898">
        <ele>1377</ele>
        <time>2013-07-22T09:29:20Z</time>
      </trkpt>
      <trkpt lat="44.58252" lon="3.05901">
        <ele>1376</ele>
        <time>2013-07-22T09:29:23Z</time>
      </trkpt>
      <trkpt lat="44.58247" lon="3.05904">
        <ele>1376</ele>
        <time>2013-07-22T09:29:27Z</time>
      </trkpt>
      <trkpt lat="44.58243" lon="3.05906">
        <ele>1375</ele>
        <time>2013-07-22T09:29:30Z</time>
      </trkpt>
      <trkpt lat="44.58234" lon="3.05912">
        <ele>1375</ele>
        <time>2013-07-22T09:29:36Z</time>
      </trkpt>
      <trkpt lat="44.58228" lon="3.05915">
        <ele>1377</ele>
        <time>2013-07-22T09:29:39Z</time>
      </trkpt>
      <trkpt lat="44.58224" lon="3.05918">
        <ele>1376</ele>
        <time>2013-07-22T09:29:43Z</time>
      </trkpt>
      <trkpt lat="44.58217" lon="3.05925">
        <ele>1376</ele>
        <time>2013-07-22T09:29:48Z</time>
      </trkpt>
      <trkpt lat="44.58213" lon="3.0593">
        <ele>1376</ele>
        <time>2013-07-22T09:29:53Z</time>
      </trkpt>
      <trkpt lat="44.58204" lon="3.05936">
        <ele>1375</ele>
        <time>2013-07-22T09:29:59Z</time>
      </trkpt>
      <trkpt lat="44.582" lon="3.05939">
        <ele>1375</ele>
        <time>2013-07-22T09:30:03Z</time>
      </trkpt>
      <trkpt lat="44.58195" lon="3.05944">
        <ele>1374</ele>
        <time>2013-07-22T09:30:08Z</time>
      </trkpt>
      <trkpt lat="44.5819" lon="3.05946">
        <ele>1374</ele>
        <time>2013-07-22T09:30:11Z</time>
      </trkpt>
      <trkpt lat="44.58185" lon="3.05949">
        <ele>1374</ele>
        <time>2013-07-22T09:30:15Z</time>
      </trkpt>
      <trkpt lat="44.5818" lon="3.05952">
        <ele>1375</ele>
        <time>2013-07-22T09:30:19Z</time>
      </trkpt>
      <trkpt lat="44.58176" lon="3.05955">
        <ele>1374</ele>
        <time>2013-07-22T09:30:22Z</time>
      </trkpt>
      <trkpt lat="44.58172" lon="3.05958">
        <ele>1374</ele>
        <time>2013-07-22T09:30:25Z</time>
      </trkpt>
      <trkpt lat="44.58164" lon="3.05964">
        <ele>1374</ele>
        <time>2013-07-22T09:30:29Z</time>
      </trkpt>
      <trkpt lat="44.5816" lon="3.05966">
        <ele>1374</ele>
        <time>2013-07-22T09:30:32Z</time>
      </trkpt>
      <trkpt lat="44.58155" lon="3.05969">
        <ele>1374</ele>
        <time>2013-07-22T09:30:35Z</time>
      </trkpt>
      <trkpt lat="44.58151" lon="3.05972">
        <ele>1374</ele>
        <time>2013-07-22T09:30:38Z</time>
      </trkpt>
      <trkpt lat="44.58146" lon="3.05976">
        <ele>1376</ele>
        <time>2013-07-22T09:30:42Z</time>
      </trkpt>
      <trkpt lat="44.58141" lon="3.05979">
        <ele>1377</ele>
        <time>2013-07-22T09:30:46Z</time>
      </trkpt>
      <trkpt lat="44.58137" lon="3.05983">
        <ele>1378</ele>
        <time>2013-07-22T09:30:50Z</time>
      </trkpt>
      <trkpt lat="44.58131" lon="3.05988">
        <ele>1379</ele>
        <time>2013-07-22T09:30:56Z</time>
      </trkpt>
      <trkpt lat="44.58126" lon="3.05992">
        <ele>1378</ele>
        <time>2013-07-22T09:31:00Z</time>
      </trkpt>
      <trkpt lat="44.5812" lon="3.05996">
        <ele>1377</ele>
        <time>2013-07-22T09:31:05Z</time>
      </trkpt>
      <trkpt lat="44.58115" lon="3.05999">
        <ele>1376</ele>
        <time>2013-07-22T09:31:09Z</time>
      </trkpt>
      <trkpt lat="44.5811" lon="3.06002">
        <ele>1375</ele>
        <time>2013-07-22T09:31:12Z</time>
      </trkpt>
      <trkpt lat="44.58106" lon="3.06005">
        <ele>1375</ele>
        <time>2013-07-22T09:31:15Z</time>
      </trkpt>
      <trkpt lat="44.58101" lon="3.06008">
        <ele>1374</ele>
        <time>2013-07-22T09:31:19Z</time>
      </trkpt>
      <trkpt lat="44.58096" lon="3.0601">
        <ele>1374</ele>
        <time>2013-07-22T09:31:22Z</time>
      </trkpt>
      <trkpt lat="44.58091" lon="3.06014">
        <ele>1374</ele>
        <time>2013-07-22T09:31:26Z</time>
      </trkpt>
      <trkpt lat="44.58086" lon="3.06018">
        <ele>1374</ele>
        <time>2013-07-22T09:31:29Z</time>
      </trkpt>
      <trkpt lat="44.58077" lon="3.06024">
        <ele>1376</ele>
        <time>2013-07-22T09:31:37Z</time>
      </trkpt>
      <trkpt lat="44.58073" lon="3.06026">
        <ele>1377</ele>
        <time>2013-07-22T09:31:40Z</time>
      </trkpt>
      <trkpt lat="44.58068" lon="3.06028">
        <ele>1377</ele>
        <time>2013-07-22T09:31:43Z</time>
      </trkpt>
      <trkpt lat="44.58064" lon="3.06033">
        <ele>1377</ele>
        <time>2013-07-22T09:31:47Z</time>
      </trkpt>
      <trkpt lat="44.58059" lon="3.06036">
        <ele>1376</ele>
        <time>2013-07-22T09:31:50Z</time>
      </trkpt>
      <trkpt lat="44.58055" lon="3.0604">
        <ele>1375</ele>
        <time>2013-07-22T09:31:54Z</time>
      </trkpt>
      <trkpt lat="44.5805" lon="3.06043">
        <ele>1374</ele>
        <time>2013-07-22T09:31:57Z</time>
      </trkpt>
      <trkpt lat="44.58046" lon="3.06046">
        <ele>1374</ele>
        <time>2013-07-22T09:32:00Z</time>
      </trkpt>
      <trkpt lat="44.58041" lon="3.0605">
        <ele>1372</ele>
        <time>2013-07-22T09:32:04Z</time>
      </trkpt>
      <trkpt lat="44.58036" lon="3.06054">
        <ele>1371</ele>
        <time>2013-07-22T09:32:08Z</time>
      </trkpt>
      <trkpt lat="44.58032" lon="3.06059">
        <ele>1370</ele>
        <time>2013-07-22T09:32:12Z</time>
      </trkpt>
      <trkpt lat="44.58028" lon="3.06062">
        <ele>1370</ele>
        <time>2013-07-22T09:32:16Z</time>
      </trkpt>
      <trkpt lat="44.58021" lon="3.06066">
        <ele>1371</ele>
        <time>2013-07-22T09:32:21Z</time>
      </trkpt>
      <trkpt lat="44.58016" lon="3.06069">
        <ele>1371</ele>
        <time>2013-07-22T09:32:25Z</time>
      </trkpt>
      <trkpt lat="44.58011" lon="3.06074">
        <ele>1372</ele>
        <time>2013-07-22T09:32:30Z</time>
      </trkpt>
      <trkpt lat="44.58006" lon="3.06078">
        <ele>1373</ele>
        <time>2013-07-22T09:32:35Z</time>
      </trkpt>
      <trkpt lat="44.58002" lon="3.06082">
        <ele>1374</ele>
        <time>2013-07-22T09:32:39Z</time>
      </trkpt>
      <trkpt lat="44.57993" lon="3.06089">
        <ele>1374</ele>
        <time>2013-07-22T09:32:45Z</time>
      </trkpt>
      <trkpt lat="44.57988" lon="3.06092">
        <ele>1374</ele>
        <time>2013-07-22T09:32:49Z</time>
      </trkpt>
      <trkpt lat="44.57983" lon="3.06097">
        <ele>1375</ele>
        <time>2013-07-22T09:32:53Z</time>
      </trkpt>
      <trkpt lat="44.57979" lon="3.06101">
        <ele>1375</ele>
        <time>2013-07-22T09:32:57Z</time>
      </trkpt>
      <trkpt lat="44.57977" lon="3.06101">
        <ele>1375</ele>
        <time>2013-07-22T09:33:03Z</time>
      </trkpt>
      <trkpt lat="44.57972" lon="3.06105">
        <ele>1376</ele>
        <time>2013-07-22T09:33:09Z</time>
      </trkpt>
      <trkpt lat="44.57967" lon="3.0611">
        <ele>1376</ele>
        <time>2013-07-22T09:33:13Z</time>
      </trkpt>
      <trkpt lat="44.57963" lon="3.06114">
        <ele>1377</ele>
        <time>2013-07-22T09:33:16Z</time>
      </trkpt>
      <trkpt lat="44.57959" lon="3.06118">
        <ele>1377</ele>
        <time>2013-07-22T09:33:19Z</time>
      </trkpt>
      <trkpt lat="44.57956" lon="3.06123">
        <ele>1377</ele>
        <time>2013-07-22T09:33:22Z</time>
      </trkpt>
      <trkpt lat="44.57952" lon="3.06129">
        <ele>1376</ele>
        <time>2013-07-22T09:33:26Z</time>
      </trkpt>
      <trkpt lat="44.57949" lon="3.06134">
        <ele>1376</ele>
        <time>2013-07-22T09:33:29Z</time>
      </trkpt>
      <trkpt lat="44.57946" lon="3.0614">
        <ele>1375</ele>
        <time>2013-07-22T09:33:32Z</time>
      </trkpt>
      <trkpt lat="44.57943" lon="3.06145">
        <ele>1375</ele>
        <time>2013-07-22T09:33:35Z</time>
      </trkpt>
      <trkpt lat="44.57939" lon="3.06151">
        <ele>1375</ele>
        <time>2013-07-22T09:33:39Z</time>
      </trkpt>
      <trkpt lat="44.57933" lon="3.06162">
        <ele>1373</ele>
        <time>2013-07-22T09:33:45Z</time>
      </trkpt>
      <trkpt lat="44.5793" lon="3.06167">
        <ele>1372</ele>
        <time>2013-07-22T09:33:49Z</time>
      </trkpt>
      <trkpt lat="44.57927" lon="3.06173">
        <ele>1373</ele>
        <time>2013-07-22T09:33:53Z</time>
      </trkpt>
      <trkpt lat="44.57923" lon="3.0618">
        <ele>1374</ele>
        <time>2013-07-22T09:33:57Z</time>
      </trkpt>
      <trkpt lat="44.5792" lon="3.06185">
        <ele>1375</ele>
        <time>2013-07-22T09:34:01Z</time>
      </trkpt>
      <trkpt lat="44.57917" lon="3.06192">
        <ele>1376</ele>
        <time>2013-07-22T09:34:05Z</time>
      </trkpt>
      <trkpt lat="44.57914" lon="3.06198">
        <ele>1376</ele>
        <time>2013-07-22T09:34:08Z</time>
      </trkpt>
      <trkpt lat="44.57911" lon="3.06205">
        <ele>1375</ele>
        <time>2013-07-22T09:34:12Z</time>
      </trkpt>
      <trkpt lat="44.57908" lon="3.06211">
        <ele>1374</ele>
        <time>2013-07-22T09:34:16Z</time>
      </trkpt>
      <trkpt lat="44.57905" lon="3.06217">
        <ele>1374</ele>
        <time>2013-07-22T09:34:19Z</time>
      </trkpt>
      <trkpt lat="44.57902" lon="3.06222">
        <ele>1375</ele>
        <time>2013-07-22T09:34:22Z</time>
      </trkpt>
      <trkpt lat="44.57897" lon="3.06233">
        <ele>1377</ele>
        <time>2013-07-22T09:34:29Z</time>
      </trkpt>
      <trkpt lat="44.57892" lon="3.06245">
        <ele>1378</ele>
        <time>2013-07-22T09:34:37Z</time>
      </trkpt>
      <trkpt lat="44.57888" lon="3.06252">
        <ele>1378</ele>
        <time>2013-07-22T09:34:41Z</time>
      </trkpt>
      <trkpt lat="44.57886" lon="3.06258">
        <ele>1380</ele>
        <time>2013-07-22T09:34:44Z</time>
      </trkpt>
      <trkpt lat="44.57882" lon="3.0627">
        <ele>1380</ele>
        <time>2013-07-22T09:34:50Z</time>
      </trkpt>
      <trkpt lat="44.57879" lon="3.06275">
        <ele>1379</ele>
        <time>2013-07-22T09:34:53Z</time>
      </trkpt>
      <trkpt lat="44.57876" lon="3.06282">
        <ele>1379</ele>
        <time>2013-07-22T09:34:57Z</time>
      </trkpt>
      <trkpt lat="44.57873" lon="3.06288">
        <ele>1378</ele>
        <time>2013-07-22T09:35:01Z</time>
      </trkpt>
      <trkpt lat="44.5787" lon="3.06294">
        <ele>1378</ele>
        <time>2013-07-22T09:35:06Z</time>
      </trkpt>
      <trkpt lat="44.57867" lon="3.063">
        <ele>1376</ele>
        <time>2013-07-22T09:35:11Z</time>
      </trkpt>
      <trkpt lat="44.57863" lon="3.06308">
        <ele>1375</ele>
        <time>2013-07-22T09:35:16Z</time>
      </trkpt>
      <trkpt lat="44.57859" lon="3.06314">
        <ele>1373</ele>
        <time>2013-07-22T09:35:20Z</time>
      </trkpt>
      <trkpt lat="44.57857" lon="3.0632">
        <ele>1373</ele>
        <time>2013-07-22T09:35:24Z</time>
      </trkpt>
      <trkpt lat="44.57854" lon="3.06327">
        <ele>1374</ele>
        <time>2013-07-22T09:35:28Z</time>
      </trkpt>
      <trkpt lat="44.57851" lon="3.06334">
        <ele>1376</ele>
        <time>2013-07-22T09:35:32Z</time>
      </trkpt>
      <trkpt lat="44.57849" lon="3.0634">
        <ele>1377</ele>
        <time>2013-07-22T09:35:36Z</time>
      </trkpt>
      <trkpt lat="44.57847" lon="3.06347">
        <ele>1377</ele>
        <time>2013-07-22T09:35:40Z</time>
      </trkpt>
      <trkpt lat="44.57842" lon="3.0636">
        <ele>1377</ele>
        <time>2013-07-22T09:35:46Z</time>
      </trkpt>
      <trkpt lat="44.57839" lon="3.06365">
        <ele>1378</ele>
        <time>2013-07-22T09:35:49Z</time>
      </trkpt>
      <trkpt lat="44.57836" lon="3.06371">
        <ele>1378</ele>
        <time>2013-07-22T09:35:52Z</time>
      </trkpt>
      <trkpt lat="44.57833" lon="3.06376">
        <ele>1379</ele>
        <time>2013-07-22T09:35:55Z</time>
      </trkpt>
      <trkpt lat="44.57829" lon="3.06382">
        <ele>1381</ele>
        <time>2013-07-22T09:35:59Z</time>
      </trkpt>
      <trkpt lat="44.57826" lon="3.06385">
        <ele>1381</ele>
        <time>2013-07-22T09:36:07Z</time>
      </trkpt>
      <trkpt lat="44.57822" lon="3.06389">
        <ele>1381</ele>
        <time>2013-07-22T09:36:23Z</time>
      </trkpt>
      <trkpt lat="44.57818" lon="3.06393">
        <ele>1380</ele>
        <time>2013-07-22T09:36:27Z</time>
      </trkpt>
      <trkpt lat="44.57814" lon="3.06397">
        <ele>1380</ele>
        <time>2013-07-22T09:36:31Z</time>
      </trkpt>
      <trkpt lat="44.57807" lon="3.06403">
        <ele>1379</ele>
        <time>2013-07-22T09:36:37Z</time>
      </trkpt>
      <trkpt lat="44.57803" lon="3.06406">
        <ele>1379</ele>
        <time>2013-07-22T09:36:40Z</time>
      </trkpt>
      <trkpt lat="44.578" lon="3.06411">
        <ele>1380</ele>
        <time>2013-07-22T09:36:44Z</time>
      </trkpt>
      <trkpt lat="44.57797" lon="3.06416">
        <ele>1379</ele>
        <time>2013-07-22T09:36:48Z</time>
      </trkpt>
      <trkpt lat="44.57793" lon="3.0642">
        <ele>1379</ele>
        <time>2013-07-22T09:36:52Z</time>
      </trkpt>
      <trkpt lat="44.57788" lon="3.06426">
        <ele>1379</ele>
        <time>2013-07-22T09:36:56Z</time>
      </trkpt>
      <trkpt lat="44.57783" lon="3.06432">
        <ele>1379</ele>
        <time>2013-07-22T09:37:00Z</time>
      </trkpt>
      <trkpt lat="44.57779" lon="3.06437">
        <ele>1379</ele>
        <time>2013-07-22T09:37:04Z</time>
      </trkpt>
      <trkpt lat="44.57774" lon="3.06445">
        <ele>1380</ele>
        <time>2013-07-22T09:37:09Z</time>
      </trkpt>
      <trkpt lat="44.57769" lon="3.0645">
        <ele>1381</ele>
        <time>2013-07-22T09:37:13Z</time>
      </trkpt>
      <trkpt lat="44.57765" lon="3.06456">
        <ele>1381</ele>
        <time>2013-07-22T09:37:19Z</time>
      </trkpt>
      <trkpt lat="44.57762" lon="3.06461">
        <ele>1380</ele>
        <time>2013-07-22T09:37:22Z</time>
      </trkpt>
      <trkpt lat="44.57758" lon="3.06465">
        <ele>1378</ele>
        <time>2013-07-22T09:37:26Z</time>
      </trkpt>
      <trkpt lat="44.57751" lon="3.06471">
        <ele>1377</ele>
        <time>2013-07-22T09:37:32Z</time>
      </trkpt>
      <trkpt lat="44.57743" lon="3.06478">
        <ele>1380</ele>
        <time>2013-07-22T09:37:38Z</time>
      </trkpt>
      <trkpt lat="44.57722" lon="3.06501">
        <ele>1390</ele>
        <time>2013-07-22T09:37:58Z</time>
      </trkpt>
      <trkpt lat="44.57719" lon="3.06506">
        <ele>1390</ele>
        <time>2013-07-22T09:38:02Z</time>
      </trkpt>
      <trkpt lat="44.57715" lon="3.06511">
        <ele>1391</ele>
        <time>2013-07-22T09:38:06Z</time>
      </trkpt>
      <trkpt lat="44.57712" lon="3.06518">
        <ele>1391</ele>
        <time>2013-07-22T09:38:10Z</time>
      </trkpt>
      <trkpt lat="44.57707" lon="3.06523">
        <ele>1390</ele>
        <time>2013-07-22T09:38:14Z</time>
      </trkpt>
      <trkpt lat="44.57703" lon="3.06527">
        <ele>1390</ele>
        <time>2013-07-22T09:38:17Z</time>
      </trkpt>
      <trkpt lat="44.57696" lon="3.06536">
        <ele>1390</ele>
        <time>2013-07-22T09:38:24Z</time>
      </trkpt>
      <trkpt lat="44.57692" lon="3.06542">
        <ele>1390</ele>
        <time>2013-07-22T09:38:29Z</time>
      </trkpt>
      <trkpt lat="44.57688" lon="3.06547">
        <ele>1390</ele>
        <time>2013-07-22T09:38:33Z</time>
      </trkpt>
      <trkpt lat="44.57683" lon="3.06553">
        <ele>1389</ele>
        <time>2013-07-22T09:38:38Z</time>
      </trkpt>
      <trkpt lat="44.57679" lon="3.06558">
        <ele>1388</ele>
        <time>2013-07-22T09:38:42Z</time>
      </trkpt>
      <trkpt lat="44.57676" lon="3.06563">
        <ele>1388</ele>
        <time>2013-07-22T09:38:45Z</time>
      </trkpt>
      <trkpt lat="44.57671" lon="3.06568">
        <ele>1389</ele>
        <time>2013-07-22T09:38:49Z</time>
      </trkpt>
      <trkpt lat="44.57667" lon="3.06571">
        <ele>1390</ele>
        <time>2013-07-22T09:38:53Z</time>
      </trkpt>
      <trkpt lat="44.57662" lon="3.06573">
        <ele>1390</ele>
        <time>2013-07-22T09:38:57Z</time>
      </trkpt>
      <trkpt lat="44.57659" lon="3.06579">
        <ele>1394</ele>
        <time>2013-07-22T09:39:06Z</time>
      </trkpt>
      <trkpt lat="44.57656" lon="3.06586">
        <ele>1393</ele>
        <time>2013-07-22T09:39:24Z</time>
      </trkpt>
      <trkpt lat="44.57658" lon="3.06593">
        <ele>1392</ele>
        <time>2013-07-22T09:39:38Z</time>
      </trkpt>
      <trkpt lat="44.57659" lon="3.0661">
        <ele>1390</ele>
        <time>2013-07-22T09:40:16Z</time>
      </trkpt>
      <trkpt lat="44.57662" lon="3.06623">
        <ele>1390</ele>
        <time>2013-07-22T09:40:23Z</time>
      </trkpt>
      <trkpt lat="44.57667" lon="3.06636">
        <ele>1390</ele>
        <time>2013-07-22T09:40:32Z</time>
      </trkpt>
      <trkpt lat="44.57673" lon="3.06647">
        <ele>1391</ele>
        <time>2013-07-22T09:40:40Z</time>
      </trkpt>
      <trkpt lat="44.57673" lon="3.06661">
        <ele>1393</ele>
        <time>2013-07-22T09:40:47Z</time>
      </trkpt>
      <trkpt lat="44.57674" lon="3.06675">
        <ele>1395</ele>
        <time>2013-07-22T09:40:55Z</time>
      </trkpt>
      <trkpt lat="44.57677" lon="3.06687">
        <ele>1396</ele>
        <time>2013-07-22T09:41:02Z</time>
      </trkpt>
      <trkpt lat="44.57679" lon="3.067">
        <ele>1395</ele>
        <time>2013-07-22T09:41:11Z</time>
      </trkpt>
      <trkpt lat="44.57678" lon="3.06716">
        <ele>1395</ele>
        <time>2013-07-22T09:41:19Z</time>
      </trkpt>
      <trkpt lat="44.57678" lon="3.06729">
        <ele>1395</ele>
        <time>2013-07-22T09:41:25Z</time>
      </trkpt>
      <trkpt lat="44.57676" lon="3.06743">
        <ele>1396</ele>
        <time>2013-07-22T09:41:31Z</time>
      </trkpt>
      <trkpt lat="44.57678" lon="3.06755">
        <ele>1396</ele>
        <time>2013-07-22T09:41:37Z</time>
      </trkpt>
      <trkpt lat="44.5768" lon="3.06769">
        <ele>1397</ele>
        <time>2013-07-22T09:41:45Z</time>
      </trkpt>
      <trkpt lat="44.57678" lon="3.06782">
        <ele>1397</ele>
        <time>2013-07-22T09:41:50Z</time>
      </trkpt>
      <trkpt lat="44.57678" lon="3.06795">
        <ele>1396</ele>
        <time>2013-07-22T09:41:56Z</time>
      </trkpt>
      <trkpt lat="44.57681" lon="3.06809">
        <ele>1396</ele>
        <time>2013-07-22T09:42:03Z</time>
      </trkpt>
      <trkpt lat="44.57679" lon="3.06818">
        <ele>1396</ele>
        <time>2013-07-22T09:42:09Z</time>
      </trkpt>
      <trkpt lat="44.57678" lon="3.06825">
        <ele>1398</ele>
        <time>2013-07-22T09:42:13Z</time>
      </trkpt>
      <trkpt lat="44.57675" lon="3.06837">
        <ele>1400</ele>
        <time>2013-07-22T09:42:19Z</time>
      </trkpt>
      <trkpt lat="44.57672" lon="3.0685">
        <ele>1403</ele>
        <time>2013-07-22T09:42:26Z</time>
      </trkpt>
      <trkpt lat="44.5767" lon="3.06863">
        <ele>1403</ele>
        <time>2013-07-22T09:42:33Z</time>
      </trkpt>
      <trkpt lat="44.57665" lon="3.06875">
        <ele>1401</ele>
        <time>2013-07-22T09:42:41Z</time>
      </trkpt>
      <trkpt lat="44.57656" lon="3.06879">
        <ele>1401</ele>
        <time>2013-07-22T09:42:51Z</time>
      </trkpt>
      <trkpt lat="44.5765" lon="3.06889">
        <ele>1401</ele>
        <time>2013-07-22T09:42:58Z</time>
      </trkpt>
      <trkpt lat="44.57644" lon="3.069">
        <ele>1402</ele>
        <time>2013-07-22T09:43:04Z</time>
      </trkpt>
      <trkpt lat="44.57639" lon="3.0691">
        <ele>1402</ele>
        <time>2013-07-22T09:43:10Z</time>
      </trkpt>
      <trkpt lat="44.57632" lon="3.0692">
        <ele>1402</ele>
        <time>2013-07-22T09:43:17Z</time>
      </trkpt>
      <trkpt lat="44.57627" lon="3.0693">
        <ele>1403</ele>
        <time>2013-07-22T09:43:25Z</time>
      </trkpt>
      <trkpt lat="44.57621" lon="3.0694">
        <ele>1404</ele>
        <time>2013-07-22T09:43:33Z</time>
      </trkpt>
      <trkpt lat="44.57615" lon="3.0695">
        <ele>1403</ele>
        <time>2013-07-22T09:43:41Z</time>
      </trkpt>
      <trkpt lat="44.5761" lon="3.06962">
        <ele>1401</ele>
        <time>2013-07-22T09:43:49Z</time>
      </trkpt>
      <trkpt lat="44.57604" lon="3.06971">
        <ele>1400</ele>
        <time>2013-07-22T09:43:58Z</time>
      </trkpt>
      <trkpt lat="44.57598" lon="3.06982">
        <ele>1401</ele>
        <time>2013-07-22T09:44:07Z</time>
      </trkpt>
      <trkpt lat="44.57592" lon="3.06993">
        <ele>1402</ele>
        <time>2013-07-22T09:44:15Z</time>
      </trkpt>
      <trkpt lat="44.57585" lon="3.07002">
        <ele>1401</ele>
        <time>2013-07-22T09:44:26Z</time>
      </trkpt>
      <trkpt lat="44.57579" lon="3.07013">
        <ele>1402</ele>
        <time>2013-07-22T09:44:36Z</time>
      </trkpt>
      <trkpt lat="44.57575" lon="3.07025">
        <ele>1403</ele>
        <time>2013-07-22T09:44:44Z</time>
      </trkpt>
      <trkpt lat="44.57569" lon="3.07033">
        <ele>1410</ele>
        <time>2013-07-22T09:44:58Z</time>
      </trkpt>
      <trkpt lat="44.57569" lon="3.07037">
        <ele>1410</ele>
        <time>2013-07-22T09:45:10Z</time>
      </trkpt>
      <trkpt lat="44.5757" lon="3.07037">
        <ele>1420</ele>
        <time>2013-07-22T09:46:18Z</time>
      </trkpt>
      <trkpt lat="44.57565" lon="3.07043">
        <ele>1418</ele>
        <time>2013-07-22T09:46:39Z</time>
      </trkpt>
      <trkpt lat="44.57561" lon="3.07054">
        <ele>1418</ele>
        <time>2013-07-22T09:46:46Z</time>
      </trkpt>
      <trkpt lat="44.57556" lon="3.07065">
        <ele>1415</ele>
        <time>2013-07-22T09:47:06Z</time>
      </trkpt>
      <trkpt lat="44.57555" lon="3.07071">
        <ele>1413</ele>
        <time>2013-07-22T09:47:19Z</time>
      </trkpt>
      <trkpt lat="44.57548" lon="3.07078">
        <ele>1414</ele>
        <time>2013-07-22T09:48:04Z</time>
      </trkpt>
      <trkpt lat="44.57542" lon="3.07088">
        <ele>1414</ele>
        <time>2013-07-22T09:48:12Z</time>
      </trkpt>
      <trkpt lat="44.57536" lon="3.07098">
        <ele>1414</ele>
        <time>2013-07-22T09:48:19Z</time>
      </trkpt>
      <trkpt lat="44.57533" lon="3.07112">
        <ele>1416</ele>
        <time>2013-07-22T09:48:30Z</time>
      </trkpt>
      <trkpt lat="44.57532" lon="3.07126">
        <ele>1417</ele>
        <time>2013-07-22T09:48:37Z</time>
      </trkpt>
      <trkpt lat="44.57529" lon="3.07139">
        <ele>1416</ele>
        <time>2013-07-22T09:48:44Z</time>
      </trkpt>
      <trkpt lat="44.57528" lon="3.07153">
        <ele>1417</ele>
        <time>2013-07-22T09:48:50Z</time>
      </trkpt>
      <trkpt lat="44.57527" lon="3.07167">
        <ele>1417</ele>
        <time>2013-07-22T09:48:56Z</time>
      </trkpt>
      <trkpt lat="44.57527" lon="3.07182">
        <ele>1417</ele>
        <time>2013-07-22T09:49:02Z</time>
      </trkpt>
      <trkpt lat="44.57526" lon="3.07196">
        <ele>1417</ele>
        <time>2013-07-22T09:49:08Z</time>
      </trkpt>
      <trkpt lat="44.57526" lon="3.07209">
        <ele>1417</ele>
        <time>2013-07-22T09:49:18Z</time>
      </trkpt>
      <trkpt lat="44.57524" lon="3.07217">
        <ele>1418</ele>
        <time>2013-07-22T09:49:34Z</time>
      </trkpt>
      <trkpt lat="44.57525" lon="3.07224">
        <ele>1419</ele>
        <time>2013-07-22T09:49:39Z</time>
      </trkpt>
      <trkpt lat="44.57526" lon="3.07232">
        <ele>1420</ele>
        <time>2013-07-22T09:49:44Z</time>
      </trkpt>
      <trkpt lat="44.57526" lon="3.07238">
        <ele>1419</ele>
        <time>2013-07-22T09:49:48Z</time>
      </trkpt>
      <trkpt lat="44.57523" lon="3.07245">
        <ele>1419</ele>
        <time>2013-07-22T09:49:52Z</time>
      </trkpt>
      <trkpt lat="44.5752" lon="3.0725">
        <ele>1420</ele>
        <time>2013-07-22T09:49:55Z</time>
      </trkpt>
      <trkpt lat="44.57512" lon="3.07256">
        <ele>1422</ele>
        <time>2013-07-22T09:50:00Z</time>
      </trkpt>
      <trkpt lat="44.57506" lon="3.07258">
        <ele>1424</ele>
        <time>2013-07-22T09:50:04Z</time>
      </trkpt>
      <trkpt lat="44.57501" lon="3.07259">
        <ele>1427</ele>
        <time>2013-07-22T09:50:09Z</time>
      </trkpt>
      <trkpt lat="44.57494" lon="3.07261">
        <ele>1428</ele>
        <time>2013-07-22T09:50:13Z</time>
      </trkpt>
      <trkpt lat="44.5749" lon="3.07265">
        <ele>1429</ele>
        <time>2013-07-22T09:50:17Z</time>
      </trkpt>
      <trkpt lat="44.57484" lon="3.07272">
        <ele>1429</ele>
        <time>2013-07-22T09:50:54Z</time>
      </trkpt>
      <trkpt lat="44.5748" lon="3.07273">
        <ele>1429</ele>
        <time>2013-07-22T09:52:23Z</time>
      </trkpt>
      <trkpt lat="44.57481" lon="3.07259">
        <ele>1429</ele>
        <time>2013-07-22T09:52:37Z</time>
      </trkpt>
      <trkpt lat="44.57484" lon="3.07247">
        <ele>1430</ele>
        <time>2013-07-22T09:52:43Z</time>
      </trkpt>
      <trkpt lat="44.57488" lon="3.07235">
        <ele>1430</ele>
        <time>2013-07-22T09:52:50Z</time>
      </trkpt>
      <trkpt lat="44.57492" lon="3.07223">
        <ele>1431</ele>
        <time>2013-07-22T09:52:58Z</time>
      </trkpt>
      <trkpt lat="44.57494" lon="3.07214">
        <ele>1431</ele>
        <time>2013-07-22T09:53:14Z</time>
      </trkpt>
      <trkpt lat="44.57495" lon="3.07216">
        <ele>1433</ele>
        <time>2013-07-22T09:55:00Z</time>
      </trkpt>
      <trkpt lat="44.57492" lon="3.07219">
        <ele>1433</ele>
        <time>2013-07-22T09:55:14Z</time>
      </trkpt>
      <trkpt lat="44.57488" lon="3.07226">
        <ele>1433</ele>
        <time>2013-07-22T09:55:24Z</time>
      </trkpt>
      <trkpt lat="44.5749" lon="3.07224">
        <ele>1434</ele>
        <time>2013-07-22T09:57:20Z</time>
      </trkpt>
      <trkpt lat="44.57489" lon="3.07232">
        <ele>1433</ele>
        <time>2013-07-22T09:59:31Z</time>
      </trkpt>
      <trkpt lat="44.57488" lon="3.07239">
        <ele>1433</ele>
        <time>2013-07-22T09:59:38Z</time>
      </trkpt>
      <trkpt lat="44.57485" lon="3.07252">
        <ele>1431</ele>
        <time>2013-07-22T09:59:49Z</time>
      </trkpt>
      <trkpt lat="44.57483" lon="3.07259">
        <ele>1430</ele>
        <time>2013-07-22T10:00:01Z</time>
      </trkpt>
      <trkpt lat="44.57479" lon="3.07268">
        <ele>1429</ele>
        <time>2013-07-22T10:00:19Z</time>
      </trkpt>
      <trkpt lat="44.57478" lon="3.07277">
        <ele>1428</ele>
        <time>2013-07-22T10:00:39Z</time>
      </trkpt>
      <trkpt lat="44.57474" lon="3.07283">
        <ele>1431</ele>
        <time>2013-07-22T10:00:57Z</time>
      </trkpt>
      <trkpt lat="44.57469" lon="3.07288">
        <ele>1433</ele>
        <time>2013-07-22T10:01:12Z</time>
      </trkpt>
      <trkpt lat="44.57461" lon="3.07296">
        <ele>1431</ele>
        <time>2013-07-22T10:01:26Z</time>
      </trkpt>
      <trkpt lat="44.57453" lon="3.07303">
        <ele>1430</ele>
        <time>2013-07-22T10:01:37Z</time>
      </trkpt>
      <trkpt lat="44.57445" lon="3.07308">
        <ele>1432</ele>
        <time>2013-07-22T10:01:48Z</time>
      </trkpt>
      <trkpt lat="44.57437" lon="3.07317">
        <ele>1433</ele>
        <time>2013-07-22T10:02:04Z</time>
      </trkpt>
      <trkpt lat="44.57428" lon="3.07328">
        <ele>1436</ele>
        <time>2013-07-22T10:02:19Z</time>
      </trkpt>
      <trkpt lat="44.5742" lon="3.07336">
        <ele>1437</ele>
        <time>2013-07-22T10:02:29Z</time>
      </trkpt>
      <trkpt lat="44.57413" lon="3.07346">
        <ele>1439</ele>
        <time>2013-07-22T10:02:39Z</time>
      </trkpt>
      <trkpt lat="44.57406" lon="3.07355">
        <ele>1439</ele>
        <time>2013-07-22T10:02:48Z</time>
      </trkpt>
      <trkpt lat="44.57401" lon="3.07365">
        <ele>1437</ele>
        <time>2013-07-22T10:02:59Z</time>
      </trkpt>
      <trkpt lat="44.57395" lon="3.07375">
        <ele>1437</ele>
        <time>2013-07-22T10:03:10Z</time>
      </trkpt>
      <trkpt lat="44.57393" lon="3.07384">
        <ele>1439</ele>
        <time>2013-07-22T10:03:26Z</time>
      </trkpt>
      <trkpt lat="44.5739" lon="3.07391">
        <ele>1444</ele>
        <time>2013-07-22T10:03:51Z</time>
      </trkpt>
      <trkpt lat="44.57389" lon="3.07398">
        <ele>1444</ele>
        <time>2013-07-22T10:04:14Z</time>
      </trkpt>
      <trkpt lat="44.57384" lon="3.07409">
        <ele>1448</ele>
        <time>2013-07-22T10:04:26Z</time>
      </trkpt>
      <trkpt lat="44.57379" lon="3.0742">
        <ele>1449</ele>
        <time>2013-07-22T10:04:35Z</time>
      </trkpt>
      <trkpt lat="44.57373" lon="3.0743">
        <ele>1451</ele>
        <time>2013-07-22T10:04:43Z</time>
      </trkpt>
      <trkpt lat="44.57367" lon="3.07439">
        <ele>1452</ele>
        <time>2013-07-22T10:04:50Z</time>
      </trkpt>
      <trkpt lat="44.57364" lon="3.07444">
        <ele>1453</ele>
        <time>2013-07-22T10:04:56Z</time>
      </trkpt>
      <trkpt lat="44.57362" lon="3.07451">
        <ele>1455</ele>
        <time>2013-07-22T10:05:06Z</time>
      </trkpt>
      <trkpt lat="44.57358" lon="3.07458">
        <ele>1456</ele>
        <time>2013-07-22T10:05:18Z</time>
      </trkpt>
      <trkpt lat="44.57353" lon="3.07462">
        <ele>1458</ele>
        <time>2013-07-22T10:05:25Z</time>
      </trkpt>
      <trkpt lat="44.57346" lon="3.07473">
        <ele>1459</ele>
        <time>2013-07-22T10:05:35Z</time>
      </trkpt>
      <trkpt lat="44.57339" lon="3.07482">
        <ele>1460</ele>
        <time>2013-07-22T10:05:45Z</time>
      </trkpt>
      <trkpt lat="44.57334" lon="3.07493">
        <ele>1460</ele>
        <time>2013-07-22T10:05:52Z</time>
      </trkpt>
      <trkpt lat="44.57331" lon="3.07502">
        <ele>1458</ele>
        <time>2013-07-22T10:05:58Z</time>
      </trkpt>
      <trkpt lat="44.57329" lon="3.07508">
        <ele>1458</ele>
        <time>2013-07-22T10:06:03Z</time>
      </trkpt>
      <trkpt lat="44.57325" lon="3.07512">
        <ele>1458</ele>
        <time>2013-07-22T10:06:10Z</time>
      </trkpt>
      <trkpt lat="44.57321" lon="3.07508">
        <ele>1459</ele>
        <time>2013-07-22T10:06:15Z</time>
      </trkpt>
      <trkpt lat="44.57317" lon="3.07504">
        <ele>1461</ele>
        <time>2013-07-22T10:06:20Z</time>
      </trkpt>
      <trkpt lat="44.57313" lon="3.075">
        <ele>1463</ele>
        <time>2013-07-22T10:06:25Z</time>
      </trkpt>
      <trkpt lat="44.57308" lon="3.07496">
        <ele>1464</ele>
        <time>2013-07-22T10:06:36Z</time>
      </trkpt>
      <trkpt lat="44.57306" lon="3.07497">
        <ele>1462</ele>
        <time>2013-07-22T10:23:11Z</time>
      </trkpt>
      <trkpt lat="44.57315" lon="3.07512">
        <ele>1459</ele>
        <time>2013-07-22T11:55:48Z</time>
      </trkpt>
      <trkpt lat="44.57319" lon="3.07515">
        <ele>1463</ele>
        <time>2013-07-22T11:56:11Z</time>
      </trkpt>
      <trkpt lat="44.57321" lon="3.0752">
        <ele>1460</ele>
        <time>2013-07-22T11:56:37Z</time>
      </trkpt>
      <trkpt lat="44.57322" lon="3.07527">
        <ele>1460</ele>
        <time>2013-07-22T11:56:41Z</time>
      </trkpt>
      <trkpt lat="44.57321" lon="3.07533">
        <ele>1461</ele>
        <time>2013-07-22T11:56:47Z</time>
      </trkpt>
      <trkpt lat="44.57319" lon="3.07539">
        <ele>1461</ele>
        <time>2013-07-22T11:56:53Z</time>
      </trkpt>
      <trkpt lat="44.57315" lon="3.07544">
        <ele>1462</ele>
        <time>2013-07-22T11:56:57Z</time>
      </trkpt>
      <trkpt lat="44.57313" lon="3.07545">
        <ele>1462</ele>
        <time>2013-07-22T11:57:03Z</time>
      </trkpt>
      <trkpt lat="44.57311" lon="3.07545">
        <ele>1461</ele>
        <time>2013-07-22T11:57:09Z</time>
      </trkpt>
      <trkpt lat="44.57309" lon="3.07551">
        <ele>1460</ele>
        <time>2013-07-22T11:57:25Z</time>
      </trkpt>
      <trkpt lat="44.57304" lon="3.07553">
        <ele>1458</ele>
        <time>2013-07-22T11:57:32Z</time>
      </trkpt>
      <trkpt lat="44.57302" lon="3.07555">
        <ele>1458</ele>
        <time>2013-07-22T11:57:44Z</time>
      </trkpt>
      <trkpt lat="44.57299" lon="3.07562">
        <ele>1459</ele>
        <time>2013-07-22T11:58:21Z</time>
      </trkpt>
      <trkpt lat="44.57298" lon="3.07567">
        <ele>1459</ele>
        <time>2013-07-22T11:58:32Z</time>
      </trkpt>
      <trkpt lat="44.57295" lon="3.07575">
        <ele>1461</ele>
        <time>2013-07-22T11:58:43Z</time>
      </trkpt>
      <trkpt lat="44.57291" lon="3.0758">
        <ele>1460</ele>
        <time>2013-07-22T11:58:47Z</time>
      </trkpt>
      <trkpt lat="44.57287" lon="3.07584">
        <ele>1460</ele>
        <time>2013-07-22T11:58:52Z</time>
      </trkpt>
      <trkpt lat="44.57283" lon="3.07587">
        <ele>1459</ele>
        <time>2013-07-22T11:58:58Z</time>
      </trkpt>
      <trkpt lat="44.57278" lon="3.07589">
        <ele>1460</ele>
        <time>2013-07-22T11:59:03Z</time>
      </trkpt>
      <trkpt lat="44.57273" lon="3.07593">
        <ele>1459</ele>
        <time>2013-07-22T11:59:09Z</time>
      </trkpt>
      <trkpt lat="44.57268" lon="3.07595">
        <ele>1460</ele>
        <time>2013-07-22T11:59:14Z</time>
      </trkpt>
      <trkpt lat="44.57264" lon="3.07599">
        <ele>1460</ele>
        <time>2013-07-22T11:59:18Z</time>
      </trkpt>
      <trkpt lat="44.57259" lon="3.07602">
        <ele>1461</ele>
        <time>2013-07-22T11:59:22Z</time>
      </trkpt>
      <trkpt lat="44.57254" lon="3.07604">
        <ele>1462</ele>
        <time>2013-07-22T11:59:27Z</time>
      </trkpt>
      <trkpt lat="44.57249" lon="3.07606">
        <ele>1462</ele>
        <time>2013-07-22T11:59:30Z</time>
      </trkpt>
      <trkpt lat="44.57245" lon="3.07608">
        <ele>1462</ele>
        <time>2013-07-22T11:59:33Z</time>
      </trkpt>
      <trkpt lat="44.5724" lon="3.07609">
        <ele>1462</ele>
        <time>2013-07-22T11:59:37Z</time>
      </trkpt>
      <trkpt lat="44.57235" lon="3.07611">
        <ele>1462</ele>
        <time>2013-07-22T11:59:41Z</time>
      </trkpt>
      <trkpt lat="44.5723" lon="3.07613">
        <ele>1462</ele>
        <time>2013-07-22T11:59:47Z</time>
      </trkpt>
      <trkpt lat="44.57226" lon="3.07616">
        <ele>1462</ele>
        <time>2013-07-22T11:59:52Z</time>
      </trkpt>
      <trkpt lat="44.57222" lon="3.07619">
        <ele>1462</ele>
        <time>2013-07-22T11:59:57Z</time>
      </trkpt>
      <trkpt lat="44.57216" lon="3.07622">
        <ele>1463</ele>
        <time>2013-07-22T12:00:01Z</time>
      </trkpt>
      <trkpt lat="44.57211" lon="3.07623">
        <ele>1464</ele>
        <time>2013-07-22T12:00:05Z</time>
      </trkpt>
      <trkpt lat="44.57206" lon="3.07624">
        <ele>1464</ele>
        <time>2013-07-22T12:00:09Z</time>
      </trkpt>
      <trkpt lat="44.57201" lon="3.07626">
        <ele>1464</ele>
        <time>2013-07-22T12:00:14Z</time>
      </trkpt>
      <trkpt lat="44.57197" lon="3.07628">
        <ele>1464</ele>
        <time>2013-07-22T12:00:21Z</time>
      </trkpt>
      <trkpt lat="44.57191" lon="3.0763">
        <ele>1463</ele>
        <time>2013-07-22T12:00:27Z</time>
      </trkpt>
      <trkpt lat="44.57187" lon="3.07633">
        <ele>1463</ele>
        <time>2013-07-22T12:00:31Z</time>
      </trkpt>
      <trkpt lat="44.57182" lon="3.07634">
        <ele>1462</ele>
        <time>2013-07-22T12:00:35Z</time>
      </trkpt>
      <trkpt lat="44.57177" lon="3.07633">
        <ele>1463</ele>
        <time>2013-07-22T12:00:42Z</time>
      </trkpt>
      <trkpt lat="44.57172" lon="3.07631">
        <ele>1462</ele>
        <time>2013-07-22T12:00:47Z</time>
      </trkpt>
      <trkpt lat="44.57167" lon="3.0763">
        <ele>1460</ele>
        <time>2013-07-22T12:00:54Z</time>
      </trkpt>
      <trkpt lat="44.57162" lon="3.07628">
        <ele>1459</ele>
        <time>2013-07-22T12:00:59Z</time>
      </trkpt>
      <trkpt lat="44.57158" lon="3.07627">
        <ele>1458</ele>
        <time>2013-07-22T12:01:04Z</time>
      </trkpt>
      <trkpt lat="44.57148" lon="3.07628">
        <ele>1455</ele>
        <time>2013-07-22T12:01:22Z</time>
      </trkpt>
      <trkpt lat="44.57143" lon="3.07629">
        <ele>1456</ele>
        <time>2013-07-22T12:01:26Z</time>
      </trkpt>
      <trkpt lat="44.57137" lon="3.07628">
        <ele>1457</ele>
        <time>2013-07-22T12:01:30Z</time>
      </trkpt>
      <trkpt lat="44.57132" lon="3.07627">
        <ele>1459</ele>
        <time>2013-07-22T12:01:34Z</time>
      </trkpt>
      <trkpt lat="44.57127" lon="3.07625">
        <ele>1460</ele>
        <time>2013-07-22T12:01:38Z</time>
      </trkpt>
      <trkpt lat="44.57123" lon="3.07625">
        <ele>1461</ele>
        <time>2013-07-22T12:01:42Z</time>
      </trkpt>
      <trkpt lat="44.57117" lon="3.07623">
        <ele>1461</ele>
        <time>2013-07-22T12:01:47Z</time>
      </trkpt>
      <trkpt lat="44.57113" lon="3.07623">
        <ele>1462</ele>
        <time>2013-07-22T12:01:50Z</time>
      </trkpt>
      <trkpt lat="44.57103" lon="3.07621">
        <ele>1465</ele>
        <time>2013-07-22T12:01:57Z</time>
      </trkpt>
      <trkpt lat="44.57093" lon="3.0762">
        <ele>1466</ele>
        <time>2013-07-22T12:02:05Z</time>
      </trkpt>
      <trkpt lat="44.57089" lon="3.07622">
        <ele>1466</ele>
        <time>2013-07-22T12:02:08Z</time>
      </trkpt>
      <trkpt lat="44.5708" lon="3.07625">
        <ele>1467</ele>
        <time>2013-07-22T12:02:15Z</time>
      </trkpt>
      <trkpt lat="44.57069" lon="3.07625">
        <ele>1467</ele>
        <time>2013-07-22T12:02:22Z</time>
      </trkpt>
      <trkpt lat="44.57059" lon="3.0763">
        <ele>1465</ele>
        <time>2013-07-22T12:02:31Z</time>
      </trkpt>
      <trkpt lat="44.57049" lon="3.0763">
        <ele>1463</ele>
        <time>2013-07-22T12:02:38Z</time>
      </trkpt>
      <trkpt lat="44.5704" lon="3.07635">
        <ele>1460</ele>
        <time>2013-07-22T12:02:48Z</time>
      </trkpt>
      <trkpt lat="44.57035" lon="3.07636">
        <ele>1455</ele>
        <time>2013-07-22T12:02:59Z</time>
      </trkpt>
      <trkpt lat="44.57031" lon="3.07641">
        <ele>1454</ele>
        <time>2013-07-22T12:03:10Z</time>
      </trkpt>
      <trkpt lat="44.57018" lon="3.07641">
        <ele>1452</ele>
        <time>2013-07-22T12:04:23Z</time>
      </trkpt>
      <trkpt lat="44.57009" lon="3.07643">
        <ele>1452</ele>
        <time>2013-07-22T12:04:30Z</time>
      </trkpt>
      <trkpt lat="44.57004" lon="3.07645">
        <ele>1451</ele>
        <time>2013-07-22T12:04:33Z</time>
      </trkpt>
      <trkpt lat="44.57" lon="3.07648">
        <ele>1450</ele>
        <time>2013-07-22T12:04:36Z</time>
      </trkpt>
      <trkpt lat="44.56996" lon="3.07649">
        <ele>1450</ele>
        <time>2013-07-22T12:04:39Z</time>
      </trkpt>
      <trkpt lat="44.5699" lon="3.07651">
        <ele>1449</ele>
        <time>2013-07-22T12:04:42Z</time>
      </trkpt>
      <trkpt lat="44.56984" lon="3.07651">
        <ele>1449</ele>
        <time>2013-07-22T12:04:45Z</time>
      </trkpt>
      <trkpt lat="44.56978" lon="3.07651">
        <ele>1449</ele>
        <time>2013-07-22T12:04:49Z</time>
      </trkpt>
      <trkpt lat="44.56973" lon="3.07653">
        <ele>1448</ele>
        <time>2013-07-22T12:04:53Z</time>
      </trkpt>
      <trkpt lat="44.56968" lon="3.07655">
        <ele>1449</ele>
        <time>2013-07-22T12:04:58Z</time>
      </trkpt>
      <trkpt lat="44.56962" lon="3.07657">
        <ele>1449</ele>
        <time>2013-07-22T12:05:03Z</time>
      </trkpt>
      <trkpt lat="44.56957" lon="3.07661">
        <ele>1450</ele>
        <time>2013-07-22T12:05:07Z</time>
      </trkpt>
      <trkpt lat="44.56952" lon="3.07662">
        <ele>1450</ele>
        <time>2013-07-22T12:05:10Z</time>
      </trkpt>
      <trkpt lat="44.56947" lon="3.07664">
        <ele>1451</ele>
        <time>2013-07-22T12:05:13Z</time>
      </trkpt>
      <trkpt lat="44.56942" lon="3.07665">
        <ele>1452</ele>
        <time>2013-07-22T12:05:16Z</time>
      </trkpt>
      <trkpt lat="44.56937" lon="3.07666">
        <ele>1452</ele>
        <time>2013-07-22T12:05:19Z</time>
      </trkpt>
      <trkpt lat="44.56933" lon="3.07667">
        <ele>1452</ele>
        <time>2013-07-22T12:05:22Z</time>
      </trkpt>
      <trkpt lat="44.56928" lon="3.07669">
        <ele>1452</ele>
        <time>2013-07-22T12:05:25Z</time>
      </trkpt>
      <trkpt lat="44.56923" lon="3.07672">
        <ele>1452</ele>
        <time>2013-07-22T12:05:29Z</time>
      </trkpt>
      <trkpt lat="44.56918" lon="3.07674">
        <ele>1452</ele>
        <time>2013-07-22T12:05:32Z</time>
      </trkpt>
      <trkpt lat="44.56914" lon="3.07676">
        <ele>1453</ele>
        <time>2013-07-22T12:05:35Z</time>
      </trkpt>
      <trkpt lat="44.56909" lon="3.07677">
        <ele>1453</ele>
        <time>2013-07-22T12:05:38Z</time>
      </trkpt>
      <trkpt lat="44.56904" lon="3.07677">
        <ele>1452</ele>
        <time>2013-07-22T12:05:41Z</time>
      </trkpt>
      <trkpt lat="44.569" lon="3.07678">
        <ele>1452</ele>
        <time>2013-07-22T12:05:44Z</time>
      </trkpt>
      <trkpt lat="44.56895" lon="3.07679">
        <ele>1451</ele>
        <time>2013-07-22T12:05:47Z</time>
      </trkpt>
      <trkpt lat="44.5689" lon="3.07681">
        <ele>1452</ele>
        <time>2013-07-22T12:05:51Z</time>
      </trkpt>
      <trkpt lat="44.56885" lon="3.07683">
        <ele>1454</ele>
        <time>2013-07-22T12:05:54Z</time>
      </trkpt>
      <trkpt lat="44.5688" lon="3.07684">
        <ele>1455</ele>
        <time>2013-07-22T12:05:57Z</time>
      </trkpt>
      <trkpt lat="44.56876" lon="3.07684">
        <ele>1457</ele>
        <time>2013-07-22T12:06:00Z</time>
      </trkpt>
      <trkpt lat="44.5687" lon="3.07684">
        <ele>1457</ele>
        <time>2013-07-22T12:06:04Z</time>
      </trkpt>
      <trkpt lat="44.56865" lon="3.07686">
        <ele>1459</ele>
        <time>2013-07-22T12:06:08Z</time>
      </trkpt>
      <trkpt lat="44.56858" lon="3.07684">
        <ele>1459</ele>
        <time>2013-07-22T12:06:13Z</time>
      </trkpt>
      <trkpt lat="44.56853" lon="3.07685">
        <ele>1458</ele>
        <time>2013-07-22T12:06:18Z</time>
      </trkpt>
      <trkpt lat="44.56847" lon="3.07686">
        <ele>1457</ele>
        <time>2013-07-22T12:06:22Z</time>
      </trkpt>
      <trkpt lat="44.56841" lon="3.07689">
        <ele>1458</ele>
        <time>2013-07-22T12:06:26Z</time>
      </trkpt>
      <trkpt lat="44.56837" lon="3.07691">
        <ele>1458</ele>
        <time>2013-07-22T12:06:30Z</time>
      </trkpt>
      <trkpt lat="44.5683" lon="3.07694">
        <ele>1458</ele>
        <time>2013-07-22T12:06:34Z</time>
      </trkpt>
      <trkpt lat="44.56825" lon="3.07695">
        <ele>1459</ele>
        <time>2013-07-22T12:06:37Z</time>
      </trkpt>
      <trkpt lat="44.5682" lon="3.07696">
        <ele>1459</ele>
        <time>2013-07-22T12:06:41Z</time>
      </trkpt>
      <trkpt lat="44.56815" lon="3.07699">
        <ele>1460</ele>
        <time>2013-07-22T12:06:44Z</time>
      </trkpt>
      <trkpt lat="44.56811" lon="3.07703">
        <ele>1462</ele>
        <time>2013-07-22T12:06:49Z</time>
      </trkpt>
      <trkpt lat="44.56806" lon="3.07706">
        <ele>1463</ele>
        <time>2013-07-22T12:06:53Z</time>
      </trkpt>
      <trkpt lat="44.56804" lon="3.07707">
        <ele>1463</ele>
        <time>2013-07-22T12:07:27Z</time>
      </trkpt>
      <trkpt lat="44.56799" lon="3.07711">
        <ele>1466</ele>
        <time>2013-07-22T12:08:02Z</time>
      </trkpt>
      <trkpt lat="44.56795" lon="3.07717">
        <ele>1465</ele>
        <time>2013-07-22T12:08:10Z</time>
      </trkpt>
      <trkpt lat="44.56792" lon="3.07722">
        <ele>1465</ele>
        <time>2013-07-22T12:08:14Z</time>
      </trkpt>
      <trkpt lat="44.56788" lon="3.07727">
        <ele>1465</ele>
        <time>2013-07-22T12:08:19Z</time>
      </trkpt>
      <trkpt lat="44.56783" lon="3.07732">
        <ele>1464</ele>
        <time>2013-07-22T12:08:23Z</time>
      </trkpt>
      <trkpt lat="44.56779" lon="3.07737">
        <ele>1464</ele>
        <time>2013-07-22T12:08:28Z</time>
      </trkpt>
      <trkpt lat="44.56775" lon="3.0774">
        <ele>1464</ele>
        <time>2013-07-22T12:08:32Z</time>
      </trkpt>
      <trkpt lat="44.5677" lon="3.07745">
        <ele>1464</ele>
        <time>2013-07-22T12:08:38Z</time>
      </trkpt>
      <trkpt lat="44.56766" lon="3.07749">
        <ele>1464</ele>
        <time>2013-07-22T12:08:45Z</time>
      </trkpt>
      <trkpt lat="44.56762" lon="3.07751">
        <ele>1464</ele>
        <time>2013-07-22T12:08:49Z</time>
      </trkpt>
      <trkpt lat="44.56757" lon="3.07756">
        <ele>1465</ele>
        <time>2013-07-22T12:08:53Z</time>
      </trkpt>
      <trkpt lat="44.56753" lon="3.07759">
        <ele>1466</ele>
        <time>2013-07-22T12:08:58Z</time>
      </trkpt>
      <trkpt lat="44.56749" lon="3.07764">
        <ele>1467</ele>
        <time>2013-07-22T12:09:03Z</time>
      </trkpt>
      <trkpt lat="44.56745" lon="3.07768">
        <ele>1467</ele>
        <time>2013-07-22T12:09:07Z</time>
      </trkpt>
      <trkpt lat="44.56741" lon="3.07773">
        <ele>1467</ele>
        <time>2013-07-22T12:09:11Z</time>
      </trkpt>
      <trkpt lat="44.56737" lon="3.07777">
        <ele>1467</ele>
        <time>2013-07-22T12:09:16Z</time>
      </trkpt>
      <trkpt lat="44.56733" lon="3.07782">
        <ele>1467</ele>
        <time>2013-07-22T12:09:21Z</time>
      </trkpt>
      <trkpt lat="44.56728" lon="3.07787">
        <ele>1468</ele>
        <time>2013-07-22T12:09:25Z</time>
      </trkpt>
      <trkpt lat="44.56724" lon="3.07792">
        <ele>1469</ele>
        <time>2013-07-22T12:09:29Z</time>
      </trkpt>
      <trkpt lat="44.5672" lon="3.07796">
        <ele>1469</ele>
        <time>2013-07-22T12:09:32Z</time>
      </trkpt>
      <trkpt lat="44.56717" lon="3.07801">
        <ele>1470</ele>
        <time>2013-07-22T12:09:35Z</time>
      </trkpt>
      <trkpt lat="44.56714" lon="3.07807">
        <ele>1471</ele>
        <time>2013-07-22T12:09:39Z</time>
      </trkpt>
      <trkpt lat="44.5671" lon="3.07812">
        <ele>1471</ele>
        <time>2013-07-22T12:09:43Z</time>
      </trkpt>
      <trkpt lat="44.56707" lon="3.07817">
        <ele>1471</ele>
        <time>2013-07-22T12:09:47Z</time>
      </trkpt>
      <trkpt lat="44.56703" lon="3.07822">
        <ele>1472</ele>
        <time>2013-07-22T12:09:51Z</time>
      </trkpt>
      <trkpt lat="44.56699" lon="3.07826">
        <ele>1472</ele>
        <time>2013-07-22T12:09:55Z</time>
      </trkpt>
      <trkpt lat="44.56695" lon="3.0783">
        <ele>1473</ele>
        <time>2013-07-22T12:09:59Z</time>
      </trkpt>
      <trkpt lat="44.56692" lon="3.07834">
        <ele>1472</ele>
        <time>2013-07-22T12:10:02Z</time>
      </trkpt>
      <trkpt lat="44.56688" lon="3.07839">
        <ele>1473</ele>
        <time>2013-07-22T12:10:06Z</time>
      </trkpt>
      <trkpt lat="44.56685" lon="3.07844">
        <ele>1472</ele>
        <time>2013-07-22T12:10:10Z</time>
      </trkpt>
      <trkpt lat="44.56682" lon="3.07851">
        <ele>1472</ele>
        <time>2013-07-22T12:10:14Z</time>
      </trkpt>
      <trkpt lat="44.56678" lon="3.07857">
        <ele>1472</ele>
        <time>2013-07-22T12:10:18Z</time>
      </trkpt>
      <trkpt lat="44.56675" lon="3.07863">
        <ele>1472</ele>
        <time>2013-07-22T12:10:22Z</time>
      </trkpt>
      <trkpt lat="44.56671" lon="3.07869">
        <ele>1472</ele>
        <time>2013-07-22T12:10:26Z</time>
      </trkpt>
      <trkpt lat="44.56668" lon="3.07874">
        <ele>1472</ele>
        <time>2013-07-22T12:10:30Z</time>
      </trkpt>
      <trkpt lat="44.56664" lon="3.0788">
        <ele>1472</ele>
        <time>2013-07-22T12:10:34Z</time>
      </trkpt>
      <trkpt lat="44.56661" lon="3.07885">
        <ele>1472</ele>
        <time>2013-07-22T12:10:38Z</time>
      </trkpt>
      <trkpt lat="44.56658" lon="3.0789">
        <ele>1471</ele>
        <time>2013-07-22T12:10:42Z</time>
      </trkpt>
      <trkpt lat="44.56654" lon="3.07895">
        <ele>1471</ele>
        <time>2013-07-22T12:10:46Z</time>
      </trkpt>
      <trkpt lat="44.56652" lon="3.07901">
        <ele>1471</ele>
        <time>2013-07-22T12:10:50Z</time>
      </trkpt>
      <trkpt lat="44.56648" lon="3.07906">
        <ele>1472</ele>
        <time>2013-07-22T12:10:54Z</time>
      </trkpt>
      <trkpt lat="44.56644" lon="3.07911">
        <ele>1471</ele>
        <time>2013-07-22T12:10:58Z</time>
      </trkpt>
      <trkpt lat="44.5664" lon="3.07916">
        <ele>1471</ele>
        <time>2013-07-22T12:11:01Z</time>
      </trkpt>
      <trkpt lat="44.56637" lon="3.07922">
        <ele>1472</ele>
        <time>2013-07-22T12:11:05Z</time>
      </trkpt>
      <trkpt lat="44.56634" lon="3.07927">
        <ele>1472</ele>
        <time>2013-07-22T12:11:10Z</time>
      </trkpt>
      <trkpt lat="44.5663" lon="3.07933">
        <ele>1471</ele>
        <time>2013-07-22T12:11:15Z</time>
      </trkpt>
      <trkpt lat="44.56626" lon="3.07938">
        <ele>1471</ele>
        <time>2013-07-22T12:11:20Z</time>
      </trkpt>
      <trkpt lat="44.56623" lon="3.07942">
        <ele>1471</ele>
        <time>2013-07-22T12:11:24Z</time>
      </trkpt>
      <trkpt lat="44.56619" lon="3.07948">
        <ele>1470</ele>
        <time>2013-07-22T12:11:28Z</time>
      </trkpt>
      <trkpt lat="44.56616" lon="3.07953">
        <ele>1470</ele>
        <time>2013-07-22T12:11:32Z</time>
      </trkpt>
      <trkpt lat="44.56611" lon="3.07958">
        <ele>1470</ele>
        <time>2013-07-22T12:11:36Z</time>
      </trkpt>
      <trkpt lat="44.56607" lon="3.07962">
        <ele>1469</ele>
        <time>2013-07-22T12:11:40Z</time>
      </trkpt>
      <trkpt lat="44.56604" lon="3.07968">
        <ele>1469</ele>
        <time>2013-07-22T12:11:44Z</time>
      </trkpt>
      <trkpt lat="44.56601" lon="3.07975">
        <ele>1469</ele>
        <time>2013-07-22T12:11:48Z</time>
      </trkpt>
      <trkpt lat="44.56598" lon="3.07982">
        <ele>1469</ele>
        <time>2013-07-22T12:11:52Z</time>
      </trkpt>
      <trkpt lat="44.56595" lon="3.07986">
        <ele>1470</ele>
        <time>2013-07-22T12:11:57Z</time>
      </trkpt>
      <trkpt lat="44.56591" lon="3.07992">
        <ele>1470</ele>
        <time>2013-07-22T12:12:02Z</time>
      </trkpt>
      <trkpt lat="44.56586" lon="3.07996">
        <ele>1470</ele>
        <time>2013-07-22T12:12:08Z</time>
      </trkpt>
      <trkpt lat="44.56582" lon="3.08">
        <ele>1471</ele>
        <time>2013-07-22T12:12:15Z</time>
      </trkpt>
      <trkpt lat="44.56578" lon="3.08004">
        <ele>1469</ele>
        <time>2013-07-22T12:12:21Z</time>
      </trkpt>
      <trkpt lat="44.56576" lon="3.08006">
        <ele>1466</ele>
        <time>2013-07-22T12:14:32Z</time>
      </trkpt>
      <trkpt lat="44.56572" lon="3.08008">
        <ele>1465</ele>
        <time>2013-07-22T12:14:39Z</time>
      </trkpt>
      <trkpt lat="44.56568" lon="3.08012">
        <ele>1464</ele>
        <time>2013-07-22T12:14:47Z</time>
      </trkpt>
      <trkpt lat="44.56563" lon="3.08014">
        <ele>1464</ele>
        <time>2013-07-22T12:14:51Z</time>
      </trkpt>
      <trkpt lat="44.56558" lon="3.08017">
        <ele>1464</ele>
        <time>2013-07-22T12:14:54Z</time>
      </trkpt>
      <trkpt lat="44.56553" lon="3.08022">
        <ele>1465</ele>
        <time>2013-07-22T12:14:58Z</time>
      </trkpt>
      <trkpt lat="44.56548" lon="3.08024">
        <ele>1464</ele>
        <time>2013-07-22T12:15:02Z</time>
      </trkpt>
      <trkpt lat="44.56544" lon="3.08026">
        <ele>1464</ele>
        <time>2013-07-22T12:15:05Z</time>
      </trkpt>
      <trkpt lat="44.5654" lon="3.08029">
        <ele>1463</ele>
        <time>2013-07-22T12:15:08Z</time>
      </trkpt>
      <trkpt lat="44.56536" lon="3.08035">
        <ele>1462</ele>
        <time>2013-07-22T12:15:12Z</time>
      </trkpt>
      <trkpt lat="44.56531" lon="3.08038">
        <ele>1461</ele>
        <time>2013-07-22T12:15:16Z</time>
      </trkpt>
      <trkpt lat="44.56526" lon="3.08041">
        <ele>1460</ele>
        <time>2013-07-22T12:15:19Z</time>
      </trkpt>
      <trkpt lat="44.5652" lon="3.08045">
        <ele>1459</ele>
        <time>2013-07-22T12:15:23Z</time>
      </trkpt>
      <trkpt lat="44.56516" lon="3.08047">
        <ele>1458</ele>
        <time>2013-07-22T12:15:27Z</time>
      </trkpt>
      <trkpt lat="44.5651" lon="3.0805">
        <ele>1458</ele>
        <time>2013-07-22T12:15:31Z</time>
      </trkpt>
      <trkpt lat="44.56506" lon="3.08053">
        <ele>1458</ele>
        <time>2013-07-22T12:15:35Z</time>
      </trkpt>
      <trkpt lat="44.565" lon="3.08055">
        <ele>1458</ele>
        <time>2013-07-22T12:15:39Z</time>
      </trkpt>
      <trkpt lat="44.56495" lon="3.08058">
        <ele>1458</ele>
        <time>2013-07-22T12:15:43Z</time>
      </trkpt>
      <trkpt lat="44.5649" lon="3.08063">
        <ele>1458</ele>
        <time>2013-07-22T12:15:47Z</time>
      </trkpt>
      <trkpt lat="44.56486" lon="3.08065">
        <ele>1458</ele>
        <time>2013-07-22T12:15:50Z</time>
      </trkpt>
      <trkpt lat="44.56481" lon="3.08069">
        <ele>1457</ele>
        <time>2013-07-22T12:15:53Z</time>
      </trkpt>
      <trkpt lat="44.56477" lon="3.0807">
        <ele>1456</ele>
        <time>2013-07-22T12:15:56Z</time>
      </trkpt>
      <trkpt lat="44.56472" lon="3.08073">
        <ele>1455</ele>
        <time>2013-07-22T12:16:00Z</time>
      </trkpt>
      <trkpt lat="44.56467" lon="3.08075">
        <ele>1455</ele>
        <time>2013-07-22T12:16:04Z</time>
      </trkpt>
      <trkpt lat="44.56463" lon="3.08077">
        <ele>1455</ele>
        <time>2013-07-22T12:16:07Z</time>
      </trkpt>
      <trkpt lat="44.56457" lon="3.0808">
        <ele>1454</ele>
        <time>2013-07-22T12:16:11Z</time>
      </trkpt>
      <trkpt lat="44.56452" lon="3.08084">
        <ele>1454</ele>
        <time>2013-07-22T12:16:15Z</time>
      </trkpt>
      <trkpt lat="44.56449" lon="3.08089">
        <ele>1454</ele>
        <time>2013-07-22T12:16:21Z</time>
      </trkpt>
      <trkpt lat="44.5645" lon="3.08097">
        <ele>1455</ele>
        <time>2013-07-22T12:16:39Z</time>
      </trkpt>
      <trkpt lat="44.56448" lon="3.08099">
        <ele>1456</ele>
        <time>2013-07-22T12:16:45Z</time>
      </trkpt>
      <trkpt lat="44.56446" lon="3.08108">
        <ele>1455</ele>
        <time>2013-07-22T12:17:25Z</time>
      </trkpt>
      <trkpt lat="44.56447" lon="3.08115">
        <ele>1454</ele>
        <time>2013-07-22T12:17:29Z</time>
      </trkpt>
      <trkpt lat="44.5645" lon="3.08121">
        <ele>1453</ele>
        <time>2013-07-22T12:17:34Z</time>
      </trkpt>
      <trkpt lat="44.56452" lon="3.08127">
        <ele>1453</ele>
        <time>2013-07-22T12:17:37Z</time>
      </trkpt>
      <trkpt lat="44.56455" lon="3.08132">
        <ele>1453</ele>
        <time>2013-07-22T12:17:42Z</time>
      </trkpt>
      <trkpt lat="44.56459" lon="3.08138">
        <ele>1452</ele>
        <time>2013-07-22T12:17:47Z</time>
      </trkpt>
      <trkpt lat="44.56463" lon="3.08143">
        <ele>1452</ele>
        <time>2013-07-22T12:17:51Z</time>
      </trkpt>
      <trkpt lat="44.56468" lon="3.08143">
        <ele>1452</ele>
        <time>2013-07-22T12:17:55Z</time>
      </trkpt>
      <trkpt lat="44.56473" lon="3.0814">
        <ele>1452</ele>
        <time>2013-07-22T12:18:00Z</time>
      </trkpt>
      <trkpt lat="44.56482" lon="3.08137">
        <ele>1451</ele>
        <time>2013-07-22T12:18:07Z</time>
      </trkpt>
      <trkpt lat="44.56487" lon="3.08136">
        <ele>1452</ele>
        <time>2013-07-22T12:18:10Z</time>
      </trkpt>
      <trkpt lat="44.56497" lon="3.08134">
        <ele>1453</ele>
        <time>2013-07-22T12:18:17Z</time>
      </trkpt>
      <trkpt lat="44.56507" lon="3.08136">
        <ele>1453</ele>
        <time>2013-07-22T12:18:26Z</time>
      </trkpt>
      <trkpt lat="44.56511" lon="3.0814">
        <ele>1454</ele>
        <time>2013-07-22T12:18:30Z</time>
      </trkpt>
      <trkpt lat="44.56518" lon="3.08143">
        <ele>1454</ele>
        <time>2013-07-22T12:18:35Z</time>
      </trkpt>
      <trkpt lat="44.56524" lon="3.08143">
        <ele>1455</ele>
        <time>2013-07-22T12:18:38Z</time>
      </trkpt>
      <trkpt lat="44.56529" lon="3.08145">
        <ele>1456</ele>
        <time>2013-07-22T12:18:42Z</time>
      </trkpt>
      <trkpt lat="44.56538" lon="3.08147">
        <ele>1459</ele>
        <time>2013-07-22T12:18:48Z</time>
      </trkpt>
      <trkpt lat="44.56548" lon="3.08148">
        <ele>1460</ele>
        <time>2013-07-22T12:18:55Z</time>
      </trkpt>
      <trkpt lat="44.56553" lon="3.08149">
        <ele>1461</ele>
        <time>2013-07-22T12:19:00Z</time>
      </trkpt>
      <trkpt lat="44.56559" lon="3.08151">
        <ele>1462</ele>
        <time>2013-07-22T12:19:04Z</time>
      </trkpt>
      <trkpt lat="44.56564" lon="3.08156">
        <ele>1462</ele>
        <time>2013-07-22T12:19:07Z</time>
      </trkpt>
      <trkpt lat="44.56574" lon="3.0816">
        <ele>1462</ele>
        <time>2013-07-22T12:19:11Z</time>
      </trkpt>
      <trkpt lat="44.5658" lon="3.08162">
        <ele>1462</ele>
        <time>2013-07-22T12:19:13Z</time>
      </trkpt>
      <trkpt lat="44.56587" lon="3.08164">
        <ele>1462</ele>
        <time>2013-07-22T12:19:15Z</time>
      </trkpt>
      <trkpt lat="44.56592" lon="3.08166">
        <ele>1464</ele>
        <time>2013-07-22T12:19:17Z</time>
      </trkpt>
      <trkpt lat="44.56596" lon="3.08167">
        <ele>1465</ele>
        <time>2013-07-22T12:19:20Z</time>
      </trkpt>
      <trkpt lat="44.56601" lon="3.08167">
        <ele>1467</ele>
        <time>2013-07-22T12:19:23Z</time>
      </trkpt>
      <trkpt lat="44.56611" lon="3.08164">
        <ele>1469</ele>
        <time>2013-07-22T12:19:31Z</time>
      </trkpt>
      <trkpt lat="44.56621" lon="3.08163">
        <ele>1471</ele>
        <time>2013-07-22T12:19:39Z</time>
      </trkpt>
      <trkpt lat="44.56627" lon="3.0817">
        <ele>1472</ele>
        <time>2013-07-22T12:21:00Z</time>
      </trkpt>
      <trkpt lat="44.56624" lon="3.08176">
        <ele>1473</ele>
        <time>2013-07-22T12:21:04Z</time>
      </trkpt>
      <trkpt lat="44.56621" lon="3.08182">
        <ele>1474</ele>
        <time>2013-07-22T12:21:08Z</time>
      </trkpt>
      <trkpt lat="44.56616" lon="3.08187">
        <ele>1474</ele>
        <time>2013-07-22T12:21:12Z</time>
      </trkpt>
      <trkpt lat="44.56613" lon="3.08193">
        <ele>1475</ele>
        <time>2013-07-22T12:21:16Z</time>
      </trkpt>
      <trkpt lat="44.56611" lon="3.08199">
        <ele>1476</ele>
        <time>2013-07-22T12:21:19Z</time>
      </trkpt>
      <trkpt lat="44.56609" lon="3.08205">
        <ele>1475</ele>
        <time>2013-07-22T12:21:22Z</time>
      </trkpt>
      <trkpt lat="44.56606" lon="3.08212">
        <ele>1475</ele>
        <time>2013-07-22T12:21:26Z</time>
      </trkpt>
      <trkpt lat="44.56604" lon="3.08217">
        <ele>1475</ele>
        <time>2013-07-22T12:21:29Z</time>
      </trkpt>
      <trkpt lat="44.56601" lon="3.08222">
        <ele>1476</ele>
        <time>2013-07-22T12:21:32Z</time>
      </trkpt>
      <trkpt lat="44.56598" lon="3.08227">
        <ele>1477</ele>
        <time>2013-07-22T12:21:35Z</time>
      </trkpt>
      <trkpt lat="44.56595" lon="3.08233">
        <ele>1477</ele>
        <time>2013-07-22T12:21:38Z</time>
      </trkpt>
      <trkpt lat="44.56593" lon="3.08241">
        <ele>1476</ele>
        <time>2013-07-22T12:21:41Z</time>
      </trkpt>
      <trkpt lat="44.5659" lon="3.08248">
        <ele>1475</ele>
        <time>2013-07-22T12:21:44Z</time>
      </trkpt>
      <trkpt lat="44.56587" lon="3.08253">
        <ele>1474</ele>
        <time>2013-07-22T12:21:47Z</time>
      </trkpt>
      <trkpt lat="44.56585" lon="3.08259">
        <ele>1474</ele>
        <time>2013-07-22T12:21:50Z</time>
      </trkpt>
      <trkpt lat="44.56581" lon="3.08264">
        <ele>1474</ele>
        <time>2013-07-22T12:21:53Z</time>
      </trkpt>
      <trkpt lat="44.56579" lon="3.0827">
        <ele>1473</ele>
        <time>2013-07-22T12:21:56Z</time>
      </trkpt>
      <trkpt lat="44.56576" lon="3.08275">
        <ele>1473</ele>
        <time>2013-07-22T12:21:59Z</time>
      </trkpt>
      <trkpt lat="44.56573" lon="3.0828">
        <ele>1473</ele>
        <time>2013-07-22T12:22:02Z</time>
      </trkpt>
      <trkpt lat="44.56569" lon="3.08285">
        <ele>1473</ele>
        <time>2013-07-22T12:22:06Z</time>
      </trkpt>
      <trkpt lat="44.56563" lon="3.08292">
        <ele>1472</ele>
        <time>2013-07-22T12:22:11Z</time>
      </trkpt>
      <trkpt lat="44.56559" lon="3.08295">
        <ele>1471</ele>
        <time>2013-07-22T12:22:14Z</time>
      </trkpt>
      <trkpt lat="44.56555" lon="3.08298">
        <ele>1471</ele>
        <time>2013-07-22T12:22:17Z</time>
      </trkpt>
      <trkpt lat="44.56551" lon="3.08301">
        <ele>1470</ele>
        <time>2013-07-22T12:22:21Z</time>
      </trkpt>
      <trkpt lat="44.56549" lon="3.08306">
        <ele>1469</ele>
        <time>2013-07-22T12:22:25Z</time>
      </trkpt>
      <trkpt lat="44.56545" lon="3.08312">
        <ele>1468</ele>
        <time>2013-07-22T12:22:29Z</time>
      </trkpt>
      <trkpt lat="44.56542" lon="3.08317">
        <ele>1467</ele>
        <time>2013-07-22T12:22:32Z</time>
      </trkpt>
      <trkpt lat="44.56535" lon="3.08324">
        <ele>1465</ele>
        <time>2013-07-22T12:22:38Z</time>
      </trkpt>
      <trkpt lat="44.56532" lon="3.08329">
        <ele>1465</ele>
        <time>2013-07-22T12:22:43Z</time>
      </trkpt>
      <trkpt lat="44.56531" lon="3.08334">
        <ele>1464</ele>
        <time>2013-07-22T12:23:11Z</time>
      </trkpt>
      <trkpt lat="44.56527" lon="3.08339">
        <ele>1463</ele>
        <time>2013-07-22T12:23:19Z</time>
      </trkpt>
      <trkpt lat="44.56524" lon="3.08344">
        <ele>1462</ele>
        <time>2013-07-22T12:23:22Z</time>
      </trkpt>
      <trkpt lat="44.56521" lon="3.08349">
        <ele>1461</ele>
        <time>2013-07-22T12:23:26Z</time>
      </trkpt>
      <trkpt lat="44.56516" lon="3.08352">
        <ele>1460</ele>
        <time>2013-07-22T12:23:41Z</time>
      </trkpt>
      <trkpt lat="44.56512" lon="3.08358">
        <ele>1458</ele>
        <time>2013-07-22T12:23:44Z</time>
      </trkpt>
      <trkpt lat="44.56508" lon="3.08359">
        <ele>1458</ele>
        <time>2013-07-22T12:23:47Z</time>
      </trkpt>
      <trkpt lat="44.56502" lon="3.08356">
        <ele>1457</ele>
        <time>2013-07-22T12:23:52Z</time>
      </trkpt>
      <trkpt lat="44.56498" lon="3.08352">
        <ele>1456</ele>
        <time>2013-07-22T12:23:56Z</time>
      </trkpt>
      <trkpt lat="44.56494" lon="3.08347">
        <ele>1456</ele>
        <time>2013-07-22T12:24:00Z</time>
      </trkpt>
      <trkpt lat="44.5649" lon="3.08344">
        <ele>1455</ele>
        <time>2013-07-22T12:24:10Z</time>
      </trkpt>
      <trkpt lat="44.56487" lon="3.0834">
        <ele>1455</ele>
        <time>2013-07-22T12:25:10Z</time>
      </trkpt>
      <trkpt lat="44.56487" lon="3.08336">
        <ele>1455</ele>
        <time>2013-07-22T12:25:17Z</time>
      </trkpt>
      <trkpt lat="44.56487" lon="3.08328">
        <ele>1454</ele>
        <time>2013-07-22T12:25:40Z</time>
      </trkpt>
      <trkpt lat="44.56485" lon="3.08322">
        <ele>1453</ele>
        <time>2013-07-22T12:25:43Z</time>
      </trkpt>
      <trkpt lat="44.56482" lon="3.08315">
        <ele>1453</ele>
        <time>2013-07-22T12:25:47Z</time>
      </trkpt>
      <trkpt lat="44.5648" lon="3.08308">
        <ele>1453</ele>
        <time>2013-07-22T12:25:51Z</time>
      </trkpt>
      <trkpt lat="44.56479" lon="3.08301">
        <ele>1454</ele>
        <time>2013-07-22T12:25:55Z</time>
      </trkpt>
      <trkpt lat="44.56478" lon="3.08295">
        <ele>1454</ele>
        <time>2013-07-22T12:25:58Z</time>
      </trkpt>
      <trkpt lat="44.56475" lon="3.08288">
        <ele>1454</ele>
        <time>2013-07-22T12:26:02Z</time>
      </trkpt>
      <trkpt lat="44.56473" lon="3.08281">
        <ele>1454</ele>
        <time>2013-07-22T12:26:06Z</time>
      </trkpt>
      <trkpt lat="44.56469" lon="3.08275">
        <ele>1454</ele>
        <time>2013-07-22T12:26:09Z</time>
      </trkpt>
      <trkpt lat="44.56466" lon="3.08269">
        <ele>1455</ele>
        <time>2013-07-22T12:26:13Z</time>
      </trkpt>
      <trkpt lat="44.56463" lon="3.08263">
        <ele>1455</ele>
        <time>2013-07-22T12:26:16Z</time>
      </trkpt>
      <trkpt lat="44.5646" lon="3.08257">
        <ele>1455</ele>
        <time>2013-07-22T12:26:21Z</time>
      </trkpt>
      <trkpt lat="44.56458" lon="3.0825">
        <ele>1456</ele>
        <time>2013-07-22T12:26:25Z</time>
      </trkpt>
      <trkpt lat="44.56456" lon="3.08243">
        <ele>1456</ele>
        <time>2013-07-22T12:26:29Z</time>
      </trkpt>
      <trkpt lat="44.56454" lon="3.08236">
        <ele>1456</ele>
        <time>2013-07-22T12:26:33Z</time>
      </trkpt>
      <trkpt lat="44.5645" lon="3.08229">
        <ele>1456</ele>
        <time>2013-07-22T12:26:37Z</time>
      </trkpt>
      <trkpt lat="44.56447" lon="3.08224">
        <ele>1456</ele>
        <time>2013-07-22T12:26:41Z</time>
      </trkpt>
      <trkpt lat="44.56444" lon="3.08216">
        <ele>1456</ele>
        <time>2013-07-22T12:26:45Z</time>
      </trkpt>
      <trkpt lat="44.56442" lon="3.08209">
        <ele>1457</ele>
        <time>2013-07-22T12:26:49Z</time>
      </trkpt>
      <trkpt lat="44.5644" lon="3.08202">
        <ele>1456</ele>
        <time>2013-07-22T12:26:53Z</time>
      </trkpt>
      <trkpt lat="44.56438" lon="3.08195">
        <ele>1455</ele>
        <time>2013-07-22T12:26:57Z</time>
      </trkpt>
      <trkpt lat="44.56436" lon="3.08188">
        <ele>1454</ele>
        <time>2013-07-22T12:27:00Z</time>
      </trkpt>
      <trkpt lat="44.56434" lon="3.08181">
        <ele>1454</ele>
        <time>2013-07-22T12:27:04Z</time>
      </trkpt>
      <trkpt lat="44.56433" lon="3.08174">
        <ele>1453</ele>
        <time>2013-07-22T12:27:07Z</time>
      </trkpt>
      <trkpt lat="44.56433" lon="3.08167">
        <ele>1453</ele>
        <time>2013-07-22T12:27:11Z</time>
      </trkpt>
      <trkpt lat="44.56432" lon="3.08161">
        <ele>1453</ele>
        <time>2013-07-22T12:27:14Z</time>
      </trkpt>
      <trkpt lat="44.56433" lon="3.08154">
        <ele>1454</ele>
        <time>2013-07-22T12:27:18Z</time>
      </trkpt>
      <trkpt lat="44.56435" lon="3.08148">
        <ele>1454</ele>
        <time>2013-07-22T12:27:22Z</time>
      </trkpt>
      <trkpt lat="44.56438" lon="3.08141">
        <ele>1453</ele>
        <time>2013-07-22T12:27:26Z</time>
      </trkpt>
      <trkpt lat="44.56439" lon="3.08133">
        <ele>1453</ele>
        <time>2013-07-22T12:27:30Z</time>
      </trkpt>
      <trkpt lat="44.56441" lon="3.08126">
        <ele>1453</ele>
        <time>2013-07-22T12:27:34Z</time>
      </trkpt>
      <trkpt lat="44.56444" lon="3.08119">
        <ele>1453</ele>
        <time>2013-07-22T12:27:37Z</time>
      </trkpt>
      <trkpt lat="44.56446" lon="3.08113">
        <ele>1452</ele>
        <time>2013-07-22T12:27:41Z</time>
      </trkpt>
      <trkpt lat="44.56446" lon="3.08105">
        <ele>1452</ele>
        <time>2013-07-22T12:27:45Z</time>
      </trkpt>
      <trkpt lat="44.56448" lon="3.08098">
        <ele>1452</ele>
        <time>2013-07-22T12:27:50Z</time>
      </trkpt>
      <trkpt lat="44.56447" lon="3.08091">
        <ele>1456</ele>
        <time>2013-07-22T12:28:29Z</time>
      </trkpt>
      <trkpt lat="44.56447" lon="3.08086">
        <ele>1454</ele>
        <time>2013-07-22T12:28:52Z</time>
      </trkpt>
      <trkpt lat="44.56448" lon="3.08083">
        <ele>1454</ele>
        <time>2013-07-22T12:31:30Z</time>
      </trkpt>
      <trkpt lat="44.56452" lon="3.08078">
        <ele>1453</ele>
        <time>2013-07-22T12:31:38Z</time>
      </trkpt>
      <trkpt lat="44.56456" lon="3.08073">
        <ele>1453</ele>
        <time>2013-07-22T12:31:43Z</time>
      </trkpt>
      <trkpt lat="44.56459" lon="3.08067">
        <ele>1454</ele>
        <time>2013-07-22T12:31:46Z</time>
      </trkpt>
      <trkpt lat="44.56461" lon="3.08061">
        <ele>1454</ele>
        <time>2013-07-22T12:31:49Z</time>
      </trkpt>
      <trkpt lat="44.56463" lon="3.08053">
        <ele>1454</ele>
        <time>2013-07-22T12:31:53Z</time>
      </trkpt>
      <trkpt lat="44.56465" lon="3.08046">
        <ele>1454</ele>
        <time>2013-07-22T12:31:57Z</time>
      </trkpt>
      <trkpt lat="44.56466" lon="3.08038">
        <ele>1454</ele>
        <time>2013-07-22T12:32:00Z</time>
      </trkpt>
      <trkpt lat="44.56468" lon="3.08031">
        <ele>1453</ele>
        <time>2013-07-22T12:32:03Z</time>
      </trkpt>
      <trkpt lat="44.56471" lon="3.08018">
        <ele>1452</ele>
        <time>2013-07-22T12:32:10Z</time>
      </trkpt>
      <trkpt lat="44.56473" lon="3.08012">
        <ele>1451</ele>
        <time>2013-07-22T12:32:14Z</time>
      </trkpt>
      <trkpt lat="44.56478" lon="3.08001">
        <ele>1450</ele>
        <time>2013-07-22T12:32:22Z</time>
      </trkpt>
      <trkpt lat="44.56481" lon="3.07992">
        <ele>1450</ele>
        <time>2013-07-22T12:32:27Z</time>
      </trkpt>
      <trkpt lat="44.56483" lon="3.07985">
        <ele>1450</ele>
        <time>2013-07-22T12:32:30Z</time>
      </trkpt>
      <trkpt lat="44.56485" lon="3.07975">
        <ele>1451</ele>
        <time>2013-07-22T12:32:35Z</time>
      </trkpt>
      <trkpt lat="44.56486" lon="3.07968">
        <ele>1450</ele>
        <time>2013-07-22T12:32:38Z</time>
      </trkpt>
      <trkpt lat="44.56488" lon="3.07954">
        <ele>1450</ele>
        <time>2013-07-22T12:32:42Z</time>
      </trkpt>
      <trkpt lat="44.56492" lon="3.0794">
        <ele>1449</ele>
        <time>2013-07-22T12:32:45Z</time>
      </trkpt>
      <trkpt lat="44.56497" lon="3.07925">
        <ele>1448</ele>
        <time>2013-07-22T12:32:48Z</time>
      </trkpt>
      <trkpt lat="44.565" lon="3.07919">
        <ele>1448</ele>
        <time>2013-07-22T12:32:49Z</time>
      </trkpt>
      <trkpt lat="44.56502" lon="3.07913">
        <ele>1448</ele>
        <time>2013-07-22T12:32:50Z</time>
      </trkpt>
      <trkpt lat="44.56507" lon="3.07899">
        <ele>1447</ele>
        <time>2013-07-22T12:32:52Z</time>
      </trkpt>
      <trkpt lat="44.56511" lon="3.07885">
        <ele>1447</ele>
        <time>2013-07-22T12:32:54Z</time>
      </trkpt>
      <trkpt lat="44.56515" lon="3.0787">
        <ele>1447</ele>
        <time>2013-07-22T12:32:56Z</time>
      </trkpt>
      <trkpt lat="44.56519" lon="3.07856">
        <ele>1448</ele>
        <time>2013-07-22T12:32:58Z</time>
      </trkpt>
      <trkpt lat="44.56522" lon="3.07842">
        <ele>1448</ele>
        <time>2013-07-22T12:33:00Z</time>
      </trkpt>
      <trkpt lat="44.56526" lon="3.07828">
        <ele>1448</ele>
        <time>2013-07-22T12:33:02Z</time>
      </trkpt>
      <trkpt lat="44.5653" lon="3.07814">
        <ele>1448</ele>
        <time>2013-07-22T12:33:04Z</time>
      </trkpt>
      <trkpt lat="44.56535" lon="3.07799">
        <ele>1449</ele>
        <time>2013-07-22T12:33:06Z</time>
      </trkpt>
      <trkpt lat="44.56539" lon="3.07783">
        <ele>1450</ele>
        <time>2013-07-22T12:33:08Z</time>
      </trkpt>
      <trkpt lat="44.56543" lon="3.07767">
        <ele>1450</ele>
        <time>2013-07-22T12:33:10Z</time>
      </trkpt>
      <trkpt lat="44.56544" lon="3.07747">
        <ele>1450</ele>
        <time>2013-07-22T12:33:12Z</time>
      </trkpt>
      <trkpt lat="44.56545" lon="3.07726">
        <ele>1450</ele>
        <time>2013-07-22T12:33:14Z</time>
      </trkpt>
      <trkpt lat="44.56546" lon="3.07706">
        <ele>1450</ele>
        <time>2013-07-22T12:33:16Z</time>
      </trkpt>
      <trkpt lat="44.56552" lon="3.07687">
        <ele>1450</ele>
        <time>2013-07-22T12:33:18Z</time>
      </trkpt>
      <trkpt lat="44.56559" lon="3.07668">
        <ele>1450</ele>
        <time>2013-07-22T12:33:20Z</time>
      </trkpt>
      <trkpt lat="44.56566" lon="3.07655">
        <ele>1451</ele>
        <time>2013-07-22T12:33:22Z</time>
      </trkpt>
      <trkpt lat="44.56573" lon="3.07643">
        <ele>1451</ele>
        <time>2013-07-22T12:33:24Z</time>
      </trkpt>
      <trkpt lat="44.56578" lon="3.07632">
        <ele>1451</ele>
        <time>2013-07-22T12:33:26Z</time>
      </trkpt>
      <trkpt lat="44.56584" lon="3.07619">
        <ele>1451</ele>
        <time>2013-07-22T12:33:28Z</time>
      </trkpt>
      <trkpt lat="44.56589" lon="3.07606">
        <ele>1452</ele>
        <time>2013-07-22T12:33:30Z</time>
      </trkpt>
      <trkpt lat="44.56592" lon="3.07594">
        <ele>1452</ele>
        <time>2013-07-22T12:33:32Z</time>
      </trkpt>
      <trkpt lat="44.56596" lon="3.07581">
        <ele>1453</ele>
        <time>2013-07-22T12:33:35Z</time>
      </trkpt>
      <trkpt lat="44.566" lon="3.07567">
        <ele>1453</ele>
        <time>2013-07-22T12:33:40Z</time>
      </trkpt>
      <trkpt lat="44.56603" lon="3.07558">
        <ele>1456</ele>
        <time>2013-07-22T12:33:45Z</time>
      </trkpt>
      <trkpt lat="44.5661" lon="3.07548">
        <ele>1459</ele>
        <time>2013-07-22T12:33:52Z</time>
      </trkpt>
      <trkpt lat="44.56615" lon="3.07538">
        <ele>1459</ele>
        <time>2013-07-22T12:33:58Z</time>
      </trkpt>
      <trkpt lat="44.56621" lon="3.07528">
        <ele>1459</ele>
        <time>2013-07-22T12:34:04Z</time>
      </trkpt>
      <trkpt lat="44.56628" lon="3.07517">
        <ele>1460</ele>
        <time>2013-07-22T12:34:10Z</time>
      </trkpt>
      <trkpt lat="44.56635" lon="3.07506">
        <ele>1460</ele>
        <time>2013-07-22T12:34:16Z</time>
      </trkpt>
      <trkpt lat="44.56642" lon="3.07494">
        <ele>1459</ele>
        <time>2013-07-22T12:34:22Z</time>
      </trkpt>
      <trkpt lat="44.56645" lon="3.07482">
        <ele>1459</ele>
        <time>2013-07-22T12:34:29Z</time>
      </trkpt>
      <trkpt lat="44.56651" lon="3.07473">
        <ele>1458</ele>
        <time>2013-07-22T12:34:35Z</time>
      </trkpt>
      <trkpt lat="44.56657" lon="3.07463">
        <ele>1457</ele>
        <time>2013-07-22T12:34:40Z</time>
      </trkpt>
      <trkpt lat="44.56661" lon="3.07457">
        <ele>1456</ele>
        <time>2013-07-22T12:34:43Z</time>
      </trkpt>
      <trkpt lat="44.56665" lon="3.07451">
        <ele>1455</ele>
        <time>2013-07-22T12:34:46Z</time>
      </trkpt>
      <trkpt lat="44.56668" lon="3.07446">
        <ele>1455</ele>
        <time>2013-07-22T12:34:49Z</time>
      </trkpt>
      <trkpt lat="44.56673" lon="3.07433">
        <ele>1454</ele>
        <time>2013-07-22T12:34:56Z</time>
      </trkpt>
      <trkpt lat="44.56679" lon="3.07421">
        <ele>1454</ele>
        <time>2013-07-22T12:35:02Z</time>
      </trkpt>
      <trkpt lat="44.56686" lon="3.07412">
        <ele>1454</ele>
        <time>2013-07-22T12:35:08Z</time>
      </trkpt>
      <trkpt lat="44.56692" lon="3.07403">
        <ele>1454</ele>
        <time>2013-07-22T12:35:14Z</time>
      </trkpt>
      <trkpt lat="44.56697" lon="3.07392">
        <ele>1454</ele>
        <time>2013-07-22T12:35:20Z</time>
      </trkpt>
      <trkpt lat="44.56702" lon="3.0738">
        <ele>1453</ele>
        <time>2013-07-22T12:35:27Z</time>
      </trkpt>
      <trkpt lat="44.56705" lon="3.07367">
        <ele>1453</ele>
        <time>2013-07-22T12:35:33Z</time>
      </trkpt>
      <trkpt lat="44.56704" lon="3.07356">
        <ele>1452</ele>
        <time>2013-07-22T12:35:37Z</time>
      </trkpt>
      <trkpt lat="44.56703" lon="3.07349">
        <ele>1452</ele>
        <time>2013-07-22T12:35:40Z</time>
      </trkpt>
      <trkpt lat="44.56704" lon="3.07343">
        <ele>1453</ele>
        <time>2013-07-22T12:35:43Z</time>
      </trkpt>
      <trkpt lat="44.56706" lon="3.07336">
        <ele>1453</ele>
        <time>2013-07-22T12:35:46Z</time>
      </trkpt>
      <trkpt lat="44.5671" lon="3.07324">
        <ele>1453</ele>
        <time>2013-07-22T12:35:52Z</time>
      </trkpt>
      <trkpt lat="44.56711" lon="3.07316">
        <ele>1452</ele>
        <time>2013-07-22T12:35:55Z</time>
      </trkpt>
      <trkpt lat="44.56714" lon="3.07309">
        <ele>1451</ele>
        <time>2013-07-22T12:35:59Z</time>
      </trkpt>
      <trkpt lat="44.5672" lon="3.07298">
        <ele>1452</ele>
        <time>2013-07-22T12:36:07Z</time>
      </trkpt>
      <trkpt lat="44.56727" lon="3.07287">
        <ele>1452</ele>
        <time>2013-07-22T12:36:12Z</time>
      </trkpt>
      <trkpt lat="44.56733" lon="3.07277">
        <ele>1452</ele>
        <time>2013-07-22T12:36:15Z</time>
      </trkpt>
      <trkpt lat="44.56742" lon="3.07263">
        <ele>1452</ele>
        <time>2013-07-22T12:36:18Z</time>
      </trkpt>
      <trkpt lat="44.5675" lon="3.07252">
        <ele>1451</ele>
        <time>2013-07-22T12:36:20Z</time>
      </trkpt>
      <trkpt lat="44.56758" lon="3.07245">
        <ele>1450</ele>
        <time>2013-07-22T12:36:22Z</time>
      </trkpt>
      <trkpt lat="44.56766" lon="3.07236">
        <ele>1449</ele>
        <time>2013-07-22T12:36:24Z</time>
      </trkpt>
      <trkpt lat="44.56774" lon="3.07229">
        <ele>1450</ele>
        <time>2013-07-22T12:36:26Z</time>
      </trkpt>
      <trkpt lat="44.56781" lon="3.07221">
        <ele>1449</ele>
        <time>2013-07-22T12:36:28Z</time>
      </trkpt>
      <trkpt lat="44.56792" lon="3.07212">
        <ele>1448</ele>
        <time>2013-07-22T12:36:31Z</time>
      </trkpt>
      <trkpt lat="44.56802" lon="3.07203">
        <ele>1448</ele>
        <time>2013-07-22T12:36:34Z</time>
      </trkpt>
      <trkpt lat="44.56808" lon="3.07194">
        <ele>1450</ele>
        <time>2013-07-22T12:36:40Z</time>
      </trkpt>
      <trkpt lat="44.56815" lon="3.07183">
        <ele>1451</ele>
        <time>2013-07-22T12:36:46Z</time>
      </trkpt>
      <trkpt lat="44.56822" lon="3.07173">
        <ele>1451</ele>
        <time>2013-07-22T12:36:52Z</time>
      </trkpt>
      <trkpt lat="44.56829" lon="3.07162">
        <ele>1452</ele>
        <time>2013-07-22T12:36:59Z</time>
      </trkpt>
      <trkpt lat="44.56837" lon="3.07153">
        <ele>1452</ele>
        <time>2013-07-22T12:37:06Z</time>
      </trkpt>
      <trkpt lat="44.56845" lon="3.07147">
        <ele>1451</ele>
        <time>2013-07-22T12:37:13Z</time>
      </trkpt>
      <trkpt lat="44.56855" lon="3.07145">
        <ele>1448</ele>
        <time>2013-07-22T12:37:19Z</time>
      </trkpt>
      <trkpt lat="44.56864" lon="3.07142">
        <ele>1448</ele>
        <time>2013-07-22T12:37:25Z</time>
      </trkpt>
      <trkpt lat="44.56874" lon="3.07138">
        <ele>1449</ele>
        <time>2013-07-22T12:37:32Z</time>
      </trkpt>
      <trkpt lat="44.56884" lon="3.07132">
        <ele>1448</ele>
        <time>2013-07-22T12:37:40Z</time>
      </trkpt>
      <trkpt lat="44.56895" lon="3.07121">
        <ele>1448</ele>
        <time>2013-07-22T12:38:03Z</time>
      </trkpt>
      <trkpt lat="44.56898" lon="3.0712">
        <ele>1450</ele>
        <time>2013-07-22T12:38:36Z</time>
      </trkpt>
      <trkpt lat="44.56902" lon="3.07117">
        <ele>1451</ele>
        <time>2013-07-22T12:38:42Z</time>
      </trkpt>
      <trkpt lat="44.56906" lon="3.07113">
        <ele>1451</ele>
        <time>2013-07-22T12:38:45Z</time>
      </trkpt>
      <trkpt lat="44.56914" lon="3.07104">
        <ele>1450</ele>
        <time>2013-07-22T12:38:52Z</time>
      </trkpt>
      <trkpt lat="44.56921" lon="3.07098">
        <ele>1449</ele>
        <time>2013-07-22T12:38:58Z</time>
      </trkpt>
      <trkpt lat="44.5693" lon="3.07094">
        <ele>1449</ele>
        <time>2013-07-22T12:39:05Z</time>
      </trkpt>
      <trkpt lat="44.5694" lon="3.07088">
        <ele>1448</ele>
        <time>2013-07-22T12:39:21Z</time>
      </trkpt>
      <trkpt lat="44.5695" lon="3.07083">
        <ele>1447</ele>
        <time>2013-07-22T12:39:29Z</time>
      </trkpt>
      <trkpt lat="44.56955" lon="3.07081">
        <ele>1447</ele>
        <time>2013-07-22T12:39:32Z</time>
      </trkpt>
      <trkpt lat="44.56959" lon="3.0708">
        <ele>1447</ele>
        <time>2013-07-22T12:39:35Z</time>
      </trkpt>
      <trkpt lat="44.56969" lon="3.07077">
        <ele>1447</ele>
        <time>2013-07-22T12:39:41Z</time>
      </trkpt>
      <trkpt lat="44.56978" lon="3.07073">
        <ele>1448</ele>
        <time>2013-07-22T12:39:47Z</time>
      </trkpt>
      <trkpt lat="44.56984" lon="3.0707">
        <ele>1448</ele>
        <time>2013-07-22T12:39:51Z</time>
      </trkpt>
      <trkpt lat="44.56989" lon="3.07068">
        <ele>1448</ele>
        <time>2013-07-22T12:39:54Z</time>
      </trkpt>
      <trkpt lat="44.56994" lon="3.07064">
        <ele>1448</ele>
        <time>2013-07-22T12:39:58Z</time>
      </trkpt>
      <trkpt lat="44.56998" lon="3.07059">
        <ele>1448</ele>
        <time>2013-07-22T12:40:01Z</time>
      </trkpt>
      <trkpt lat="44.57002" lon="3.07054">
        <ele>1449</ele>
        <time>2013-07-22T12:40:04Z</time>
      </trkpt>
      <trkpt lat="44.57005" lon="3.07049">
        <ele>1450</ele>
        <time>2013-07-22T12:40:07Z</time>
      </trkpt>
      <trkpt lat="44.57009" lon="3.07044">
        <ele>1451</ele>
        <time>2013-07-22T12:40:10Z</time>
      </trkpt>
      <trkpt lat="44.57013" lon="3.0704">
        <ele>1451</ele>
        <time>2013-07-22T12:40:13Z</time>
      </trkpt>
      <trkpt lat="44.57019" lon="3.07031">
        <ele>1450</ele>
        <time>2013-07-22T12:40:19Z</time>
      </trkpt>
      <trkpt lat="44.57026" lon="3.07022">
        <ele>1451</ele>
        <time>2013-07-22T12:40:24Z</time>
      </trkpt>
      <trkpt lat="44.57034" lon="3.07014">
        <ele>1452</ele>
        <time>2013-07-22T12:40:30Z</time>
      </trkpt>
      <trkpt lat="44.57039" lon="3.07011">
        <ele>1451</ele>
        <time>2013-07-22T12:40:33Z</time>
      </trkpt>
      <trkpt lat="44.57043" lon="3.07009">
        <ele>1450</ele>
        <time>2013-07-22T12:40:36Z</time>
      </trkpt>
      <trkpt lat="44.57048" lon="3.07008">
        <ele>1449</ele>
        <time>2013-07-22T12:40:39Z</time>
      </trkpt>
      <trkpt lat="44.57057" lon="3.07006">
        <ele>1448</ele>
        <time>2013-07-22T12:40:44Z</time>
      </trkpt>
      <trkpt lat="44.57062" lon="3.07004">
        <ele>1447</ele>
        <time>2013-07-22T12:40:47Z</time>
      </trkpt>
      <trkpt lat="44.57067" lon="3.07001">
        <ele>1446</ele>
        <time>2013-07-22T12:40:50Z</time>
      </trkpt>
      <trkpt lat="44.57072" lon="3.06998">
        <ele>1446</ele>
        <time>2013-07-22T12:40:53Z</time>
      </trkpt>
      <trkpt lat="44.57076" lon="3.06996">
        <ele>1445</ele>
        <time>2013-07-22T12:40:56Z</time>
      </trkpt>
      <trkpt lat="44.5708" lon="3.06991">
        <ele>1445</ele>
        <time>2013-07-22T12:41:00Z</time>
      </trkpt>
      <trkpt lat="44.57084" lon="3.06988">
        <ele>1445</ele>
        <time>2013-07-22T12:41:03Z</time>
      </trkpt>
      <trkpt lat="44.57089" lon="3.06986">
        <ele>1446</ele>
        <time>2013-07-22T12:41:07Z</time>
      </trkpt>
      <trkpt lat="44.57098" lon="3.06981">
        <ele>1446</ele>
        <time>2013-07-22T12:41:12Z</time>
      </trkpt>
      <trkpt lat="44.57108" lon="3.06979">
        <ele>1445</ele>
        <time>2013-07-22T12:41:18Z</time>
      </trkpt>
      <trkpt lat="44.57114" lon="3.06977">
        <ele>1443</ele>
        <time>2013-07-22T12:41:22Z</time>
      </trkpt>
      <trkpt lat="44.57118" lon="3.06974">
        <ele>1443</ele>
        <time>2013-07-22T12:41:25Z</time>
      </trkpt>
      <trkpt lat="44.57123" lon="3.06971">
        <ele>1443</ele>
        <time>2013-07-22T12:41:28Z</time>
      </trkpt>
      <trkpt lat="44.57128" lon="3.06969">
        <ele>1443</ele>
        <time>2013-07-22T12:41:31Z</time>
      </trkpt>
      <trkpt lat="44.57132" lon="3.06967">
        <ele>1442</ele>
        <time>2013-07-22T12:41:34Z</time>
      </trkpt>
      <trkpt lat="44.57139" lon="3.06966">
        <ele>1441</ele>
        <time>2013-07-22T12:41:38Z</time>
      </trkpt>
      <trkpt lat="44.57148" lon="3.06962">
        <ele>1440</ele>
        <time>2013-07-22T12:41:44Z</time>
      </trkpt>
      <trkpt lat="44.57154" lon="3.06959">
        <ele>1439</ele>
        <time>2013-07-22T12:41:49Z</time>
      </trkpt>
      <trkpt lat="44.57162" lon="3.06953">
        <ele>1439</ele>
        <time>2013-07-22T12:41:54Z</time>
      </trkpt>
      <trkpt lat="44.57166" lon="3.06949">
        <ele>1439</ele>
        <time>2013-07-22T12:41:57Z</time>
      </trkpt>
      <trkpt lat="44.57171" lon="3.06944">
        <ele>1440</ele>
        <time>2013-07-22T12:42:00Z</time>
      </trkpt>
      <trkpt lat="44.57175" lon="3.06941">
        <ele>1441</ele>
        <time>2013-07-22T12:42:03Z</time>
      </trkpt>
      <trkpt lat="44.57179" lon="3.06936">
        <ele>1442</ele>
        <time>2013-07-22T12:42:06Z</time>
      </trkpt>
      <trkpt lat="44.57183" lon="3.06932">
        <ele>1442</ele>
        <time>2013-07-22T12:42:09Z</time>
      </trkpt>
      <trkpt lat="44.57187" lon="3.06928">
        <ele>1442</ele>
        <time>2013-07-22T12:42:12Z</time>
      </trkpt>
      <trkpt lat="44.57196" lon="3.06919">
        <ele>1440</ele>
        <time>2013-07-22T12:42:19Z</time>
      </trkpt>
      <trkpt lat="44.57203" lon="3.06911">
        <ele>1440</ele>
        <time>2013-07-22T12:42:25Z</time>
      </trkpt>
      <trkpt lat="44.57212" lon="3.06909">
        <ele>1439</ele>
        <time>2013-07-22T12:42:31Z</time>
      </trkpt>
      <trkpt lat="44.57222" lon="3.06907">
        <ele>1437</ele>
        <time>2013-07-22T12:42:37Z</time>
      </trkpt>
      <trkpt lat="44.5723" lon="3.06905">
        <ele>1435</ele>
        <time>2013-07-22T12:42:43Z</time>
      </trkpt>
      <trkpt lat="44.57239" lon="3.06902">
        <ele>1435</ele>
        <time>2013-07-22T12:42:49Z</time>
      </trkpt>
      <trkpt lat="44.57248" lon="3.06898">
        <ele>1434</ele>
        <time>2013-07-22T12:42:55Z</time>
      </trkpt>
      <trkpt lat="44.57257" lon="3.06891">
        <ele>1433</ele>
        <time>2013-07-22T12:43:03Z</time>
      </trkpt>
      <trkpt lat="44.57265" lon="3.06884">
        <ele>1433</ele>
        <time>2013-07-22T12:43:08Z</time>
      </trkpt>
      <trkpt lat="44.57274" lon="3.06878">
        <ele>1433</ele>
        <time>2013-07-22T12:43:13Z</time>
      </trkpt>
      <trkpt lat="44.57283" lon="3.06875">
        <ele>1430</ele>
        <time>2013-07-22T12:43:19Z</time>
      </trkpt>
      <trkpt lat="44.57293" lon="3.06872">
        <ele>1427</ele>
        <time>2013-07-22T12:43:25Z</time>
      </trkpt>
      <trkpt lat="44.57301" lon="3.06867">
        <ele>1424</ele>
        <time>2013-07-22T12:43:30Z</time>
      </trkpt>
      <trkpt lat="44.57311" lon="3.06864">
        <ele>1421</ele>
        <time>2013-07-22T12:43:37Z</time>
      </trkpt>
      <trkpt lat="44.57321" lon="3.06861">
        <ele>1421</ele>
        <time>2013-07-22T12:43:43Z</time>
      </trkpt>
      <trkpt lat="44.57331" lon="3.06858">
        <ele>1420</ele>
        <time>2013-07-22T12:43:49Z</time>
      </trkpt>
      <trkpt lat="44.5734" lon="3.06853">
        <ele>1420</ele>
        <time>2013-07-22T12:43:55Z</time>
      </trkpt>
      <trkpt lat="44.57349" lon="3.06853">
        <ele>1419</ele>
        <time>2013-07-22T12:44:02Z</time>
      </trkpt>
      <trkpt lat="44.57358" lon="3.06849">
        <ele>1418</ele>
        <time>2013-07-22T12:44:08Z</time>
      </trkpt>
      <trkpt lat="44.57367" lon="3.06844">
        <ele>1417</ele>
        <time>2013-07-22T12:44:15Z</time>
      </trkpt>
      <trkpt lat="44.57374" lon="3.06835">
        <ele>1417</ele>
        <time>2013-07-22T12:44:21Z</time>
      </trkpt>
      <trkpt lat="44.57381" lon="3.06826">
        <ele>1420</ele>
        <time>2013-07-22T12:44:31Z</time>
      </trkpt>
      <trkpt lat="44.57386" lon="3.06814">
        <ele>1420</ele>
        <time>2013-07-22T12:44:38Z</time>
      </trkpt>
      <trkpt lat="44.57391" lon="3.06802">
        <ele>1421</ele>
        <time>2013-07-22T12:44:44Z</time>
      </trkpt>
      <trkpt lat="44.57395" lon="3.06789">
        <ele>1422</ele>
        <time>2013-07-22T12:44:52Z</time>
      </trkpt>
      <trkpt lat="44.57397" lon="3.06775">
        <ele>1421</ele>
        <time>2013-07-22T12:44:59Z</time>
      </trkpt>
      <trkpt lat="44.57403" lon="3.06764">
        <ele>1420</ele>
        <time>2013-07-22T12:45:07Z</time>
      </trkpt>
      <trkpt lat="44.57409" lon="3.06754">
        <ele>1418</ele>
        <time>2013-07-22T12:45:13Z</time>
      </trkpt>
      <trkpt lat="44.57416" lon="3.06746">
        <ele>1417</ele>
        <time>2013-07-22T12:45:19Z</time>
      </trkpt>
      <trkpt lat="44.57423" lon="3.06737">
        <ele>1415</ele>
        <time>2013-07-22T12:45:25Z</time>
      </trkpt>
      <trkpt lat="44.57431" lon="3.06728">
        <ele>1414</ele>
        <time>2013-07-22T12:45:32Z</time>
      </trkpt>
      <trkpt lat="44.57441" lon="3.06722">
        <ele>1412</ele>
        <time>2013-07-22T12:45:38Z</time>
      </trkpt>
      <trkpt lat="44.57451" lon="3.06718">
        <ele>1411</ele>
        <time>2013-07-22T12:45:44Z</time>
      </trkpt>
      <trkpt lat="44.5746" lon="3.06716">
        <ele>1410</ele>
        <time>2013-07-22T12:45:51Z</time>
      </trkpt>
      <trkpt lat="44.5747" lon="3.06712">
        <ele>1409</ele>
        <time>2013-07-22T12:45:58Z</time>
      </trkpt>
      <trkpt lat="44.57479" lon="3.06708">
        <ele>1409</ele>
        <time>2013-07-22T12:46:05Z</time>
      </trkpt>
      <trkpt lat="44.57488" lon="3.06703">
        <ele>1410</ele>
        <time>2013-07-22T12:46:12Z</time>
      </trkpt>
      <trkpt lat="44.57496" lon="3.06696">
        <ele>1410</ele>
        <time>2013-07-22T12:46:18Z</time>
      </trkpt>
      <trkpt lat="44.57504" lon="3.06687">
        <ele>1410</ele>
        <time>2013-07-22T12:46:24Z</time>
      </trkpt>
      <trkpt lat="44.57512" lon="3.0668">
        <ele>1410</ele>
        <time>2013-07-22T12:46:30Z</time>
      </trkpt>
      <trkpt lat="44.5752" lon="3.06674">
        <ele>1408</ele>
        <time>2013-07-22T12:46:37Z</time>
      </trkpt>
      <trkpt lat="44.57528" lon="3.06667">
        <ele>1407</ele>
        <time>2013-07-22T12:46:43Z</time>
      </trkpt>
      <trkpt lat="44.57537" lon="3.06662">
        <ele>1404</ele>
        <time>2013-07-22T12:46:49Z</time>
      </trkpt>
      <trkpt lat="44.57547" lon="3.06655">
        <ele>1403</ele>
        <time>2013-07-22T12:46:57Z</time>
      </trkpt>
      <trkpt lat="44.57555" lon="3.0665">
        <ele>1404</ele>
        <time>2013-07-22T12:47:04Z</time>
      </trkpt>
      <trkpt lat="44.57563" lon="3.06641">
        <ele>1404</ele>
        <time>2013-07-22T12:47:10Z</time>
      </trkpt>
      <trkpt lat="44.57567" lon="3.06635">
        <ele>1400</ele>
        <time>2013-07-22T12:47:24Z</time>
      </trkpt>
      <trkpt lat="44.57576" lon="3.06628">
        <ele>1400</ele>
        <time>2013-07-22T12:47:33Z</time>
      </trkpt>
      <trkpt lat="44.57585" lon="3.06622">
        <ele>1399</ele>
        <time>2013-07-22T12:47:41Z</time>
      </trkpt>
      <trkpt lat="44.57594" lon="3.06616">
        <ele>1397</ele>
        <time>2013-07-22T12:47:50Z</time>
      </trkpt>
      <trkpt lat="44.57604" lon="3.06611">
        <ele>1396</ele>
        <time>2013-07-22T12:47:55Z</time>
      </trkpt>
      <trkpt lat="44.57608" lon="3.06608">
        <ele>1396</ele>
        <time>2013-07-22T12:47:58Z</time>
      </trkpt>
      <trkpt lat="44.57613" lon="3.06606">
        <ele>1396</ele>
        <time>2013-07-22T12:48:01Z</time>
      </trkpt>
      <trkpt lat="44.57622" lon="3.06602">
        <ele>1396</ele>
        <time>2013-07-22T12:48:07Z</time>
      </trkpt>
      <trkpt lat="44.57626" lon="3.06599">
        <ele>1395</ele>
        <time>2013-07-22T12:48:11Z</time>
      </trkpt>
      <trkpt lat="44.57631" lon="3.06596">
        <ele>1394</ele>
        <time>2013-07-22T12:48:14Z</time>
      </trkpt>
      <trkpt lat="44.57639" lon="3.06594">
        <ele>1393</ele>
        <time>2013-07-22T12:48:19Z</time>
      </trkpt>
      <trkpt lat="44.57643" lon="3.06593">
        <ele>1393</ele>
        <time>2013-07-22T12:48:22Z</time>
      </trkpt>
      <trkpt lat="44.5765" lon="3.06587">
        <ele>1391</ele>
        <time>2013-07-22T12:48:29Z</time>
      </trkpt>
      <trkpt lat="44.57653" lon="3.06581">
        <ele>1391</ele>
        <time>2013-07-22T12:48:47Z</time>
      </trkpt>
      <trkpt lat="44.57656" lon="3.06581">
        <ele>1391</ele>
        <time>2013-07-22T12:49:00Z</time>
      </trkpt>
      <trkpt lat="44.57658" lon="3.06584">
        <ele>1388</ele>
        <time>2013-07-22T12:50:01Z</time>
      </trkpt>
      <trkpt lat="44.57662" lon="3.06593">
        <ele>1385</ele>
        <time>2013-07-22T12:50:17Z</time>
      </trkpt>
      <trkpt lat="44.57664" lon="3.06596">
        <ele>1386</ele>
        <time>2013-07-22T12:50:23Z</time>
      </trkpt>
      <trkpt lat="44.57669" lon="3.06603">
        <ele>1387</ele>
        <time>2013-07-22T12:50:35Z</time>
      </trkpt>
      <trkpt lat="44.57672" lon="3.06607">
        <ele>1388</ele>
        <time>2013-07-22T12:50:39Z</time>
      </trkpt>
      <trkpt lat="44.57678" lon="3.06616">
        <ele>1388</ele>
        <time>2013-07-22T12:50:46Z</time>
      </trkpt>
      <trkpt lat="44.57684" lon="3.06625">
        <ele>1389</ele>
        <time>2013-07-22T12:50:52Z</time>
      </trkpt>
      <trkpt lat="44.57691" lon="3.06634">
        <ele>1389</ele>
        <time>2013-07-22T12:50:59Z</time>
      </trkpt>
      <trkpt lat="44.57698" lon="3.06644">
        <ele>1388</ele>
        <time>2013-07-22T12:51:06Z</time>
      </trkpt>
      <trkpt lat="44.57704" lon="3.06656">
        <ele>1387</ele>
        <time>2013-07-22T12:51:12Z</time>
      </trkpt>
      <trkpt lat="44.57708" lon="3.06667">
        <ele>1387</ele>
        <time>2013-07-22T12:51:18Z</time>
      </trkpt>
      <trkpt lat="44.5771" lon="3.06673">
        <ele>1387</ele>
        <time>2013-07-22T12:51:22Z</time>
      </trkpt>
      <trkpt lat="44.57714" lon="3.06686">
        <ele>1387</ele>
        <time>2013-07-22T12:51:29Z</time>
      </trkpt>
      <trkpt lat="44.57719" lon="3.06698">
        <ele>1386</ele>
        <time>2013-07-22T12:51:35Z</time>
      </trkpt>
      <trkpt lat="44.57721" lon="3.0671">
        <ele>1385</ele>
        <time>2013-07-22T12:51:43Z</time>
      </trkpt>
      <trkpt lat="44.57724" lon="3.06723">
        <ele>1384</ele>
        <time>2013-07-22T12:51:49Z</time>
      </trkpt>
      <trkpt lat="44.57727" lon="3.06735">
        <ele>1384</ele>
        <time>2013-07-22T12:51:55Z</time>
      </trkpt>
      <trkpt lat="44.57728" lon="3.06745">
        <ele>1384</ele>
        <time>2013-07-22T12:52:00Z</time>
      </trkpt>
      <trkpt lat="44.57729" lon="3.06753">
        <ele>1385</ele>
        <time>2013-07-22T12:52:05Z</time>
      </trkpt>
      <trkpt lat="44.5773" lon="3.0676">
        <ele>1387</ele>
        <time>2013-07-22T12:52:08Z</time>
      </trkpt>
      <trkpt lat="44.57731" lon="3.06771">
        <ele>1388</ele>
        <time>2013-07-22T12:52:13Z</time>
      </trkpt>
      <trkpt lat="44.57732" lon="3.06781">
        <ele>1388</ele>
        <time>2013-07-22T12:52:18Z</time>
      </trkpt>
      <trkpt lat="44.57732" lon="3.06788">
        <ele>1388</ele>
        <time>2013-07-22T12:52:21Z</time>
      </trkpt>
      <trkpt lat="44.57731" lon="3.06802">
        <ele>1387</ele>
        <time>2013-07-22T12:52:28Z</time>
      </trkpt>
      <trkpt lat="44.57731" lon="3.06809">
        <ele>1386</ele>
        <time>2013-07-22T12:52:32Z</time>
      </trkpt>
      <trkpt lat="44.5773" lon="3.06816">
        <ele>1386</ele>
        <time>2013-07-22T12:52:36Z</time>
      </trkpt>
      <trkpt lat="44.57729" lon="3.06823">
        <ele>1387</ele>
        <time>2013-07-22T12:52:40Z</time>
      </trkpt>
      <trkpt lat="44.57728" lon="3.06831">
        <ele>1388</ele>
        <time>2013-07-22T12:52:44Z</time>
      </trkpt>
      <trkpt lat="44.57725" lon="3.06837">
        <ele>1389</ele>
        <time>2013-07-22T12:52:48Z</time>
      </trkpt>
      <trkpt lat="44.57723" lon="3.06843">
        <ele>1389</ele>
        <time>2013-07-22T12:52:52Z</time>
      </trkpt>
      <trkpt lat="44.5772" lon="3.06849">
        <ele>1389</ele>
        <time>2013-07-22T12:52:56Z</time>
      </trkpt>
      <trkpt lat="44.57717" lon="3.06857">
        <ele>1390</ele>
        <time>2013-07-22T12:53:01Z</time>
      </trkpt>
      <trkpt lat="44.57712" lon="3.0687">
        <ele>1390</ele>
        <time>2013-07-22T12:53:08Z</time>
      </trkpt>
      <trkpt lat="44.57709" lon="3.06877">
        <ele>1390</ele>
        <time>2013-07-22T12:53:12Z</time>
      </trkpt>
      <trkpt lat="44.57706" lon="3.06889">
        <ele>1391</ele>
        <time>2013-07-22T12:53:18Z</time>
      </trkpt>
      <trkpt lat="44.57703" lon="3.06896">
        <ele>1391</ele>
        <time>2013-07-22T12:53:23Z</time>
      </trkpt>
      <trkpt lat="44.57702" lon="3.06902">
        <ele>1391</ele>
        <time>2013-07-22T12:53:26Z</time>
      </trkpt>
      <trkpt lat="44.57701" lon="3.06909">
        <ele>1390</ele>
        <time>2013-07-22T12:53:30Z</time>
      </trkpt>
      <trkpt lat="44.57698" lon="3.06915">
        <ele>1389</ele>
        <time>2013-07-22T12:53:34Z</time>
      </trkpt>
      <trkpt lat="44.57696" lon="3.06921">
        <ele>1389</ele>
        <time>2013-07-22T12:53:39Z</time>
      </trkpt>
      <trkpt lat="44.57696" lon="3.06928">
        <ele>1389</ele>
        <time>2013-07-22T12:53:44Z</time>
      </trkpt>
      <trkpt lat="44.57693" lon="3.06939">
        <ele>1388</ele>
        <time>2013-07-22T12:53:50Z</time>
      </trkpt>
      <trkpt lat="44.57688" lon="3.0695">
        <ele>1389</ele>
        <time>2013-07-22T12:53:57Z</time>
      </trkpt>
      <trkpt lat="44.57685" lon="3.06956">
        <ele>1388</ele>
        <time>2013-07-22T12:54:00Z</time>
      </trkpt>
      <trkpt lat="44.57683" lon="3.0697">
        <ele>1388</ele>
        <time>2013-07-22T12:54:08Z</time>
      </trkpt>
      <trkpt lat="44.57682" lon="3.06985">
        <ele>1390</ele>
        <time>2013-07-22T12:54:15Z</time>
      </trkpt>
      <trkpt lat="44.57682" lon="3.06998">
        <ele>1393</ele>
        <time>2013-07-22T12:54:21Z</time>
      </trkpt>
      <trkpt lat="44.57682" lon="3.07004">
        <ele>1394</ele>
        <time>2013-07-22T12:54:24Z</time>
      </trkpt>
      <trkpt lat="44.57682" lon="3.07012">
        <ele>1395</ele>
        <time>2013-07-22T12:54:28Z</time>
      </trkpt>
      <trkpt lat="44.57681" lon="3.07025">
        <ele>1395</ele>
        <time>2013-07-22T12:54:34Z</time>
      </trkpt>
      <trkpt lat="44.57681" lon="3.07037">
        <ele>1396</ele>
        <time>2013-07-22T12:54:40Z</time>
      </trkpt>
      <trkpt lat="44.5768" lon="3.07051">
        <ele>1396</ele>
        <time>2013-07-22T12:54:46Z</time>
      </trkpt>
      <trkpt lat="44.57678" lon="3.07063">
        <ele>1397</ele>
        <time>2013-07-22T12:54:53Z</time>
      </trkpt>
      <trkpt lat="44.57673" lon="3.07069">
        <ele>1397</ele>
        <time>2013-07-22T12:55:01Z</time>
      </trkpt>
      <trkpt lat="44.57676" lon="3.07076">
        <ele>1394</ele>
        <time>2013-07-22T12:56:55Z</time>
      </trkpt>
      <trkpt lat="44.57672" lon="3.07089">
        <ele>1394</ele>
        <time>2013-07-22T12:57:00Z</time>
      </trkpt>
      <trkpt lat="44.5767" lon="3.07103">
        <ele>1394</ele>
        <time>2013-07-22T12:57:07Z</time>
      </trkpt>
      <trkpt lat="44.57673" lon="3.07117">
        <ele>1395</ele>
        <time>2013-07-22T12:57:16Z</time>
      </trkpt>
      <trkpt lat="44.57674" lon="3.0713">
        <ele>1396</ele>
        <time>2013-07-22T12:57:26Z</time>
      </trkpt>
      <trkpt lat="44.57671" lon="3.07145">
        <ele>1396</ele>
        <time>2013-07-22T12:57:33Z</time>
      </trkpt>
      <trkpt lat="44.57669" lon="3.07157">
        <ele>1397</ele>
        <time>2013-07-22T12:57:38Z</time>
      </trkpt>
      <trkpt lat="44.57668" lon="3.07171">
        <ele>1398</ele>
        <time>2013-07-22T12:57:44Z</time>
      </trkpt>
      <trkpt lat="44.57666" lon="3.07185">
        <ele>1399</ele>
        <time>2013-07-22T12:57:51Z</time>
      </trkpt>
      <trkpt lat="44.57666" lon="3.07199">
        <ele>1400</ele>
        <time>2013-07-22T12:57:57Z</time>
      </trkpt>
      <trkpt lat="44.57667" lon="3.07214">
        <ele>1402</ele>
        <time>2013-07-22T12:58:03Z</time>
      </trkpt>
      <trkpt lat="44.57666" lon="3.07229">
        <ele>1402</ele>
        <time>2013-07-22T12:58:10Z</time>
      </trkpt>
      <trkpt lat="44.57668" lon="3.07243">
        <ele>1401</ele>
        <time>2013-07-22T12:58:18Z</time>
      </trkpt>
      <trkpt lat="44.5767" lon="3.07257">
        <ele>1400</ele>
        <time>2013-07-22T12:58:26Z</time>
      </trkpt>
      <trkpt lat="44.57667" lon="3.0727">
        <ele>1399</ele>
        <time>2013-07-22T12:58:32Z</time>
      </trkpt>
      <trkpt lat="44.57665" lon="3.07282">
        <ele>1400</ele>
        <time>2013-07-22T12:58:40Z</time>
      </trkpt>
      <trkpt lat="44.57667" lon="3.07295">
        <ele>1402</ele>
        <time>2013-07-22T12:58:47Z</time>
      </trkpt>
      <trkpt lat="44.57665" lon="3.07308">
        <ele>1402</ele>
        <time>2013-07-22T12:58:54Z</time>
      </trkpt>
      <trkpt lat="44.57668" lon="3.07322">
        <ele>1403</ele>
        <time>2013-07-22T12:59:03Z</time>
      </trkpt>
      <trkpt lat="44.57666" lon="3.07337">
        <ele>1405</ele>
        <time>2013-07-22T12:59:11Z</time>
      </trkpt>
      <trkpt lat="44.57665" lon="3.0735">
        <ele>1405</ele>
        <time>2013-07-22T12:59:19Z</time>
      </trkpt>
      <trkpt lat="44.57664" lon="3.07363">
        <ele>1406</ele>
        <time>2013-07-22T12:59:30Z</time>
      </trkpt>
      <trkpt lat="44.57673" lon="3.07368">
        <ele>1407</ele>
        <time>2013-07-22T13:00:00Z</time>
      </trkpt>
      <trkpt lat="44.57675" lon="3.07375">
        <ele>1406</ele>
        <time>2013-07-22T13:00:17Z</time>
      </trkpt>
      <trkpt lat="44.57666" lon="3.07383">
        <ele>1405</ele>
        <time>2013-07-22T13:00:47Z</time>
      </trkpt>
      <trkpt lat="44.57665" lon="3.0739">
        <ele>1405</ele>
        <time>2013-07-22T13:01:02Z</time>
      </trkpt>
      <trkpt lat="44.57662" lon="3.07403">
        <ele>1405</ele>
        <time>2013-07-22T13:01:15Z</time>
      </trkpt>
      <trkpt lat="44.57665" lon="3.07417">
        <ele>1404</ele>
        <time>2013-07-22T13:01:21Z</time>
      </trkpt>
      <trkpt lat="44.57668" lon="3.07429">
        <ele>1405</ele>
        <time>2013-07-22T13:01:27Z</time>
      </trkpt>
      <trkpt lat="44.5767" lon="3.0744">
        <ele>1407</ele>
        <time>2013-07-22T13:01:45Z</time>
      </trkpt>
      <trkpt lat="44.57668" lon="3.07452">
        <ele>1408</ele>
        <time>2013-07-22T13:02:09Z</time>
      </trkpt>
      <trkpt lat="44.57673" lon="3.07461">
        <ele>1406</ele>
        <time>2013-07-22T13:02:49Z</time>
      </trkpt>
      <trkpt lat="44.57678" lon="3.07473">
        <ele>1406</ele>
        <time>2013-07-22T13:02:57Z</time>
      </trkpt>
      <trkpt lat="44.57685" lon="3.07482">
        <ele>1406</ele>
        <time>2013-07-22T13:03:05Z</time>
      </trkpt>
      <trkpt lat="44.57689" lon="3.07495">
        <ele>1408</ele>
        <time>2013-07-22T13:03:11Z</time>
      </trkpt>
      <trkpt lat="44.57689" lon="3.07509">
        <ele>1410</ele>
        <time>2013-07-22T13:03:18Z</time>
      </trkpt>
      <trkpt lat="44.57688" lon="3.07522">
        <ele>1411</ele>
        <time>2013-07-22T13:03:24Z</time>
      </trkpt>
      <trkpt lat="44.57686" lon="3.07535">
        <ele>1410</ele>
        <time>2013-07-22T13:03:31Z</time>
      </trkpt>
      <trkpt lat="44.57688" lon="3.07549">
        <ele>1409</ele>
        <time>2013-07-22T13:03:40Z</time>
      </trkpt>
      <trkpt lat="44.57687" lon="3.07563">
        <ele>1409</ele>
        <time>2013-07-22T13:03:48Z</time>
      </trkpt>
      <trkpt lat="44.57685" lon="3.07576">
        <ele>1410</ele>
        <time>2013-07-22T13:03:54Z</time>
      </trkpt>
      <trkpt lat="44.57681" lon="3.07589">
        <ele>1411</ele>
        <time>2013-07-22T13:04:00Z</time>
      </trkpt>
      <trkpt lat="44.5768" lon="3.07604">
        <ele>1415</ele>
        <time>2013-07-22T13:04:07Z</time>
      </trkpt>
      <trkpt lat="44.57679" lon="3.07617">
        <ele>1415</ele>
        <time>2013-07-22T13:04:13Z</time>
      </trkpt>
      <trkpt lat="44.57678" lon="3.07632">
        <ele>1415</ele>
        <time>2013-07-22T13:04:18Z</time>
      </trkpt>
      <trkpt lat="44.57675" lon="3.07648">
        <ele>1416</ele>
        <time>2013-07-22T13:04:22Z</time>
      </trkpt>
      <trkpt lat="44.57674" lon="3.07662">
        <ele>1417</ele>
        <time>2013-07-22T13:04:25Z</time>
      </trkpt>
      <trkpt lat="44.57675" lon="3.07679">
        <ele>1418</ele>
        <time>2013-07-22T13:04:28Z</time>
      </trkpt>
      <trkpt lat="44.57678" lon="3.07697">
        <ele>1418</ele>
        <time>2013-07-22T13:04:31Z</time>
      </trkpt>
      <trkpt lat="44.57679" lon="3.07711">
        <ele>1418</ele>
        <time>2013-07-22T13:04:33Z</time>
      </trkpt>
      <trkpt lat="44.5768" lon="3.07724">
        <ele>1417</ele>
        <time>2013-07-22T13:04:35Z</time>
      </trkpt>
      <trkpt lat="44.57682" lon="3.07737">
        <ele>1417</ele>
        <time>2013-07-22T13:04:37Z</time>
      </trkpt>
      <trkpt lat="44.57684" lon="3.0775">
        <ele>1417</ele>
        <time>2013-07-22T13:04:39Z</time>
      </trkpt>
      <trkpt lat="44.57687" lon="3.07763">
        <ele>1417</ele>
        <time>2013-07-22T13:04:41Z</time>
      </trkpt>
      <trkpt lat="44.57691" lon="3.07779">
        <ele>1417</ele>
        <time>2013-07-22T13:04:44Z</time>
      </trkpt>
      <trkpt lat="44.57692" lon="3.07796">
        <ele>1417</ele>
        <time>2013-07-22T13:04:47Z</time>
      </trkpt>
      <trkpt lat="44.5769" lon="3.0781">
        <ele>1417</ele>
        <time>2013-07-22T13:04:50Z</time>
      </trkpt>
      <trkpt lat="44.5769" lon="3.07824">
        <ele>1416</ele>
        <time>2013-07-22T13:04:53Z</time>
      </trkpt>
      <trkpt lat="44.57691" lon="3.07837">
        <ele>1416</ele>
        <time>2013-07-22T13:04:56Z</time>
      </trkpt>
      <trkpt lat="44.57695" lon="3.07853">
        <ele>1415</ele>
        <time>2013-07-22T13:05:00Z</time>
      </trkpt>
      <trkpt lat="44.57696" lon="3.07868">
        <ele>1415</ele>
        <time>2013-07-22T13:05:03Z</time>
      </trkpt>
      <trkpt lat="44.57695" lon="3.07884">
        <ele>1415</ele>
        <time>2013-07-22T13:05:06Z</time>
      </trkpt>
      <trkpt lat="44.57696" lon="3.079">
        <ele>1415</ele>
        <time>2013-07-22T13:05:09Z</time>
      </trkpt>
      <trkpt lat="44.57696" lon="3.07916">
        <ele>1415</ele>
        <time>2013-07-22T13:05:12Z</time>
      </trkpt>
      <trkpt lat="44.57699" lon="3.07929">
        <ele>1416</ele>
        <time>2013-07-22T13:05:15Z</time>
      </trkpt>
      <trkpt lat="44.57703" lon="3.07942">
        <ele>1416</ele>
        <time>2013-07-22T13:05:20Z</time>
      </trkpt>
      <trkpt lat="44.57705" lon="3.07956">
        <ele>1416</ele>
        <time>2013-07-22T13:05:28Z</time>
      </trkpt>
      <trkpt lat="44.57709" lon="3.07969">
        <ele>1416</ele>
        <time>2013-07-22T13:05:36Z</time>
      </trkpt>
      <trkpt lat="44.57709" lon="3.07983">
        <ele>1416</ele>
        <time>2013-07-22T13:05:42Z</time>
      </trkpt>
      <trkpt lat="44.57713" lon="3.07995">
        <ele>1416</ele>
        <time>2013-07-22T13:05:50Z</time>
      </trkpt>
      <trkpt lat="44.57714" lon="3.08008">
        <ele>1416</ele>
        <time>2013-07-22T13:05:55Z</time>
      </trkpt>
      <trkpt lat="44.57714" lon="3.08022">
        <ele>1417</ele>
        <time>2013-07-22T13:06:01Z</time>
      </trkpt>
      <trkpt lat="44.57715" lon="3.08036">
        <ele>1418</ele>
        <time>2013-07-22T13:06:09Z</time>
      </trkpt>
      <trkpt lat="44.57717" lon="3.08049">
        <ele>1418</ele>
        <time>2013-07-22T13:06:16Z</time>
      </trkpt>
      <trkpt lat="44.57717" lon="3.08061">
        <ele>1419</ele>
        <time>2013-07-22T13:06:22Z</time>
      </trkpt>
      <trkpt lat="44.57717" lon="3.08074">
        <ele>1419</ele>
        <time>2013-07-22T13:06:29Z</time>
      </trkpt>
      <trkpt lat="44.57719" lon="3.08087">
        <ele>1417</ele>
        <time>2013-07-22T13:06:36Z</time>
      </trkpt>
      <trkpt lat="44.57719" lon="3.08102">
        <ele>1416</ele>
        <time>2013-07-22T13:06:45Z</time>
      </trkpt>
      <trkpt lat="44.57716" lon="3.08115">
        <ele>1415</ele>
        <time>2013-07-22T13:06:52Z</time>
      </trkpt>
      <trkpt lat="44.57713" lon="3.08128">
        <ele>1416</ele>
        <time>2013-07-22T13:06:58Z</time>
      </trkpt>
      <trkpt lat="44.57708" lon="3.08139">
        <ele>1418</ele>
        <time>2013-07-22T13:07:04Z</time>
      </trkpt>
      <trkpt lat="44.57707" lon="3.08153">
        <ele>1418</ele>
        <time>2013-07-22T13:07:11Z</time>
      </trkpt>
      <trkpt lat="44.57708" lon="3.08161">
        <ele>1419</ele>
        <time>2013-07-22T13:07:15Z</time>
      </trkpt>
      <trkpt lat="44.57712" lon="3.08173">
        <ele>1418</ele>
        <time>2013-07-22T13:07:22Z</time>
      </trkpt>
      <trkpt lat="44.57717" lon="3.08184">
        <ele>1415</ele>
        <time>2013-07-22T13:07:30Z</time>
      </trkpt>
      <trkpt lat="44.57726" lon="3.08189">
        <ele>1415</ele>
        <time>2013-07-22T13:07:37Z</time>
      </trkpt>
      <trkpt lat="44.57735" lon="3.08193">
        <ele>1413</ele>
        <time>2013-07-22T13:07:44Z</time>
      </trkpt>
      <trkpt lat="44.57742" lon="3.08202">
        <ele>1412</ele>
        <time>2013-07-22T13:07:50Z</time>
      </trkpt>
      <trkpt lat="44.57744" lon="3.08215">
        <ele>1410</ele>
        <time>2013-07-22T13:07:58Z</time>
      </trkpt>
      <trkpt lat="44.57747" lon="3.08228">
        <ele>1409</ele>
        <time>2013-07-22T13:08:04Z</time>
      </trkpt>
      <trkpt lat="44.57753" lon="3.0824">
        <ele>1409</ele>
        <time>2013-07-22T13:08:11Z</time>
      </trkpt>
      <trkpt lat="44.57758" lon="3.08253">
        <ele>1408</ele>
        <time>2013-07-22T13:08:19Z</time>
      </trkpt>
      <trkpt lat="44.57763" lon="3.08265">
        <ele>1407</ele>
        <time>2013-07-22T13:08:26Z</time>
      </trkpt>
      <trkpt lat="44.57766" lon="3.08277">
        <ele>1407</ele>
        <time>2013-07-22T13:08:32Z</time>
      </trkpt>
      <trkpt lat="44.5777" lon="3.08291">
        <ele>1405</ele>
        <time>2013-07-22T13:08:39Z</time>
      </trkpt>
      <trkpt lat="44.57774" lon="3.08303">
        <ele>1406</ele>
        <time>2013-07-22T13:08:48Z</time>
      </trkpt>
      <trkpt lat="44.57774" lon="3.08317">
        <ele>1407</ele>
        <time>2013-07-22T13:09:17Z</time>
      </trkpt>
      <trkpt lat="44.57775" lon="3.08329">
        <ele>1407</ele>
        <time>2013-07-22T13:09:23Z</time>
      </trkpt>
      <trkpt lat="44.57778" lon="3.08342">
        <ele>1405</ele>
        <time>2013-07-22T13:09:29Z</time>
      </trkpt>
      <trkpt lat="44.57782" lon="3.08353">
        <ele>1403</ele>
        <time>2013-07-22T13:09:35Z</time>
      </trkpt>
      <trkpt lat="44.57789" lon="3.08362">
        <ele>1401</ele>
        <time>2013-07-22T13:09:42Z</time>
      </trkpt>
      <trkpt lat="44.57797" lon="3.0837">
        <ele>1401</ele>
        <time>2013-07-22T13:09:48Z</time>
      </trkpt>
      <trkpt lat="44.57802" lon="3.08382">
        <ele>1400</ele>
        <time>2013-07-22T13:09:54Z</time>
      </trkpt>
      <trkpt lat="44.57804" lon="3.08394">
        <ele>1399</ele>
        <time>2013-07-22T13:09:59Z</time>
      </trkpt>
      <trkpt lat="44.57806" lon="3.08408">
        <ele>1398</ele>
        <time>2013-07-22T13:10:05Z</time>
      </trkpt>
      <trkpt lat="44.57808" lon="3.08421">
        <ele>1399</ele>
        <time>2013-07-22T13:10:10Z</time>
      </trkpt>
      <trkpt lat="44.57811" lon="3.08435">
        <ele>1400</ele>
        <time>2013-07-22T13:10:15Z</time>
      </trkpt>
      <trkpt lat="44.57815" lon="3.08449">
        <ele>1402</ele>
        <time>2013-07-22T13:10:22Z</time>
      </trkpt>
      <trkpt lat="44.57818" lon="3.08461">
        <ele>1402</ele>
        <time>2013-07-22T13:10:28Z</time>
      </trkpt>
      <trkpt lat="44.57822" lon="3.08475">
        <ele>1402</ele>
        <time>2013-07-22T13:10:35Z</time>
      </trkpt>
      <trkpt lat="44.57825" lon="3.08488">
        <ele>1402</ele>
        <time>2013-07-22T13:10:42Z</time>
      </trkpt>
      <trkpt lat="44.57828" lon="3.085">
        <ele>1403</ele>
        <time>2013-07-22T13:10:50Z</time>
      </trkpt>
      <trkpt lat="44.57831" lon="3.08514">
        <ele>1405</ele>
        <time>2013-07-22T13:10:57Z</time>
      </trkpt>
      <trkpt lat="44.57834" lon="3.08527">
        <ele>1406</ele>
        <time>2013-07-22T13:11:04Z</time>
      </trkpt>
      <trkpt lat="44.57837" lon="3.08539">
        <ele>1406</ele>
        <time>2013-07-22T13:11:12Z</time>
      </trkpt>
      <trkpt lat="44.57842" lon="3.0855">
        <ele>1405</ele>
        <time>2013-07-22T13:11:18Z</time>
      </trkpt>
      <trkpt lat="44.57846" lon="3.08561">
        <ele>1403</ele>
        <time>2013-07-22T13:11:26Z</time>
      </trkpt>
      <trkpt lat="44.5785" lon="3.08574">
        <ele>1402</ele>
        <time>2013-07-22T13:11:32Z</time>
      </trkpt>
      <trkpt lat="44.57854" lon="3.08585">
        <ele>1399</ele>
        <time>2013-07-22T13:11:40Z</time>
      </trkpt>
      <trkpt lat="44.57859" lon="3.08598">
        <ele>1398</ele>
        <time>2013-07-22T13:11:47Z</time>
      </trkpt>
      <trkpt lat="44.57863" lon="3.08609">
        <ele>1397</ele>
        <time>2013-07-22T13:11:54Z</time>
      </trkpt>
      <trkpt lat="44.57868" lon="3.08622">
        <ele>1397</ele>
        <time>2013-07-22T13:12:01Z</time>
      </trkpt>
      <trkpt lat="44.5787" lon="3.08635">
        <ele>1397</ele>
        <time>2013-07-22T13:12:07Z</time>
      </trkpt>
      <trkpt lat="44.57873" lon="3.08648">
        <ele>1397</ele>
        <time>2013-07-22T13:12:14Z</time>
      </trkpt>
      <trkpt lat="44.57876" lon="3.0866">
        <ele>1396</ele>
        <time>2013-07-22T13:12:21Z</time>
      </trkpt>
      <trkpt lat="44.57879" lon="3.08667">
        <ele>1396</ele>
        <time>2013-07-22T13:12:25Z</time>
      </trkpt>
      <trkpt lat="44.57881" lon="3.08672">
        <ele>1395</ele>
        <time>2013-07-22T13:12:28Z</time>
      </trkpt>
      <trkpt lat="44.57884" lon="3.08679">
        <ele>1396</ele>
        <time>2013-07-22T13:12:33Z</time>
      </trkpt>
      <trkpt lat="44.57892" lon="3.08685">
        <ele>1394</ele>
        <time>2013-07-22T13:13:08Z</time>
      </trkpt>
      <trkpt lat="44.57894" lon="3.08688">
        <ele>1396</ele>
        <time>2013-07-22T13:13:30Z</time>
      </trkpt>
      <trkpt lat="44.57892" lon="3.08693">
        <ele>1396</ele>
        <time>2013-07-22T13:13:38Z</time>
      </trkpt>
      <trkpt lat="44.57892" lon="3.087">
        <ele>1396</ele>
        <time>2013-07-22T13:13:42Z</time>
      </trkpt>
      <trkpt lat="44.57891" lon="3.08706">
        <ele>1395</ele>
        <time>2013-07-22T13:13:46Z</time>
      </trkpt>
      <trkpt lat="44.57889" lon="3.08713">
        <ele>1395</ele>
        <time>2013-07-22T13:13:50Z</time>
      </trkpt>
      <trkpt lat="44.57886" lon="3.08719">
        <ele>1395</ele>
        <time>2013-07-22T13:13:53Z</time>
      </trkpt>
      <trkpt lat="44.57883" lon="3.08725">
        <ele>1395</ele>
        <time>2013-07-22T13:13:56Z</time>
      </trkpt>
      <trkpt lat="44.57881" lon="3.08732">
        <ele>1395</ele>
        <time>2013-07-22T13:13:59Z</time>
      </trkpt>
      <trkpt lat="44.57878" lon="3.08738">
        <ele>1395</ele>
        <time>2013-07-22T13:14:02Z</time>
      </trkpt>
      <trkpt lat="44.57874" lon="3.08748">
        <ele>1394</ele>
        <time>2013-07-22T13:14:07Z</time>
      </trkpt>
      <trkpt lat="44.57872" lon="3.08754">
        <ele>1394</ele>
        <time>2013-07-22T13:14:11Z</time>
      </trkpt>
      <trkpt lat="44.57871" lon="3.08761">
        <ele>1394</ele>
        <time>2013-07-22T13:14:14Z</time>
      </trkpt>
      <trkpt lat="44.57867" lon="3.08768">
        <ele>1394</ele>
        <time>2013-07-22T13:14:46Z</time>
      </trkpt>
      <trkpt lat="44.57866" lon="3.08775">
        <ele>1393</ele>
        <time>2013-07-22T13:14:52Z</time>
      </trkpt>
      <trkpt lat="44.57863" lon="3.08783">
        <ele>1394</ele>
        <time>2013-07-22T13:14:56Z</time>
      </trkpt>
      <trkpt lat="44.57861" lon="3.0879">
        <ele>1394</ele>
        <time>2013-07-22T13:15:00Z</time>
      </trkpt>
      <trkpt lat="44.57859" lon="3.08796">
        <ele>1394</ele>
        <time>2013-07-22T13:15:04Z</time>
      </trkpt>
      <trkpt lat="44.57857" lon="3.08802">
        <ele>1394</ele>
        <time>2013-07-22T13:15:08Z</time>
      </trkpt>
      <trkpt lat="44.57854" lon="3.08811">
        <ele>1394</ele>
        <time>2013-07-22T13:15:14Z</time>
      </trkpt>
      <trkpt lat="44.57852" lon="3.08814">
        <ele>1392</ele>
        <time>2013-07-22T13:15:31Z</time>
      </trkpt>
      <trkpt lat="44.57852" lon="3.08822">
        <ele>1392</ele>
        <time>2013-07-22T13:15:39Z</time>
      </trkpt>
      <trkpt lat="44.57851" lon="3.0883">
        <ele>1391</ele>
        <time>2013-07-22T13:15:43Z</time>
      </trkpt>
      <trkpt lat="44.57846" lon="3.08841">
        <ele>1391</ele>
        <time>2013-07-22T13:15:49Z</time>
      </trkpt>
      <trkpt lat="44.57843" lon="3.08854">
        <ele>1390</ele>
        <time>2013-07-22T13:15:55Z</time>
      </trkpt>
      <trkpt lat="44.57841" lon="3.0886">
        <ele>1389</ele>
        <time>2013-07-22T13:15:59Z</time>
      </trkpt>
      <trkpt lat="44.57838" lon="3.08873">
        <ele>1388</ele>
        <time>2013-07-22T13:16:06Z</time>
      </trkpt>
      <trkpt lat="44.57836" lon="3.08879">
        <ele>1387</ele>
        <time>2013-07-22T13:16:09Z</time>
      </trkpt>
      <trkpt lat="44.57835" lon="3.08886">
        <ele>1387</ele>
        <time>2013-07-22T13:16:15Z</time>
      </trkpt>
      <trkpt lat="44.57834" lon="3.08893">
        <ele>1387</ele>
        <time>2013-07-22T13:16:19Z</time>
      </trkpt>
      <trkpt lat="44.57833" lon="3.08899">
        <ele>1387</ele>
        <time>2013-07-22T13:16:24Z</time>
      </trkpt>
      <trkpt lat="44.57833" lon="3.08906">
        <ele>1385</ele>
        <time>2013-07-22T13:16:30Z</time>
      </trkpt>
      <trkpt lat="44.57828" lon="3.08918">
        <ele>1382</ele>
        <time>2013-07-22T13:16:39Z</time>
      </trkpt>
      <trkpt lat="44.57826" lon="3.08925">
        <ele>1382</ele>
        <time>2013-07-22T13:16:42Z</time>
      </trkpt>
      <trkpt lat="44.57824" lon="3.08931">
        <ele>1381</ele>
        <time>2013-07-22T13:16:45Z</time>
      </trkpt>
      <trkpt lat="44.57821" lon="3.08936">
        <ele>1382</ele>
        <time>2013-07-22T13:16:48Z</time>
      </trkpt>
      <trkpt lat="44.57818" lon="3.08943">
        <ele>1382</ele>
        <time>2013-07-22T13:16:52Z</time>
      </trkpt>
      <trkpt lat="44.57814" lon="3.08947">
        <ele>1383</ele>
        <time>2013-07-22T13:16:58Z</time>
      </trkpt>
      <trkpt lat="44.57811" lon="3.08956">
        <ele>1383</ele>
        <time>2013-07-22T13:17:04Z</time>
      </trkpt>
      <trkpt lat="44.57808" lon="3.08962">
        <ele>1384</ele>
        <time>2013-07-22T13:17:23Z</time>
      </trkpt>
      <trkpt lat="44.57805" lon="3.08969">
        <ele>1384</ele>
        <time>2013-07-22T13:17:27Z</time>
      </trkpt>
      <trkpt lat="44.57802" lon="3.08976">
        <ele>1383</ele>
        <time>2013-07-22T13:17:31Z</time>
      </trkpt>
      <trkpt lat="44.57798" lon="3.08981">
        <ele>1381</ele>
        <time>2013-07-22T13:17:35Z</time>
      </trkpt>
      <trkpt lat="44.57794" lon="3.08987">
        <ele>1381</ele>
        <time>2013-07-22T13:17:38Z</time>
      </trkpt>
      <trkpt lat="44.5779" lon="3.08991">
        <ele>1380</ele>
        <time>2013-07-22T13:17:41Z</time>
      </trkpt>
      <trkpt lat="44.57786" lon="3.08996">
        <ele>1380</ele>
        <time>2013-07-22T13:17:45Z</time>
      </trkpt>
      <trkpt lat="44.57782" lon="3.08999">
        <ele>1379</ele>
        <time>2013-07-22T13:17:50Z</time>
      </trkpt>
      <trkpt lat="44.57777" lon="3.09001">
        <ele>1378</ele>
        <time>2013-07-22T13:17:53Z</time>
      </trkpt>
      <trkpt lat="44.5777" lon="3.09004">
        <ele>1377</ele>
        <time>2013-07-22T13:18:00Z</time>
      </trkpt>
      <trkpt lat="44.57765" lon="3.09007">
        <ele>1376</ele>
        <time>2013-07-22T13:18:03Z</time>
      </trkpt>
      <trkpt lat="44.57756" lon="3.09015">
        <ele>1376</ele>
        <time>2013-07-22T13:18:08Z</time>
      </trkpt>
      <trkpt lat="44.57749" lon="3.09023">
        <ele>1376</ele>
        <time>2013-07-22T13:18:15Z</time>
      </trkpt>
      <trkpt lat="44.5774" lon="3.0903">
        <ele>1376</ele>
        <time>2013-07-22T13:18:22Z</time>
      </trkpt>
      <trkpt lat="44.57732" lon="3.09039">
        <ele>1377</ele>
        <time>2013-07-22T13:18:32Z</time>
      </trkpt>
      <trkpt lat="44.57725" lon="3.09046">
        <ele>1375</ele>
        <time>2013-07-22T13:18:42Z</time>
      </trkpt>
      <trkpt lat="44.57716" lon="3.09055">
        <ele>1369</ele>
        <time>2013-07-22T13:18:53Z</time>
      </trkpt>
      <trkpt lat="44.57709" lon="3.09064">
        <ele>1368</ele>
        <time>2013-07-22T13:19:00Z</time>
      </trkpt>
      <trkpt lat="44.57705" lon="3.09069">
        <ele>1367</ele>
        <time>2013-07-22T13:19:04Z</time>
      </trkpt>
      <trkpt lat="44.57701" lon="3.09072">
        <ele>1367</ele>
        <time>2013-07-22T13:19:07Z</time>
      </trkpt>
      <trkpt lat="44.57696" lon="3.09076">
        <ele>1367</ele>
        <time>2013-07-22T13:19:12Z</time>
      </trkpt>
      <trkpt lat="44.57692" lon="3.09079">
        <ele>1365</ele>
        <time>2013-07-22T13:19:17Z</time>
      </trkpt>
      <trkpt lat="44.57686" lon="3.09082">
        <ele>1364</ele>
        <time>2013-07-22T13:19:22Z</time>
      </trkpt>
      <trkpt lat="44.57681" lon="3.09082">
        <ele>1364</ele>
        <time>2013-07-22T13:19:26Z</time>
      </trkpt>
      <trkpt lat="44.57672" lon="3.09085">
        <ele>1365</ele>
        <time>2013-07-22T13:19:33Z</time>
      </trkpt>
      <trkpt lat="44.57668" lon="3.09092">
        <ele>1364</ele>
        <time>2013-07-22T13:19:37Z</time>
      </trkpt>
      <trkpt lat="44.57665" lon="3.09099">
        <ele>1364</ele>
        <time>2013-07-22T13:19:41Z</time>
      </trkpt>
      <trkpt lat="44.57663" lon="3.09107">
        <ele>1361</ele>
        <time>2013-07-22T13:19:57Z</time>
      </trkpt>
      <trkpt lat="44.5766" lon="3.09114">
        <ele>1360</ele>
        <time>2013-07-22T13:20:01Z</time>
      </trkpt>
      <trkpt lat="44.57655" lon="3.09118">
        <ele>1359</ele>
        <time>2013-07-22T13:20:05Z</time>
      </trkpt>
      <trkpt lat="44.57652" lon="3.09123">
        <ele>1359</ele>
        <time>2013-07-22T13:20:09Z</time>
      </trkpt>
      <trkpt lat="44.57649" lon="3.09129">
        <ele>1359</ele>
        <time>2013-07-22T13:20:13Z</time>
      </trkpt>
      <trkpt lat="44.57647" lon="3.09136">
        <ele>1359</ele>
        <time>2013-07-22T13:20:17Z</time>
      </trkpt>
      <trkpt lat="44.57646" lon="3.09144">
        <ele>1358</ele>
        <time>2013-07-22T13:20:21Z</time>
      </trkpt>
      <trkpt lat="44.57645" lon="3.09152">
        <ele>1357</ele>
        <time>2013-07-22T13:20:25Z</time>
      </trkpt>
      <trkpt lat="44.57643" lon="3.09158">
        <ele>1357</ele>
        <time>2013-07-22T13:20:29Z</time>
      </trkpt>
      <trkpt lat="44.57641" lon="3.09164">
        <ele>1357</ele>
        <time>2013-07-22T13:20:33Z</time>
      </trkpt>
      <trkpt lat="44.57638" lon="3.09171">
        <ele>1358</ele>
        <time>2013-07-22T13:20:38Z</time>
      </trkpt>
      <trkpt lat="44.57635" lon="3.09177">
        <ele>1358</ele>
        <time>2013-07-22T13:20:44Z</time>
      </trkpt>
      <trkpt lat="44.57633" lon="3.09183">
        <ele>1357</ele>
        <time>2013-07-22T13:20:48Z</time>
      </trkpt>
      <trkpt lat="44.57631" lon="3.0919">
        <ele>1356</ele>
        <time>2013-07-22T13:20:54Z</time>
      </trkpt>
      <trkpt lat="44.5763" lon="3.09197">
        <ele>1355</ele>
        <time>2013-07-22T13:21:03Z</time>
      </trkpt>
      <trkpt lat="44.5763" lon="3.092">
        <ele>1354</ele>
        <time>2013-07-22T13:21:09Z</time>
      </trkpt>
      <trkpt lat="44.57633" lon="3.09206">
        <ele>1353</ele>
        <time>2013-07-22T13:21:15Z</time>
      </trkpt>
      <trkpt lat="44.57633" lon="3.09209">
        <ele>1353</ele>
        <time>2013-07-22T13:21:21Z</time>
      </trkpt>
      <trkpt lat="44.57633" lon="3.09212">
        <ele>1353</ele>
        <time>2013-07-22T13:21:38Z</time>
      </trkpt>
      <trkpt lat="44.5763" lon="3.09218">
        <ele>1352</ele>
        <time>2013-07-22T13:21:45Z</time>
      </trkpt>
      <trkpt lat="44.57627" lon="3.09223">
        <ele>1349</ele>
        <time>2013-07-22T13:21:50Z</time>
      </trkpt>
      <trkpt lat="44.57625" lon="3.09225">
        <ele>1350</ele>
        <time>2013-07-22T13:21:56Z</time>
      </trkpt>
      <trkpt lat="44.57624" lon="3.09229">
        <ele>1350</ele>
        <time>2013-07-22T13:22:27Z</time>
      </trkpt>
      <trkpt lat="44.57623" lon="3.09232">
        <ele>1350</ele>
        <time>2013-07-22T13:22:33Z</time>
      </trkpt>
      <trkpt lat="44.57621" lon="3.09238">
        <ele>1350</ele>
        <time>2013-07-22T13:22:42Z</time>
      </trkpt>
      <trkpt lat="44.57615" lon="3.09239">
        <ele>1348</ele>
        <time>2013-07-22T13:22:48Z</time>
      </trkpt>
      <trkpt lat="44.57612" lon="3.09244">
        <ele>1347</ele>
        <time>2013-07-22T13:22:57Z</time>
      </trkpt>
      <trkpt lat="44.57612" lon="3.09251">
        <ele>1346</ele>
        <time>2013-07-22T13:23:02Z</time>
      </trkpt>
      <trkpt lat="44.57612" lon="3.09258">
        <ele>1345</ele>
        <time>2013-07-22T13:23:09Z</time>
      </trkpt>
      <trkpt lat="44.57613" lon="3.09266">
        <ele>1343</ele>
        <time>2013-07-22T13:23:24Z</time>
      </trkpt>
      <trkpt lat="44.57613" lon="3.09273">
        <ele>1342</ele>
        <time>2013-07-22T13:23:30Z</time>
      </trkpt>
      <trkpt lat="44.57613" lon="3.0928">
        <ele>1340</ele>
        <time>2013-07-22T13:23:37Z</time>
      </trkpt>
      <trkpt lat="44.57614" lon="3.09287">
        <ele>1339</ele>
        <time>2013-07-22T13:23:42Z</time>
      </trkpt>
      <trkpt lat="44.57613" lon="3.09295">
        <ele>1338</ele>
        <time>2013-07-22T13:23:47Z</time>
      </trkpt>
      <trkpt lat="44.57612" lon="3.09303">
        <ele>1338</ele>
        <time>2013-07-22T13:23:52Z</time>
      </trkpt>
      <trkpt lat="44.57612" lon="3.09311">
        <ele>1338</ele>
        <time>2013-07-22T13:23:56Z</time>
      </trkpt>
      <trkpt lat="44.57612" lon="3.09325">
        <ele>1336</ele>
        <time>2013-07-22T13:24:03Z</time>
      </trkpt>
      <trkpt lat="44.57614" lon="3.09334">
        <ele>1335</ele>
        <time>2013-07-22T13:24:07Z</time>
      </trkpt>
      <trkpt lat="44.57617" lon="3.0934">
        <ele>1335</ele>
        <time>2013-07-22T13:24:11Z</time>
      </trkpt>
      <trkpt lat="44.5762" lon="3.09348">
        <ele>1335</ele>
        <time>2013-07-22T13:24:16Z</time>
      </trkpt>
      <trkpt lat="44.57627" lon="3.09358">
        <ele>1335</ele>
        <time>2013-07-22T13:24:25Z</time>
      </trkpt>
      <trkpt lat="44.57629" lon="3.09363">
        <ele>1336</ele>
        <time>2013-07-22T13:24:28Z</time>
      </trkpt>
      <trkpt lat="44.57633" lon="3.09366">
        <ele>1336</ele>
        <time>2013-07-22T13:24:31Z</time>
      </trkpt>
      <trkpt lat="44.57639" lon="3.09369">
        <ele>1338</ele>
        <time>2013-07-22T13:24:49Z</time>
      </trkpt>
      <trkpt lat="44.57637" lon="3.09371">
        <ele>1337</ele>
        <time>2013-07-22T13:25:43Z</time>
      </trkpt>
      <trkpt lat="44.57634" lon="3.0936">
        <ele>1338</ele>
        <time>2013-07-22T13:26:06Z</time>
      </trkpt>
      <trkpt lat="44.57633" lon="3.09364">
        <ele>1339</ele>
        <time>2013-07-22T13:31:24Z</time>
      </trkpt>
      <trkpt lat="44.57629" lon="3.0936">
        <ele>1339</ele>
        <time>2013-07-22T13:31:29Z</time>
      </trkpt>
      <trkpt lat="44.57624" lon="3.09356">
        <ele>1339</ele>
        <time>2013-07-22T13:31:35Z</time>
      </trkpt>
      <trkpt lat="44.5762" lon="3.09352">
        <ele>1340</ele>
        <time>2013-07-22T13:31:40Z</time>
      </trkpt>
      <trkpt lat="44.57615" lon="3.09347">
        <ele>1340</ele>
        <time>2013-07-22T13:31:48Z</time>
      </trkpt>
      <trkpt lat="44.57612" lon="3.09342">
        <ele>1340</ele>
        <time>2013-07-22T13:31:51Z</time>
      </trkpt>
      <trkpt lat="44.57607" lon="3.0934">
        <ele>1340</ele>
        <time>2013-07-22T13:31:56Z</time>
      </trkpt>
      <trkpt lat="44.57603" lon="3.09353">
        <ele>1339</ele>
        <time>2013-07-22T13:32:06Z</time>
      </trkpt>
      <trkpt lat="44.57602" lon="3.0936">
        <ele>1338</ele>
        <time>2013-07-22T13:32:11Z</time>
      </trkpt>
      <trkpt lat="44.57603" lon="3.09366">
        <ele>1337</ele>
        <time>2013-07-22T13:32:16Z</time>
      </trkpt>
      <trkpt lat="44.57605" lon="3.09373">
        <ele>1335</ele>
        <time>2013-07-22T13:32:20Z</time>
      </trkpt>
      <trkpt lat="44.57607" lon="3.09382">
        <ele>1335</ele>
        <time>2013-07-22T13:32:25Z</time>
      </trkpt>
      <trkpt lat="44.57607" lon="3.0939">
        <ele>1336</ele>
        <time>2013-07-22T13:32:29Z</time>
      </trkpt>
      <trkpt lat="44.57605" lon="3.09396">
        <ele>1336</ele>
        <time>2013-07-22T13:32:32Z</time>
      </trkpt>
      <trkpt lat="44.57602" lon="3.09403">
        <ele>1336</ele>
        <time>2013-07-22T13:32:36Z</time>
      </trkpt>
      <trkpt lat="44.57599" lon="3.0941">
        <ele>1336</ele>
        <time>2013-07-22T13:32:40Z</time>
      </trkpt>
      <trkpt lat="44.57596" lon="3.09417">
        <ele>1336</ele>
        <time>2013-07-22T13:32:45Z</time>
      </trkpt>
      <trkpt lat="44.57593" lon="3.09422">
        <ele>1335</ele>
        <time>2013-07-22T13:32:48Z</time>
      </trkpt>
      <trkpt lat="44.57591" lon="3.09429">
        <ele>1335</ele>
        <time>2013-07-22T13:32:52Z</time>
      </trkpt>
      <trkpt lat="44.57589" lon="3.09437">
        <ele>1335</ele>
        <time>2013-07-22T13:32:56Z</time>
      </trkpt>
      <trkpt lat="44.57588" lon="3.09444">
        <ele>1334</ele>
        <time>2013-07-22T13:33:00Z</time>
      </trkpt>
      <trkpt lat="44.57586" lon="3.09451">
        <ele>1333</ele>
        <time>2013-07-22T13:33:04Z</time>
      </trkpt>
      <trkpt lat="44.57585" lon="3.09458">
        <ele>1333</ele>
        <time>2013-07-22T13:33:08Z</time>
      </trkpt>
      <trkpt lat="44.57583" lon="3.09466">
        <ele>1332</ele>
        <time>2013-07-22T13:33:12Z</time>
      </trkpt>
      <trkpt lat="44.57583" lon="3.09474">
        <ele>1331</ele>
        <time>2013-07-22T13:33:17Z</time>
      </trkpt>
      <trkpt lat="44.57583" lon="3.09481">
        <ele>1330</ele>
        <time>2013-07-22T13:33:22Z</time>
      </trkpt>
      <trkpt lat="44.57584" lon="3.09489">
        <ele>1331</ele>
        <time>2013-07-22T13:33:26Z</time>
      </trkpt>
      <trkpt lat="44.57584" lon="3.09496">
        <ele>1330</ele>
        <time>2013-07-22T13:33:30Z</time>
      </trkpt>
      <trkpt lat="44.57585" lon="3.09502">
        <ele>1329</ele>
        <time>2013-07-22T13:33:34Z</time>
      </trkpt>
      <trkpt lat="44.57585" lon="3.09509">
        <ele>1329</ele>
        <time>2013-07-22T13:33:37Z</time>
      </trkpt>
      <trkpt lat="44.57586" lon="3.09517">
        <ele>1329</ele>
        <time>2013-07-22T13:33:41Z</time>
      </trkpt>
      <trkpt lat="44.57587" lon="3.09525">
        <ele>1328</ele>
        <time>2013-07-22T13:33:45Z</time>
      </trkpt>
      <trkpt lat="44.57586" lon="3.09532">
        <ele>1327</ele>
        <time>2013-07-22T13:33:49Z</time>
      </trkpt>
      <trkpt lat="44.57584" lon="3.0954">
        <ele>1326</ele>
        <time>2013-07-22T13:33:53Z</time>
      </trkpt>
      <trkpt lat="44.57583" lon="3.09547">
        <ele>1326</ele>
        <time>2013-07-22T13:33:58Z</time>
      </trkpt>
      <trkpt lat="44.57584" lon="3.09554">
        <ele>1326</ele>
        <time>2013-07-22T13:34:02Z</time>
      </trkpt>
      <trkpt lat="44.57584" lon="3.09562">
        <ele>1327</ele>
        <time>2013-07-22T13:34:06Z</time>
      </trkpt>
      <trkpt lat="44.57584" lon="3.09569">
        <ele>1326</ele>
        <time>2013-07-22T13:34:09Z</time>
      </trkpt>
      <trkpt lat="44.57585" lon="3.09577">
        <ele>1326</ele>
        <time>2013-07-22T13:34:13Z</time>
      </trkpt>
      <trkpt lat="44.57587" lon="3.09585">
        <ele>1325</ele>
        <time>2013-07-22T13:34:18Z</time>
      </trkpt>
      <trkpt lat="44.57588" lon="3.09592">
        <ele>1324</ele>
        <time>2013-07-22T13:34:23Z</time>
      </trkpt>
      <trkpt lat="44.5759" lon="3.09598">
        <ele>1325</ele>
        <time>2013-07-22T13:34:27Z</time>
      </trkpt>
    </trkseg>
  </trk>
</gpx>